<?xml version="1.0" encoding="UTF-8" standalone="no" ?><gpx xmlns="http://www.topografix.com/GPX/1/1" xmlns:gpxx="http://www.garmin.com/xmlschemas/GpxExtensions/v3" xmlns:wptx1="http://www.garmin.com/xmlschemas/WaypointExtension/v1" xmlns:gpxtpx="http://www.garmin.com/xmlschemas/TrackPointExtension/v1" creator="GuideVTT.com" version="1.1" xmlns:xsi="http://www.w3.org/2001/XMLSchema-instance" xsi:schemaLocation="http://www.topografix.com/GPX/1/1 http://www.topografix.com/GPX/1/1/gpx.xsd http://www.garmin.com/xmlschemas/GpxExtensions/v3 http://www8.garmin.com/xmlschemas/GpxExtensionsv3.xsd http://www.garmin.com/xmlschemas/WaypointExtension/v1 http://www8.garmin.com/xmlschemas/WaypointExtensionv1.xsd http://www.garmin.com/xmlschemas/TrackPointExtension/v1 http://www.garmin.com/xmlschemas/TrackPointExtensionv1.xsd">
<metadata><link href="http://www.garmin.com"><text>Garmin International</text></link><time>2013-06-22T15:13:50Z</time></metadata>
<trk><name>2017-08-27-12-17-10.gpx</name><extensions><gpxx:TrackExtension><gpxx:DisplayColor>Cyan</gpxx:DisplayColor></gpxx:TrackExtension></extensions><trkseg>
<trkpt lat="46.47285" lon="6.32128"><ele></ele><time>2017-9-5T2:10:44Z</time></trkpt>
<trkpt lat="46.47285" lon="6.32128"><ele></ele><time>2017-9-5T2:10:47Z</time></trkpt>
<trkpt lat="46.47285" lon="6.32124"><ele></ele><time>2017-9-5T2:10:50Z</time></trkpt>
<trkpt lat="46.47286" lon="6.32097"><ele></ele><time>2017-9-5T2:10:53Z</time></trkpt>
<trkpt lat="46.47286" lon="6.3209"><ele></ele><time>2017-9-5T2:10:56Z</time></trkpt>
<trkpt lat="46.47291" lon="6.32049"><ele></ele><time>2017-9-5T2:10:59Z</time></trkpt>
<trkpt lat="46.4729" lon="6.32022"><ele></ele><time>2017-9-5T2:11:2Z</time></trkpt>
<trkpt lat="46.47287" lon="6.32005"><ele></ele><time>2017-9-5T2:11:5Z</time></trkpt>
<trkpt lat="46.47275" lon="6.31984"><ele></ele><time>2017-9-5T2:11:8Z</time></trkpt>
<trkpt lat="46.47264" lon="6.31973"><ele></ele><time>2017-9-5T2:11:11Z</time></trkpt>
<trkpt lat="46.47258" lon="6.31969"><ele></ele><time>2017-9-5T2:11:14Z</time></trkpt>
<trkpt lat="46.47219" lon="6.31961"><ele></ele><time>2017-9-5T2:11:17Z</time></trkpt>
<trkpt lat="46.4721" lon="6.3196"><ele></ele><time>2017-9-5T2:11:20Z</time></trkpt>
<trkpt lat="46.47183" lon="6.31956"><ele></ele><time>2017-9-5T2:11:23Z</time></trkpt>
<trkpt lat="46.47168" lon="6.31955"><ele></ele><time>2017-9-5T2:11:26Z</time></trkpt>
<trkpt lat="46.47156" lon="6.31952"><ele></ele><time>2017-9-5T2:11:29Z</time></trkpt>
<trkpt lat="46.4715" lon="6.31947"><ele></ele><time>2017-9-5T2:11:32Z</time></trkpt>
<trkpt lat="46.47144" lon="6.31932"><ele></ele><time>2017-9-5T2:11:35Z</time></trkpt>
<trkpt lat="46.47141" lon="6.31925"><ele></ele><time>2017-9-5T2:11:38Z</time></trkpt>
<trkpt lat="46.47139" lon="6.31918"><ele></ele><time>2017-9-5T2:11:41Z</time></trkpt>
<trkpt lat="46.47135" lon="6.31908"><ele></ele><time>2017-9-5T2:11:44Z</time></trkpt>
<trkpt lat="46.47134" lon="6.31905"><ele></ele><time>2017-9-5T2:11:47Z</time></trkpt>
<trkpt lat="46.47133" lon="6.31901"><ele></ele><time>2017-9-5T2:11:50Z</time></trkpt>
<trkpt lat="46.47132" lon="6.31898"><ele></ele><time>2017-9-5T2:11:53Z</time></trkpt>
<trkpt lat="46.47107" lon="6.31826"><ele></ele><time>2017-9-5T2:11:56Z</time></trkpt>
<trkpt lat="46.47089" lon="6.31766"><ele></ele><time>2017-9-5T2:11:59Z</time></trkpt>
<trkpt lat="46.47077" lon="6.31724"><ele></ele><time>2017-9-5T2:12:2Z</time></trkpt>
<trkpt lat="46.47078" lon="6.31708"><ele></ele><time>2017-9-5T2:12:5Z</time></trkpt>
<trkpt lat="46.47079" lon="6.31707"><ele></ele><time>2017-9-5T2:12:8Z</time></trkpt>
<trkpt lat="46.47081" lon="6.31705"><ele></ele><time>2017-9-5T2:12:11Z</time></trkpt>
<trkpt lat="46.47079" lon="6.31707"><ele></ele><time>2017-9-5T2:12:14Z</time></trkpt>
<trkpt lat="46.47072" lon="6.31714"><ele></ele><time>2017-9-5T2:12:17Z</time></trkpt>
<trkpt lat="46.47072" lon="6.31716"><ele></ele><time>2017-9-5T2:12:20Z</time></trkpt>
<trkpt lat="46.47077" lon="6.31714"><ele></ele><time>2017-9-5T2:12:23Z</time></trkpt>
<trkpt lat="46.47083" lon="6.31705"><ele></ele><time>2017-9-5T2:12:26Z</time></trkpt>
<trkpt lat="46.47086" lon="6.317"><ele></ele><time>2017-9-5T2:12:29Z</time></trkpt>
<trkpt lat="46.47095" lon="6.31689"><ele></ele><time>2017-9-5T2:12:32Z</time></trkpt>
<trkpt lat="46.47099" lon="6.31684"><ele></ele><time>2017-9-5T2:12:35Z</time></trkpt>
<trkpt lat="46.47106" lon="6.31674"><ele></ele><time>2017-9-5T2:12:38Z</time></trkpt>
<trkpt lat="46.47108" lon="6.31671"><ele></ele><time>2017-9-5T2:12:41Z</time></trkpt>
<trkpt lat="46.47113" lon="6.3166"><ele></ele><time>2017-9-5T2:12:44Z</time></trkpt>
<trkpt lat="46.47116" lon="6.31649"><ele></ele><time>2017-9-5T2:12:47Z</time></trkpt>
<trkpt lat="46.47118" lon="6.31637"><ele></ele><time>2017-9-5T2:12:50Z</time></trkpt>
<trkpt lat="46.47118" lon="6.31633"><ele></ele><time>2017-9-5T2:12:53Z</time></trkpt>
<trkpt lat="46.47119" lon="6.3162"><ele></ele><time>2017-9-5T2:12:56Z</time></trkpt>
<trkpt lat="46.4712" lon="6.31605"><ele></ele><time>2017-9-5T2:12:59Z</time></trkpt>
<trkpt lat="46.47123" lon="6.31582"><ele></ele><time>2017-9-5T2:13:2Z</time></trkpt>
<trkpt lat="46.47132" lon="6.31562"><ele></ele><time>2017-9-5T2:13:5Z</time></trkpt>
<trkpt lat="46.47134" lon="6.31556"><ele></ele><time>2017-9-5T2:13:8Z</time></trkpt>
<trkpt lat="46.47132" lon="6.31551"><ele></ele><time>2017-9-5T2:13:11Z</time></trkpt>
<trkpt lat="46.47122" lon="6.31524"><ele></ele><time>2017-9-5T2:13:14Z</time></trkpt>
<trkpt lat="46.47121" lon="6.31516"><ele></ele><time>2017-9-5T2:13:17Z</time></trkpt>
<trkpt lat="46.47121" lon="6.31509"><ele></ele><time>2017-9-5T2:13:20Z</time></trkpt>
<trkpt lat="46.47121" lon="6.31503"><ele></ele><time>2017-9-5T2:13:23Z</time></trkpt>
<trkpt lat="46.47123" lon="6.31496"><ele></ele><time>2017-9-5T2:13:26Z</time></trkpt>
<trkpt lat="46.47125" lon="6.31493"><ele></ele><time>2017-9-5T2:13:29Z</time></trkpt>
<trkpt lat="46.47127" lon="6.3149"><ele></ele><time>2017-9-5T2:13:32Z</time></trkpt>
<trkpt lat="46.47132" lon="6.31482"><ele></ele><time>2017-9-5T2:13:35Z</time></trkpt>
<trkpt lat="46.47137" lon="6.31475"><ele></ele><time>2017-9-5T2:13:38Z</time></trkpt>
<trkpt lat="46.47139" lon="6.31471"><ele></ele><time>2017-9-5T2:13:41Z</time></trkpt>
<trkpt lat="46.47142" lon="6.31467"><ele></ele><time>2017-9-5T2:13:44Z</time></trkpt>
<trkpt lat="46.47148" lon="6.31459"><ele></ele><time>2017-9-5T2:13:47Z</time></trkpt>
<trkpt lat="46.4715" lon="6.31454"><ele></ele><time>2017-9-5T2:13:50Z</time></trkpt>
<trkpt lat="46.47153" lon="6.31449"><ele></ele><time>2017-9-5T2:13:53Z</time></trkpt>
<trkpt lat="46.47159" lon="6.31439"><ele></ele><time>2017-9-5T2:13:56Z</time></trkpt>
<trkpt lat="46.47164" lon="6.3143"><ele></ele><time>2017-9-5T2:13:59Z</time></trkpt>
<trkpt lat="46.47166" lon="6.31426"><ele></ele><time>2017-9-5T2:14:2Z</time></trkpt>
<trkpt lat="46.47168" lon="6.31422"><ele></ele><time>2017-9-5T2:14:5Z</time></trkpt>
<trkpt lat="46.4717" lon="6.31413"><ele></ele><time>2017-9-5T2:14:8Z</time></trkpt>
<trkpt lat="46.47167" lon="6.31406"><ele></ele><time>2017-9-5T2:14:11Z</time></trkpt>
<trkpt lat="46.47165" lon="6.31403"><ele></ele><time>2017-9-5T2:14:14Z</time></trkpt>
<trkpt lat="46.47163" lon="6.314"><ele></ele><time>2017-9-5T2:14:17Z</time></trkpt>
<trkpt lat="46.47159" lon="6.31396"><ele></ele><time>2017-9-5T2:14:20Z</time></trkpt>
<trkpt lat="46.47156" lon="6.31395"><ele></ele><time>2017-9-5T2:14:23Z</time></trkpt>
<trkpt lat="46.47155" lon="6.31394"><ele></ele><time>2017-9-5T2:14:26Z</time></trkpt>
<trkpt lat="46.47151" lon="6.31391"><ele></ele><time>2017-9-5T2:14:29Z</time></trkpt>
<trkpt lat="46.47147" lon="6.3139"><ele></ele><time>2017-9-5T2:14:32Z</time></trkpt>
<trkpt lat="46.47142" lon="6.3139"><ele></ele><time>2017-9-5T2:14:35Z</time></trkpt>
<trkpt lat="46.47136" lon="6.3139"><ele></ele><time>2017-9-5T2:14:38Z</time></trkpt>
<trkpt lat="46.47129" lon="6.31391"><ele></ele><time>2017-9-5T2:14:41Z</time></trkpt>
<trkpt lat="46.47121" lon="6.31391"><ele></ele><time>2017-9-5T2:14:44Z</time></trkpt>
<trkpt lat="46.47112" lon="6.3139"><ele></ele><time>2017-9-5T2:14:47Z</time></trkpt>
<trkpt lat="46.47101" lon="6.31388"><ele></ele><time>2017-9-5T2:14:50Z</time></trkpt>
<trkpt lat="46.47096" lon="6.31388"><ele></ele><time>2017-9-5T2:14:53Z</time></trkpt>
<trkpt lat="46.4709" lon="6.31386"><ele></ele><time>2017-9-5T2:14:56Z</time></trkpt>
<trkpt lat="46.47079" lon="6.31383"><ele></ele><time>2017-9-5T2:14:59Z</time></trkpt>
<trkpt lat="46.4707" lon="6.31379"><ele></ele><time>2017-9-5T2:15:2Z</time></trkpt>
<trkpt lat="46.47064" lon="6.31371"><ele></ele><time>2017-9-5T2:15:5Z</time></trkpt>
<trkpt lat="46.47063" lon="6.31366"><ele></ele><time>2017-9-5T2:15:8Z</time></trkpt>
<trkpt lat="46.47061" lon="6.31362"><ele></ele><time>2017-9-5T2:15:11Z</time></trkpt>
<trkpt lat="46.47056" lon="6.31352"><ele></ele><time>2017-9-5T2:15:14Z</time></trkpt>
<trkpt lat="46.47052" lon="6.31343"><ele></ele><time>2017-9-5T2:15:17Z</time></trkpt>
<trkpt lat="46.47048" lon="6.31334"><ele></ele><time>2017-9-5T2:15:20Z</time></trkpt>
<trkpt lat="46.47047" lon="6.31329"><ele></ele><time>2017-9-5T2:15:23Z</time></trkpt>
<trkpt lat="46.47042" lon="6.31316"><ele></ele><time>2017-9-5T2:15:26Z</time></trkpt>
<trkpt lat="46.47038" lon="6.31308"><ele></ele><time>2017-9-5T2:15:29Z</time></trkpt>
<trkpt lat="46.47035" lon="6.31301"><ele></ele><time>2017-9-5T2:15:32Z</time></trkpt>
<trkpt lat="46.47033" lon="6.31294"><ele></ele><time>2017-9-5T2:15:35Z</time></trkpt>
<trkpt lat="46.47031" lon="6.31291"><ele></ele><time>2017-9-5T2:15:38Z</time></trkpt>
<trkpt lat="46.4703" lon="6.31288"><ele></ele><time>2017-9-5T2:15:41Z</time></trkpt>
<trkpt lat="46.47028" lon="6.31281"><ele></ele><time>2017-9-5T2:15:44Z</time></trkpt>
<trkpt lat="46.47025" lon="6.31274"><ele></ele><time>2017-9-5T2:15:47Z</time></trkpt>
<trkpt lat="46.47024" lon="6.31271"><ele></ele><time>2017-9-5T2:15:50Z</time></trkpt>
<trkpt lat="46.47023" lon="6.31268"><ele></ele><time>2017-9-5T2:15:53Z</time></trkpt>
<trkpt lat="46.4702" lon="6.31262"><ele></ele><time>2017-9-5T2:15:56Z</time></trkpt>
<trkpt lat="46.47018" lon="6.31256"><ele></ele><time>2017-9-5T2:15:59Z</time></trkpt>
<trkpt lat="46.47016" lon="6.31253"><ele></ele><time>2017-9-5T2:16:2Z</time></trkpt>
<trkpt lat="46.47015" lon="6.3125"><ele></ele><time>2017-9-5T2:16:5Z</time></trkpt>
<trkpt lat="46.47013" lon="6.31244"><ele></ele><time>2017-9-5T2:16:8Z</time></trkpt>
<trkpt lat="46.47011" lon="6.31238"><ele></ele><time>2017-9-5T2:16:11Z</time></trkpt>
<trkpt lat="46.47008" lon="6.31232"><ele></ele><time>2017-9-5T2:16:14Z</time></trkpt>
<trkpt lat="46.47007" lon="6.31227"><ele></ele><time>2017-9-5T2:16:17Z</time></trkpt>
<trkpt lat="46.47005" lon="6.31221"><ele></ele><time>2017-9-5T2:16:20Z</time></trkpt>
<trkpt lat="46.47004" lon="6.31216"><ele></ele><time>2017-9-5T2:16:23Z</time></trkpt>
<trkpt lat="46.47004" lon="6.31209"><ele></ele><time>2017-9-5T2:16:26Z</time></trkpt>
<trkpt lat="46.47004" lon="6.31204"><ele></ele><time>2017-9-5T2:16:29Z</time></trkpt>
<trkpt lat="46.47004" lon="6.31198"><ele></ele><time>2017-9-5T2:16:32Z</time></trkpt>
<trkpt lat="46.47005" lon="6.31193"><ele></ele><time>2017-9-5T2:16:35Z</time></trkpt>
<trkpt lat="46.47006" lon="6.31188"><ele></ele><time>2017-9-5T2:16:38Z</time></trkpt>
<trkpt lat="46.47006" lon="6.31183"><ele></ele><time>2017-9-5T2:16:41Z</time></trkpt>
<trkpt lat="46.47007" lon="6.31178"><ele></ele><time>2017-9-5T2:16:44Z</time></trkpt>
<trkpt lat="46.47008" lon="6.31173"><ele></ele><time>2017-9-5T2:16:47Z</time></trkpt>
<trkpt lat="46.47009" lon="6.31168"><ele></ele><time>2017-9-5T2:16:50Z</time></trkpt>
<trkpt lat="46.4701" lon="6.31163"><ele></ele><time>2017-9-5T2:16:53Z</time></trkpt>
<trkpt lat="46.47011" lon="6.31158"><ele></ele><time>2017-9-5T2:16:56Z</time></trkpt>
<trkpt lat="46.47012" lon="6.31155"><ele></ele><time>2017-9-5T2:16:59Z</time></trkpt>
<trkpt lat="46.47012" lon="6.31153"><ele></ele><time>2017-9-5T2:17:2Z</time></trkpt>
<trkpt lat="46.47013" lon="6.31148"><ele></ele><time>2017-9-5T2:17:5Z</time></trkpt>
<trkpt lat="46.47013" lon="6.31146"><ele></ele><time>2017-9-5T2:17:8Z</time></trkpt>
<trkpt lat="46.47013" lon="6.31144"><ele></ele><time>2017-9-5T2:17:11Z</time></trkpt>
<trkpt lat="46.47014" lon="6.31139"><ele></ele><time>2017-9-5T2:17:14Z</time></trkpt>
<trkpt lat="46.47014" lon="6.31136"><ele></ele><time>2017-9-5T2:17:17Z</time></trkpt>
<trkpt lat="46.47014" lon="6.31134"><ele></ele><time>2017-9-5T2:17:20Z</time></trkpt>
<trkpt lat="46.47015" lon="6.31131"><ele></ele><time>2017-9-5T2:17:23Z</time></trkpt>
<trkpt lat="46.47015" lon="6.31126"><ele></ele><time>2017-9-5T2:17:26Z</time></trkpt>
<trkpt lat="46.47014" lon="6.31124"><ele></ele><time>2017-9-5T2:17:29Z</time></trkpt>
<trkpt lat="46.47013" lon="6.31119"><ele></ele><time>2017-9-5T2:17:32Z</time></trkpt>
<trkpt lat="46.47013" lon="6.31115"><ele></ele><time>2017-9-5T2:17:35Z</time></trkpt>
<trkpt lat="46.47012" lon="6.31111"><ele></ele><time>2017-9-5T2:17:38Z</time></trkpt>
<trkpt lat="46.47011" lon="6.31106"><ele></ele><time>2017-9-5T2:17:41Z</time></trkpt>
<trkpt lat="46.47011" lon="6.31104"><ele></ele><time>2017-9-5T2:17:44Z</time></trkpt>
<trkpt lat="46.47011" lon="6.31102"><ele></ele><time>2017-9-5T2:17:47Z</time></trkpt>
<trkpt lat="46.47011" lon="6.311"><ele></ele><time>2017-9-5T2:17:50Z</time></trkpt>
<trkpt lat="46.47011" lon="6.311"><ele></ele><time>2017-9-5T2:17:53Z</time></trkpt>
<trkpt lat="46.47014" lon="6.31095"><ele></ele><time>2017-9-5T2:17:56Z</time></trkpt>
<trkpt lat="46.47016" lon="6.31092"><ele></ele><time>2017-9-5T2:17:59Z</time></trkpt>
<trkpt lat="46.47017" lon="6.31088"><ele></ele><time>2017-9-5T2:18:2Z</time></trkpt>
<trkpt lat="46.47019" lon="6.31085"><ele></ele><time>2017-9-5T2:18:5Z</time></trkpt>
<trkpt lat="46.47021" lon="6.31082"><ele></ele><time>2017-9-5T2:18:8Z</time></trkpt>
<trkpt lat="46.47022" lon="6.31079"><ele></ele><time>2017-9-5T2:18:11Z</time></trkpt>
<trkpt lat="46.47024" lon="6.31076"><ele></ele><time>2017-9-5T2:18:14Z</time></trkpt>
<trkpt lat="46.47025" lon="6.31074"><ele></ele><time>2017-9-5T2:18:17Z</time></trkpt>
<trkpt lat="46.47026" lon="6.31073"><ele></ele><time>2017-9-5T2:18:20Z</time></trkpt>
<trkpt lat="46.47028" lon="6.3107"><ele></ele><time>2017-9-5T2:18:23Z</time></trkpt>
<trkpt lat="46.4703" lon="6.31066"><ele></ele><time>2017-9-5T2:18:26Z</time></trkpt>
<trkpt lat="46.47032" lon="6.31063"><ele></ele><time>2017-9-5T2:18:29Z</time></trkpt>
<trkpt lat="46.47034" lon="6.3106"><ele></ele><time>2017-9-5T2:18:32Z</time></trkpt>
<trkpt lat="46.47036" lon="6.31058"><ele></ele><time>2017-9-5T2:18:35Z</time></trkpt>
<trkpt lat="46.47038" lon="6.31056"><ele></ele><time>2017-9-5T2:18:38Z</time></trkpt>
<trkpt lat="46.47039" lon="6.31054"><ele></ele><time>2017-9-5T2:18:41Z</time></trkpt>
<trkpt lat="46.47041" lon="6.31053"><ele></ele><time>2017-9-5T2:18:44Z</time></trkpt>
<trkpt lat="46.47043" lon="6.3105"><ele></ele><time>2017-9-5T2:18:47Z</time></trkpt>
<trkpt lat="46.47044" lon="6.31049"><ele></ele><time>2017-9-5T2:18:50Z</time></trkpt>
<trkpt lat="46.47045" lon="6.31048"><ele></ele><time>2017-9-5T2:18:53Z</time></trkpt>
<trkpt lat="46.47047" lon="6.31045"><ele></ele><time>2017-9-5T2:18:56Z</time></trkpt>
<trkpt lat="46.47049" lon="6.31044"><ele></ele><time>2017-9-5T2:18:59Z</time></trkpt>
<trkpt lat="46.4705" lon="6.31043"><ele></ele><time>2017-9-5T2:19:2Z</time></trkpt>
<trkpt lat="46.47052" lon="6.3104"><ele></ele><time>2017-9-5T2:19:5Z</time></trkpt>
<trkpt lat="46.47055" lon="6.31038"><ele></ele><time>2017-9-5T2:19:8Z</time></trkpt>
<trkpt lat="46.47056" lon="6.31037"><ele></ele><time>2017-9-5T2:19:11Z</time></trkpt>
<trkpt lat="46.47057" lon="6.31036"><ele></ele><time>2017-9-5T2:19:14Z</time></trkpt>
<trkpt lat="46.4706" lon="6.31034"><ele></ele><time>2017-9-5T2:19:17Z</time></trkpt>
<trkpt lat="46.47061" lon="6.31033"><ele></ele><time>2017-9-5T2:19:20Z</time></trkpt>
<trkpt lat="46.47062" lon="6.31032"><ele></ele><time>2017-9-5T2:19:23Z</time></trkpt>
<trkpt lat="46.47065" lon="6.3103"><ele></ele><time>2017-9-5T2:19:26Z</time></trkpt>
<trkpt lat="46.47067" lon="6.31028"><ele></ele><time>2017-9-5T2:19:29Z</time></trkpt>
<trkpt lat="46.47068" lon="6.31027"><ele></ele><time>2017-9-5T2:19:32Z</time></trkpt>
<trkpt lat="46.4707" lon="6.31026"><ele></ele><time>2017-9-5T2:19:35Z</time></trkpt>
<trkpt lat="46.47072" lon="6.31023"><ele></ele><time>2017-9-5T2:19:38Z</time></trkpt>
<trkpt lat="46.47074" lon="6.31021"><ele></ele><time>2017-9-5T2:19:41Z</time></trkpt>
<trkpt lat="46.47076" lon="6.3102"><ele></ele><time>2017-9-5T2:19:44Z</time></trkpt>
<trkpt lat="46.47077" lon="6.31018"><ele></ele><time>2017-9-5T2:19:47Z</time></trkpt>
<trkpt lat="46.47079" lon="6.31016"><ele></ele><time>2017-9-5T2:19:50Z</time></trkpt>
<trkpt lat="46.47082" lon="6.31013"><ele></ele><time>2017-9-5T2:19:53Z</time></trkpt>
<trkpt lat="46.47083" lon="6.31012"><ele></ele><time>2017-9-5T2:19:56Z</time></trkpt>
<trkpt lat="46.47084" lon="6.31011"><ele></ele><time>2017-9-5T2:19:59Z</time></trkpt>
<trkpt lat="46.47086" lon="6.31009"><ele></ele><time>2017-9-5T2:20:2Z</time></trkpt>
<trkpt lat="46.47089" lon="6.31007"><ele></ele><time>2017-9-5T2:20:5Z</time></trkpt>
<trkpt lat="46.4709" lon="6.31006"><ele></ele><time>2017-9-5T2:20:8Z</time></trkpt>
<trkpt lat="46.47091" lon="6.31004"><ele></ele><time>2017-9-5T2:20:11Z</time></trkpt>
<trkpt lat="46.47093" lon="6.31002"><ele></ele><time>2017-9-5T2:20:14Z</time></trkpt>
<trkpt lat="46.47096" lon="6.30999"><ele></ele><time>2017-9-5T2:20:17Z</time></trkpt>
<trkpt lat="46.47098" lon="6.30998"><ele></ele><time>2017-9-5T2:20:20Z</time></trkpt>
<trkpt lat="46.471" lon="6.30996"><ele></ele><time>2017-9-5T2:20:23Z</time></trkpt>
<trkpt lat="46.47101" lon="6.30995"><ele></ele><time>2017-9-5T2:20:26Z</time></trkpt>
<trkpt lat="46.47105" lon="6.30992"><ele></ele><time>2017-9-5T2:20:29Z</time></trkpt>
<trkpt lat="46.47108" lon="6.3099"><ele></ele><time>2017-9-5T2:20:32Z</time></trkpt>
<trkpt lat="46.4711" lon="6.30988"><ele></ele><time>2017-9-5T2:20:35Z</time></trkpt>
<trkpt lat="46.47113" lon="6.30986"><ele></ele><time>2017-9-5T2:20:38Z</time></trkpt>
<trkpt lat="46.47115" lon="6.30984"><ele></ele><time>2017-9-5T2:20:41Z</time></trkpt>
<trkpt lat="46.47118" lon="6.30982"><ele></ele><time>2017-9-5T2:20:44Z</time></trkpt>
<trkpt lat="46.4712" lon="6.30979"><ele></ele><time>2017-9-5T2:20:47Z</time></trkpt>
<trkpt lat="46.47122" lon="6.30977"><ele></ele><time>2017-9-5T2:20:50Z</time></trkpt>
<trkpt lat="46.47124" lon="6.30976"><ele></ele><time>2017-9-5T2:20:53Z</time></trkpt>
<trkpt lat="46.47125" lon="6.30975"><ele></ele><time>2017-9-5T2:20:56Z</time></trkpt>
<trkpt lat="46.47126" lon="6.30972"><ele></ele><time>2017-9-5T2:20:59Z</time></trkpt>
<trkpt lat="46.47125" lon="6.3096"><ele></ele><time>2017-9-5T2:21:2Z</time></trkpt>
<trkpt lat="46.47124" lon="6.30959"><ele></ele><time>2017-9-5T2:21:5Z</time></trkpt>
<trkpt lat="46.4712" lon="6.30961"><ele></ele><time>2017-9-5T2:21:8Z</time></trkpt>
<trkpt lat="46.4712" lon="6.30966"><ele></ele><time>2017-9-5T2:21:11Z</time></trkpt>
<trkpt lat="46.47123" lon="6.30968"><ele></ele><time>2017-9-5T2:21:14Z</time></trkpt>
<trkpt lat="46.47127" lon="6.30968"><ele></ele><time>2017-9-5T2:21:17Z</time></trkpt>
<trkpt lat="46.4713" lon="6.30967"><ele></ele><time>2017-9-5T2:21:20Z</time></trkpt>
<trkpt lat="46.47133" lon="6.30965"><ele></ele><time>2017-9-5T2:21:23Z</time></trkpt>
<trkpt lat="46.47135" lon="6.30962"><ele></ele><time>2017-9-5T2:21:26Z</time></trkpt>
<trkpt lat="46.47136" lon="6.30957"><ele></ele><time>2017-9-5T2:21:29Z</time></trkpt>
<trkpt lat="46.47136" lon="6.30955"><ele></ele><time>2017-9-5T2:21:32Z</time></trkpt>
<trkpt lat="46.47136" lon="6.30952"><ele></ele><time>2017-9-5T2:21:35Z</time></trkpt>
<trkpt lat="46.47137" lon="6.30948"><ele></ele><time>2017-9-5T2:21:38Z</time></trkpt>
<trkpt lat="46.47136" lon="6.30943"><ele></ele><time>2017-9-5T2:21:41Z</time></trkpt>
<trkpt lat="46.47136" lon="6.30938"><ele></ele><time>2017-9-5T2:21:44Z</time></trkpt>
<trkpt lat="46.47135" lon="6.30936"><ele></ele><time>2017-9-5T2:21:47Z</time></trkpt>
<trkpt lat="46.47135" lon="6.30934"><ele></ele><time>2017-9-5T2:21:50Z</time></trkpt>
<trkpt lat="46.47135" lon="6.30929"><ele></ele><time>2017-9-5T2:21:53Z</time></trkpt>
<trkpt lat="46.47134" lon="6.30924"><ele></ele><time>2017-9-5T2:21:56Z</time></trkpt>
<trkpt lat="46.47133" lon="6.30919"><ele></ele><time>2017-9-5T2:21:59Z</time></trkpt>
<trkpt lat="46.47132" lon="6.30918"><ele></ele><time>2017-9-5T2:22:2Z</time></trkpt>
<trkpt lat="46.47132" lon="6.30912"><ele></ele><time>2017-9-5T2:22:5Z</time></trkpt>
<trkpt lat="46.47132" lon="6.30908"><ele></ele><time>2017-9-5T2:22:8Z</time></trkpt>
<trkpt lat="46.47132" lon="6.30904"><ele></ele><time>2017-9-5T2:22:11Z</time></trkpt>
<trkpt lat="46.47132" lon="6.30899"><ele></ele><time>2017-9-5T2:22:14Z</time></trkpt>
<trkpt lat="46.47131" lon="6.30895"><ele></ele><time>2017-9-5T2:22:17Z</time></trkpt>
<trkpt lat="46.4713" lon="6.30893"><ele></ele><time>2017-9-5T2:22:20Z</time></trkpt>
<trkpt lat="46.47129" lon="6.3089"><ele></ele><time>2017-9-5T2:22:23Z</time></trkpt>
<trkpt lat="46.47127" lon="6.30886"><ele></ele><time>2017-9-5T2:22:26Z</time></trkpt>
<trkpt lat="46.47125" lon="6.30882"><ele></ele><time>2017-9-5T2:22:29Z</time></trkpt>
<trkpt lat="46.47124" lon="6.30878"><ele></ele><time>2017-9-5T2:22:32Z</time></trkpt>
<trkpt lat="46.47122" lon="6.30873"><ele></ele><time>2017-9-5T2:22:35Z</time></trkpt>
<trkpt lat="46.47121" lon="6.30869"><ele></ele><time>2017-9-5T2:22:38Z</time></trkpt>
<trkpt lat="46.4712" lon="6.30865"><ele></ele><time>2017-9-5T2:22:41Z</time></trkpt>
<trkpt lat="46.47119" lon="6.3086"><ele></ele><time>2017-9-5T2:22:44Z</time></trkpt>
<trkpt lat="46.47118" lon="6.30858"><ele></ele><time>2017-9-5T2:22:47Z</time></trkpt>
<trkpt lat="46.47118" lon="6.30856"><ele></ele><time>2017-9-5T2:22:50Z</time></trkpt>
<trkpt lat="46.47117" lon="6.30852"><ele></ele><time>2017-9-5T2:22:53Z</time></trkpt>
<trkpt lat="46.47116" lon="6.30847"><ele></ele><time>2017-9-5T2:22:56Z</time></trkpt>
<trkpt lat="46.47116" lon="6.30845"><ele></ele><time>2017-9-5T2:22:59Z</time></trkpt>
<trkpt lat="46.47116" lon="6.30842"><ele></ele><time>2017-9-5T2:23:2Z</time></trkpt>
<trkpt lat="46.47116" lon="6.30838"><ele></ele><time>2017-9-5T2:23:5Z</time></trkpt>
<trkpt lat="46.47115" lon="6.30834"><ele></ele><time>2017-9-5T2:23:8Z</time></trkpt>
<trkpt lat="46.47115" lon="6.30829"><ele></ele><time>2017-9-5T2:23:11Z</time></trkpt>
<trkpt lat="46.47114" lon="6.30825"><ele></ele><time>2017-9-5T2:23:14Z</time></trkpt>
<trkpt lat="46.47113" lon="6.30821"><ele></ele><time>2017-9-5T2:23:17Z</time></trkpt>
<trkpt lat="46.47113" lon="6.30819"><ele></ele><time>2017-9-5T2:23:20Z</time></trkpt>
<trkpt lat="46.47112" lon="6.30817"><ele></ele><time>2017-9-5T2:23:23Z</time></trkpt>
<trkpt lat="46.47111" lon="6.30814"><ele></ele><time>2017-9-5T2:23:26Z</time></trkpt>
<trkpt lat="46.47111" lon="6.3081"><ele></ele><time>2017-9-5T2:23:29Z</time></trkpt>
<trkpt lat="46.4711" lon="6.30808"><ele></ele><time>2017-9-5T2:23:32Z</time></trkpt>
<trkpt lat="46.4711" lon="6.30807"><ele></ele><time>2017-9-5T2:23:35Z</time></trkpt>
<trkpt lat="46.47109" lon="6.30803"><ele></ele><time>2017-9-5T2:23:38Z</time></trkpt>
<trkpt lat="46.47108" lon="6.308"><ele></ele><time>2017-9-5T2:23:41Z</time></trkpt>
<trkpt lat="46.47107" lon="6.30796"><ele></ele><time>2017-9-5T2:23:44Z</time></trkpt>
<trkpt lat="46.47106" lon="6.30793"><ele></ele><time>2017-9-5T2:23:47Z</time></trkpt>
<trkpt lat="46.47106" lon="6.30789"><ele></ele><time>2017-9-5T2:23:50Z</time></trkpt>
<trkpt lat="46.47105" lon="6.30786"><ele></ele><time>2017-9-5T2:23:53Z</time></trkpt>
<trkpt lat="46.47104" lon="6.30782"><ele></ele><time>2017-9-5T2:23:56Z</time></trkpt>
<trkpt lat="46.47103" lon="6.3078"><ele></ele><time>2017-9-5T2:23:59Z</time></trkpt>
<trkpt lat="46.47102" lon="6.30773"><ele></ele><time>2017-9-5T2:24:2Z</time></trkpt>
<trkpt lat="46.47101" lon="6.3077"><ele></ele><time>2017-9-5T2:24:5Z</time></trkpt>
<trkpt lat="46.47101" lon="6.30766"><ele></ele><time>2017-9-5T2:24:8Z</time></trkpt>
<trkpt lat="46.47101" lon="6.30764"><ele></ele><time>2017-9-5T2:24:11Z</time></trkpt>
<trkpt lat="46.47101" lon="6.30763"><ele></ele><time>2017-9-5T2:24:14Z</time></trkpt>
<trkpt lat="46.47102" lon="6.30759"><ele></ele><time>2017-9-5T2:24:17Z</time></trkpt>
<trkpt lat="46.47102" lon="6.30757"><ele></ele><time>2017-9-5T2:24:20Z</time></trkpt>
<trkpt lat="46.47102" lon="6.3075"><ele></ele><time>2017-9-5T2:24:23Z</time></trkpt>
<trkpt lat="46.47101" lon="6.30746"><ele></ele><time>2017-9-5T2:24:26Z</time></trkpt>
<trkpt lat="46.47101" lon="6.30742"><ele></ele><time>2017-9-5T2:24:29Z</time></trkpt>
<trkpt lat="46.47101" lon="6.30738"><ele></ele><time>2017-9-5T2:24:32Z</time></trkpt>
<trkpt lat="46.471" lon="6.30735"><ele></ele><time>2017-9-5T2:24:35Z</time></trkpt>
<trkpt lat="46.471" lon="6.3073"><ele></ele><time>2017-9-5T2:24:38Z</time></trkpt>
<trkpt lat="46.47099" lon="6.30728"><ele></ele><time>2017-9-5T2:24:41Z</time></trkpt>
<trkpt lat="46.47099" lon="6.30726"><ele></ele><time>2017-9-5T2:24:44Z</time></trkpt>
<trkpt lat="46.47098" lon="6.30722"><ele></ele><time>2017-9-5T2:24:47Z</time></trkpt>
<trkpt lat="46.47097" lon="6.30718"><ele></ele><time>2017-9-5T2:24:50Z</time></trkpt>
<trkpt lat="46.47096" lon="6.30716"><ele></ele><time>2017-9-5T2:24:53Z</time></trkpt>
<trkpt lat="46.47095" lon="6.30714"><ele></ele><time>2017-9-5T2:24:56Z</time></trkpt>
<trkpt lat="46.47094" lon="6.3071"><ele></ele><time>2017-9-5T2:24:59Z</time></trkpt>
<trkpt lat="46.47092" lon="6.30706"><ele></ele><time>2017-9-5T2:25:2Z</time></trkpt>
<trkpt lat="46.47091" lon="6.30702"><ele></ele><time>2017-9-5T2:25:5Z</time></trkpt>
<trkpt lat="46.47089" lon="6.30698"><ele></ele><time>2017-9-5T2:25:8Z</time></trkpt>
<trkpt lat="46.47087" lon="6.30694"><ele></ele><time>2017-9-5T2:25:11Z</time></trkpt>
<trkpt lat="46.47085" lon="6.30691"><ele></ele><time>2017-9-5T2:25:14Z</time></trkpt>
<trkpt lat="46.47085" lon="6.30689"><ele></ele><time>2017-9-5T2:25:17Z</time></trkpt>
<trkpt lat="46.47084" lon="6.30687"><ele></ele><time>2017-9-5T2:25:20Z</time></trkpt>
<trkpt lat="46.47082" lon="6.30683"><ele></ele><time>2017-9-5T2:25:23Z</time></trkpt>
<trkpt lat="46.47081" lon="6.3068"><ele></ele><time>2017-9-5T2:25:26Z</time></trkpt>
<trkpt lat="46.4708" lon="6.30676"><ele></ele><time>2017-9-5T2:25:29Z</time></trkpt>
<trkpt lat="46.47079" lon="6.30672"><ele></ele><time>2017-9-5T2:25:32Z</time></trkpt>
<trkpt lat="46.47079" lon="6.30667"><ele></ele><time>2017-9-5T2:25:35Z</time></trkpt>
<trkpt lat="46.47079" lon="6.30665"><ele></ele><time>2017-9-5T2:25:38Z</time></trkpt>
<trkpt lat="46.47079" lon="6.30662"><ele></ele><time>2017-9-5T2:25:41Z</time></trkpt>
<trkpt lat="46.47079" lon="6.30658"><ele></ele><time>2017-9-5T2:25:44Z</time></trkpt>
<trkpt lat="46.47079" lon="6.30654"><ele></ele><time>2017-9-5T2:25:47Z</time></trkpt>
<trkpt lat="46.47079" lon="6.30652"><ele></ele><time>2017-9-5T2:25:50Z</time></trkpt>
<trkpt lat="46.47079" lon="6.3065"><ele></ele><time>2017-9-5T2:25:53Z</time></trkpt>
<trkpt lat="46.47079" lon="6.30647"><ele></ele><time>2017-9-5T2:25:56Z</time></trkpt>
<trkpt lat="46.47078" lon="6.30638"><ele></ele><time>2017-9-5T2:25:59Z</time></trkpt>
<trkpt lat="46.47077" lon="6.30633"><ele></ele><time>2017-9-5T2:26:2Z</time></trkpt>
<trkpt lat="46.47077" lon="6.30629"><ele></ele><time>2017-9-5T2:26:5Z</time></trkpt>
<trkpt lat="46.47077" lon="6.30625"><ele></ele><time>2017-9-5T2:26:8Z</time></trkpt>
<trkpt lat="46.47077" lon="6.30622"><ele></ele><time>2017-9-5T2:26:11Z</time></trkpt>
<trkpt lat="46.47076" lon="6.30619"><ele></ele><time>2017-9-5T2:26:14Z</time></trkpt>
<trkpt lat="46.47075" lon="6.30605"><ele></ele><time>2017-9-5T2:26:17Z</time></trkpt>
<trkpt lat="46.47075" lon="6.30601"><ele></ele><time>2017-9-5T2:26:20Z</time></trkpt>
<trkpt lat="46.47075" lon="6.30597"><ele></ele><time>2017-9-5T2:26:23Z</time></trkpt>
<trkpt lat="46.47074" lon="6.30594"><ele></ele><time>2017-9-5T2:26:26Z</time></trkpt>
<trkpt lat="46.47074" lon="6.30592"><ele></ele><time>2017-9-5T2:26:29Z</time></trkpt>
<trkpt lat="46.47074" lon="6.3059"><ele></ele><time>2017-9-5T2:26:32Z</time></trkpt>
<trkpt lat="46.47072" lon="6.30584"><ele></ele><time>2017-9-5T2:26:35Z</time></trkpt>
<trkpt lat="46.47072" lon="6.30581"><ele></ele><time>2017-9-5T2:26:38Z</time></trkpt>
<trkpt lat="46.47071" lon="6.30579"><ele></ele><time>2017-9-5T2:26:41Z</time></trkpt>
<trkpt lat="46.4707" lon="6.30575"><ele></ele><time>2017-9-5T2:26:44Z</time></trkpt>
<trkpt lat="46.47069" lon="6.3057"><ele></ele><time>2017-9-5T2:26:47Z</time></trkpt>
<trkpt lat="46.47068" lon="6.30566"><ele></ele><time>2017-9-5T2:26:50Z</time></trkpt>
<trkpt lat="46.47068" lon="6.30561"><ele></ele><time>2017-9-5T2:26:53Z</time></trkpt>
<trkpt lat="46.47067" lon="6.30557"><ele></ele><time>2017-9-5T2:26:56Z</time></trkpt>
<trkpt lat="46.47067" lon="6.30553"><ele></ele><time>2017-9-5T2:26:59Z</time></trkpt>
<trkpt lat="46.47066" lon="6.30551"><ele></ele><time>2017-9-5T2:27:2Z</time></trkpt>
<trkpt lat="46.47066" lon="6.30549"><ele></ele><time>2017-9-5T2:27:5Z</time></trkpt>
<trkpt lat="46.47065" lon="6.30544"><ele></ele><time>2017-9-5T2:27:8Z</time></trkpt>
<trkpt lat="46.47066" lon="6.3054"><ele></ele><time>2017-9-5T2:27:11Z</time></trkpt>
<trkpt lat="46.47066" lon="6.30536"><ele></ele><time>2017-9-5T2:27:14Z</time></trkpt>
<trkpt lat="46.47067" lon="6.30531"><ele></ele><time>2017-9-5T2:27:17Z</time></trkpt>
<trkpt lat="46.47067" lon="6.30529"><ele></ele><time>2017-9-5T2:27:20Z</time></trkpt>
<trkpt lat="46.47067" lon="6.30527"><ele></ele><time>2017-9-5T2:27:23Z</time></trkpt>
<trkpt lat="46.47068" lon="6.30523"><ele></ele><time>2017-9-5T2:27:26Z</time></trkpt>
<trkpt lat="46.47068" lon="6.30519"><ele></ele><time>2017-9-5T2:27:29Z</time></trkpt>
<trkpt lat="46.47068" lon="6.30515"><ele></ele><time>2017-9-5T2:27:32Z</time></trkpt>
<trkpt lat="46.47069" lon="6.30511"><ele></ele><time>2017-9-5T2:27:35Z</time></trkpt>
<trkpt lat="46.47069" lon="6.30508"><ele></ele><time>2017-9-5T2:27:38Z</time></trkpt>
<trkpt lat="46.4707" lon="6.30504"><ele></ele><time>2017-9-5T2:27:41Z</time></trkpt>
<trkpt lat="46.4707" lon="6.305"><ele></ele><time>2017-9-5T2:27:44Z</time></trkpt>
<trkpt lat="46.47071" lon="6.30496"><ele></ele><time>2017-9-5T2:27:47Z</time></trkpt>
<trkpt lat="46.47071" lon="6.30495"><ele></ele><time>2017-9-5T2:27:50Z</time></trkpt>
<trkpt lat="46.47071" lon="6.30492"><ele></ele><time>2017-9-5T2:27:53Z</time></trkpt>
<trkpt lat="46.47071" lon="6.30488"><ele></ele><time>2017-9-5T2:27:56Z</time></trkpt>
<trkpt lat="46.47071" lon="6.30485"><ele></ele><time>2017-9-5T2:27:59Z</time></trkpt>
<trkpt lat="46.4707" lon="6.30481"><ele></ele><time>2017-9-5T2:28:2Z</time></trkpt>
<trkpt lat="46.4707" lon="6.30477"><ele></ele><time>2017-9-5T2:28:5Z</time></trkpt>
<trkpt lat="46.4707" lon="6.30473"><ele></ele><time>2017-9-5T2:28:8Z</time></trkpt>
<trkpt lat="46.47071" lon="6.30469"><ele></ele><time>2017-9-5T2:28:11Z</time></trkpt>
<trkpt lat="46.47071" lon="6.30467"><ele></ele><time>2017-9-5T2:28:14Z</time></trkpt>
<trkpt lat="46.47072" lon="6.30463"><ele></ele><time>2017-9-5T2:28:17Z</time></trkpt>
<trkpt lat="46.47072" lon="6.30461"><ele></ele><time>2017-9-5T2:28:20Z</time></trkpt>
<trkpt lat="46.47073" lon="6.3046"><ele></ele><time>2017-9-5T2:28:23Z</time></trkpt>
<trkpt lat="46.47075" lon="6.30455"><ele></ele><time>2017-9-5T2:28:26Z</time></trkpt>
<trkpt lat="46.47076" lon="6.30451"><ele></ele><time>2017-9-5T2:28:29Z</time></trkpt>
<trkpt lat="46.47078" lon="6.30448"><ele></ele><time>2017-9-5T2:28:32Z</time></trkpt>
<trkpt lat="46.4708" lon="6.30445"><ele></ele><time>2017-9-5T2:28:35Z</time></trkpt>
<trkpt lat="46.47082" lon="6.30442"><ele></ele><time>2017-9-5T2:28:38Z</time></trkpt>
<trkpt lat="46.47084" lon="6.30439"><ele></ele><time>2017-9-5T2:28:41Z</time></trkpt>
<trkpt lat="46.47086" lon="6.30436"><ele></ele><time>2017-9-5T2:28:44Z</time></trkpt>
<trkpt lat="46.47088" lon="6.30434"><ele></ele><time>2017-9-5T2:28:47Z</time></trkpt>
<trkpt lat="46.4709" lon="6.30433"><ele></ele><time>2017-9-5T2:28:50Z</time></trkpt>
<trkpt lat="46.4709" lon="6.30433"><ele></ele><time>2017-9-5T2:28:53Z</time></trkpt>
<trkpt lat="46.47091" lon="6.30431"><ele></ele><time>2017-9-5T2:28:56Z</time></trkpt>
<trkpt lat="46.47093" lon="6.3043"><ele></ele><time>2017-9-5T2:28:59Z</time></trkpt>
<trkpt lat="46.47096" lon="6.30426"><ele></ele><time>2017-9-5T2:29:2Z</time></trkpt>
<trkpt lat="46.47097" lon="6.30425"><ele></ele><time>2017-9-5T2:29:5Z</time></trkpt>
<trkpt lat="46.47099" lon="6.30423"><ele></ele><time>2017-9-5T2:29:8Z</time></trkpt>
<trkpt lat="46.47101" lon="6.30422"><ele></ele><time>2017-9-5T2:29:11Z</time></trkpt>
<trkpt lat="46.47104" lon="6.30421"><ele></ele><time>2017-9-5T2:29:14Z</time></trkpt>
<trkpt lat="46.47106" lon="6.30424"><ele></ele><time>2017-9-5T2:29:17Z</time></trkpt>
<trkpt lat="46.47107" lon="6.30427"><ele></ele><time>2017-9-5T2:29:20Z</time></trkpt>
<trkpt lat="46.47107" lon="6.30429"><ele></ele><time>2017-9-5T2:29:23Z</time></trkpt>
<trkpt lat="46.47107" lon="6.30431"><ele></ele><time>2017-9-5T2:29:26Z</time></trkpt>
<trkpt lat="46.47106" lon="6.30435"><ele></ele><time>2017-9-5T2:29:29Z</time></trkpt>
<trkpt lat="46.47106" lon="6.30437"><ele></ele><time>2017-9-5T2:29:32Z</time></trkpt>
<trkpt lat="46.47105" lon="6.30439"><ele></ele><time>2017-9-5T2:29:35Z</time></trkpt>
<trkpt lat="46.47104" lon="6.30443"><ele></ele><time>2017-9-5T2:29:38Z</time></trkpt>
<trkpt lat="46.47102" lon="6.30447"><ele></ele><time>2017-9-5T2:29:41Z</time></trkpt>
<trkpt lat="46.471" lon="6.3045"><ele></ele><time>2017-9-5T2:29:44Z</time></trkpt>
<trkpt lat="46.47099" lon="6.30454"><ele></ele><time>2017-9-5T2:29:47Z</time></trkpt>
<trkpt lat="46.47097" lon="6.30458"><ele></ele><time>2017-9-5T2:29:50Z</time></trkpt>
<trkpt lat="46.47096" lon="6.30462"><ele></ele><time>2017-9-5T2:29:53Z</time></trkpt>
<trkpt lat="46.47096" lon="6.30466"><ele></ele><time>2017-9-5T2:29:56Z</time></trkpt>
<trkpt lat="46.47095" lon="6.3047"><ele></ele><time>2017-9-5T2:29:59Z</time></trkpt>
<trkpt lat="46.47095" lon="6.30472"><ele></ele><time>2017-9-5T2:30:2Z</time></trkpt>
<trkpt lat="46.47095" lon="6.30474"><ele></ele><time>2017-9-5T2:30:5Z</time></trkpt>
<trkpt lat="46.47096" lon="6.30478"><ele></ele><time>2017-9-5T2:30:8Z</time></trkpt>
<trkpt lat="46.47097" lon="6.30483"><ele></ele><time>2017-9-5T2:30:11Z</time></trkpt>
<trkpt lat="46.47099" lon="6.30488"><ele></ele><time>2017-9-5T2:30:14Z</time></trkpt>
<trkpt lat="46.47099" lon="6.3049"><ele></ele><time>2017-9-5T2:30:17Z</time></trkpt>
<trkpt lat="46.471" lon="6.30492"><ele></ele><time>2017-9-5T2:30:20Z</time></trkpt>
<trkpt lat="46.471" lon="6.30496"><ele></ele><time>2017-9-5T2:30:23Z</time></trkpt>
<trkpt lat="46.471" lon="6.30501"><ele></ele><time>2017-9-5T2:30:26Z</time></trkpt>
<trkpt lat="46.47101" lon="6.30504"><ele></ele><time>2017-9-5T2:30:29Z</time></trkpt>
<trkpt lat="46.47101" lon="6.30508"><ele></ele><time>2017-9-5T2:30:32Z</time></trkpt>
<trkpt lat="46.47102" lon="6.30512"><ele></ele><time>2017-9-5T2:30:35Z</time></trkpt>
<trkpt lat="46.47102" lon="6.30517"><ele></ele><time>2017-9-5T2:30:38Z</time></trkpt>
<trkpt lat="46.47103" lon="6.30521"><ele></ele><time>2017-9-5T2:30:41Z</time></trkpt>
<trkpt lat="46.47103" lon="6.30526"><ele></ele><time>2017-9-5T2:30:44Z</time></trkpt>
<trkpt lat="46.47104" lon="6.3053"><ele></ele><time>2017-9-5T2:30:47Z</time></trkpt>
<trkpt lat="46.47105" lon="6.30535"><ele></ele><time>2017-9-5T2:30:50Z</time></trkpt>
<trkpt lat="46.47107" lon="6.30539"><ele></ele><time>2017-9-5T2:30:53Z</time></trkpt>
<trkpt lat="46.47108" lon="6.30543"><ele></ele><time>2017-9-5T2:30:56Z</time></trkpt>
<trkpt lat="46.47109" lon="6.30546"><ele></ele><time>2017-9-5T2:30:59Z</time></trkpt>
<trkpt lat="46.47111" lon="6.30549"><ele></ele><time>2017-9-5T2:31:2Z</time></trkpt>
<trkpt lat="46.47113" lon="6.30552"><ele></ele><time>2017-9-5T2:31:5Z</time></trkpt>
<trkpt lat="46.47113" lon="6.30554"><ele></ele><time>2017-9-5T2:31:8Z</time></trkpt>
<trkpt lat="46.47114" lon="6.30556"><ele></ele><time>2017-9-5T2:31:11Z</time></trkpt>
<trkpt lat="46.47115" lon="6.30558"><ele></ele><time>2017-9-5T2:31:14Z</time></trkpt>
<trkpt lat="46.47117" lon="6.30562"><ele></ele><time>2017-9-5T2:31:17Z</time></trkpt>
<trkpt lat="46.4712" lon="6.30567"><ele></ele><time>2017-9-5T2:31:20Z</time></trkpt>
<trkpt lat="46.4712" lon="6.30567"><ele></ele><time>2017-9-5T2:31:23Z</time></trkpt>
<trkpt lat="46.47122" lon="6.3057"><ele></ele><time>2017-9-5T2:31:26Z</time></trkpt>
<trkpt lat="46.47124" lon="6.30574"><ele></ele><time>2017-9-5T2:31:29Z</time></trkpt>
<trkpt lat="46.47125" lon="6.30577"><ele></ele><time>2017-9-5T2:31:32Z</time></trkpt>
<trkpt lat="46.47126" lon="6.30579"><ele></ele><time>2017-9-5T2:31:35Z</time></trkpt>
<trkpt lat="46.47127" lon="6.3058"><ele></ele><time>2017-9-5T2:31:38Z</time></trkpt>
<trkpt lat="46.47129" lon="6.30584"><ele></ele><time>2017-9-5T2:31:41Z</time></trkpt>
<trkpt lat="46.4713" lon="6.30587"><ele></ele><time>2017-9-5T2:31:44Z</time></trkpt>
<trkpt lat="46.47131" lon="6.30591"><ele></ele><time>2017-9-5T2:31:47Z</time></trkpt>
<trkpt lat="46.47132" lon="6.30595"><ele></ele><time>2017-9-5T2:31:50Z</time></trkpt>
<trkpt lat="46.47132" lon="6.30599"><ele></ele><time>2017-9-5T2:31:53Z</time></trkpt>
<trkpt lat="46.47132" lon="6.30601"><ele></ele><time>2017-9-5T2:31:56Z</time></trkpt>
<trkpt lat="46.47132" lon="6.30603"><ele></ele><time>2017-9-5T2:31:59Z</time></trkpt>
<trkpt lat="46.47133" lon="6.30607"><ele></ele><time>2017-9-5T2:32:2Z</time></trkpt>
<trkpt lat="46.47133" lon="6.30609"><ele></ele><time>2017-9-5T2:32:5Z</time></trkpt>
<trkpt lat="46.47134" lon="6.30612"><ele></ele><time>2017-9-5T2:32:8Z</time></trkpt>
<trkpt lat="46.47134" lon="6.30614"><ele></ele><time>2017-9-5T2:32:11Z</time></trkpt>
<trkpt lat="46.47133" lon="6.30616"><ele></ele><time>2017-9-5T2:32:14Z</time></trkpt>
<trkpt lat="46.47134" lon="6.30621"><ele></ele><time>2017-9-5T2:32:17Z</time></trkpt>
<trkpt lat="46.47135" lon="6.30626"><ele></ele><time>2017-9-5T2:32:20Z</time></trkpt>
<trkpt lat="46.47136" lon="6.3063"><ele></ele><time>2017-9-5T2:32:23Z</time></trkpt>
<trkpt lat="46.47137" lon="6.30633"><ele></ele><time>2017-9-5T2:32:26Z</time></trkpt>
<trkpt lat="46.47138" lon="6.30636"><ele></ele><time>2017-9-5T2:32:29Z</time></trkpt>
<trkpt lat="46.4714" lon="6.30639"><ele></ele><time>2017-9-5T2:32:32Z</time></trkpt>
<trkpt lat="46.47141" lon="6.30641"><ele></ele><time>2017-9-5T2:32:35Z</time></trkpt>
<trkpt lat="46.47144" lon="6.30643"><ele></ele><time>2017-9-5T2:32:38Z</time></trkpt>
<trkpt lat="46.47145" lon="6.30644"><ele></ele><time>2017-9-5T2:32:41Z</time></trkpt>
<trkpt lat="46.47146" lon="6.30645"><ele></ele><time>2017-9-5T2:32:44Z</time></trkpt>
<trkpt lat="46.47148" lon="6.30647"><ele></ele><time>2017-9-5T2:32:47Z</time></trkpt>
<trkpt lat="46.4715" lon="6.30648"><ele></ele><time>2017-9-5T2:32:50Z</time></trkpt>
<trkpt lat="46.4715" lon="6.30648"><ele></ele><time>2017-9-5T2:32:53Z</time></trkpt>
<trkpt lat="46.47153" lon="6.30638"><ele></ele><time>2017-9-5T2:32:56Z</time></trkpt>
<trkpt lat="46.47153" lon="6.30636"><ele></ele><time>2017-9-5T2:32:59Z</time></trkpt>
<trkpt lat="46.47152" lon="6.30631"><ele></ele><time>2017-9-5T2:33:2Z</time></trkpt>
<trkpt lat="46.47152" lon="6.3063"><ele></ele><time>2017-9-5T2:33:5Z</time></trkpt>
<trkpt lat="46.47152" lon="6.30628"><ele></ele><time>2017-9-5T2:33:8Z</time></trkpt>
<trkpt lat="46.4715" lon="6.30624"><ele></ele><time>2017-9-5T2:33:11Z</time></trkpt>
<trkpt lat="46.47149" lon="6.30619"><ele></ele><time>2017-9-5T2:33:14Z</time></trkpt>
<trkpt lat="46.47148" lon="6.30617"><ele></ele><time>2017-9-5T2:33:17Z</time></trkpt>
<trkpt lat="46.47148" lon="6.30614"><ele></ele><time>2017-9-5T2:33:20Z</time></trkpt>
<trkpt lat="46.47147" lon="6.30609"><ele></ele><time>2017-9-5T2:33:23Z</time></trkpt>
<trkpt lat="46.47148" lon="6.30605"><ele></ele><time>2017-9-5T2:33:26Z</time></trkpt>
<trkpt lat="46.47149" lon="6.30601"><ele></ele><time>2017-9-5T2:33:29Z</time></trkpt>
<trkpt lat="46.47149" lon="6.30597"><ele></ele><time>2017-9-5T2:33:32Z</time></trkpt>
<trkpt lat="46.47149" lon="6.30593"><ele></ele><time>2017-9-5T2:33:35Z</time></trkpt>
<trkpt lat="46.47149" lon="6.30591"><ele></ele><time>2017-9-5T2:33:38Z</time></trkpt>
<trkpt lat="46.47148" lon="6.30584"><ele></ele><time>2017-9-5T2:33:41Z</time></trkpt>
<trkpt lat="46.47147" lon="6.3058"><ele></ele><time>2017-9-5T2:33:44Z</time></trkpt>
<trkpt lat="46.47146" lon="6.30575"><ele></ele><time>2017-9-5T2:33:47Z</time></trkpt>
<trkpt lat="46.47145" lon="6.30574"><ele></ele><time>2017-9-5T2:33:50Z</time></trkpt>
<trkpt lat="46.47125" lon="6.30527"><ele></ele><time>2017-9-5T2:33:53Z</time></trkpt>
<trkpt lat="46.47124" lon="6.30524"><ele></ele><time>2017-9-5T2:33:56Z</time></trkpt>
<trkpt lat="46.47124" lon="6.3052"><ele></ele><time>2017-9-5T2:33:59Z</time></trkpt>
<trkpt lat="46.47125" lon="6.30518"><ele></ele><time>2017-9-5T2:34:2Z</time></trkpt>
<trkpt lat="46.47125" lon="6.30516"><ele></ele><time>2017-9-5T2:34:5Z</time></trkpt>
<trkpt lat="46.47125" lon="6.30512"><ele></ele><time>2017-9-5T2:34:8Z</time></trkpt>
<trkpt lat="46.47126" lon="6.3051"><ele></ele><time>2017-9-5T2:34:11Z</time></trkpt>
<trkpt lat="46.47126" lon="6.30508"><ele></ele><time>2017-9-5T2:34:14Z</time></trkpt>
<trkpt lat="46.47127" lon="6.30504"><ele></ele><time>2017-9-5T2:34:17Z</time></trkpt>
<trkpt lat="46.47128" lon="6.305"><ele></ele><time>2017-9-5T2:34:20Z</time></trkpt>
<trkpt lat="46.47129" lon="6.30496"><ele></ele><time>2017-9-5T2:34:23Z</time></trkpt>
<trkpt lat="46.47131" lon="6.30492"><ele></ele><time>2017-9-5T2:34:26Z</time></trkpt>
<trkpt lat="46.47132" lon="6.30491"><ele></ele><time>2017-9-5T2:34:29Z</time></trkpt>
<trkpt lat="46.47132" lon="6.30489"><ele></ele><time>2017-9-5T2:34:32Z</time></trkpt>
<trkpt lat="46.47134" lon="6.30486"><ele></ele><time>2017-9-5T2:34:35Z</time></trkpt>
<trkpt lat="46.47135" lon="6.30483"><ele></ele><time>2017-9-5T2:34:38Z</time></trkpt>
<trkpt lat="46.47137" lon="6.3048"><ele></ele><time>2017-9-5T2:34:41Z</time></trkpt>
<trkpt lat="46.47139" lon="6.30477"><ele></ele><time>2017-9-5T2:34:44Z</time></trkpt>
<trkpt lat="46.4714" lon="6.30474"><ele></ele><time>2017-9-5T2:34:47Z</time></trkpt>
<trkpt lat="46.4714" lon="6.30472"><ele></ele><time>2017-9-5T2:34:50Z</time></trkpt>
<trkpt lat="46.47142" lon="6.30469"><ele></ele><time>2017-9-5T2:34:53Z</time></trkpt>
<trkpt lat="46.47143" lon="6.30464"><ele></ele><time>2017-9-5T2:34:56Z</time></trkpt>
<trkpt lat="46.47145" lon="6.30459"><ele></ele><time>2017-9-5T2:34:59Z</time></trkpt>
<trkpt lat="46.47146" lon="6.30457"><ele></ele><time>2017-9-5T2:35:2Z</time></trkpt>
<trkpt lat="46.47147" lon="6.30455"><ele></ele><time>2017-9-5T2:35:5Z</time></trkpt>
<trkpt lat="46.47148" lon="6.3045"><ele></ele><time>2017-9-5T2:35:8Z</time></trkpt>
<trkpt lat="46.47149" lon="6.30447"><ele></ele><time>2017-9-5T2:35:11Z</time></trkpt>
<trkpt lat="46.4715" lon="6.3044"><ele></ele><time>2017-9-5T2:35:14Z</time></trkpt>
<trkpt lat="46.47151" lon="6.30436"><ele></ele><time>2017-9-5T2:35:17Z</time></trkpt>
<trkpt lat="46.47152" lon="6.30432"><ele></ele><time>2017-9-5T2:35:20Z</time></trkpt>
<trkpt lat="46.47153" lon="6.30428"><ele></ele><time>2017-9-5T2:35:23Z</time></trkpt>
<trkpt lat="46.47155" lon="6.30424"><ele></ele><time>2017-9-5T2:35:26Z</time></trkpt>
<trkpt lat="46.47156" lon="6.30422"><ele></ele><time>2017-9-5T2:35:29Z</time></trkpt>
<trkpt lat="46.47156" lon="6.3042"><ele></ele><time>2017-9-5T2:35:32Z</time></trkpt>
<trkpt lat="46.47158" lon="6.30416"><ele></ele><time>2017-9-5T2:35:35Z</time></trkpt>
<trkpt lat="46.4716" lon="6.3041"><ele></ele><time>2017-9-5T2:35:38Z</time></trkpt>
<trkpt lat="46.47162" lon="6.30406"><ele></ele><time>2017-9-5T2:35:41Z</time></trkpt>
<trkpt lat="46.47165" lon="6.30402"><ele></ele><time>2017-9-5T2:35:44Z</time></trkpt>
<trkpt lat="46.47167" lon="6.30398"><ele></ele><time>2017-9-5T2:35:47Z</time></trkpt>
<trkpt lat="46.4717" lon="6.30394"><ele></ele><time>2017-9-5T2:35:50Z</time></trkpt>
<trkpt lat="46.47172" lon="6.30391"><ele></ele><time>2017-9-5T2:35:53Z</time></trkpt>
<trkpt lat="46.47174" lon="6.30389"><ele></ele><time>2017-9-5T2:35:56Z</time></trkpt>
<trkpt lat="46.47174" lon="6.30387"><ele></ele><time>2017-9-5T2:35:59Z</time></trkpt>
<trkpt lat="46.47175" lon="6.30385"><ele></ele><time>2017-9-5T2:36:2Z</time></trkpt>
<trkpt lat="46.47177" lon="6.30383"><ele></ele><time>2017-9-5T2:36:5Z</time></trkpt>
<trkpt lat="46.47179" lon="6.3038"><ele></ele><time>2017-9-5T2:36:8Z</time></trkpt>
<trkpt lat="46.47181" lon="6.30376"><ele></ele><time>2017-9-5T2:36:11Z</time></trkpt>
<trkpt lat="46.47183" lon="6.30372"><ele></ele><time>2017-9-5T2:36:14Z</time></trkpt>
<trkpt lat="46.47183" lon="6.30367"><ele></ele><time>2017-9-5T2:36:17Z</time></trkpt>
<trkpt lat="46.47184" lon="6.30364"><ele></ele><time>2017-9-5T2:36:20Z</time></trkpt>
<trkpt lat="46.47184" lon="6.30362"><ele></ele><time>2017-9-5T2:36:23Z</time></trkpt>
<trkpt lat="46.47184" lon="6.30357"><ele></ele><time>2017-9-5T2:36:26Z</time></trkpt>
<trkpt lat="46.47183" lon="6.30353"><ele></ele><time>2017-9-5T2:36:29Z</time></trkpt>
<trkpt lat="46.47184" lon="6.30348"><ele></ele><time>2017-9-5T2:36:32Z</time></trkpt>
<trkpt lat="46.47184" lon="6.30344"><ele></ele><time>2017-9-5T2:36:35Z</time></trkpt>
<trkpt lat="46.47185" lon="6.3034"><ele></ele><time>2017-9-5T2:36:38Z</time></trkpt>
<trkpt lat="46.47186" lon="6.30338"><ele></ele><time>2017-9-5T2:36:41Z</time></trkpt>
<trkpt lat="46.47186" lon="6.30335"><ele></ele><time>2017-9-5T2:36:44Z</time></trkpt>
<trkpt lat="46.47187" lon="6.30331"><ele></ele><time>2017-9-5T2:36:47Z</time></trkpt>
<trkpt lat="46.47188" lon="6.30327"><ele></ele><time>2017-9-5T2:36:50Z</time></trkpt>
<trkpt lat="46.47189" lon="6.30322"><ele></ele><time>2017-9-5T2:36:53Z</time></trkpt>
<trkpt lat="46.47189" lon="6.30318"><ele></ele><time>2017-9-5T2:36:56Z</time></trkpt>
<trkpt lat="46.47189" lon="6.30316"><ele></ele><time>2017-9-5T2:36:59Z</time></trkpt>
<trkpt lat="46.47188" lon="6.30309"><ele></ele><time>2017-9-5T2:37:2Z</time></trkpt>
<trkpt lat="46.47186" lon="6.30305"><ele></ele><time>2017-9-5T2:37:5Z</time></trkpt>
<trkpt lat="46.47185" lon="6.303"><ele></ele><time>2017-9-5T2:37:8Z</time></trkpt>
<trkpt lat="46.47183" lon="6.30296"><ele></ele><time>2017-9-5T2:37:11Z</time></trkpt>
<trkpt lat="46.47181" lon="6.30291"><ele></ele><time>2017-9-5T2:37:14Z</time></trkpt>
<trkpt lat="46.4718" lon="6.30287"><ele></ele><time>2017-9-5T2:37:17Z</time></trkpt>
<trkpt lat="46.47178" lon="6.30283"><ele></ele><time>2017-9-5T2:37:20Z</time></trkpt>
<trkpt lat="46.47177" lon="6.30279"><ele></ele><time>2017-9-5T2:37:23Z</time></trkpt>
<trkpt lat="46.47177" lon="6.30277"><ele></ele><time>2017-9-5T2:37:26Z</time></trkpt>
<trkpt lat="46.47177" lon="6.30277"><ele></ele><time>2017-9-5T2:37:29Z</time></trkpt>
<trkpt lat="46.47177" lon="6.30269"><ele></ele><time>2017-9-5T2:37:32Z</time></trkpt>
<trkpt lat="46.47176" lon="6.30264"><ele></ele><time>2017-9-5T2:37:35Z</time></trkpt>
<trkpt lat="46.47175" lon="6.30259"><ele></ele><time>2017-9-5T2:37:38Z</time></trkpt>
<trkpt lat="46.47175" lon="6.30254"><ele></ele><time>2017-9-5T2:37:41Z</time></trkpt>
<trkpt lat="46.47175" lon="6.30251"><ele></ele><time>2017-9-5T2:37:44Z</time></trkpt>
<trkpt lat="46.47174" lon="6.30249"><ele></ele><time>2017-9-5T2:37:47Z</time></trkpt>
<trkpt lat="46.47173" lon="6.30244"><ele></ele><time>2017-9-5T2:37:50Z</time></trkpt>
<trkpt lat="46.47172" lon="6.3024"><ele></ele><time>2017-9-5T2:37:53Z</time></trkpt>
<trkpt lat="46.47172" lon="6.30235"><ele></ele><time>2017-9-5T2:37:56Z</time></trkpt>
<trkpt lat="46.4717" lon="6.30231"><ele></ele><time>2017-9-5T2:37:59Z</time></trkpt>
<trkpt lat="46.4717" lon="6.30226"><ele></ele><time>2017-9-5T2:38:2Z</time></trkpt>
<trkpt lat="46.47169" lon="6.30223"><ele></ele><time>2017-9-5T2:38:5Z</time></trkpt>
<trkpt lat="46.47167" lon="6.30219"><ele></ele><time>2017-9-5T2:38:8Z</time></trkpt>
<trkpt lat="46.47166" lon="6.30217"><ele></ele><time>2017-9-5T2:38:11Z</time></trkpt>
<trkpt lat="46.47165" lon="6.30215"><ele></ele><time>2017-9-5T2:38:14Z</time></trkpt>
<trkpt lat="46.47164" lon="6.30211"><ele></ele><time>2017-9-5T2:38:17Z</time></trkpt>
<trkpt lat="46.47161" lon="6.30208"><ele></ele><time>2017-9-5T2:38:20Z</time></trkpt>
<trkpt lat="46.47159" lon="6.30205"><ele></ele><time>2017-9-5T2:38:23Z</time></trkpt>
<trkpt lat="46.47158" lon="6.30204"><ele></ele><time>2017-9-5T2:38:26Z</time></trkpt>
<trkpt lat="46.47156" lon="6.30203"><ele></ele><time>2017-9-5T2:38:29Z</time></trkpt>
<trkpt lat="46.47153" lon="6.302"><ele></ele><time>2017-9-5T2:38:32Z</time></trkpt>
<trkpt lat="46.4715" lon="6.30198"><ele></ele><time>2017-9-5T2:38:35Z</time></trkpt>
<trkpt lat="46.47148" lon="6.30196"><ele></ele><time>2017-9-5T2:38:38Z</time></trkpt>
<trkpt lat="46.47146" lon="6.30193"><ele></ele><time>2017-9-5T2:38:41Z</time></trkpt>
<trkpt lat="46.47145" lon="6.30191"><ele></ele><time>2017-9-5T2:38:44Z</time></trkpt>
<trkpt lat="46.47144" lon="6.3019"><ele></ele><time>2017-9-5T2:38:47Z</time></trkpt>
<trkpt lat="46.47144" lon="6.30186"><ele></ele><time>2017-9-5T2:38:50Z</time></trkpt>
<trkpt lat="46.47145" lon="6.30182"><ele></ele><time>2017-9-5T2:38:53Z</time></trkpt>
<trkpt lat="46.47146" lon="6.30179"><ele></ele><time>2017-9-5T2:38:56Z</time></trkpt>
<trkpt lat="46.47147" lon="6.30177"><ele></ele><time>2017-9-5T2:38:59Z</time></trkpt>
<trkpt lat="46.47148" lon="6.30176"><ele></ele><time>2017-9-5T2:39:2Z</time></trkpt>
<trkpt lat="46.4715" lon="6.30173"><ele></ele><time>2017-9-5T2:39:5Z</time></trkpt>
<trkpt lat="46.47153" lon="6.3017"><ele></ele><time>2017-9-5T2:39:8Z</time></trkpt>
<trkpt lat="46.47154" lon="6.30166"><ele></ele><time>2017-9-5T2:39:11Z</time></trkpt>
<trkpt lat="46.47155" lon="6.30165"><ele></ele><time>2017-9-5T2:39:14Z</time></trkpt>
<trkpt lat="46.47156" lon="6.30164"><ele></ele><time>2017-9-5T2:39:17Z</time></trkpt>
<trkpt lat="46.4717" lon="6.30162"><ele></ele><time>2017-9-5T2:39:20Z</time></trkpt>
<trkpt lat="46.47171" lon="6.30162"><ele></ele><time>2017-9-5T2:39:23Z</time></trkpt>
<trkpt lat="46.47175" lon="6.30162"><ele></ele><time>2017-9-5T2:39:26Z</time></trkpt>
<trkpt lat="46.47179" lon="6.30162"><ele></ele><time>2017-9-5T2:39:29Z</time></trkpt>
<trkpt lat="46.47182" lon="6.30162"><ele></ele><time>2017-9-5T2:39:32Z</time></trkpt>
<trkpt lat="46.47184" lon="6.30162"><ele></ele><time>2017-9-5T2:39:35Z</time></trkpt>
<trkpt lat="46.47184" lon="6.30162"><ele></ele><time>2017-9-5T2:39:38Z</time></trkpt>
<trkpt lat="46.47188" lon="6.30163"><ele></ele><time>2017-9-5T2:39:41Z</time></trkpt>
<trkpt lat="46.47191" lon="6.30163"><ele></ele><time>2017-9-5T2:39:44Z</time></trkpt>
<trkpt lat="46.47194" lon="6.30164"><ele></ele><time>2017-9-5T2:39:47Z</time></trkpt>
<trkpt lat="46.47196" lon="6.30167"><ele></ele><time>2017-9-5T2:39:50Z</time></trkpt>
<trkpt lat="46.47198" lon="6.3017"><ele></ele><time>2017-9-5T2:39:53Z</time></trkpt>
<trkpt lat="46.472" lon="6.30173"><ele></ele><time>2017-9-5T2:39:56Z</time></trkpt>
<trkpt lat="46.47201" lon="6.30177"><ele></ele><time>2017-9-5T2:39:59Z</time></trkpt>
<trkpt lat="46.47203" lon="6.30181"><ele></ele><time>2017-9-5T2:40:2Z</time></trkpt>
<trkpt lat="46.47204" lon="6.30184"><ele></ele><time>2017-9-5T2:40:5Z</time></trkpt>
<trkpt lat="46.47205" lon="6.30186"><ele></ele><time>2017-9-5T2:40:8Z</time></trkpt>
<trkpt lat="46.47206" lon="6.30188"><ele></ele><time>2017-9-5T2:40:11Z</time></trkpt>
<trkpt lat="46.47207" lon="6.30192"><ele></ele><time>2017-9-5T2:40:14Z</time></trkpt>
<trkpt lat="46.47209" lon="6.30196"><ele></ele><time>2017-9-5T2:40:17Z</time></trkpt>
<trkpt lat="46.47211" lon="6.302"><ele></ele><time>2017-9-5T2:40:20Z</time></trkpt>
<trkpt lat="46.47211" lon="6.30202"><ele></ele><time>2017-9-5T2:40:23Z</time></trkpt>
<trkpt lat="46.47212" lon="6.30205"><ele></ele><time>2017-9-5T2:40:26Z</time></trkpt>
<trkpt lat="46.47213" lon="6.30209"><ele></ele><time>2017-9-5T2:40:29Z</time></trkpt>
<trkpt lat="46.47215" lon="6.30213"><ele></ele><time>2017-9-5T2:40:32Z</time></trkpt>
<trkpt lat="46.47217" lon="6.30217"><ele></ele><time>2017-9-5T2:40:35Z</time></trkpt>
<trkpt lat="46.47219" lon="6.30221"><ele></ele><time>2017-9-5T2:40:38Z</time></trkpt>
<trkpt lat="46.47221" lon="6.30225"><ele></ele><time>2017-9-5T2:40:41Z</time></trkpt>
<trkpt lat="46.47223" lon="6.30229"><ele></ele><time>2017-9-5T2:40:44Z</time></trkpt>
<trkpt lat="46.47225" lon="6.30233"><ele></ele><time>2017-9-5T2:40:47Z</time></trkpt>
<trkpt lat="46.47226" lon="6.30235"><ele></ele><time>2017-9-5T2:40:50Z</time></trkpt>
<trkpt lat="46.47226" lon="6.30237"><ele></ele><time>2017-9-5T2:40:53Z</time></trkpt>
<trkpt lat="46.47229" lon="6.3024"><ele></ele><time>2017-9-5T2:40:56Z</time></trkpt>
<trkpt lat="46.4723" lon="6.30243"><ele></ele><time>2017-9-5T2:40:59Z</time></trkpt>
<trkpt lat="46.47232" lon="6.30247"><ele></ele><time>2017-9-5T2:41:2Z</time></trkpt>
<trkpt lat="46.47233" lon="6.30251"><ele></ele><time>2017-9-5T2:41:5Z</time></trkpt>
<trkpt lat="46.47235" lon="6.30254"><ele></ele><time>2017-9-5T2:41:8Z</time></trkpt>
<trkpt lat="46.47236" lon="6.30259"><ele></ele><time>2017-9-5T2:41:11Z</time></trkpt>
<trkpt lat="46.47238" lon="6.30263"><ele></ele><time>2017-9-5T2:41:14Z</time></trkpt>
<trkpt lat="46.47239" lon="6.30267"><ele></ele><time>2017-9-5T2:41:17Z</time></trkpt>
<trkpt lat="46.4724" lon="6.30269"><ele></ele><time>2017-9-5T2:41:20Z</time></trkpt>
<trkpt lat="46.47241" lon="6.3027"><ele></ele><time>2017-9-5T2:41:23Z</time></trkpt>
<trkpt lat="46.47243" lon="6.30274"><ele></ele><time>2017-9-5T2:41:26Z</time></trkpt>
<trkpt lat="46.47246" lon="6.30278"><ele></ele><time>2017-9-5T2:41:29Z</time></trkpt>
<trkpt lat="46.47247" lon="6.30282"><ele></ele><time>2017-9-5T2:41:32Z</time></trkpt>
<trkpt lat="46.47249" lon="6.30286"><ele></ele><time>2017-9-5T2:41:35Z</time></trkpt>
<trkpt lat="46.47251" lon="6.3029"><ele></ele><time>2017-9-5T2:41:38Z</time></trkpt>
<trkpt lat="46.47253" lon="6.30294"><ele></ele><time>2017-9-5T2:41:41Z</time></trkpt>
<trkpt lat="46.47254" lon="6.30298"><ele></ele><time>2017-9-5T2:41:44Z</time></trkpt>
<trkpt lat="46.47256" lon="6.30302"><ele></ele><time>2017-9-5T2:41:47Z</time></trkpt>
<trkpt lat="46.47257" lon="6.30304"><ele></ele><time>2017-9-5T2:41:50Z</time></trkpt>
<trkpt lat="46.47258" lon="6.30306"><ele></ele><time>2017-9-5T2:41:53Z</time></trkpt>
<trkpt lat="46.47258" lon="6.30308"><ele></ele><time>2017-9-5T2:41:56Z</time></trkpt>
<trkpt lat="46.4726" lon="6.30314"><ele></ele><time>2017-9-5T2:41:59Z</time></trkpt>
<trkpt lat="46.47262" lon="6.30317"><ele></ele><time>2017-9-5T2:42:2Z</time></trkpt>
<trkpt lat="46.47263" lon="6.30319"><ele></ele><time>2017-9-5T2:42:5Z</time></trkpt>
<trkpt lat="46.47263" lon="6.3032"><ele></ele><time>2017-9-5T2:42:8Z</time></trkpt>
<trkpt lat="46.47265" lon="6.30323"><ele></ele><time>2017-9-5T2:42:11Z</time></trkpt>
<trkpt lat="46.47267" lon="6.30326"><ele></ele><time>2017-9-5T2:42:14Z</time></trkpt>
<trkpt lat="46.47269" lon="6.30329"><ele></ele><time>2017-9-5T2:42:17Z</time></trkpt>
<trkpt lat="46.4727" lon="6.30332"><ele></ele><time>2017-9-5T2:42:20Z</time></trkpt>
<trkpt lat="46.47272" lon="6.30336"><ele></ele><time>2017-9-5T2:42:23Z</time></trkpt>
<trkpt lat="46.47273" lon="6.30339"><ele></ele><time>2017-9-5T2:42:26Z</time></trkpt>
<trkpt lat="46.47274" lon="6.30342"><ele></ele><time>2017-9-5T2:42:29Z</time></trkpt>
<trkpt lat="46.47275" lon="6.30344"><ele></ele><time>2017-9-5T2:42:32Z</time></trkpt>
<trkpt lat="46.47275" lon="6.30345"><ele></ele><time>2017-9-5T2:42:35Z</time></trkpt>
<trkpt lat="46.47277" lon="6.30349"><ele></ele><time>2017-9-5T2:42:38Z</time></trkpt>
<trkpt lat="46.47278" lon="6.30352"><ele></ele><time>2017-9-5T2:42:41Z</time></trkpt>
<trkpt lat="46.47279" lon="6.30356"><ele></ele><time>2017-9-5T2:42:44Z</time></trkpt>
<trkpt lat="46.4728" lon="6.30359"><ele></ele><time>2017-9-5T2:42:47Z</time></trkpt>
<trkpt lat="46.4728" lon="6.30361"><ele></ele><time>2017-9-5T2:42:50Z</time></trkpt>
<trkpt lat="46.47281" lon="6.30362"><ele></ele><time>2017-9-5T2:42:53Z</time></trkpt>
<trkpt lat="46.47282" lon="6.30366"><ele></ele><time>2017-9-5T2:42:56Z</time></trkpt>
<trkpt lat="46.47282" lon="6.30369"><ele></ele><time>2017-9-5T2:42:59Z</time></trkpt>
<trkpt lat="46.47283" lon="6.30373"><ele></ele><time>2017-9-5T2:43:2Z</time></trkpt>
<trkpt lat="46.47283" lon="6.30375"><ele></ele><time>2017-9-5T2:43:5Z</time></trkpt>
<trkpt lat="46.47283" lon="6.30377"><ele></ele><time>2017-9-5T2:43:8Z</time></trkpt>
<trkpt lat="46.47284" lon="6.30381"><ele></ele><time>2017-9-5T2:43:11Z</time></trkpt>
<trkpt lat="46.47285" lon="6.30385"><ele></ele><time>2017-9-5T2:43:14Z</time></trkpt>
<trkpt lat="46.47285" lon="6.30389"><ele></ele><time>2017-9-5T2:43:17Z</time></trkpt>
<trkpt lat="46.47285" lon="6.30393"><ele></ele><time>2017-9-5T2:43:20Z</time></trkpt>
<trkpt lat="46.47286" lon="6.30397"><ele></ele><time>2017-9-5T2:43:23Z</time></trkpt>
<trkpt lat="46.47286" lon="6.30401"><ele></ele><time>2017-9-5T2:43:26Z</time></trkpt>
<trkpt lat="46.47285" lon="6.30405"><ele></ele><time>2017-9-5T2:43:29Z</time></trkpt>
<trkpt lat="46.47285" lon="6.3041"><ele></ele><time>2017-9-5T2:43:32Z</time></trkpt>
<trkpt lat="46.47285" lon="6.30412"><ele></ele><time>2017-9-5T2:43:35Z</time></trkpt>
<trkpt lat="46.47285" lon="6.30414"><ele></ele><time>2017-9-5T2:43:38Z</time></trkpt>
<trkpt lat="46.47285" lon="6.30418"><ele></ele><time>2017-9-5T2:43:41Z</time></trkpt>
<trkpt lat="46.47285" lon="6.30422"><ele></ele><time>2017-9-5T2:43:44Z</time></trkpt>
<trkpt lat="46.47284" lon="6.30426"><ele></ele><time>2017-9-5T2:43:47Z</time></trkpt>
<trkpt lat="46.47284" lon="6.30431"><ele></ele><time>2017-9-5T2:43:50Z</time></trkpt>
<trkpt lat="46.47284" lon="6.30436"><ele></ele><time>2017-9-5T2:43:53Z</time></trkpt>
<trkpt lat="46.47283" lon="6.3044"><ele></ele><time>2017-9-5T2:43:56Z</time></trkpt>
<trkpt lat="46.47283" lon="6.30445"><ele></ele><time>2017-9-5T2:43:59Z</time></trkpt>
<trkpt lat="46.47283" lon="6.30449"><ele></ele><time>2017-9-5T2:44:2Z</time></trkpt>
<trkpt lat="46.47282" lon="6.30454"><ele></ele><time>2017-9-5T2:44:5Z</time></trkpt>
<trkpt lat="46.47282" lon="6.30456"><ele></ele><time>2017-9-5T2:44:8Z</time></trkpt>
<trkpt lat="46.47282" lon="6.30458"><ele></ele><time>2017-9-5T2:44:11Z</time></trkpt>
<trkpt lat="46.47282" lon="6.30462"><ele></ele><time>2017-9-5T2:44:14Z</time></trkpt>
<trkpt lat="46.47283" lon="6.30465"><ele></ele><time>2017-9-5T2:44:17Z</time></trkpt>
<trkpt lat="46.47283" lon="6.30469"><ele></ele><time>2017-9-5T2:44:20Z</time></trkpt>
<trkpt lat="46.47284" lon="6.30473"><ele></ele><time>2017-9-5T2:44:23Z</time></trkpt>
<trkpt lat="46.47286" lon="6.30477"><ele></ele><time>2017-9-5T2:44:26Z</time></trkpt>
<trkpt lat="46.47287" lon="6.3048"><ele></ele><time>2017-9-5T2:44:29Z</time></trkpt>
<trkpt lat="46.47289" lon="6.30484"><ele></ele><time>2017-9-5T2:44:32Z</time></trkpt>
<trkpt lat="46.47291" lon="6.30487"><ele></ele><time>2017-9-5T2:44:35Z</time></trkpt>
<trkpt lat="46.47293" lon="6.30491"><ele></ele><time>2017-9-5T2:44:38Z</time></trkpt>
<trkpt lat="46.47295" lon="6.30495"><ele></ele><time>2017-9-5T2:44:41Z</time></trkpt>
<trkpt lat="46.47297" lon="6.30499"><ele></ele><time>2017-9-5T2:44:44Z</time></trkpt>
<trkpt lat="46.47298" lon="6.30501"><ele></ele><time>2017-9-5T2:44:47Z</time></trkpt>
<trkpt lat="46.47299" lon="6.30503"><ele></ele><time>2017-9-5T2:44:50Z</time></trkpt>
<trkpt lat="46.47302" lon="6.30508"><ele></ele><time>2017-9-5T2:44:53Z</time></trkpt>
<trkpt lat="46.47304" lon="6.30514"><ele></ele><time>2017-9-5T2:44:56Z</time></trkpt>
<trkpt lat="46.47307" lon="6.3052"><ele></ele><time>2017-9-5T2:44:59Z</time></trkpt>
<trkpt lat="46.47311" lon="6.30527"><ele></ele><time>2017-9-5T2:45:2Z</time></trkpt>
<trkpt lat="46.47314" lon="6.30534"><ele></ele><time>2017-9-5T2:45:5Z</time></trkpt>
<trkpt lat="46.47317" lon="6.3054"><ele></ele><time>2017-9-5T2:45:8Z</time></trkpt>
<trkpt lat="46.4732" lon="6.30548"><ele></ele><time>2017-9-5T2:45:11Z</time></trkpt>
<trkpt lat="46.47323" lon="6.30555"><ele></ele><time>2017-9-5T2:45:14Z</time></trkpt>
<trkpt lat="46.47326" lon="6.30563"><ele></ele><time>2017-9-5T2:45:17Z</time></trkpt>
<trkpt lat="46.47328" lon="6.30571"><ele></ele><time>2017-9-5T2:45:20Z</time></trkpt>
<trkpt lat="46.4733" lon="6.30579"><ele></ele><time>2017-9-5T2:45:23Z</time></trkpt>
<trkpt lat="46.47333" lon="6.30585"><ele></ele><time>2017-9-5T2:45:26Z</time></trkpt>
<trkpt lat="46.47336" lon="6.30591"><ele></ele><time>2017-9-5T2:45:29Z</time></trkpt>
<trkpt lat="46.47339" lon="6.30598"><ele></ele><time>2017-9-5T2:45:32Z</time></trkpt>
<trkpt lat="46.47342" lon="6.30606"><ele></ele><time>2017-9-5T2:45:35Z</time></trkpt>
<trkpt lat="46.47346" lon="6.30615"><ele></ele><time>2017-9-5T2:45:38Z</time></trkpt>
<trkpt lat="46.47349" lon="6.30624"><ele></ele><time>2017-9-5T2:45:41Z</time></trkpt>
<trkpt lat="46.47354" lon="6.30634"><ele></ele><time>2017-9-5T2:45:44Z</time></trkpt>
<trkpt lat="46.47359" lon="6.30643"><ele></ele><time>2017-9-5T2:45:47Z</time></trkpt>
<trkpt lat="46.47363" lon="6.30649"><ele></ele><time>2017-9-5T2:45:50Z</time></trkpt>
<trkpt lat="46.47368" lon="6.30653"><ele></ele><time>2017-9-5T2:45:53Z</time></trkpt>
<trkpt lat="46.47374" lon="6.30654"><ele></ele><time>2017-9-5T2:45:56Z</time></trkpt>
<trkpt lat="46.47379" lon="6.30652"><ele></ele><time>2017-9-5T2:45:59Z</time></trkpt>
<trkpt lat="46.47385" lon="6.30648"><ele></ele><time>2017-9-5T2:46:2Z</time></trkpt>
<trkpt lat="46.4739" lon="6.30645"><ele></ele><time>2017-9-5T2:46:5Z</time></trkpt>
<trkpt lat="46.47395" lon="6.30641"><ele></ele><time>2017-9-5T2:46:8Z</time></trkpt>
<trkpt lat="46.474" lon="6.30637"><ele></ele><time>2017-9-5T2:46:11Z</time></trkpt>
<trkpt lat="46.47407" lon="6.30634"><ele></ele><time>2017-9-5T2:46:14Z</time></trkpt>
<trkpt lat="46.47414" lon="6.30632"><ele></ele><time>2017-9-5T2:46:17Z</time></trkpt>
<trkpt lat="46.47421" lon="6.30629"><ele></ele><time>2017-9-5T2:46:20Z</time></trkpt>
<trkpt lat="46.47429" lon="6.30627"><ele></ele><time>2017-9-5T2:46:23Z</time></trkpt>
<trkpt lat="46.47436" lon="6.30627"><ele></ele><time>2017-9-5T2:46:26Z</time></trkpt>
<trkpt lat="46.47443" lon="6.30626"><ele></ele><time>2017-9-5T2:46:29Z</time></trkpt>
<trkpt lat="46.47448" lon="6.30625"><ele></ele><time>2017-9-5T2:46:32Z</time></trkpt>
<trkpt lat="46.47451" lon="6.30626"><ele></ele><time>2017-9-5T2:46:35Z</time></trkpt>
<trkpt lat="46.47453" lon="6.30628"><ele></ele><time>2017-9-5T2:46:38Z</time></trkpt>
<trkpt lat="46.47458" lon="6.3063"><ele></ele><time>2017-9-5T2:46:41Z</time></trkpt>
<trkpt lat="46.47464" lon="6.30631"><ele></ele><time>2017-9-5T2:46:44Z</time></trkpt>
<trkpt lat="46.47469" lon="6.30633"><ele></ele><time>2017-9-5T2:46:47Z</time></trkpt>
<trkpt lat="46.47473" lon="6.30634"><ele></ele><time>2017-9-5T2:46:50Z</time></trkpt>
<trkpt lat="46.47477" lon="6.30635"><ele></ele><time>2017-9-5T2:46:53Z</time></trkpt>
<trkpt lat="46.47481" lon="6.30636"><ele></ele><time>2017-9-5T2:46:56Z</time></trkpt>
<trkpt lat="46.47486" lon="6.30637"><ele></ele><time>2017-9-5T2:46:59Z</time></trkpt>
<trkpt lat="46.47493" lon="6.30638"><ele></ele><time>2017-9-5T2:47:2Z</time></trkpt>
<trkpt lat="46.47501" lon="6.30638"><ele></ele><time>2017-9-5T2:47:5Z</time></trkpt>
<trkpt lat="46.4751" lon="6.30638"><ele></ele><time>2017-9-5T2:47:8Z</time></trkpt>
<trkpt lat="46.47521" lon="6.30637"><ele></ele><time>2017-9-5T2:47:11Z</time></trkpt>
<trkpt lat="46.47531" lon="6.30637"><ele></ele><time>2017-9-5T2:47:14Z</time></trkpt>
<trkpt lat="46.47542" lon="6.30636"><ele></ele><time>2017-9-5T2:47:17Z</time></trkpt>
<trkpt lat="46.47552" lon="6.30636"><ele></ele><time>2017-9-5T2:47:20Z</time></trkpt>
<trkpt lat="46.47556" lon="6.30635"><ele></ele><time>2017-9-5T2:47:23Z</time></trkpt>
<trkpt lat="46.47559" lon="6.30635"><ele></ele><time>2017-9-5T2:47:26Z</time></trkpt>
<trkpt lat="46.47566" lon="6.30634"><ele></ele><time>2017-9-5T2:47:29Z</time></trkpt>
<trkpt lat="46.47572" lon="6.30632"><ele></ele><time>2017-9-5T2:47:32Z</time></trkpt>
<trkpt lat="46.47579" lon="6.30629"><ele></ele><time>2017-9-5T2:47:35Z</time></trkpt>
<trkpt lat="46.47583" lon="6.30627"><ele></ele><time>2017-9-5T2:47:38Z</time></trkpt>
<trkpt lat="46.47586" lon="6.30626"><ele></ele><time>2017-9-5T2:47:41Z</time></trkpt>
<trkpt lat="46.47594" lon="6.30622"><ele></ele><time>2017-9-5T2:47:44Z</time></trkpt>
<trkpt lat="46.47603" lon="6.30619"><ele></ele><time>2017-9-5T2:47:47Z</time></trkpt>
<trkpt lat="46.47613" lon="6.30617"><ele></ele><time>2017-9-5T2:47:50Z</time></trkpt>
<trkpt lat="46.47625" lon="6.30613"><ele></ele><time>2017-9-5T2:47:53Z</time></trkpt>
<trkpt lat="46.47638" lon="6.3061"><ele></ele><time>2017-9-5T2:47:56Z</time></trkpt>
<trkpt lat="46.47652" lon="6.30607"><ele></ele><time>2017-9-5T2:47:59Z</time></trkpt>
<trkpt lat="46.47659" lon="6.30606"><ele></ele><time>2017-9-5T2:48:2Z</time></trkpt>
<trkpt lat="46.47665" lon="6.30605"><ele></ele><time>2017-9-5T2:48:5Z</time></trkpt>
<trkpt lat="46.47678" lon="6.30603"><ele></ele><time>2017-9-5T2:48:8Z</time></trkpt>
<trkpt lat="46.4769" lon="6.30602"><ele></ele><time>2017-9-5T2:48:11Z</time></trkpt>
<trkpt lat="46.47703" lon="6.30601"><ele></ele><time>2017-9-5T2:48:14Z</time></trkpt>
<trkpt lat="46.47715" lon="6.306"><ele></ele><time>2017-9-5T2:48:17Z</time></trkpt>
<trkpt lat="46.47721" lon="6.30599"><ele></ele><time>2017-9-5T2:48:20Z</time></trkpt>
<trkpt lat="46.47727" lon="6.30598"><ele></ele><time>2017-9-5T2:48:23Z</time></trkpt>
<trkpt lat="46.47738" lon="6.30598"><ele></ele><time>2017-9-5T2:48:26Z</time></trkpt>
<trkpt lat="46.47744" lon="6.30598"><ele></ele><time>2017-9-5T2:48:29Z</time></trkpt>
<trkpt lat="46.47748" lon="6.30599"><ele></ele><time>2017-9-5T2:48:32Z</time></trkpt>
<trkpt lat="46.47757" lon="6.30604"><ele></ele><time>2017-9-5T2:48:35Z</time></trkpt>
<trkpt lat="46.47763" lon="6.30611"><ele></ele><time>2017-9-5T2:48:38Z</time></trkpt>
<trkpt lat="46.47769" lon="6.30619"><ele></ele><time>2017-9-5T2:48:41Z</time></trkpt>
<trkpt lat="46.47774" lon="6.30627"><ele></ele><time>2017-9-5T2:48:44Z</time></trkpt>
<trkpt lat="46.47778" lon="6.30635"><ele></ele><time>2017-9-5T2:48:47Z</time></trkpt>
<trkpt lat="46.47784" lon="6.30641"><ele></ele><time>2017-9-5T2:48:50Z</time></trkpt>
<trkpt lat="46.47789" lon="6.30647"><ele></ele><time>2017-9-5T2:48:53Z</time></trkpt>
<trkpt lat="46.47794" lon="6.30655"><ele></ele><time>2017-9-5T2:48:56Z</time></trkpt>
<trkpt lat="46.47799" lon="6.30662"><ele></ele><time>2017-9-5T2:48:59Z</time></trkpt>
<trkpt lat="46.47803" lon="6.3067"><ele></ele><time>2017-9-5T2:49:2Z</time></trkpt>
<trkpt lat="46.47808" lon="6.30679"><ele></ele><time>2017-9-5T2:49:5Z</time></trkpt>
<trkpt lat="46.47812" lon="6.30687"><ele></ele><time>2017-9-5T2:49:8Z</time></trkpt>
<trkpt lat="46.47814" lon="6.30691"><ele></ele><time>2017-9-5T2:49:11Z</time></trkpt>
<trkpt lat="46.47816" lon="6.30695"><ele></ele><time>2017-9-5T2:49:14Z</time></trkpt>
<trkpt lat="46.4782" lon="6.30703"><ele></ele><time>2017-9-5T2:49:17Z</time></trkpt>
<trkpt lat="46.47824" lon="6.30711"><ele></ele><time>2017-9-5T2:49:20Z</time></trkpt>
<trkpt lat="46.47829" lon="6.30718"><ele></ele><time>2017-9-5T2:49:23Z</time></trkpt>
<trkpt lat="46.47834" lon="6.30725"><ele></ele><time>2017-9-5T2:49:26Z</time></trkpt>
<trkpt lat="46.47839" lon="6.30732"><ele></ele><time>2017-9-5T2:49:29Z</time></trkpt>
<trkpt lat="46.47842" lon="6.30735"><ele></ele><time>2017-9-5T2:49:32Z</time></trkpt>
<trkpt lat="46.47846" lon="6.30738"><ele></ele><time>2017-9-5T2:49:35Z</time></trkpt>
<trkpt lat="46.47848" lon="6.30741"><ele></ele><time>2017-9-5T2:49:38Z</time></trkpt>
<trkpt lat="46.4785" lon="6.30742"><ele></ele><time>2017-9-5T2:49:41Z</time></trkpt>
<trkpt lat="46.47863" lon="6.30902"><ele></ele><time>2017-9-5T2:49:44Z</time></trkpt>
<trkpt lat="46.47862" lon="6.30907"><ele></ele><time>2017-9-5T2:49:47Z</time></trkpt>
<trkpt lat="46.47862" lon="6.30911"><ele></ele><time>2017-9-5T2:49:50Z</time></trkpt>
<trkpt lat="46.47862" lon="6.30915"><ele></ele><time>2017-9-5T2:49:53Z</time></trkpt>
<trkpt lat="46.47862" lon="6.30921"><ele></ele><time>2017-9-5T2:49:56Z</time></trkpt>
<trkpt lat="46.47862" lon="6.30922"><ele></ele><time>2017-9-5T2:49:59Z</time></trkpt>
<trkpt lat="46.47862" lon="6.30946"><ele></ele><time>2017-9-5T2:50:2Z</time></trkpt>
<trkpt lat="46.47862" lon="6.3095"><ele></ele><time>2017-9-5T2:50:5Z</time></trkpt>
<trkpt lat="46.47861" lon="6.30953"><ele></ele><time>2017-9-5T2:50:8Z</time></trkpt>
<trkpt lat="46.47861" lon="6.30956"><ele></ele><time>2017-9-5T2:50:11Z</time></trkpt>
<trkpt lat="46.47861" lon="6.30959"><ele></ele><time>2017-9-5T2:50:14Z</time></trkpt>
<trkpt lat="46.4786" lon="6.30965"><ele></ele><time>2017-9-5T2:50:17Z</time></trkpt>
<trkpt lat="46.4786" lon="6.3097"><ele></ele><time>2017-9-5T2:50:20Z</time></trkpt>
<trkpt lat="46.4786" lon="6.30975"><ele></ele><time>2017-9-5T2:50:23Z</time></trkpt>
<trkpt lat="46.4786" lon="6.3098"><ele></ele><time>2017-9-5T2:50:26Z</time></trkpt>
<trkpt lat="46.4786" lon="6.30985"><ele></ele><time>2017-9-5T2:50:29Z</time></trkpt>
<trkpt lat="46.47859" lon="6.3099"><ele></ele><time>2017-9-5T2:50:32Z</time></trkpt>
<trkpt lat="46.47858" lon="6.30992"><ele></ele><time>2017-9-5T2:50:35Z</time></trkpt>
<trkpt lat="46.47858" lon="6.30995"><ele></ele><time>2017-9-5T2:50:38Z</time></trkpt>
<trkpt lat="46.47857" lon="6.30999"><ele></ele><time>2017-9-5T2:50:41Z</time></trkpt>
<trkpt lat="46.47857" lon="6.31004"><ele></ele><time>2017-9-5T2:50:44Z</time></trkpt>
<trkpt lat="46.47857" lon="6.31008"><ele></ele><time>2017-9-5T2:50:47Z</time></trkpt>
<trkpt lat="46.47856" lon="6.31011"><ele></ele><time>2017-9-5T2:50:50Z</time></trkpt>
<trkpt lat="46.47858" lon="6.31015"><ele></ele><time>2017-9-5T2:50:53Z</time></trkpt>
<trkpt lat="46.47857" lon="6.31019"><ele></ele><time>2017-9-5T2:50:56Z</time></trkpt>
<trkpt lat="46.47857" lon="6.31023"><ele></ele><time>2017-9-5T2:50:59Z</time></trkpt>
<trkpt lat="46.47857" lon="6.31027"><ele></ele><time>2017-9-5T2:51:2Z</time></trkpt>
<trkpt lat="46.47856" lon="6.31032"><ele></ele><time>2017-9-5T2:51:5Z</time></trkpt>
<trkpt lat="46.47856" lon="6.31037"><ele></ele><time>2017-9-5T2:51:8Z</time></trkpt>
<trkpt lat="46.47856" lon="6.31042"><ele></ele><time>2017-9-5T2:51:11Z</time></trkpt>
<trkpt lat="46.47856" lon="6.31048"><ele></ele><time>2017-9-5T2:51:14Z</time></trkpt>
<trkpt lat="46.47856" lon="6.31056"><ele></ele><time>2017-9-5T2:51:17Z</time></trkpt>
<trkpt lat="46.47855" lon="6.31063"><ele></ele><time>2017-9-5T2:51:20Z</time></trkpt>
<trkpt lat="46.47855" lon="6.31069"><ele></ele><time>2017-9-5T2:51:23Z</time></trkpt>
<trkpt lat="46.47855" lon="6.31075"><ele></ele><time>2017-9-5T2:51:26Z</time></trkpt>
<trkpt lat="46.47854" lon="6.31081"><ele></ele><time>2017-9-5T2:51:29Z</time></trkpt>
<trkpt lat="46.47854" lon="6.31087"><ele></ele><time>2017-9-5T2:51:32Z</time></trkpt>
<trkpt lat="46.47853" lon="6.31093"><ele></ele><time>2017-9-5T2:51:35Z</time></trkpt>
<trkpt lat="46.47852" lon="6.31098"><ele></ele><time>2017-9-5T2:51:38Z</time></trkpt>
<trkpt lat="46.47852" lon="6.31101"><ele></ele><time>2017-9-5T2:51:41Z</time></trkpt>
<trkpt lat="46.47851" lon="6.31109"><ele></ele><time>2017-9-5T2:51:44Z</time></trkpt>
<trkpt lat="46.4785" lon="6.31114"><ele></ele><time>2017-9-5T2:51:47Z</time></trkpt>
<trkpt lat="46.47849" lon="6.31118"><ele></ele><time>2017-9-5T2:51:50Z</time></trkpt>
<trkpt lat="46.47848" lon="6.31121"><ele></ele><time>2017-9-5T2:51:53Z</time></trkpt>
<trkpt lat="46.47847" lon="6.31124"><ele></ele><time>2017-9-5T2:51:56Z</time></trkpt>
<trkpt lat="46.47847" lon="6.31128"><ele></ele><time>2017-9-5T2:51:59Z</time></trkpt>
<trkpt lat="46.47847" lon="6.31133"><ele></ele><time>2017-9-5T2:52:2Z</time></trkpt>
<trkpt lat="46.47848" lon="6.31138"><ele></ele><time>2017-9-5T2:52:5Z</time></trkpt>
<trkpt lat="46.47848" lon="6.31143"><ele></ele><time>2017-9-5T2:52:8Z</time></trkpt>
<trkpt lat="46.47848" lon="6.31147"><ele></ele><time>2017-9-5T2:52:11Z</time></trkpt>
<trkpt lat="46.47848" lon="6.31153"><ele></ele><time>2017-9-5T2:52:14Z</time></trkpt>
<trkpt lat="46.47847" lon="6.31158"><ele></ele><time>2017-9-5T2:52:17Z</time></trkpt>
<trkpt lat="46.47847" lon="6.31164"><ele></ele><time>2017-9-5T2:52:20Z</time></trkpt>
<trkpt lat="46.47847" lon="6.31169"><ele></ele><time>2017-9-5T2:52:23Z</time></trkpt>
<trkpt lat="46.47848" lon="6.31174"><ele></ele><time>2017-9-5T2:52:26Z</time></trkpt>
<trkpt lat="46.47848" lon="6.31179"><ele></ele><time>2017-9-5T2:52:29Z</time></trkpt>
<trkpt lat="46.47848" lon="6.31184"><ele></ele><time>2017-9-5T2:52:32Z</time></trkpt>
<trkpt lat="46.47849" lon="6.31188"><ele></ele><time>2017-9-5T2:52:35Z</time></trkpt>
<trkpt lat="46.4785" lon="6.31193"><ele></ele><time>2017-9-5T2:52:38Z</time></trkpt>
<trkpt lat="46.47851" lon="6.31198"><ele></ele><time>2017-9-5T2:52:41Z</time></trkpt>
<trkpt lat="46.47852" lon="6.31203"><ele></ele><time>2017-9-5T2:52:44Z</time></trkpt>
<trkpt lat="46.47853" lon="6.31208"><ele></ele><time>2017-9-5T2:52:47Z</time></trkpt>
<trkpt lat="46.47854" lon="6.31212"><ele></ele><time>2017-9-5T2:52:50Z</time></trkpt>
<trkpt lat="46.47855" lon="6.31217"><ele></ele><time>2017-9-5T2:52:53Z</time></trkpt>
<trkpt lat="46.47857" lon="6.31222"><ele></ele><time>2017-9-5T2:52:56Z</time></trkpt>
<trkpt lat="46.47858" lon="6.31227"><ele></ele><time>2017-9-5T2:52:59Z</time></trkpt>
<trkpt lat="46.4786" lon="6.31233"><ele></ele><time>2017-9-5T2:53:2Z</time></trkpt>
<trkpt lat="46.47862" lon="6.3124"><ele></ele><time>2017-9-5T2:53:5Z</time></trkpt>
<trkpt lat="46.47864" lon="6.31247"><ele></ele><time>2017-9-5T2:53:8Z</time></trkpt>
<trkpt lat="46.47866" lon="6.31254"><ele></ele><time>2017-9-5T2:53:11Z</time></trkpt>
<trkpt lat="46.47868" lon="6.31263"><ele></ele><time>2017-9-5T2:53:14Z</time></trkpt>
<trkpt lat="46.4787" lon="6.31271"><ele></ele><time>2017-9-5T2:53:17Z</time></trkpt>
<trkpt lat="46.47872" lon="6.31279"><ele></ele><time>2017-9-5T2:53:20Z</time></trkpt>
<trkpt lat="46.47874" lon="6.31289"><ele></ele><time>2017-9-5T2:53:23Z</time></trkpt>
<trkpt lat="46.47876" lon="6.313"><ele></ele><time>2017-9-5T2:53:26Z</time></trkpt>
<trkpt lat="46.47879" lon="6.31312"><ele></ele><time>2017-9-5T2:53:29Z</time></trkpt>
<trkpt lat="46.4788" lon="6.31318"><ele></ele><time>2017-9-5T2:53:32Z</time></trkpt>
<trkpt lat="46.47881" lon="6.31325"><ele></ele><time>2017-9-5T2:53:35Z</time></trkpt>
<trkpt lat="46.47882" lon="6.31338"><ele></ele><time>2017-9-5T2:53:38Z</time></trkpt>
<trkpt lat="46.47884" lon="6.3135"><ele></ele><time>2017-9-5T2:53:41Z</time></trkpt>
<trkpt lat="46.47885" lon="6.3136"><ele></ele><time>2017-9-5T2:53:44Z</time></trkpt>
<trkpt lat="46.47885" lon="6.31364"><ele></ele><time>2017-9-5T2:53:47Z</time></trkpt>
<trkpt lat="46.47886" lon="6.31379"><ele></ele><time>2017-9-5T2:53:50Z</time></trkpt>
<trkpt lat="46.47886" lon="6.3139"><ele></ele><time>2017-9-5T2:53:53Z</time></trkpt>
<trkpt lat="46.47887" lon="6.314"><ele></ele><time>2017-9-5T2:53:56Z</time></trkpt>
<trkpt lat="46.47887" lon="6.3141"><ele></ele><time>2017-9-5T2:53:59Z</time></trkpt>
<trkpt lat="46.47887" lon="6.3142"><ele></ele><time>2017-9-5T2:54:2Z</time></trkpt>
<trkpt lat="46.47887" lon="6.3143"><ele></ele><time>2017-9-5T2:54:5Z</time></trkpt>
<trkpt lat="46.47887" lon="6.31439"><ele></ele><time>2017-9-5T2:54:8Z</time></trkpt>
<trkpt lat="46.47887" lon="6.31449"><ele></ele><time>2017-9-5T2:54:11Z</time></trkpt>
<trkpt lat="46.47886" lon="6.31459"><ele></ele><time>2017-9-5T2:54:14Z</time></trkpt>
<trkpt lat="46.47885" lon="6.31471"><ele></ele><time>2017-9-5T2:54:17Z</time></trkpt>
<trkpt lat="46.47884" lon="6.31481"><ele></ele><time>2017-9-5T2:54:20Z</time></trkpt>
<trkpt lat="46.47882" lon="6.31493"><ele></ele><time>2017-9-5T2:54:23Z</time></trkpt>
<trkpt lat="46.47882" lon="6.31504"><ele></ele><time>2017-9-5T2:54:26Z</time></trkpt>
<trkpt lat="46.47882" lon="6.31516"><ele></ele><time>2017-9-5T2:54:29Z</time></trkpt>
<trkpt lat="46.47882" lon="6.31522"><ele></ele><time>2017-9-5T2:54:32Z</time></trkpt>
<trkpt lat="46.47883" lon="6.31528"><ele></ele><time>2017-9-5T2:54:35Z</time></trkpt>
<trkpt lat="46.47885" lon="6.3154"><ele></ele><time>2017-9-5T2:54:38Z</time></trkpt>
<trkpt lat="46.47888" lon="6.31551"><ele></ele><time>2017-9-5T2:54:41Z</time></trkpt>
<trkpt lat="46.47892" lon="6.31562"><ele></ele><time>2017-9-5T2:54:44Z</time></trkpt>
<trkpt lat="46.47896" lon="6.31571"><ele></ele><time>2017-9-5T2:54:47Z</time></trkpt>
<trkpt lat="46.479" lon="6.3158"><ele></ele><time>2017-9-5T2:54:50Z</time></trkpt>
<trkpt lat="46.47904" lon="6.31588"><ele></ele><time>2017-9-5T2:54:53Z</time></trkpt>
<trkpt lat="46.47909" lon="6.31597"><ele></ele><time>2017-9-5T2:54:56Z</time></trkpt>
<trkpt lat="46.47913" lon="6.31606"><ele></ele><time>2017-9-5T2:54:59Z</time></trkpt>
<trkpt lat="46.47917" lon="6.31616"><ele></ele><time>2017-9-5T2:55:2Z</time></trkpt>
<trkpt lat="46.4792" lon="6.31628"><ele></ele><time>2017-9-5T2:55:5Z</time></trkpt>
<trkpt lat="46.4792" lon="6.31645"><ele></ele><time>2017-9-5T2:55:8Z</time></trkpt>
<trkpt lat="46.47919" lon="6.31654"><ele></ele><time>2017-9-5T2:55:11Z</time></trkpt>
<trkpt lat="46.47918" lon="6.31662"><ele></ele><time>2017-9-5T2:55:14Z</time></trkpt>
<trkpt lat="46.47917" lon="6.31671"><ele></ele><time>2017-9-5T2:55:17Z</time></trkpt>
<trkpt lat="46.47917" lon="6.31679"><ele></ele><time>2017-9-5T2:55:20Z</time></trkpt>
<trkpt lat="46.47918" lon="6.31686"><ele></ele><time>2017-9-5T2:55:23Z</time></trkpt>
<trkpt lat="46.47921" lon="6.31693"><ele></ele><time>2017-9-5T2:55:26Z</time></trkpt>
<trkpt lat="46.47926" lon="6.31705"><ele></ele><time>2017-9-5T2:55:29Z</time></trkpt>
<trkpt lat="46.47931" lon="6.31718"><ele></ele><time>2017-9-5T2:55:32Z</time></trkpt>
<trkpt lat="46.47933" lon="6.31724"><ele></ele><time>2017-9-5T2:55:35Z</time></trkpt>
<trkpt lat="46.47935" lon="6.3173"><ele></ele><time>2017-9-5T2:55:38Z</time></trkpt>
<trkpt lat="46.47936" lon="6.31736"><ele></ele><time>2017-9-5T2:55:41Z</time></trkpt>
<trkpt lat="46.47937" lon="6.31743"><ele></ele><time>2017-9-5T2:55:44Z</time></trkpt>
<trkpt lat="46.47939" lon="6.31755"><ele></ele><time>2017-9-5T2:55:47Z</time></trkpt>
<trkpt lat="46.47941" lon="6.31768"><ele></ele><time>2017-9-5T2:55:50Z</time></trkpt>
<trkpt lat="46.47943" lon="6.31781"><ele></ele><time>2017-9-5T2:55:53Z</time></trkpt>
<trkpt lat="46.47945" lon="6.31792"><ele></ele><time>2017-9-5T2:55:56Z</time></trkpt>
<trkpt lat="46.47947" lon="6.31803"><ele></ele><time>2017-9-5T2:55:59Z</time></trkpt>
<trkpt lat="46.47949" lon="6.31812"><ele></ele><time>2017-9-5T2:56:2Z</time></trkpt>
<trkpt lat="46.47951" lon="6.3182"><ele></ele><time>2017-9-5T2:56:5Z</time></trkpt>
<trkpt lat="46.47955" lon="6.31827"><ele></ele><time>2017-9-5T2:56:8Z</time></trkpt>
<trkpt lat="46.47957" lon="6.31834"><ele></ele><time>2017-9-5T2:56:11Z</time></trkpt>
<trkpt lat="46.47959" lon="6.31841"><ele></ele><time>2017-9-5T2:56:14Z</time></trkpt>
<trkpt lat="46.4796" lon="6.31848"><ele></ele><time>2017-9-5T2:56:17Z</time></trkpt>
<trkpt lat="46.47962" lon="6.31855"><ele></ele><time>2017-9-5T2:56:20Z</time></trkpt>
<trkpt lat="46.47964" lon="6.31861"><ele></ele><time>2017-9-5T2:56:23Z</time></trkpt>
<trkpt lat="46.47966" lon="6.31867"><ele></ele><time>2017-9-5T2:56:26Z</time></trkpt>
<trkpt lat="46.47967" lon="6.31872"><ele></ele><time>2017-9-5T2:56:29Z</time></trkpt>
<trkpt lat="46.47969" lon="6.31877"><ele></ele><time>2017-9-5T2:56:32Z</time></trkpt>
<trkpt lat="46.47971" lon="6.31881"><ele></ele><time>2017-9-5T2:56:35Z</time></trkpt>
<trkpt lat="46.47974" lon="6.31886"><ele></ele><time>2017-9-5T2:56:38Z</time></trkpt>
<trkpt lat="46.47975" lon="6.31888"><ele></ele><time>2017-9-5T2:56:41Z</time></trkpt>
<trkpt lat="46.47976" lon="6.3189"><ele></ele><time>2017-9-5T2:56:44Z</time></trkpt>
<trkpt lat="46.47978" lon="6.31895"><ele></ele><time>2017-9-5T2:56:47Z</time></trkpt>
<trkpt lat="46.47981" lon="6.319"><ele></ele><time>2017-9-5T2:56:50Z</time></trkpt>
<trkpt lat="46.47983" lon="6.31905"><ele></ele><time>2017-9-5T2:56:53Z</time></trkpt>
<trkpt lat="46.47985" lon="6.3191"><ele></ele><time>2017-9-5T2:56:56Z</time></trkpt>
<trkpt lat="46.47986" lon="6.31915"><ele></ele><time>2017-9-5T2:56:59Z</time></trkpt>
<trkpt lat="46.47986" lon="6.3192"><ele></ele><time>2017-9-5T2:57:2Z</time></trkpt>
<trkpt lat="46.47986" lon="6.31924"><ele></ele><time>2017-9-5T2:57:5Z</time></trkpt>
<trkpt lat="46.47986" lon="6.31926"><ele></ele><time>2017-9-5T2:57:8Z</time></trkpt>
<trkpt lat="46.47987" lon="6.31928"><ele></ele><time>2017-9-5T2:57:11Z</time></trkpt>
<trkpt lat="46.47988" lon="6.31932"><ele></ele><time>2017-9-5T2:57:14Z</time></trkpt>
<trkpt lat="46.47989" lon="6.31937"><ele></ele><time>2017-9-5T2:57:17Z</time></trkpt>
<trkpt lat="46.47988" lon="6.31942"><ele></ele><time>2017-9-5T2:57:20Z</time></trkpt>
<trkpt lat="46.47987" lon="6.31947"><ele></ele><time>2017-9-5T2:57:23Z</time></trkpt>
<trkpt lat="46.47987" lon="6.31952"><ele></ele><time>2017-9-5T2:57:26Z</time></trkpt>
<trkpt lat="46.47987" lon="6.31957"><ele></ele><time>2017-9-5T2:57:29Z</time></trkpt>
<trkpt lat="46.47987" lon="6.31959"><ele></ele><time>2017-9-5T2:57:32Z</time></trkpt>
<trkpt lat="46.47988" lon="6.31961"><ele></ele><time>2017-9-5T2:57:35Z</time></trkpt>
<trkpt lat="46.47989" lon="6.31966"><ele></ele><time>2017-9-5T2:57:38Z</time></trkpt>
<trkpt lat="46.4799" lon="6.31971"><ele></ele><time>2017-9-5T2:57:41Z</time></trkpt>
<trkpt lat="46.47992" lon="6.31975"><ele></ele><time>2017-9-5T2:57:44Z</time></trkpt>
<trkpt lat="46.47994" lon="6.31979"><ele></ele><time>2017-9-5T2:57:47Z</time></trkpt>
<trkpt lat="46.47995" lon="6.31981"><ele></ele><time>2017-9-5T2:57:50Z</time></trkpt>
<trkpt lat="46.47996" lon="6.31982"><ele></ele><time>2017-9-5T2:57:53Z</time></trkpt>
<trkpt lat="46.47998" lon="6.31986"><ele></ele><time>2017-9-5T2:57:56Z</time></trkpt>
<trkpt lat="46.48" lon="6.3199"><ele></ele><time>2017-9-5T2:57:59Z</time></trkpt>
<trkpt lat="46.48003" lon="6.31993"><ele></ele><time>2017-9-5T2:58:2Z</time></trkpt>
<trkpt lat="46.48005" lon="6.31995"><ele></ele><time>2017-9-5T2:58:5Z</time></trkpt>
<trkpt lat="46.48007" lon="6.31996"><ele></ele><time>2017-9-5T2:58:8Z</time></trkpt>
<trkpt lat="46.48008" lon="6.31997"><ele></ele><time>2017-9-5T2:58:11Z</time></trkpt>
<trkpt lat="46.48012" lon="6.31999"><ele></ele><time>2017-9-5T2:58:14Z</time></trkpt>
<trkpt lat="46.48013" lon="6.31999"><ele></ele><time>2017-9-5T2:58:17Z</time></trkpt>
<trkpt lat="46.48015" lon="6.32"><ele></ele><time>2017-9-5T2:58:20Z</time></trkpt>
<trkpt lat="46.48018" lon="6.32"><ele></ele><time>2017-9-5T2:58:23Z</time></trkpt>
<trkpt lat="46.4802" lon="6.32001"><ele></ele><time>2017-9-5T2:58:26Z</time></trkpt>
<trkpt lat="46.48022" lon="6.32001"><ele></ele><time>2017-9-5T2:58:29Z</time></trkpt>
<trkpt lat="46.48023" lon="6.32002"><ele></ele><time>2017-9-5T2:58:32Z</time></trkpt>
<trkpt lat="46.48027" lon="6.32004"><ele></ele><time>2017-9-5T2:58:35Z</time></trkpt>
<trkpt lat="46.48029" lon="6.32005"><ele></ele><time>2017-9-5T2:58:38Z</time></trkpt>
<trkpt lat="46.48033" lon="6.32008"><ele></ele><time>2017-9-5T2:58:41Z</time></trkpt>
<trkpt lat="46.48037" lon="6.3201"><ele></ele><time>2017-9-5T2:58:44Z</time></trkpt>
<trkpt lat="46.48041" lon="6.32013"><ele></ele><time>2017-9-5T2:58:47Z</time></trkpt>
<trkpt lat="46.48044" lon="6.32016"><ele></ele><time>2017-9-5T2:58:50Z</time></trkpt>
<trkpt lat="46.48046" lon="6.32017"><ele></ele><time>2017-9-5T2:58:53Z</time></trkpt>
<trkpt lat="46.48048" lon="6.32018"><ele></ele><time>2017-9-5T2:58:56Z</time></trkpt>
<trkpt lat="46.48052" lon="6.32021"><ele></ele><time>2017-9-5T2:58:59Z</time></trkpt>
<trkpt lat="46.48055" lon="6.32023"><ele></ele><time>2017-9-5T2:59:2Z</time></trkpt>
<trkpt lat="46.48057" lon="6.32025"><ele></ele><time>2017-9-5T2:59:5Z</time></trkpt>
<trkpt lat="46.48058" lon="6.32026"><ele></ele><time>2017-9-5T2:59:8Z</time></trkpt>
<trkpt lat="46.48062" lon="6.32025"><ele></ele><time>2017-9-5T2:59:11Z</time></trkpt>
<trkpt lat="46.48064" lon="6.32023"><ele></ele><time>2017-9-5T2:59:14Z</time></trkpt>
<trkpt lat="46.48065" lon="6.32021"><ele></ele><time>2017-9-5T2:59:17Z</time></trkpt>
<trkpt lat="46.48065" lon="6.32019"><ele></ele><time>2017-9-5T2:59:20Z</time></trkpt>
<trkpt lat="46.48065" lon="6.32016"><ele></ele><time>2017-9-5T2:59:23Z</time></trkpt>
<trkpt lat="46.48064" lon="6.32012"><ele></ele><time>2017-9-5T2:59:26Z</time></trkpt>
<trkpt lat="46.48063" lon="6.3201"><ele></ele><time>2017-9-5T2:59:29Z</time></trkpt>
<trkpt lat="46.48063" lon="6.32009"><ele></ele><time>2017-9-5T2:59:32Z</time></trkpt>
<trkpt lat="46.48063" lon="6.32009"><ele></ele><time>2017-9-5T2:59:35Z</time></trkpt>
<trkpt lat="46.48065" lon="6.32004"><ele></ele><time>2017-9-5T2:59:38Z</time></trkpt>
<trkpt lat="46.48065" lon="6.32001"><ele></ele><time>2017-9-5T2:59:41Z</time></trkpt>
<trkpt lat="46.48065" lon="6.31996"><ele></ele><time>2017-9-5T2:59:44Z</time></trkpt>
<trkpt lat="46.48066" lon="6.31994"><ele></ele><time>2017-9-5T2:59:47Z</time></trkpt>
<trkpt lat="46.48066" lon="6.31992"><ele></ele><time>2017-9-5T2:59:50Z</time></trkpt>
<trkpt lat="46.48066" lon="6.31986"><ele></ele><time>2017-9-5T2:59:53Z</time></trkpt>
<trkpt lat="46.48065" lon="6.3198"><ele></ele><time>2017-9-5T2:59:56Z</time></trkpt>
<trkpt lat="46.48065" lon="6.31975"><ele></ele><time>2017-9-5T2:59:59Z</time></trkpt>
<trkpt lat="46.48064" lon="6.31968"><ele></ele><time>2017-9-5T3:0:2Z</time></trkpt>
<trkpt lat="46.48063" lon="6.31962"><ele></ele><time>2017-9-5T3:0:5Z</time></trkpt>
<trkpt lat="46.48062" lon="6.31959"><ele></ele><time>2017-9-5T3:0:8Z</time></trkpt>
<trkpt lat="46.4806" lon="6.31949"><ele></ele><time>2017-9-5T3:0:11Z</time></trkpt>
<trkpt lat="46.48059" lon="6.31942"><ele></ele><time>2017-9-5T3:0:14Z</time></trkpt>
<trkpt lat="46.48058" lon="6.31936"><ele></ele><time>2017-9-5T3:0:17Z</time></trkpt>
<trkpt lat="46.48057" lon="6.3193"><ele></ele><time>2017-9-5T3:0:20Z</time></trkpt>
<trkpt lat="46.48056" lon="6.31923"><ele></ele><time>2017-9-5T3:0:23Z</time></trkpt>
<trkpt lat="46.48055" lon="6.31917"><ele></ele><time>2017-9-5T3:0:26Z</time></trkpt>
<trkpt lat="46.48054" lon="6.31911"><ele></ele><time>2017-9-5T3:0:29Z</time></trkpt>
<trkpt lat="46.48053" lon="6.31906"><ele></ele><time>2017-9-5T3:0:32Z</time></trkpt>
<trkpt lat="46.48053" lon="6.31903"><ele></ele><time>2017-9-5T3:0:35Z</time></trkpt>
<trkpt lat="46.48053" lon="6.319"><ele></ele><time>2017-9-5T3:0:38Z</time></trkpt>
<trkpt lat="46.48051" lon="6.31895"><ele></ele><time>2017-9-5T3:0:41Z</time></trkpt>
<trkpt lat="46.48051" lon="6.3189"><ele></ele><time>2017-9-5T3:0:44Z</time></trkpt>
<trkpt lat="46.4805" lon="6.31885"><ele></ele><time>2017-9-5T3:0:47Z</time></trkpt>
<trkpt lat="46.48051" lon="6.31882"><ele></ele><time>2017-9-5T3:0:50Z</time></trkpt>
<trkpt lat="46.48051" lon="6.3188"><ele></ele><time>2017-9-5T3:0:53Z</time></trkpt>
<trkpt lat="46.48053" lon="6.31875"><ele></ele><time>2017-9-5T3:0:56Z</time></trkpt>
<trkpt lat="46.48057" lon="6.3187"><ele></ele><time>2017-9-5T3:0:59Z</time></trkpt>
<trkpt lat="46.48061" lon="6.31868"><ele></ele><time>2017-9-5T3:1:2Z</time></trkpt>
<trkpt lat="46.48063" lon="6.31866"><ele></ele><time>2017-9-5T3:1:5Z</time></trkpt>
<trkpt lat="46.48066" lon="6.31865"><ele></ele><time>2017-9-5T3:1:8Z</time></trkpt>
<trkpt lat="46.4807" lon="6.31862"><ele></ele><time>2017-9-5T3:1:11Z</time></trkpt>
<trkpt lat="46.48075" lon="6.31859"><ele></ele><time>2017-9-5T3:1:14Z</time></trkpt>
<trkpt lat="46.48079" lon="6.31856"><ele></ele><time>2017-9-5T3:1:17Z</time></trkpt>
<trkpt lat="46.48083" lon="6.31854"><ele></ele><time>2017-9-5T3:1:20Z</time></trkpt>
<trkpt lat="46.48086" lon="6.31852"><ele></ele><time>2017-9-5T3:1:23Z</time></trkpt>
<trkpt lat="46.48088" lon="6.31851"><ele></ele><time>2017-9-5T3:1:26Z</time></trkpt>
<trkpt lat="46.48092" lon="6.31848"><ele></ele><time>2017-9-5T3:1:29Z</time></trkpt>
<trkpt lat="46.48096" lon="6.31846"><ele></ele><time>2017-9-5T3:1:32Z</time></trkpt>
<trkpt lat="46.481" lon="6.31843"><ele></ele><time>2017-9-5T3:1:35Z</time></trkpt>
<trkpt lat="46.48103" lon="6.31841"><ele></ele><time>2017-9-5T3:1:38Z</time></trkpt>
<trkpt lat="46.48107" lon="6.31839"><ele></ele><time>2017-9-5T3:1:41Z</time></trkpt>
<trkpt lat="46.48111" lon="6.31836"><ele></ele><time>2017-9-5T3:1:44Z</time></trkpt>
<trkpt lat="46.48113" lon="6.31835"><ele></ele><time>2017-9-5T3:1:47Z</time></trkpt>
<trkpt lat="46.48115" lon="6.31834"><ele></ele><time>2017-9-5T3:1:50Z</time></trkpt>
<trkpt lat="46.4812" lon="6.31831"><ele></ele><time>2017-9-5T3:1:53Z</time></trkpt>
<trkpt lat="46.48124" lon="6.31828"><ele></ele><time>2017-9-5T3:1:56Z</time></trkpt>
<trkpt lat="46.48129" lon="6.31825"><ele></ele><time>2017-9-5T3:1:59Z</time></trkpt>
<trkpt lat="46.48133" lon="6.31822"><ele></ele><time>2017-9-5T3:2:2Z</time></trkpt>
<trkpt lat="46.48136" lon="6.3182"><ele></ele><time>2017-9-5T3:2:5Z</time></trkpt>
<trkpt lat="46.48138" lon="6.31819"><ele></ele><time>2017-9-5T3:2:8Z</time></trkpt>
<trkpt lat="46.48141" lon="6.31817"><ele></ele><time>2017-9-5T3:2:11Z</time></trkpt>
<trkpt lat="46.48145" lon="6.31815"><ele></ele><time>2017-9-5T3:2:14Z</time></trkpt>
<trkpt lat="46.48148" lon="6.31813"><ele></ele><time>2017-9-5T3:2:17Z</time></trkpt>
<trkpt lat="46.48151" lon="6.3181"><ele></ele><time>2017-9-5T3:2:20Z</time></trkpt>
<trkpt lat="46.48153" lon="6.31809"><ele></ele><time>2017-9-5T3:2:23Z</time></trkpt>
<trkpt lat="46.48155" lon="6.31808"><ele></ele><time>2017-9-5T3:2:26Z</time></trkpt>
<trkpt lat="46.48158" lon="6.31806"><ele></ele><time>2017-9-5T3:2:29Z</time></trkpt>
<trkpt lat="46.4816" lon="6.31805"><ele></ele><time>2017-9-5T3:2:32Z</time></trkpt>
<trkpt lat="46.48165" lon="6.31802"><ele></ele><time>2017-9-5T3:2:35Z</time></trkpt>
<trkpt lat="46.48169" lon="6.31799"><ele></ele><time>2017-9-5T3:2:38Z</time></trkpt>
<trkpt lat="46.48172" lon="6.31798"><ele></ele><time>2017-9-5T3:2:41Z</time></trkpt>
<trkpt lat="46.48175" lon="6.31796"><ele></ele><time>2017-9-5T3:2:44Z</time></trkpt>
<trkpt lat="46.48179" lon="6.31794"><ele></ele><time>2017-9-5T3:2:47Z</time></trkpt>
<trkpt lat="46.48182" lon="6.31792"><ele></ele><time>2017-9-5T3:2:50Z</time></trkpt>
<trkpt lat="46.48185" lon="6.31791"><ele></ele><time>2017-9-5T3:2:53Z</time></trkpt>
<trkpt lat="46.48186" lon="6.31789"><ele></ele><time>2017-9-5T3:2:56Z</time></trkpt>
<trkpt lat="46.48188" lon="6.31788"><ele></ele><time>2017-9-5T3:2:59Z</time></trkpt>
<trkpt lat="46.48191" lon="6.31787"><ele></ele><time>2017-9-5T3:3:2Z</time></trkpt>
<trkpt lat="46.48193" lon="6.31785"><ele></ele><time>2017-9-5T3:3:5Z</time></trkpt>
<trkpt lat="46.48195" lon="6.31784"><ele></ele><time>2017-9-5T3:3:8Z</time></trkpt>
<trkpt lat="46.48196" lon="6.31783"><ele></ele><time>2017-9-5T3:3:11Z</time></trkpt>
<trkpt lat="46.48199" lon="6.31781"><ele></ele><time>2017-9-5T3:3:14Z</time></trkpt>
<trkpt lat="46.48202" lon="6.31779"><ele></ele><time>2017-9-5T3:3:17Z</time></trkpt>
<trkpt lat="46.48205" lon="6.31777"><ele></ele><time>2017-9-5T3:3:20Z</time></trkpt>
<trkpt lat="46.48208" lon="6.31776"><ele></ele><time>2017-9-5T3:3:23Z</time></trkpt>
<trkpt lat="46.48211" lon="6.31773"><ele></ele><time>2017-9-5T3:3:26Z</time></trkpt>
<trkpt lat="46.48215" lon="6.31772"><ele></ele><time>2017-9-5T3:3:29Z</time></trkpt>
<trkpt lat="46.48218" lon="6.3177"><ele></ele><time>2017-9-5T3:3:32Z</time></trkpt>
<trkpt lat="46.48219" lon="6.31769"><ele></ele><time>2017-9-5T3:3:35Z</time></trkpt>
<trkpt lat="46.48221" lon="6.31769"><ele></ele><time>2017-9-5T3:3:38Z</time></trkpt>
<trkpt lat="46.48223" lon="6.31767"><ele></ele><time>2017-9-5T3:3:41Z</time></trkpt>
<trkpt lat="46.48225" lon="6.31766"><ele></ele><time>2017-9-5T3:3:44Z</time></trkpt>
<trkpt lat="46.48226" lon="6.31765"><ele></ele><time>2017-9-5T3:3:47Z</time></trkpt>
<trkpt lat="46.48227" lon="6.31761"><ele></ele><time>2017-9-5T3:3:50Z</time></trkpt>
<trkpt lat="46.48227" lon="6.31757"><ele></ele><time>2017-9-5T3:3:53Z</time></trkpt>
<trkpt lat="46.48227" lon="6.31753"><ele></ele><time>2017-9-5T3:3:56Z</time></trkpt>
<trkpt lat="46.48226" lon="6.31751"><ele></ele><time>2017-9-5T3:3:59Z</time></trkpt>
<trkpt lat="46.48226" lon="6.31749"><ele></ele><time>2017-9-5T3:4:2Z</time></trkpt>
<trkpt lat="46.48225" lon="6.31747"><ele></ele><time>2017-9-5T3:4:5Z</time></trkpt>
<trkpt lat="46.48225" lon="6.31745"><ele></ele><time>2017-9-5T3:4:8Z</time></trkpt>
<trkpt lat="46.48223" lon="6.31741"><ele></ele><time>2017-9-5T3:4:11Z</time></trkpt>
<trkpt lat="46.48222" lon="6.31736"><ele></ele><time>2017-9-5T3:4:14Z</time></trkpt>
<trkpt lat="46.48222" lon="6.31736"><ele></ele><time>2017-9-5T3:4:17Z</time></trkpt>
<trkpt lat="46.48221" lon="6.31732"><ele></ele><time>2017-9-5T3:4:20Z</time></trkpt>
<trkpt lat="46.4822" lon="6.31728"><ele></ele><time>2017-9-5T3:4:23Z</time></trkpt>
<trkpt lat="46.48218" lon="6.31724"><ele></ele><time>2017-9-5T3:4:26Z</time></trkpt>
<trkpt lat="46.48217" lon="6.3172"><ele></ele><time>2017-9-5T3:4:29Z</time></trkpt>
<trkpt lat="46.48216" lon="6.31716"><ele></ele><time>2017-9-5T3:4:32Z</time></trkpt>
<trkpt lat="46.48215" lon="6.31712"><ele></ele><time>2017-9-5T3:4:35Z</time></trkpt>
<trkpt lat="46.48213" lon="6.31707"><ele></ele><time>2017-9-5T3:4:38Z</time></trkpt>
<trkpt lat="46.48212" lon="6.31703"><ele></ele><time>2017-9-5T3:4:41Z</time></trkpt>
<trkpt lat="46.48211" lon="6.31699"><ele></ele><time>2017-9-5T3:4:44Z</time></trkpt>
<trkpt lat="46.48209" lon="6.31694"><ele></ele><time>2017-9-5T3:4:47Z</time></trkpt>
<trkpt lat="46.48208" lon="6.31689"><ele></ele><time>2017-9-5T3:4:50Z</time></trkpt>
<trkpt lat="46.48207" lon="6.31687"><ele></ele><time>2017-9-5T3:4:53Z</time></trkpt>
<trkpt lat="46.48207" lon="6.31684"><ele></ele><time>2017-9-5T3:4:56Z</time></trkpt>
<trkpt lat="46.48206" lon="6.31682"><ele></ele><time>2017-9-5T3:4:59Z</time></trkpt>
<trkpt lat="46.48204" lon="6.31677"><ele></ele><time>2017-9-5T3:5:2Z</time></trkpt>
<trkpt lat="46.48203" lon="6.31673"><ele></ele><time>2017-9-5T3:5:5Z</time></trkpt>
<trkpt lat="46.48202" lon="6.3167"><ele></ele><time>2017-9-5T3:5:8Z</time></trkpt>
<trkpt lat="46.48201" lon="6.31667"><ele></ele><time>2017-9-5T3:5:11Z</time></trkpt>
<trkpt lat="46.482" lon="6.31662"><ele></ele><time>2017-9-5T3:5:14Z</time></trkpt>
<trkpt lat="46.48198" lon="6.31657"><ele></ele><time>2017-9-5T3:5:17Z</time></trkpt>
<trkpt lat="46.48197" lon="6.31652"><ele></ele><time>2017-9-5T3:5:20Z</time></trkpt>
<trkpt lat="46.48196" lon="6.31647"><ele></ele><time>2017-9-5T3:5:23Z</time></trkpt>
<trkpt lat="46.48194" lon="6.31644"><ele></ele><time>2017-9-5T3:5:26Z</time></trkpt>
<trkpt lat="46.48193" lon="6.31639"><ele></ele><time>2017-9-5T3:5:29Z</time></trkpt>
<trkpt lat="46.48191" lon="6.31633"><ele></ele><time>2017-9-5T3:5:32Z</time></trkpt>
<trkpt lat="46.4819" lon="6.31631"><ele></ele><time>2017-9-5T3:5:35Z</time></trkpt>
<trkpt lat="46.48189" lon="6.31629"><ele></ele><time>2017-9-5T3:5:38Z</time></trkpt>
<trkpt lat="46.48189" lon="6.31626"><ele></ele><time>2017-9-5T3:5:41Z</time></trkpt>
<trkpt lat="46.48187" lon="6.31621"><ele></ele><time>2017-9-5T3:5:44Z</time></trkpt>
<trkpt lat="46.48186" lon="6.31617"><ele></ele><time>2017-9-5T3:5:47Z</time></trkpt>
<trkpt lat="46.48185" lon="6.31613"><ele></ele><time>2017-9-5T3:5:50Z</time></trkpt>
<trkpt lat="46.48183" lon="6.31607"><ele></ele><time>2017-9-5T3:5:53Z</time></trkpt>
<trkpt lat="46.48182" lon="6.31604"><ele></ele><time>2017-9-5T3:5:56Z</time></trkpt>
<trkpt lat="46.4818" lon="6.31599"><ele></ele><time>2017-9-5T3:5:59Z</time></trkpt>
<trkpt lat="46.48179" lon="6.31595"><ele></ele><time>2017-9-5T3:6:2Z</time></trkpt>
<trkpt lat="46.48178" lon="6.31591"><ele></ele><time>2017-9-5T3:6:5Z</time></trkpt>
<trkpt lat="46.48177" lon="6.31587"><ele></ele><time>2017-9-5T3:6:8Z</time></trkpt>
<trkpt lat="46.48176" lon="6.31582"><ele></ele><time>2017-9-5T3:6:11Z</time></trkpt>
<trkpt lat="46.48174" lon="6.31575"><ele></ele><time>2017-9-5T3:6:14Z</time></trkpt>
<trkpt lat="46.48173" lon="6.31572"><ele></ele><time>2017-9-5T3:6:17Z</time></trkpt>
<trkpt lat="46.48169" lon="6.31561"><ele></ele><time>2017-9-5T3:6:20Z</time></trkpt>
<trkpt lat="46.48167" lon="6.31553"><ele></ele><time>2017-9-5T3:6:23Z</time></trkpt>
<trkpt lat="46.48164" lon="6.31544"><ele></ele><time>2017-9-5T3:6:26Z</time></trkpt>
<trkpt lat="46.48161" lon="6.31534"><ele></ele><time>2017-9-5T3:6:29Z</time></trkpt>
<trkpt lat="46.48158" lon="6.31525"><ele></ele><time>2017-9-5T3:6:32Z</time></trkpt>
<trkpt lat="46.48157" lon="6.3152"><ele></ele><time>2017-9-5T3:6:35Z</time></trkpt>
<trkpt lat="46.48152" lon="6.31505"><ele></ele><time>2017-9-5T3:6:38Z</time></trkpt>
<trkpt lat="46.4815" lon="6.31495"><ele></ele><time>2017-9-5T3:6:41Z</time></trkpt>
<trkpt lat="46.4815" lon="6.31495"><ele></ele><time>2017-9-5T3:6:44Z</time></trkpt>
<trkpt lat="46.48148" lon="6.3149"><ele></ele><time>2017-9-5T3:6:47Z</time></trkpt>
<trkpt lat="46.48144" lon="6.31476"><ele></ele><time>2017-9-5T3:6:50Z</time></trkpt>
<trkpt lat="46.48144" lon="6.31466"><ele></ele><time>2017-9-5T3:6:53Z</time></trkpt>
<trkpt lat="46.48145" lon="6.31461"><ele></ele><time>2017-9-5T3:6:56Z</time></trkpt>
<trkpt lat="46.48146" lon="6.31447"><ele></ele><time>2017-9-5T3:6:59Z</time></trkpt>
<trkpt lat="46.48146" lon="6.31442"><ele></ele><time>2017-9-5T3:7:2Z</time></trkpt>
<trkpt lat="46.48146" lon="6.31429"><ele></ele><time>2017-9-5T3:7:5Z</time></trkpt>
<trkpt lat="46.48146" lon="6.3142"><ele></ele><time>2017-9-5T3:7:8Z</time></trkpt>
<trkpt lat="46.48146" lon="6.3142"><ele></ele><time>2017-9-5T3:7:11Z</time></trkpt>
<trkpt lat="46.48146" lon="6.31416"><ele></ele><time>2017-9-5T3:7:14Z</time></trkpt>
<trkpt lat="46.48147" lon="6.31405"><ele></ele><time>2017-9-5T3:7:17Z</time></trkpt>
<trkpt lat="46.48148" lon="6.31398"><ele></ele><time>2017-9-5T3:7:20Z</time></trkpt>
<trkpt lat="46.48149" lon="6.31391"><ele></ele><time>2017-9-5T3:7:23Z</time></trkpt>
<trkpt lat="46.4815" lon="6.31387"><ele></ele><time>2017-9-5T3:7:26Z</time></trkpt>
<trkpt lat="46.4815" lon="6.31383"><ele></ele><time>2017-9-5T3:7:29Z</time></trkpt>
<trkpt lat="46.48151" lon="6.3138"><ele></ele><time>2017-9-5T3:7:32Z</time></trkpt>
<trkpt lat="46.48152" lon="6.3137"><ele></ele><time>2017-9-5T3:7:35Z</time></trkpt>
<trkpt lat="46.48153" lon="6.31366"><ele></ele><time>2017-9-5T3:7:38Z</time></trkpt>
<trkpt lat="46.48153" lon="6.31363"><ele></ele><time>2017-9-5T3:7:41Z</time></trkpt>
<trkpt lat="46.48153" lon="6.31359"><ele></ele><time>2017-9-5T3:7:44Z</time></trkpt>
<trkpt lat="46.48154" lon="6.31348"><ele></ele><time>2017-9-5T3:7:47Z</time></trkpt>
<trkpt lat="46.48154" lon="6.31345"><ele></ele><time>2017-9-5T3:7:50Z</time></trkpt>
<trkpt lat="46.48155" lon="6.31337"><ele></ele><time>2017-9-5T3:7:53Z</time></trkpt>
<trkpt lat="46.48155" lon="6.31333"><ele></ele><time>2017-9-5T3:7:56Z</time></trkpt>
<trkpt lat="46.48155" lon="6.31327"><ele></ele><time>2017-9-5T3:7:59Z</time></trkpt>
<trkpt lat="46.48156" lon="6.31322"><ele></ele><time>2017-9-5T3:8:2Z</time></trkpt>
<trkpt lat="46.48157" lon="6.31316"><ele></ele><time>2017-9-5T3:8:5Z</time></trkpt>
<trkpt lat="46.48157" lon="6.31312"><ele></ele><time>2017-9-5T3:8:8Z</time></trkpt>
<trkpt lat="46.48157" lon="6.31306"><ele></ele><time>2017-9-5T3:8:11Z</time></trkpt>
<trkpt lat="46.48157" lon="6.31303"><ele></ele><time>2017-9-5T3:8:14Z</time></trkpt>
<trkpt lat="46.48158" lon="6.31296"><ele></ele><time>2017-9-5T3:8:17Z</time></trkpt>
<trkpt lat="46.48158" lon="6.3129"><ele></ele><time>2017-9-5T3:8:20Z</time></trkpt>
<trkpt lat="46.48158" lon="6.31286"><ele></ele><time>2017-9-5T3:8:23Z</time></trkpt>
<trkpt lat="46.48158" lon="6.3128"><ele></ele><time>2017-9-5T3:8:26Z</time></trkpt>
<trkpt lat="46.48158" lon="6.31276"><ele></ele><time>2017-9-5T3:8:29Z</time></trkpt>
<trkpt lat="46.48159" lon="6.31269"><ele></ele><time>2017-9-5T3:8:32Z</time></trkpt>
<trkpt lat="46.48159" lon="6.31266"><ele></ele><time>2017-9-5T3:8:35Z</time></trkpt>
<trkpt lat="46.48159" lon="6.31259"><ele></ele><time>2017-9-5T3:8:38Z</time></trkpt>
<trkpt lat="46.48159" lon="6.31256"><ele></ele><time>2017-9-5T3:8:41Z</time></trkpt>
<trkpt lat="46.48159" lon="6.31249"><ele></ele><time>2017-9-5T3:8:44Z</time></trkpt>
<trkpt lat="46.48159" lon="6.31246"><ele></ele><time>2017-9-5T3:8:47Z</time></trkpt>
<trkpt lat="46.48159" lon="6.31238"><ele></ele><time>2017-9-5T3:8:50Z</time></trkpt>
<trkpt lat="46.48159" lon="6.31228"><ele></ele><time>2017-9-5T3:8:53Z</time></trkpt>
<trkpt lat="46.48159" lon="6.31224"><ele></ele><time>2017-9-5T3:8:56Z</time></trkpt>
<trkpt lat="46.48159" lon="6.31217"><ele></ele><time>2017-9-5T3:8:59Z</time></trkpt>
<trkpt lat="46.48159" lon="6.3121"><ele></ele><time>2017-9-5T3:9:2Z</time></trkpt>
<trkpt lat="46.48159" lon="6.31198"><ele></ele><time>2017-9-5T3:9:5Z</time></trkpt>
<trkpt lat="46.48159" lon="6.31191"><ele></ele><time>2017-9-5T3:9:8Z</time></trkpt>
<trkpt lat="46.48159" lon="6.31183"><ele></ele><time>2017-9-5T3:9:11Z</time></trkpt>
<trkpt lat="46.48159" lon="6.31175"><ele></ele><time>2017-9-5T3:9:14Z</time></trkpt>
<trkpt lat="46.48159" lon="6.31168"><ele></ele><time>2017-9-5T3:9:17Z</time></trkpt>
<trkpt lat="46.48158" lon="6.31161"><ele></ele><time>2017-9-5T3:9:20Z</time></trkpt>
<trkpt lat="46.48158" lon="6.31157"><ele></ele><time>2017-9-5T3:9:23Z</time></trkpt>
<trkpt lat="46.48157" lon="6.31147"><ele></ele><time>2017-9-5T3:9:26Z</time></trkpt>
<trkpt lat="46.48156" lon="6.31141"><ele></ele><time>2017-9-5T3:9:29Z</time></trkpt>
<trkpt lat="46.48156" lon="6.31137"><ele></ele><time>2017-9-5T3:9:32Z</time></trkpt>
<trkpt lat="46.48155" lon="6.31125"><ele></ele><time>2017-9-5T3:9:35Z</time></trkpt>
<trkpt lat="46.48155" lon="6.31121"><ele></ele><time>2017-9-5T3:9:38Z</time></trkpt>
<trkpt lat="46.48155" lon="6.31114"><ele></ele><time>2017-9-5T3:9:41Z</time></trkpt>
<trkpt lat="46.48154" lon="6.31101"><ele></ele><time>2017-9-5T3:9:44Z</time></trkpt>
<trkpt lat="46.48153" lon="6.31092"><ele></ele><time>2017-9-5T3:9:47Z</time></trkpt>
<trkpt lat="46.48151" lon="6.31082"><ele></ele><time>2017-9-5T3:9:50Z</time></trkpt>
<trkpt lat="46.4815" lon="6.31077"><ele></ele><time>2017-9-5T3:9:53Z</time></trkpt>
<trkpt lat="46.48149" lon="6.31063"><ele></ele><time>2017-9-5T3:9:56Z</time></trkpt>
<trkpt lat="46.48143" lon="6.3104"><ele></ele><time>2017-9-5T3:9:59Z</time></trkpt>
<trkpt lat="46.48142" lon="6.31032"><ele></ele><time>2017-9-5T3:10:2Z</time></trkpt>
<trkpt lat="46.48138" lon="6.31016"><ele></ele><time>2017-9-5T3:10:5Z</time></trkpt>
<trkpt lat="46.48134" lon="6.30999"><ele></ele><time>2017-9-5T3:10:8Z</time></trkpt>
<trkpt lat="46.48131" lon="6.30983"><ele></ele><time>2017-9-5T3:10:11Z</time></trkpt>
<trkpt lat="46.4813" lon="6.30975"><ele></ele><time>2017-9-5T3:10:14Z</time></trkpt>
<trkpt lat="46.48128" lon="6.3096"><ele></ele><time>2017-9-5T3:10:17Z</time></trkpt>
<trkpt lat="46.48127" lon="6.30946"><ele></ele><time>2017-9-5T3:10:20Z</time></trkpt>
<trkpt lat="46.48126" lon="6.30931"><ele></ele><time>2017-9-5T3:10:23Z</time></trkpt>
<trkpt lat="46.48126" lon="6.30916"><ele></ele><time>2017-9-5T3:10:26Z</time></trkpt>
<trkpt lat="46.48126" lon="6.309"><ele></ele><time>2017-9-5T3:10:29Z</time></trkpt>
<trkpt lat="46.48126" lon="6.30892"><ele></ele><time>2017-9-5T3:10:32Z</time></trkpt>
<trkpt lat="46.48127" lon="6.30877"><ele></ele><time>2017-9-5T3:10:35Z</time></trkpt>
<trkpt lat="46.48127" lon="6.30877"><ele></ele><time>2017-9-5T3:10:38Z</time></trkpt>
<trkpt lat="46.48131" lon="6.30853"><ele></ele><time>2017-9-5T3:10:41Z</time></trkpt>
<trkpt lat="46.48134" lon="6.30838"><ele></ele><time>2017-9-5T3:10:44Z</time></trkpt>
<trkpt lat="46.48137" lon="6.30823"><ele></ele><time>2017-9-5T3:10:47Z</time></trkpt>
<trkpt lat="46.4814" lon="6.30809"><ele></ele><time>2017-9-5T3:10:50Z</time></trkpt>
<trkpt lat="46.48143" lon="6.30797"><ele></ele><time>2017-9-5T3:10:53Z</time></trkpt>
<trkpt lat="46.48146" lon="6.30785"><ele></ele><time>2017-9-5T3:10:56Z</time></trkpt>
<trkpt lat="46.48149" lon="6.30773"><ele></ele><time>2017-9-5T3:10:59Z</time></trkpt>
<trkpt lat="46.48152" lon="6.30759"><ele></ele><time>2017-9-5T3:11:2Z</time></trkpt>
<trkpt lat="46.48155" lon="6.30744"><ele></ele><time>2017-9-5T3:11:5Z</time></trkpt>
<trkpt lat="46.48158" lon="6.30728"><ele></ele><time>2017-9-5T3:11:8Z</time></trkpt>
<trkpt lat="46.48162" lon="6.30712"><ele></ele><time>2017-9-5T3:11:11Z</time></trkpt>
<trkpt lat="46.48166" lon="6.30694"><ele></ele><time>2017-9-5T3:11:14Z</time></trkpt>
<trkpt lat="46.4817" lon="6.30676"><ele></ele><time>2017-9-5T3:11:17Z</time></trkpt>
<trkpt lat="46.48175" lon="6.30658"><ele></ele><time>2017-9-5T3:11:20Z</time></trkpt>
<trkpt lat="46.48179" lon="6.3064"><ele></ele><time>2017-9-5T3:11:23Z</time></trkpt>
<trkpt lat="46.48182" lon="6.30622"><ele></ele><time>2017-9-5T3:11:26Z</time></trkpt>
<trkpt lat="46.48184" lon="6.30614"><ele></ele><time>2017-9-5T3:11:29Z</time></trkpt>
<trkpt lat="46.48185" lon="6.30606"><ele></ele><time>2017-9-5T3:11:32Z</time></trkpt>
<trkpt lat="46.48187" lon="6.30589"><ele></ele><time>2017-9-5T3:11:35Z</time></trkpt>
<trkpt lat="46.48188" lon="6.30573"><ele></ele><time>2017-9-5T3:11:38Z</time></trkpt>
<trkpt lat="46.4819" lon="6.30556"><ele></ele><time>2017-9-5T3:11:41Z</time></trkpt>
<trkpt lat="46.4819" lon="6.30548"><ele></ele><time>2017-9-5T3:11:44Z</time></trkpt>
<trkpt lat="46.48192" lon="6.30524"><ele></ele><time>2017-9-5T3:11:47Z</time></trkpt>
<trkpt lat="46.48193" lon="6.30507"><ele></ele><time>2017-9-5T3:11:50Z</time></trkpt>
<trkpt lat="46.48193" lon="6.30499"><ele></ele><time>2017-9-5T3:11:53Z</time></trkpt>
<trkpt lat="46.48192" lon="6.30483"><ele></ele><time>2017-9-5T3:11:56Z</time></trkpt>
<trkpt lat="46.48191" lon="6.30475"><ele></ele><time>2017-9-5T3:11:59Z</time></trkpt>
<trkpt lat="46.48189" lon="6.3046"><ele></ele><time>2017-9-5T3:12:2Z</time></trkpt>
<trkpt lat="46.48188" lon="6.30452"><ele></ele><time>2017-9-5T3:12:5Z</time></trkpt>
<trkpt lat="46.48185" lon="6.30436"><ele></ele><time>2017-9-5T3:12:8Z</time></trkpt>
<trkpt lat="46.48183" lon="6.30429"><ele></ele><time>2017-9-5T3:12:11Z</time></trkpt>
<trkpt lat="46.4818" lon="6.30414"><ele></ele><time>2017-9-5T3:12:14Z</time></trkpt>
<trkpt lat="46.48176" lon="6.30399"><ele></ele><time>2017-9-5T3:12:17Z</time></trkpt>
<trkpt lat="46.48174" lon="6.30392"><ele></ele><time>2017-9-5T3:12:20Z</time></trkpt>
<trkpt lat="46.48169" lon="6.3037"><ele></ele><time>2017-9-5T3:12:23Z</time></trkpt>
<trkpt lat="46.48166" lon="6.30357"><ele></ele><time>2017-9-5T3:12:26Z</time></trkpt>
<trkpt lat="46.48163" lon="6.30344"><ele></ele><time>2017-9-5T3:12:29Z</time></trkpt>
<trkpt lat="46.48161" lon="6.30333"><ele></ele><time>2017-9-5T3:12:32Z</time></trkpt>
<trkpt lat="46.48159" lon="6.30323"><ele></ele><time>2017-9-5T3:12:35Z</time></trkpt>
<trkpt lat="46.48158" lon="6.30318"><ele></ele><time>2017-9-5T3:12:38Z</time></trkpt>
<trkpt lat="46.48155" lon="6.30302"><ele></ele><time>2017-9-5T3:12:41Z</time></trkpt>
<trkpt lat="46.48153" lon="6.30293"><ele></ele><time>2017-9-5T3:12:44Z</time></trkpt>
<trkpt lat="46.48152" lon="6.30288"><ele></ele><time>2017-9-5T3:12:47Z</time></trkpt>
<trkpt lat="46.48151" lon="6.30284"><ele></ele><time>2017-9-5T3:12:50Z</time></trkpt>
<trkpt lat="46.48149" lon="6.30275"><ele></ele><time>2017-9-5T3:12:53Z</time></trkpt>
<trkpt lat="46.48148" lon="6.30267"><ele></ele><time>2017-9-5T3:12:56Z</time></trkpt>
<trkpt lat="46.48147" lon="6.30263"><ele></ele><time>2017-9-5T3:12:59Z</time></trkpt>
<trkpt lat="46.48145" lon="6.30256"><ele></ele><time>2017-9-5T3:13:2Z</time></trkpt>
<trkpt lat="46.48145" lon="6.30253"><ele></ele><time>2017-9-5T3:13:5Z</time></trkpt>
<trkpt lat="46.48143" lon="6.30247"><ele></ele><time>2017-9-5T3:13:8Z</time></trkpt>
<trkpt lat="46.48142" lon="6.30242"><ele></ele><time>2017-9-5T3:13:11Z</time></trkpt>
<trkpt lat="46.48142" lon="6.30239"><ele></ele><time>2017-9-5T3:13:14Z</time></trkpt>
<trkpt lat="46.48141" lon="6.30237"><ele></ele><time>2017-9-5T3:13:17Z</time></trkpt>
<trkpt lat="46.48141" lon="6.30234"><ele></ele><time>2017-9-5T3:13:20Z</time></trkpt>
<trkpt lat="46.48141" lon="6.30226"><ele></ele><time>2017-9-5T3:13:23Z</time></trkpt>
<trkpt lat="46.48141" lon="6.30221"><ele></ele><time>2017-9-5T3:13:26Z</time></trkpt>
<trkpt lat="46.48141" lon="6.30216"><ele></ele><time>2017-9-5T3:13:29Z</time></trkpt>
<trkpt lat="46.48141" lon="6.30214"><ele></ele><time>2017-9-5T3:13:32Z</time></trkpt>
<trkpt lat="46.48142" lon="6.30211"><ele></ele><time>2017-9-5T3:13:35Z</time></trkpt>
<trkpt lat="46.48143" lon="6.30206"><ele></ele><time>2017-9-5T3:13:38Z</time></trkpt>
<trkpt lat="46.48143" lon="6.30205"><ele></ele><time>2017-9-5T3:13:41Z</time></trkpt>
<trkpt lat="46.48144" lon="6.30203"><ele></ele><time>2017-9-5T3:13:44Z</time></trkpt>
<trkpt lat="46.48146" lon="6.30199"><ele></ele><time>2017-9-5T3:13:47Z</time></trkpt>
<trkpt lat="46.48148" lon="6.30195"><ele></ele><time>2017-9-5T3:13:50Z</time></trkpt>
<trkpt lat="46.48148" lon="6.30195"><ele></ele><time>2017-9-5T3:13:53Z</time></trkpt>
<trkpt lat="46.48149" lon="6.30192"><ele></ele><time>2017-9-5T3:13:56Z</time></trkpt>
<trkpt lat="46.48151" lon="6.30189"><ele></ele><time>2017-9-5T3:13:59Z</time></trkpt>
<trkpt lat="46.48151" lon="6.30187"><ele></ele><time>2017-9-5T3:14:2Z</time></trkpt>
<trkpt lat="46.48155" lon="6.30185"><ele></ele><time>2017-9-5T3:14:5Z</time></trkpt>
<trkpt lat="46.48157" lon="6.3018"><ele></ele><time>2017-9-5T3:14:8Z</time></trkpt>
<trkpt lat="46.48158" lon="6.30179"><ele></ele><time>2017-9-5T3:14:11Z</time></trkpt>
<trkpt lat="46.4816" lon="6.30175"><ele></ele><time>2017-9-5T3:14:14Z</time></trkpt>
<trkpt lat="46.48164" lon="6.30172"><ele></ele><time>2017-9-5T3:14:17Z</time></trkpt>
<trkpt lat="46.48167" lon="6.3017"><ele></ele><time>2017-9-5T3:14:20Z</time></trkpt>
<trkpt lat="46.48169" lon="6.3017"><ele></ele><time>2017-9-5T3:14:23Z</time></trkpt>
<trkpt lat="46.48189" lon="6.30167"><ele></ele><time>2017-9-5T3:14:26Z</time></trkpt>
<trkpt lat="46.48191" lon="6.30166"><ele></ele><time>2017-9-5T3:14:29Z</time></trkpt>
<trkpt lat="46.48193" lon="6.30165"><ele></ele><time>2017-9-5T3:14:32Z</time></trkpt>
<trkpt lat="46.482" lon="6.30163"><ele></ele><time>2017-9-5T3:14:35Z</time></trkpt>
<trkpt lat="46.48204" lon="6.30162"><ele></ele><time>2017-9-5T3:14:38Z</time></trkpt>
<trkpt lat="46.48205" lon="6.3016"><ele></ele><time>2017-9-5T3:14:41Z</time></trkpt>
<trkpt lat="46.48208" lon="6.3016"><ele></ele><time>2017-9-5T3:14:44Z</time></trkpt>
<trkpt lat="46.48208" lon="6.3016"><ele></ele><time>2017-9-5T3:14:47Z</time></trkpt>
<trkpt lat="46.48208" lon="6.30164"><ele></ele><time>2017-9-5T3:14:50Z</time></trkpt>
<trkpt lat="46.48204" lon="6.30169"><ele></ele><time>2017-9-5T3:14:53Z</time></trkpt>
<trkpt lat="46.482" lon="6.30169"><ele></ele><time>2017-9-5T3:14:56Z</time></trkpt>
<trkpt lat="46.48196" lon="6.30169"><ele></ele><time>2017-9-5T3:14:59Z</time></trkpt>
<trkpt lat="46.48192" lon="6.30168"><ele></ele><time>2017-9-5T3:15:2Z</time></trkpt>
<trkpt lat="46.4819" lon="6.30168"><ele></ele><time>2017-9-5T3:15:5Z</time></trkpt>
<trkpt lat="46.48187" lon="6.30169"><ele></ele><time>2017-9-5T3:15:8Z</time></trkpt>
<trkpt lat="46.48183" lon="6.3017"><ele></ele><time>2017-9-5T3:15:11Z</time></trkpt>
<trkpt lat="46.48178" lon="6.30171"><ele></ele><time>2017-9-5T3:15:14Z</time></trkpt>
<trkpt lat="46.48176" lon="6.30171"><ele></ele><time>2017-9-5T3:15:17Z</time></trkpt>
<trkpt lat="46.48174" lon="6.30169"><ele></ele><time>2017-9-5T3:15:20Z</time></trkpt>
<trkpt lat="46.48174" lon="6.30164"><ele></ele><time>2017-9-5T3:15:23Z</time></trkpt>
<trkpt lat="46.48176" lon="6.30158"><ele></ele><time>2017-9-5T3:15:26Z</time></trkpt>
<trkpt lat="46.48178" lon="6.3015"><ele></ele><time>2017-9-5T3:15:29Z</time></trkpt>
<trkpt lat="46.48179" lon="6.30146"><ele></ele><time>2017-9-5T3:15:32Z</time></trkpt>
<trkpt lat="46.4818" lon="6.30143"><ele></ele><time>2017-9-5T3:15:35Z</time></trkpt>
<trkpt lat="46.4818" lon="6.30141"><ele></ele><time>2017-9-5T3:15:38Z</time></trkpt>
<trkpt lat="46.48181" lon="6.30136"><ele></ele><time>2017-9-5T3:15:41Z</time></trkpt>
<trkpt lat="46.48181" lon="6.3013"><ele></ele><time>2017-9-5T3:15:44Z</time></trkpt>
<trkpt lat="46.48183" lon="6.30126"><ele></ele><time>2017-9-5T3:15:47Z</time></trkpt>
<trkpt lat="46.48183" lon="6.30124"><ele></ele><time>2017-9-5T3:15:50Z</time></trkpt>
<trkpt lat="46.48183" lon="6.30122"><ele></ele><time>2017-9-5T3:15:53Z</time></trkpt>
<trkpt lat="46.48184" lon="6.30119"><ele></ele><time>2017-9-5T3:15:56Z</time></trkpt>
<trkpt lat="46.48185" lon="6.30115"><ele></ele><time>2017-9-5T3:15:59Z</time></trkpt>
<trkpt lat="46.48185" lon="6.30113"><ele></ele><time>2017-9-5T3:16:2Z</time></trkpt>
<trkpt lat="46.48185" lon="6.30111"><ele></ele><time>2017-9-5T3:16:5Z</time></trkpt>
<trkpt lat="46.48185" lon="6.30107"><ele></ele><time>2017-9-5T3:16:8Z</time></trkpt>
<trkpt lat="46.48186" lon="6.30105"><ele></ele><time>2017-9-5T3:16:11Z</time></trkpt>
<trkpt lat="46.48187" lon="6.30102"><ele></ele><time>2017-9-5T3:16:14Z</time></trkpt>
<trkpt lat="46.48188" lon="6.30098"><ele></ele><time>2017-9-5T3:16:17Z</time></trkpt>
<trkpt lat="46.48189" lon="6.30096"><ele></ele><time>2017-9-5T3:16:20Z</time></trkpt>
<trkpt lat="46.4819" lon="6.3009"><ele></ele><time>2017-9-5T3:16:23Z</time></trkpt>
<trkpt lat="46.4819" lon="6.30088"><ele></ele><time>2017-9-5T3:16:26Z</time></trkpt>
<trkpt lat="46.48191" lon="6.30086"><ele></ele><time>2017-9-5T3:16:29Z</time></trkpt>
<trkpt lat="46.48192" lon="6.30082"><ele></ele><time>2017-9-5T3:16:32Z</time></trkpt>
<trkpt lat="46.48193" lon="6.3008"><ele></ele><time>2017-9-5T3:16:35Z</time></trkpt>
<trkpt lat="46.48194" lon="6.30076"><ele></ele><time>2017-9-5T3:16:38Z</time></trkpt>
<trkpt lat="46.48195" lon="6.30072"><ele></ele><time>2017-9-5T3:16:41Z</time></trkpt>
<trkpt lat="46.48195" lon="6.3007"><ele></ele><time>2017-9-5T3:16:44Z</time></trkpt>
<trkpt lat="46.48197" lon="6.30066"><ele></ele><time>2017-9-5T3:16:47Z</time></trkpt>
<trkpt lat="46.48198" lon="6.30064"><ele></ele><time>2017-9-5T3:16:50Z</time></trkpt>
<trkpt lat="46.48199" lon="6.3006"><ele></ele><time>2017-9-5T3:16:53Z</time></trkpt>
<trkpt lat="46.482" lon="6.30057"><ele></ele><time>2017-9-5T3:16:56Z</time></trkpt>
<trkpt lat="46.482" lon="6.30055"><ele></ele><time>2017-9-5T3:16:59Z</time></trkpt>
<trkpt lat="46.48201" lon="6.30053"><ele></ele><time>2017-9-5T3:17:2Z</time></trkpt>
<trkpt lat="46.48202" lon="6.30051"><ele></ele><time>2017-9-5T3:17:5Z</time></trkpt>
<trkpt lat="46.48202" lon="6.30048"><ele></ele><time>2017-9-5T3:17:8Z</time></trkpt>
<trkpt lat="46.48203" lon="6.30045"><ele></ele><time>2017-9-5T3:17:11Z</time></trkpt>
<trkpt lat="46.48204" lon="6.30041"><ele></ele><time>2017-9-5T3:17:14Z</time></trkpt>
<trkpt lat="46.48204" lon="6.30036"><ele></ele><time>2017-9-5T3:17:17Z</time></trkpt>
<trkpt lat="46.48205" lon="6.30032"><ele></ele><time>2017-9-5T3:17:20Z</time></trkpt>
<trkpt lat="46.48205" lon="6.30028"><ele></ele><time>2017-9-5T3:17:23Z</time></trkpt>
<trkpt lat="46.48205" lon="6.30027"><ele></ele><time>2017-9-5T3:17:26Z</time></trkpt>
<trkpt lat="46.48207" lon="6.30005"><ele></ele><time>2017-9-5T3:17:29Z</time></trkpt>
<trkpt lat="46.48207" lon="6.30001"><ele></ele><time>2017-9-5T3:17:32Z</time></trkpt>
<trkpt lat="46.48208" lon="6.29996"><ele></ele><time>2017-9-5T3:17:35Z</time></trkpt>
<trkpt lat="46.48208" lon="6.29993"><ele></ele><time>2017-9-5T3:17:38Z</time></trkpt>
<trkpt lat="46.48209" lon="6.29989"><ele></ele><time>2017-9-5T3:17:41Z</time></trkpt>
<trkpt lat="46.48209" lon="6.29985"><ele></ele><time>2017-9-5T3:17:44Z</time></trkpt>
<trkpt lat="46.4821" lon="6.29981"><ele></ele><time>2017-9-5T3:17:47Z</time></trkpt>
<trkpt lat="46.48211" lon="6.29977"><ele></ele><time>2017-9-5T3:17:50Z</time></trkpt>
<trkpt lat="46.48211" lon="6.29973"><ele></ele><time>2017-9-5T3:17:53Z</time></trkpt>
<trkpt lat="46.48212" lon="6.29971"><ele></ele><time>2017-9-5T3:17:56Z</time></trkpt>
<trkpt lat="46.48212" lon="6.29969"><ele></ele><time>2017-9-5T3:17:59Z</time></trkpt>
<trkpt lat="46.48213" lon="6.29965"><ele></ele><time>2017-9-5T3:18:2Z</time></trkpt>
<trkpt lat="46.48214" lon="6.29961"><ele></ele><time>2017-9-5T3:18:5Z</time></trkpt>
<trkpt lat="46.48214" lon="6.29957"><ele></ele><time>2017-9-5T3:18:8Z</time></trkpt>
<trkpt lat="46.48215" lon="6.29953"><ele></ele><time>2017-9-5T3:18:11Z</time></trkpt>
<trkpt lat="46.48216" lon="6.29949"><ele></ele><time>2017-9-5T3:18:14Z</time></trkpt>
<trkpt lat="46.48217" lon="6.29945"><ele></ele><time>2017-9-5T3:18:17Z</time></trkpt>
<trkpt lat="46.48217" lon="6.29943"><ele></ele><time>2017-9-5T3:18:20Z</time></trkpt>
<trkpt lat="46.48218" lon="6.29937"><ele></ele><time>2017-9-5T3:18:23Z</time></trkpt>
<trkpt lat="46.48219" lon="6.29932"><ele></ele><time>2017-9-5T3:18:26Z</time></trkpt>
<trkpt lat="46.4822" lon="6.29928"><ele></ele><time>2017-9-5T3:18:29Z</time></trkpt>
<trkpt lat="46.48221" lon="6.29924"><ele></ele><time>2017-9-5T3:18:32Z</time></trkpt>
<trkpt lat="46.48222" lon="6.2992"><ele></ele><time>2017-9-5T3:18:35Z</time></trkpt>
<trkpt lat="46.48223" lon="6.29915"><ele></ele><time>2017-9-5T3:18:38Z</time></trkpt>
<trkpt lat="46.48225" lon="6.2991"><ele></ele><time>2017-9-5T3:18:41Z</time></trkpt>
<trkpt lat="46.48226" lon="6.29905"><ele></ele><time>2017-9-5T3:18:44Z</time></trkpt>
<trkpt lat="46.48227" lon="6.299"><ele></ele><time>2017-9-5T3:18:47Z</time></trkpt>
<trkpt lat="46.48229" lon="6.29896"><ele></ele><time>2017-9-5T3:18:50Z</time></trkpt>
<trkpt lat="46.4823" lon="6.29891"><ele></ele><time>2017-9-5T3:18:53Z</time></trkpt>
<trkpt lat="46.48231" lon="6.29886"><ele></ele><time>2017-9-5T3:18:56Z</time></trkpt>
<trkpt lat="46.48233" lon="6.29881"><ele></ele><time>2017-9-5T3:18:59Z</time></trkpt>
<trkpt lat="46.48234" lon="6.29876"><ele></ele><time>2017-9-5T3:19:2Z</time></trkpt>
<trkpt lat="46.48235" lon="6.29872"><ele></ele><time>2017-9-5T3:19:5Z</time></trkpt>
<trkpt lat="46.48237" lon="6.29867"><ele></ele><time>2017-9-5T3:19:8Z</time></trkpt>
<trkpt lat="46.48238" lon="6.29863"><ele></ele><time>2017-9-5T3:19:11Z</time></trkpt>
<trkpt lat="46.4824" lon="6.29859"><ele></ele><time>2017-9-5T3:19:14Z</time></trkpt>
<trkpt lat="46.48241" lon="6.29854"><ele></ele><time>2017-9-5T3:19:17Z</time></trkpt>
<trkpt lat="46.48243" lon="6.2985"><ele></ele><time>2017-9-5T3:19:20Z</time></trkpt>
<trkpt lat="46.48244" lon="6.29846"><ele></ele><time>2017-9-5T3:19:23Z</time></trkpt>
<trkpt lat="46.48245" lon="6.29844"><ele></ele><time>2017-9-5T3:19:26Z</time></trkpt>
<trkpt lat="46.48245" lon="6.29842"><ele></ele><time>2017-9-5T3:19:29Z</time></trkpt>
<trkpt lat="46.48247" lon="6.29838"><ele></ele><time>2017-9-5T3:19:32Z</time></trkpt>
<trkpt lat="46.48248" lon="6.29834"><ele></ele><time>2017-9-5T3:19:35Z</time></trkpt>
<trkpt lat="46.4825" lon="6.2983"><ele></ele><time>2017-9-5T3:19:38Z</time></trkpt>
<trkpt lat="46.48251" lon="6.29828"><ele></ele><time>2017-9-5T3:19:41Z</time></trkpt>
<trkpt lat="46.48252" lon="6.29826"><ele></ele><time>2017-9-5T3:19:44Z</time></trkpt>
<trkpt lat="46.48254" lon="6.29822"><ele></ele><time>2017-9-5T3:19:47Z</time></trkpt>
<trkpt lat="46.48256" lon="6.29818"><ele></ele><time>2017-9-5T3:19:50Z</time></trkpt>
<trkpt lat="46.48257" lon="6.29814"><ele></ele><time>2017-9-5T3:19:53Z</time></trkpt>
<trkpt lat="46.48259" lon="6.2981"><ele></ele><time>2017-9-5T3:19:56Z</time></trkpt>
<trkpt lat="46.4826" lon="6.29809"><ele></ele><time>2017-9-5T3:19:59Z</time></trkpt>
<trkpt lat="46.48261" lon="6.29807"><ele></ele><time>2017-9-5T3:20:2Z</time></trkpt>
<trkpt lat="46.48262" lon="6.29804"><ele></ele><time>2017-9-5T3:20:5Z</time></trkpt>
<trkpt lat="46.48265" lon="6.29802"><ele></ele><time>2017-9-5T3:20:8Z</time></trkpt>
<trkpt lat="46.48267" lon="6.29799"><ele></ele><time>2017-9-5T3:20:11Z</time></trkpt>
<trkpt lat="46.48268" lon="6.29797"><ele></ele><time>2017-9-5T3:20:14Z</time></trkpt>
<trkpt lat="46.48269" lon="6.29795"><ele></ele><time>2017-9-5T3:20:17Z</time></trkpt>
<trkpt lat="46.48271" lon="6.29792"><ele></ele><time>2017-9-5T3:20:20Z</time></trkpt>
<trkpt lat="46.48272" lon="6.2979"><ele></ele><time>2017-9-5T3:20:23Z</time></trkpt>
<trkpt lat="46.48273" lon="6.29788"><ele></ele><time>2017-9-5T3:20:26Z</time></trkpt>
<trkpt lat="46.48273" lon="6.29787"><ele></ele><time>2017-9-5T3:20:29Z</time></trkpt>
<trkpt lat="46.48274" lon="6.29782"><ele></ele><time>2017-9-5T3:20:32Z</time></trkpt>
<trkpt lat="46.48274" lon="6.2978"><ele></ele><time>2017-9-5T3:20:35Z</time></trkpt>
<trkpt lat="46.48273" lon="6.29775"><ele></ele><time>2017-9-5T3:20:38Z</time></trkpt>
<trkpt lat="46.48273" lon="6.29773"><ele></ele><time>2017-9-5T3:20:41Z</time></trkpt>
<trkpt lat="46.48271" lon="6.29769"><ele></ele><time>2017-9-5T3:20:44Z</time></trkpt>
<trkpt lat="46.48271" lon="6.29766"><ele></ele><time>2017-9-5T3:20:47Z</time></trkpt>
<trkpt lat="46.4827" lon="6.29764"><ele></ele><time>2017-9-5T3:20:50Z</time></trkpt>
<trkpt lat="46.48268" lon="6.29759"><ele></ele><time>2017-9-5T3:20:53Z</time></trkpt>
<trkpt lat="46.48267" lon="6.29754"><ele></ele><time>2017-9-5T3:20:56Z</time></trkpt>
<trkpt lat="46.48265" lon="6.29749"><ele></ele><time>2017-9-5T3:20:59Z</time></trkpt>
<trkpt lat="46.48264" lon="6.29747"><ele></ele><time>2017-9-5T3:21:2Z</time></trkpt>
<trkpt lat="46.48263" lon="6.29745"><ele></ele><time>2017-9-5T3:21:5Z</time></trkpt>
<trkpt lat="46.48262" lon="6.29741"><ele></ele><time>2017-9-5T3:21:8Z</time></trkpt>
<trkpt lat="46.48261" lon="6.29737"><ele></ele><time>2017-9-5T3:21:11Z</time></trkpt>
<trkpt lat="46.48259" lon="6.29732"><ele></ele><time>2017-9-5T3:21:14Z</time></trkpt>
<trkpt lat="46.48257" lon="6.29726"><ele></ele><time>2017-9-5T3:21:17Z</time></trkpt>
<trkpt lat="46.48255" lon="6.29721"><ele></ele><time>2017-9-5T3:21:20Z</time></trkpt>
<trkpt lat="46.48253" lon="6.29717"><ele></ele><time>2017-9-5T3:21:23Z</time></trkpt>
<trkpt lat="46.48251" lon="6.29711"><ele></ele><time>2017-9-5T3:21:26Z</time></trkpt>
<trkpt lat="46.4825" lon="6.29706"><ele></ele><time>2017-9-5T3:21:29Z</time></trkpt>
<trkpt lat="46.48247" lon="6.29698"><ele></ele><time>2017-9-5T3:21:32Z</time></trkpt>
<trkpt lat="46.48246" lon="6.29695"><ele></ele><time>2017-9-5T3:21:35Z</time></trkpt>
<trkpt lat="46.48244" lon="6.2969"><ele></ele><time>2017-9-5T3:21:38Z</time></trkpt>
<trkpt lat="46.48241" lon="6.29681"><ele></ele><time>2017-9-5T3:21:41Z</time></trkpt>
<trkpt lat="46.4824" lon="6.29679"><ele></ele><time>2017-9-5T3:21:44Z</time></trkpt>
<trkpt lat="46.48238" lon="6.29673"><ele></ele><time>2017-9-5T3:21:47Z</time></trkpt>
<trkpt lat="46.48235" lon="6.29666"><ele></ele><time>2017-9-5T3:21:50Z</time></trkpt>
<trkpt lat="46.48233" lon="6.29661"><ele></ele><time>2017-9-5T3:21:53Z</time></trkpt>
<trkpt lat="46.48231" lon="6.29655"><ele></ele><time>2017-9-5T3:21:56Z</time></trkpt>
<trkpt lat="46.48228" lon="6.29651"><ele></ele><time>2017-9-5T3:21:59Z</time></trkpt>
<trkpt lat="46.48225" lon="6.29645"><ele></ele><time>2017-9-5T3:22:2Z</time></trkpt>
<trkpt lat="46.48223" lon="6.29642"><ele></ele><time>2017-9-5T3:22:5Z</time></trkpt>
<trkpt lat="46.48221" lon="6.2964"><ele></ele><time>2017-9-5T3:22:8Z</time></trkpt>
<trkpt lat="46.48218" lon="6.29636"><ele></ele><time>2017-9-5T3:22:11Z</time></trkpt>
<trkpt lat="46.48214" lon="6.29633"><ele></ele><time>2017-9-5T3:22:14Z</time></trkpt>
<trkpt lat="46.48211" lon="6.29628"><ele></ele><time>2017-9-5T3:22:17Z</time></trkpt>
<trkpt lat="46.48208" lon="6.29625"><ele></ele><time>2017-9-5T3:22:20Z</time></trkpt>
<trkpt lat="46.48204" lon="6.2962"><ele></ele><time>2017-9-5T3:22:23Z</time></trkpt>
<trkpt lat="46.48201" lon="6.29616"><ele></ele><time>2017-9-5T3:22:26Z</time></trkpt>
<trkpt lat="46.48197" lon="6.29612"><ele></ele><time>2017-9-5T3:22:29Z</time></trkpt>
<trkpt lat="46.48196" lon="6.2961"><ele></ele><time>2017-9-5T3:22:32Z</time></trkpt>
<trkpt lat="46.48194" lon="6.29607"><ele></ele><time>2017-9-5T3:22:35Z</time></trkpt>
<trkpt lat="46.48191" lon="6.29602"><ele></ele><time>2017-9-5T3:22:38Z</time></trkpt>
<trkpt lat="46.48186" lon="6.29596"><ele></ele><time>2017-9-5T3:22:41Z</time></trkpt>
<trkpt lat="46.48185" lon="6.29594"><ele></ele><time>2017-9-5T3:22:44Z</time></trkpt>
<trkpt lat="46.48181" lon="6.2959"><ele></ele><time>2017-9-5T3:22:47Z</time></trkpt>
<trkpt lat="46.4818" lon="6.29587"><ele></ele><time>2017-9-5T3:22:50Z</time></trkpt>
<trkpt lat="46.48178" lon="6.29585"><ele></ele><time>2017-9-5T3:22:53Z</time></trkpt>
<trkpt lat="46.48175" lon="6.29581"><ele></ele><time>2017-9-5T3:22:56Z</time></trkpt>
<trkpt lat="46.48172" lon="6.29577"><ele></ele><time>2017-9-5T3:22:59Z</time></trkpt>
<trkpt lat="46.48168" lon="6.29571"><ele></ele><time>2017-9-5T3:23:2Z</time></trkpt>
<trkpt lat="46.48165" lon="6.29568"><ele></ele><time>2017-9-5T3:23:5Z</time></trkpt>
<trkpt lat="46.48162" lon="6.29563"><ele></ele><time>2017-9-5T3:23:8Z</time></trkpt>
<trkpt lat="46.48159" lon="6.29559"><ele></ele><time>2017-9-5T3:23:11Z</time></trkpt>
<trkpt lat="46.48156" lon="6.29555"><ele></ele><time>2017-9-5T3:23:14Z</time></trkpt>
<trkpt lat="46.48153" lon="6.29551"><ele></ele><time>2017-9-5T3:23:17Z</time></trkpt>
<trkpt lat="46.4815" lon="6.29547"><ele></ele><time>2017-9-5T3:23:20Z</time></trkpt>
<trkpt lat="46.48149" lon="6.29544"><ele></ele><time>2017-9-5T3:23:23Z</time></trkpt>
<trkpt lat="46.48145" lon="6.29537"><ele></ele><time>2017-9-5T3:23:26Z</time></trkpt>
<trkpt lat="46.48142" lon="6.29533"><ele></ele><time>2017-9-5T3:23:29Z</time></trkpt>
<trkpt lat="46.48139" lon="6.29528"><ele></ele><time>2017-9-5T3:23:32Z</time></trkpt>
<trkpt lat="46.48136" lon="6.29524"><ele></ele><time>2017-9-5T3:23:35Z</time></trkpt>
<trkpt lat="46.48135" lon="6.29522"><ele></ele><time>2017-9-5T3:23:38Z</time></trkpt>
<trkpt lat="46.48132" lon="6.29517"><ele></ele><time>2017-9-5T3:23:41Z</time></trkpt>
<trkpt lat="46.48131" lon="6.29515"><ele></ele><time>2017-9-5T3:23:44Z</time></trkpt>
<trkpt lat="46.48129" lon="6.29515"><ele></ele><time>2017-9-5T3:23:47Z</time></trkpt>
<trkpt lat="46.48125" lon="6.29516"><ele></ele><time>2017-9-5T3:23:50Z</time></trkpt>
<trkpt lat="46.48121" lon="6.29519"><ele></ele><time>2017-9-5T3:23:53Z</time></trkpt>
<trkpt lat="46.48117" lon="6.29523"><ele></ele><time>2017-9-5T3:23:56Z</time></trkpt>
<trkpt lat="46.48113" lon="6.29527"><ele></ele><time>2017-9-5T3:23:59Z</time></trkpt>
<trkpt lat="46.48109" lon="6.29531"><ele></ele><time>2017-9-5T3:24:2Z</time></trkpt>
<trkpt lat="46.48105" lon="6.29534"><ele></ele><time>2017-9-5T3:24:5Z</time></trkpt>
<trkpt lat="46.48101" lon="6.29538"><ele></ele><time>2017-9-5T3:24:8Z</time></trkpt>
<trkpt lat="46.48097" lon="6.29542"><ele></ele><time>2017-9-5T3:24:11Z</time></trkpt>
<trkpt lat="46.48093" lon="6.29546"><ele></ele><time>2017-9-5T3:24:14Z</time></trkpt>
<trkpt lat="46.48089" lon="6.2955"><ele></ele><time>2017-9-5T3:24:17Z</time></trkpt>
<trkpt lat="46.48085" lon="6.29554"><ele></ele><time>2017-9-5T3:24:20Z</time></trkpt>
<trkpt lat="46.48081" lon="6.29557"><ele></ele><time>2017-9-5T3:24:23Z</time></trkpt>
<trkpt lat="46.48077" lon="6.2956"><ele></ele><time>2017-9-5T3:24:26Z</time></trkpt>
<trkpt lat="46.48072" lon="6.29564"><ele></ele><time>2017-9-5T3:24:29Z</time></trkpt>
<trkpt lat="46.48068" lon="6.29569"><ele></ele><time>2017-9-5T3:24:32Z</time></trkpt>
<trkpt lat="46.48064" lon="6.29574"><ele></ele><time>2017-9-5T3:24:35Z</time></trkpt>
<trkpt lat="46.48059" lon="6.29578"><ele></ele><time>2017-9-5T3:24:38Z</time></trkpt>
<trkpt lat="46.48054" lon="6.29582"><ele></ele><time>2017-9-5T3:24:41Z</time></trkpt>
<trkpt lat="46.48048" lon="6.29585"><ele></ele><time>2017-9-5T3:24:44Z</time></trkpt>
<trkpt lat="46.48043" lon="6.29587"><ele></ele><time>2017-9-5T3:24:47Z</time></trkpt>
<trkpt lat="46.48037" lon="6.29589"><ele></ele><time>2017-9-5T3:24:50Z</time></trkpt>
<trkpt lat="46.4803" lon="6.29591"><ele></ele><time>2017-9-5T3:24:53Z</time></trkpt>
<trkpt lat="46.48023" lon="6.29593"><ele></ele><time>2017-9-5T3:24:56Z</time></trkpt>
<trkpt lat="46.48016" lon="6.29592"><ele></ele><time>2017-9-5T3:24:59Z</time></trkpt>
<trkpt lat="46.48014" lon="6.2959"><ele></ele><time>2017-9-5T3:25:2Z</time></trkpt>
<trkpt lat="46.48012" lon="6.29588"><ele></ele><time>2017-9-5T3:25:5Z</time></trkpt>
<trkpt lat="46.48011" lon="6.29586"><ele></ele><time>2017-9-5T3:25:8Z</time></trkpt>
<trkpt lat="46.48009" lon="6.29576"><ele></ele><time>2017-9-5T3:25:11Z</time></trkpt>
<trkpt lat="46.48008" lon="6.29571"><ele></ele><time>2017-9-5T3:25:14Z</time></trkpt>
<trkpt lat="46.48007" lon="6.29565"><ele></ele><time>2017-9-5T3:25:17Z</time></trkpt>
<trkpt lat="46.48006" lon="6.2956"><ele></ele><time>2017-9-5T3:25:20Z</time></trkpt>
<trkpt lat="46.48005" lon="6.29554"><ele></ele><time>2017-9-5T3:25:23Z</time></trkpt>
<trkpt lat="46.48004" lon="6.29549"><ele></ele><time>2017-9-5T3:25:26Z</time></trkpt>
<trkpt lat="46.48003" lon="6.29544"><ele></ele><time>2017-9-5T3:25:29Z</time></trkpt>
<trkpt lat="46.48002" lon="6.29539"><ele></ele><time>2017-9-5T3:25:32Z</time></trkpt>
<trkpt lat="46.48" lon="6.29534"><ele></ele><time>2017-9-5T3:25:35Z</time></trkpt>
<trkpt lat="46.47999" lon="6.29529"><ele></ele><time>2017-9-5T3:25:38Z</time></trkpt>
<trkpt lat="46.47997" lon="6.29524"><ele></ele><time>2017-9-5T3:25:41Z</time></trkpt>
<trkpt lat="46.47996" lon="6.2952"><ele></ele><time>2017-9-5T3:25:44Z</time></trkpt>
<trkpt lat="46.47996" lon="6.29518"><ele></ele><time>2017-9-5T3:25:47Z</time></trkpt>
<trkpt lat="46.47995" lon="6.29515"><ele></ele><time>2017-9-5T3:25:50Z</time></trkpt>
<trkpt lat="46.47994" lon="6.29511"><ele></ele><time>2017-9-5T3:25:53Z</time></trkpt>
<trkpt lat="46.47993" lon="6.29506"><ele></ele><time>2017-9-5T3:25:56Z</time></trkpt>
<trkpt lat="46.47992" lon="6.29501"><ele></ele><time>2017-9-5T3:25:59Z</time></trkpt>
<trkpt lat="46.47991" lon="6.29496"><ele></ele><time>2017-9-5T3:26:2Z</time></trkpt>
<trkpt lat="46.47991" lon="6.29494"><ele></ele><time>2017-9-5T3:26:5Z</time></trkpt>
<trkpt lat="46.4799" lon="6.29492"><ele></ele><time>2017-9-5T3:26:8Z</time></trkpt>
<trkpt lat="46.47989" lon="6.29487"><ele></ele><time>2017-9-5T3:26:11Z</time></trkpt>
<trkpt lat="46.47988" lon="6.29483"><ele></ele><time>2017-9-5T3:26:14Z</time></trkpt>
<trkpt lat="46.47987" lon="6.29479"><ele></ele><time>2017-9-5T3:26:17Z</time></trkpt>
<trkpt lat="46.47987" lon="6.29475"><ele></ele><time>2017-9-5T3:26:20Z</time></trkpt>
<trkpt lat="46.47986" lon="6.2947"><ele></ele><time>2017-9-5T3:26:23Z</time></trkpt>
<trkpt lat="46.47985" lon="6.29466"><ele></ele><time>2017-9-5T3:26:26Z</time></trkpt>
<trkpt lat="46.47984" lon="6.29462"><ele></ele><time>2017-9-5T3:26:29Z</time></trkpt>
<trkpt lat="46.47983" lon="6.2946"><ele></ele><time>2017-9-5T3:26:32Z</time></trkpt>
<trkpt lat="46.47983" lon="6.29458"><ele></ele><time>2017-9-5T3:26:35Z</time></trkpt>
<trkpt lat="46.47982" lon="6.29453"><ele></ele><time>2017-9-5T3:26:38Z</time></trkpt>
<trkpt lat="46.47981" lon="6.29449"><ele></ele><time>2017-9-5T3:26:41Z</time></trkpt>
<trkpt lat="46.4798" lon="6.29444"><ele></ele><time>2017-9-5T3:26:44Z</time></trkpt>
<trkpt lat="46.47979" lon="6.29439"><ele></ele><time>2017-9-5T3:26:47Z</time></trkpt>
<trkpt lat="46.47979" lon="6.29437"><ele></ele><time>2017-9-5T3:26:50Z</time></trkpt>
<trkpt lat="46.47978" lon="6.29435"><ele></ele><time>2017-9-5T3:26:53Z</time></trkpt>
<trkpt lat="46.47977" lon="6.29431"><ele></ele><time>2017-9-5T3:26:56Z</time></trkpt>
<trkpt lat="46.47976" lon="6.29426"><ele></ele><time>2017-9-5T3:26:59Z</time></trkpt>
<trkpt lat="46.47975" lon="6.29422"><ele></ele><time>2017-9-5T3:27:2Z</time></trkpt>
<trkpt lat="46.47975" lon="6.29418"><ele></ele><time>2017-9-5T3:27:5Z</time></trkpt>
<trkpt lat="46.47974" lon="6.29414"><ele></ele><time>2017-9-5T3:27:8Z</time></trkpt>
<trkpt lat="46.47973" lon="6.2941"><ele></ele><time>2017-9-5T3:27:11Z</time></trkpt>
<trkpt lat="46.47972" lon="6.29406"><ele></ele><time>2017-9-5T3:27:14Z</time></trkpt>
<trkpt lat="46.47971" lon="6.29402"><ele></ele><time>2017-9-5T3:27:17Z</time></trkpt>
<trkpt lat="46.4797" lon="6.29398"><ele></ele><time>2017-9-5T3:27:20Z</time></trkpt>
<trkpt lat="46.4797" lon="6.29396"><ele></ele><time>2017-9-5T3:27:23Z</time></trkpt>
<trkpt lat="46.47969" lon="6.29392"><ele></ele><time>2017-9-5T3:27:26Z</time></trkpt>
<trkpt lat="46.47968" lon="6.2939"><ele></ele><time>2017-9-5T3:27:29Z</time></trkpt>
<trkpt lat="46.47968" lon="6.29386"><ele></ele><time>2017-9-5T3:27:32Z</time></trkpt>
<trkpt lat="46.47967" lon="6.29382"><ele></ele><time>2017-9-5T3:27:35Z</time></trkpt>
<trkpt lat="46.47966" lon="6.29378"><ele></ele><time>2017-9-5T3:27:38Z</time></trkpt>
<trkpt lat="46.47965" lon="6.29376"><ele></ele><time>2017-9-5T3:27:41Z</time></trkpt>
<trkpt lat="46.47965" lon="6.29374"><ele></ele><time>2017-9-5T3:27:44Z</time></trkpt>
<trkpt lat="46.47964" lon="6.2937"><ele></ele><time>2017-9-5T3:27:47Z</time></trkpt>
<trkpt lat="46.47962" lon="6.29366"><ele></ele><time>2017-9-5T3:27:50Z</time></trkpt>
<trkpt lat="46.47961" lon="6.29364"><ele></ele><time>2017-9-5T3:27:53Z</time></trkpt>
<trkpt lat="46.4796" lon="6.29362"><ele></ele><time>2017-9-5T3:27:56Z</time></trkpt>
<trkpt lat="46.47959" lon="6.29358"><ele></ele><time>2017-9-5T3:27:59Z</time></trkpt>
<trkpt lat="46.47958" lon="6.29353"><ele></ele><time>2017-9-5T3:28:2Z</time></trkpt>
<trkpt lat="46.47958" lon="6.29349"><ele></ele><time>2017-9-5T3:28:5Z</time></trkpt>
<trkpt lat="46.47958" lon="6.29346"><ele></ele><time>2017-9-5T3:28:8Z</time></trkpt>
<trkpt lat="46.47957" lon="6.29341"><ele></ele><time>2017-9-5T3:28:11Z</time></trkpt>
<trkpt lat="46.47958" lon="6.29337"><ele></ele><time>2017-9-5T3:28:14Z</time></trkpt>
<trkpt lat="46.47958" lon="6.29334"><ele></ele><time>2017-9-5T3:28:17Z</time></trkpt>
<trkpt lat="46.47958" lon="6.29332"><ele></ele><time>2017-9-5T3:28:20Z</time></trkpt>
<trkpt lat="46.47958" lon="6.29331"><ele></ele><time>2017-9-5T3:28:23Z</time></trkpt>
<trkpt lat="46.47957" lon="6.29329"><ele></ele><time>2017-9-5T3:28:26Z</time></trkpt>
<trkpt lat="46.47957" lon="6.29326"><ele></ele><time>2017-9-5T3:28:29Z</time></trkpt>
<trkpt lat="46.47957" lon="6.29322"><ele></ele><time>2017-9-5T3:28:32Z</time></trkpt>
<trkpt lat="46.47957" lon="6.29318"><ele></ele><time>2017-9-5T3:28:35Z</time></trkpt>
<trkpt lat="46.47956" lon="6.29313"><ele></ele><time>2017-9-5T3:28:38Z</time></trkpt>
<trkpt lat="46.47955" lon="6.29309"><ele></ele><time>2017-9-5T3:28:41Z</time></trkpt>
<trkpt lat="46.47955" lon="6.29304"><ele></ele><time>2017-9-5T3:28:44Z</time></trkpt>
<trkpt lat="46.47954" lon="6.29299"><ele></ele><time>2017-9-5T3:28:47Z</time></trkpt>
<trkpt lat="46.47954" lon="6.29297"><ele></ele><time>2017-9-5T3:28:50Z</time></trkpt>
<trkpt lat="46.47955" lon="6.2929"><ele></ele><time>2017-9-5T3:28:53Z</time></trkpt>
<trkpt lat="46.47955" lon="6.29285"><ele></ele><time>2017-9-5T3:28:56Z</time></trkpt>
<trkpt lat="46.47955" lon="6.29282"><ele></ele><time>2017-9-5T3:28:59Z</time></trkpt>
<trkpt lat="46.47955" lon="6.2928"><ele></ele><time>2017-9-5T3:29:2Z</time></trkpt>
<trkpt lat="46.47955" lon="6.29275"><ele></ele><time>2017-9-5T3:29:5Z</time></trkpt>
<trkpt lat="46.47954" lon="6.2927"><ele></ele><time>2017-9-5T3:29:8Z</time></trkpt>
<trkpt lat="46.47955" lon="6.29265"><ele></ele><time>2017-9-5T3:29:11Z</time></trkpt>
<trkpt lat="46.47955" lon="6.2926"><ele></ele><time>2017-9-5T3:29:14Z</time></trkpt>
<trkpt lat="46.47955" lon="6.29256"><ele></ele><time>2017-9-5T3:29:17Z</time></trkpt>
<trkpt lat="46.47954" lon="6.29252"><ele></ele><time>2017-9-5T3:29:20Z</time></trkpt>
<trkpt lat="46.47954" lon="6.29252"><ele></ele><time>2017-9-5T3:29:23Z</time></trkpt>
<trkpt lat="46.47953" lon="6.29239"><ele></ele><time>2017-9-5T3:29:26Z</time></trkpt>
<trkpt lat="46.47953" lon="6.29239"><ele></ele><time>2017-9-5T3:29:29Z</time></trkpt>
<trkpt lat="46.47951" lon="6.29232"><ele></ele><time>2017-9-5T3:29:32Z</time></trkpt>
<trkpt lat="46.47951" lon="6.29225"><ele></ele><time>2017-9-5T3:29:35Z</time></trkpt>
<trkpt lat="46.47951" lon="6.29219"><ele></ele><time>2017-9-5T3:29:38Z</time></trkpt>
<trkpt lat="46.47951" lon="6.29216"><ele></ele><time>2017-9-5T3:29:41Z</time></trkpt>
<trkpt lat="46.47951" lon="6.29212"><ele></ele><time>2017-9-5T3:29:44Z</time></trkpt>
<trkpt lat="46.47951" lon="6.29204"><ele></ele><time>2017-9-5T3:29:47Z</time></trkpt>
<trkpt lat="46.4795" lon="6.29201"><ele></ele><time>2017-9-5T3:29:50Z</time></trkpt>
<trkpt lat="46.4795" lon="6.29198"><ele></ele><time>2017-9-5T3:29:53Z</time></trkpt>
<trkpt lat="46.4795" lon="6.29193"><ele></ele><time>2017-9-5T3:29:56Z</time></trkpt>
<trkpt lat="46.4795" lon="6.29189"><ele></ele><time>2017-9-5T3:29:59Z</time></trkpt>
<trkpt lat="46.4795" lon="6.29186"><ele></ele><time>2017-9-5T3:30:2Z</time></trkpt>
<trkpt lat="46.4795" lon="6.2918"><ele></ele><time>2017-9-5T3:30:5Z</time></trkpt>
<trkpt lat="46.47949" lon="6.29173"><ele></ele><time>2017-9-5T3:30:8Z</time></trkpt>
<trkpt lat="46.47949" lon="6.29168"><ele></ele><time>2017-9-5T3:30:11Z</time></trkpt>
<trkpt lat="46.47949" lon="6.29164"><ele></ele><time>2017-9-5T3:30:14Z</time></trkpt>
<trkpt lat="46.47947" lon="6.29143"><ele></ele><time>2017-9-5T3:30:17Z</time></trkpt>
<trkpt lat="46.47946" lon="6.29138"><ele></ele><time>2017-9-5T3:30:20Z</time></trkpt>
<trkpt lat="46.47946" lon="6.29135"><ele></ele><time>2017-9-5T3:30:23Z</time></trkpt>
<trkpt lat="46.47946" lon="6.2913"><ele></ele><time>2017-9-5T3:30:26Z</time></trkpt>
<trkpt lat="46.47946" lon="6.29126"><ele></ele><time>2017-9-5T3:30:29Z</time></trkpt>
<trkpt lat="46.47946" lon="6.29124"><ele></ele><time>2017-9-5T3:30:32Z</time></trkpt>
<trkpt lat="46.47946" lon="6.29122"><ele></ele><time>2017-9-5T3:30:35Z</time></trkpt>
<trkpt lat="46.47945" lon="6.29119"><ele></ele><time>2017-9-5T3:30:38Z</time></trkpt>
<trkpt lat="46.47944" lon="6.29111"><ele></ele><time>2017-9-5T3:30:41Z</time></trkpt>
<trkpt lat="46.47942" lon="6.29105"><ele></ele><time>2017-9-5T3:30:44Z</time></trkpt>
<trkpt lat="46.47942" lon="6.29102"><ele></ele><time>2017-9-5T3:30:47Z</time></trkpt>
<trkpt lat="46.47942" lon="6.29094"><ele></ele><time>2017-9-5T3:30:50Z</time></trkpt>
<trkpt lat="46.47942" lon="6.29088"><ele></ele><time>2017-9-5T3:30:53Z</time></trkpt>
<trkpt lat="46.47942" lon="6.29084"><ele></ele><time>2017-9-5T3:30:56Z</time></trkpt>
<trkpt lat="46.47944" lon="6.29073"><ele></ele><time>2017-9-5T3:30:59Z</time></trkpt>
<trkpt lat="46.47944" lon="6.29071"><ele></ele><time>2017-9-5T3:31:2Z</time></trkpt>
<trkpt lat="46.47945" lon="6.29065"><ele></ele><time>2017-9-5T3:31:5Z</time></trkpt>
<trkpt lat="46.47947" lon="6.29057"><ele></ele><time>2017-9-5T3:31:8Z</time></trkpt>
<trkpt lat="46.47948" lon="6.29055"><ele></ele><time>2017-9-5T3:31:11Z</time></trkpt>
<trkpt lat="46.4795" lon="6.29051"><ele></ele><time>2017-9-5T3:31:14Z</time></trkpt>
<trkpt lat="46.47952" lon="6.29047"><ele></ele><time>2017-9-5T3:31:17Z</time></trkpt>
<trkpt lat="46.47954" lon="6.29042"><ele></ele><time>2017-9-5T3:31:20Z</time></trkpt>
<trkpt lat="46.47955" lon="6.2904"><ele></ele><time>2017-9-5T3:31:23Z</time></trkpt>
<trkpt lat="46.47957" lon="6.29034"><ele></ele><time>2017-9-5T3:31:26Z</time></trkpt>
<trkpt lat="46.47958" lon="6.29029"><ele></ele><time>2017-9-5T3:31:29Z</time></trkpt>
<trkpt lat="46.47959" lon="6.29022"><ele></ele><time>2017-9-5T3:31:32Z</time></trkpt>
<trkpt lat="46.47958" lon="6.29015"><ele></ele><time>2017-9-5T3:31:35Z</time></trkpt>
<trkpt lat="46.47955" lon="6.29008"><ele></ele><time>2017-9-5T3:31:38Z</time></trkpt>
<trkpt lat="46.47955" lon="6.29006"><ele></ele><time>2017-9-5T3:31:41Z</time></trkpt>
<trkpt lat="46.47954" lon="6.29003"><ele></ele><time>2017-9-5T3:31:44Z</time></trkpt>
<trkpt lat="46.47952" lon="6.28999"><ele></ele><time>2017-9-5T3:31:47Z</time></trkpt>
<trkpt lat="46.47952" lon="6.28997"><ele></ele><time>2017-9-5T3:31:50Z</time></trkpt>
<trkpt lat="46.47952" lon="6.28993"><ele></ele><time>2017-9-5T3:31:53Z</time></trkpt>
<trkpt lat="46.47952" lon="6.28987"><ele></ele><time>2017-9-5T3:31:56Z</time></trkpt>
<trkpt lat="46.47952" lon="6.28984"><ele></ele><time>2017-9-5T3:31:59Z</time></trkpt>
<trkpt lat="46.47952" lon="6.28978"><ele></ele><time>2017-9-5T3:32:2Z</time></trkpt>
<trkpt lat="46.47954" lon="6.28971"><ele></ele><time>2017-9-5T3:32:5Z</time></trkpt>
<trkpt lat="46.47955" lon="6.28964"><ele></ele><time>2017-9-5T3:32:8Z</time></trkpt>
<trkpt lat="46.47955" lon="6.28958"><ele></ele><time>2017-9-5T3:32:11Z</time></trkpt>
<trkpt lat="46.47956" lon="6.28951"><ele></ele><time>2017-9-5T3:32:14Z</time></trkpt>
<trkpt lat="46.47958" lon="6.28945"><ele></ele><time>2017-9-5T3:32:17Z</time></trkpt>
<trkpt lat="46.47961" lon="6.28941"><ele></ele><time>2017-9-5T3:32:20Z</time></trkpt>
<trkpt lat="46.47965" lon="6.28938"><ele></ele><time>2017-9-5T3:32:23Z</time></trkpt>
<trkpt lat="46.47968" lon="6.28935"><ele></ele><time>2017-9-5T3:32:26Z</time></trkpt>
<trkpt lat="46.4797" lon="6.2893"><ele></ele><time>2017-9-5T3:32:29Z</time></trkpt>
<trkpt lat="46.47973" lon="6.28924"><ele></ele><time>2017-9-5T3:32:32Z</time></trkpt>
<trkpt lat="46.47975" lon="6.28919"><ele></ele><time>2017-9-5T3:32:35Z</time></trkpt>
<trkpt lat="46.47976" lon="6.28914"><ele></ele><time>2017-9-5T3:32:38Z</time></trkpt>
<trkpt lat="46.47976" lon="6.28908"><ele></ele><time>2017-9-5T3:32:41Z</time></trkpt>
<trkpt lat="46.47977" lon="6.28903"><ele></ele><time>2017-9-5T3:32:44Z</time></trkpt>
<trkpt lat="46.47977" lon="6.289"><ele></ele><time>2017-9-5T3:32:47Z</time></trkpt>
<trkpt lat="46.47978" lon="6.28897"><ele></ele><time>2017-9-5T3:32:50Z</time></trkpt>
<trkpt lat="46.4798" lon="6.28892"><ele></ele><time>2017-9-5T3:32:53Z</time></trkpt>
<trkpt lat="46.4798" lon="6.28887"><ele></ele><time>2017-9-5T3:32:56Z</time></trkpt>
<trkpt lat="46.47981" lon="6.28885"><ele></ele><time>2017-9-5T3:32:59Z</time></trkpt>
<trkpt lat="46.47981" lon="6.28882"><ele></ele><time>2017-9-5T3:33:2Z</time></trkpt>
<trkpt lat="46.47983" lon="6.28877"><ele></ele><time>2017-9-5T3:33:5Z</time></trkpt>
<trkpt lat="46.47984" lon="6.28872"><ele></ele><time>2017-9-5T3:33:8Z</time></trkpt>
<trkpt lat="46.47984" lon="6.28869"><ele></ele><time>2017-9-5T3:33:11Z</time></trkpt>
<trkpt lat="46.47987" lon="6.28838"><ele></ele><time>2017-9-5T3:33:14Z</time></trkpt>
<trkpt lat="46.47987" lon="6.28832"><ele></ele><time>2017-9-5T3:33:17Z</time></trkpt>
<trkpt lat="46.47988" lon="6.28826"><ele></ele><time>2017-9-5T3:33:20Z</time></trkpt>
<trkpt lat="46.47988" lon="6.28818"><ele></ele><time>2017-9-5T3:33:23Z</time></trkpt>
<trkpt lat="46.47987" lon="6.28812"><ele></ele><time>2017-9-5T3:33:26Z</time></trkpt>
<trkpt lat="46.47985" lon="6.28807"><ele></ele><time>2017-9-5T3:33:29Z</time></trkpt>
<trkpt lat="46.47981" lon="6.28772"><ele></ele><time>2017-9-5T3:33:32Z</time></trkpt>
<trkpt lat="46.47982" lon="6.28767"><ele></ele><time>2017-9-5T3:33:35Z</time></trkpt>
<trkpt lat="46.47982" lon="6.28767"><ele></ele><time>2017-9-5T3:33:38Z</time></trkpt>
<trkpt lat="46.47987" lon="6.28733"><ele></ele><time>2017-9-5T3:33:41Z</time></trkpt>
<trkpt lat="46.47986" lon="6.28727"><ele></ele><time>2017-9-5T3:33:44Z</time></trkpt>
<trkpt lat="46.47986" lon="6.28675"><ele></ele><time>2017-9-5T3:33:47Z</time></trkpt>
<trkpt lat="46.47986" lon="6.2867"><ele></ele><time>2017-9-5T3:33:50Z</time></trkpt>
<trkpt lat="46.47987" lon="6.28666"><ele></ele><time>2017-9-5T3:33:53Z</time></trkpt>
<trkpt lat="46.47987" lon="6.2866"><ele></ele><time>2017-9-5T3:33:56Z</time></trkpt>
<trkpt lat="46.47988" lon="6.28655"><ele></ele><time>2017-9-5T3:33:59Z</time></trkpt>
<trkpt lat="46.47988" lon="6.28651"><ele></ele><time>2017-9-5T3:34:2Z</time></trkpt>
<trkpt lat="46.47988" lon="6.28645"><ele></ele><time>2017-9-5T3:34:5Z</time></trkpt>
<trkpt lat="46.47989" lon="6.28638"><ele></ele><time>2017-9-5T3:34:8Z</time></trkpt>
<trkpt lat="46.47989" lon="6.28636"><ele></ele><time>2017-9-5T3:34:11Z</time></trkpt>
<trkpt lat="46.47989" lon="6.28633"><ele></ele><time>2017-9-5T3:34:14Z</time></trkpt>
<trkpt lat="46.47989" lon="6.28631"><ele></ele><time>2017-9-5T3:34:17Z</time></trkpt>
<trkpt lat="46.47994" lon="6.28574"><ele></ele><time>2017-9-5T3:34:20Z</time></trkpt>
<trkpt lat="46.47996" lon="6.28569"><ele></ele><time>2017-9-5T3:34:23Z</time></trkpt>
<trkpt lat="46.48002" lon="6.28545"><ele></ele><time>2017-9-5T3:34:26Z</time></trkpt>
<trkpt lat="46.48003" lon="6.2854"><ele></ele><time>2017-9-5T3:34:29Z</time></trkpt>
<trkpt lat="46.48004" lon="6.28538"><ele></ele><time>2017-9-5T3:34:32Z</time></trkpt>
<trkpt lat="46.48012" lon="6.28511"><ele></ele><time>2017-9-5T3:34:35Z</time></trkpt>
<trkpt lat="46.48012" lon="6.28509"><ele></ele><time>2017-9-5T3:34:38Z</time></trkpt>
<trkpt lat="46.48011" lon="6.28506"><ele></ele><time>2017-9-5T3:34:41Z</time></trkpt>
<trkpt lat="46.48012" lon="6.28501"><ele></ele><time>2017-9-5T3:34:44Z</time></trkpt>
<trkpt lat="46.48013" lon="6.28498"><ele></ele><time>2017-9-5T3:34:47Z</time></trkpt>
<trkpt lat="46.48012" lon="6.28492"><ele></ele><time>2017-9-5T3:34:50Z</time></trkpt>
<trkpt lat="46.48011" lon="6.28486"><ele></ele><time>2017-9-5T3:34:53Z</time></trkpt>
<trkpt lat="46.48011" lon="6.28481"><ele></ele><time>2017-9-5T3:34:56Z</time></trkpt>
<trkpt lat="46.48011" lon="6.28476"><ele></ele><time>2017-9-5T3:34:59Z</time></trkpt>
<trkpt lat="46.48011" lon="6.28474"><ele></ele><time>2017-9-5T3:35:2Z</time></trkpt>
<trkpt lat="46.48011" lon="6.28468"><ele></ele><time>2017-9-5T3:35:5Z</time></trkpt>
<trkpt lat="46.4801" lon="6.28465"><ele></ele><time>2017-9-5T3:35:8Z</time></trkpt>
<trkpt lat="46.48009" lon="6.28459"><ele></ele><time>2017-9-5T3:35:11Z</time></trkpt>
<trkpt lat="46.48008" lon="6.28453"><ele></ele><time>2017-9-5T3:35:14Z</time></trkpt>
<trkpt lat="46.48008" lon="6.28448"><ele></ele><time>2017-9-5T3:35:17Z</time></trkpt>
<trkpt lat="46.48007" lon="6.28445"><ele></ele><time>2017-9-5T3:35:20Z</time></trkpt>
<trkpt lat="46.48007" lon="6.28442"><ele></ele><time>2017-9-5T3:35:23Z</time></trkpt>
<trkpt lat="46.48006" lon="6.28437"><ele></ele><time>2017-9-5T3:35:26Z</time></trkpt>
<trkpt lat="46.48005" lon="6.28432"><ele></ele><time>2017-9-5T3:35:29Z</time></trkpt>
<trkpt lat="46.48004" lon="6.28429"><ele></ele><time>2017-9-5T3:35:32Z</time></trkpt>
<trkpt lat="46.48003" lon="6.28427"><ele></ele><time>2017-9-5T3:35:35Z</time></trkpt>
<trkpt lat="46.48003" lon="6.28425"><ele></ele><time>2017-9-5T3:35:38Z</time></trkpt>
<trkpt lat="46.48001" lon="6.28418"><ele></ele><time>2017-9-5T3:35:41Z</time></trkpt>
<trkpt lat="46.48001" lon="6.28416"><ele></ele><time>2017-9-5T3:35:44Z</time></trkpt>
<trkpt lat="46.48" lon="6.28414"><ele></ele><time>2017-9-5T3:35:47Z</time></trkpt>
<trkpt lat="46.47999" lon="6.28409"><ele></ele><time>2017-9-5T3:35:50Z</time></trkpt>
<trkpt lat="46.47998" lon="6.28405"><ele></ele><time>2017-9-5T3:35:53Z</time></trkpt>
<trkpt lat="46.47998" lon="6.28403"><ele></ele><time>2017-9-5T3:35:56Z</time></trkpt>
<trkpt lat="46.47997" lon="6.28401"><ele></ele><time>2017-9-5T3:35:59Z</time></trkpt>
<trkpt lat="46.47996" lon="6.28397"><ele></ele><time>2017-9-5T3:36:2Z</time></trkpt>
<trkpt lat="46.47994" lon="6.28393"><ele></ele><time>2017-9-5T3:36:5Z</time></trkpt>
<trkpt lat="46.47993" lon="6.28388"><ele></ele><time>2017-9-5T3:36:8Z</time></trkpt>
<trkpt lat="46.47992" lon="6.28383"><ele></ele><time>2017-9-5T3:36:11Z</time></trkpt>
<trkpt lat="46.4799" lon="6.28378"><ele></ele><time>2017-9-5T3:36:14Z</time></trkpt>
<trkpt lat="46.47989" lon="6.28376"><ele></ele><time>2017-9-5T3:36:17Z</time></trkpt>
<trkpt lat="46.47988" lon="6.28374"><ele></ele><time>2017-9-5T3:36:20Z</time></trkpt>
<trkpt lat="46.47987" lon="6.28371"><ele></ele><time>2017-9-5T3:36:23Z</time></trkpt>
<trkpt lat="46.47985" lon="6.28367"><ele></ele><time>2017-9-5T3:36:26Z</time></trkpt>
<trkpt lat="46.47983" lon="6.28363"><ele></ele><time>2017-9-5T3:36:29Z</time></trkpt>
<trkpt lat="46.47982" lon="6.28361"><ele></ele><time>2017-9-5T3:36:32Z</time></trkpt>
<trkpt lat="46.4798" lon="6.28357"><ele></ele><time>2017-9-5T3:36:35Z</time></trkpt>
<trkpt lat="46.47978" lon="6.28354"><ele></ele><time>2017-9-5T3:36:38Z</time></trkpt>
<trkpt lat="46.47976" lon="6.28353"><ele></ele><time>2017-9-5T3:36:41Z</time></trkpt>
<trkpt lat="46.47973" lon="6.2835"><ele></ele><time>2017-9-5T3:36:44Z</time></trkpt>
<trkpt lat="46.47969" lon="6.28348"><ele></ele><time>2017-9-5T3:36:47Z</time></trkpt>
<trkpt lat="46.47965" lon="6.28344"><ele></ele><time>2017-9-5T3:36:50Z</time></trkpt>
<trkpt lat="46.47962" lon="6.2834"><ele></ele><time>2017-9-5T3:36:53Z</time></trkpt>
<trkpt lat="46.47958" lon="6.28336"><ele></ele><time>2017-9-5T3:36:56Z</time></trkpt>
<trkpt lat="46.47953" lon="6.28334"><ele></ele><time>2017-9-5T3:36:59Z</time></trkpt>
<trkpt lat="46.47949" lon="6.28331"><ele></ele><time>2017-9-5T3:37:2Z</time></trkpt>
<trkpt lat="46.47946" lon="6.28327"><ele></ele><time>2017-9-5T3:37:5Z</time></trkpt>
<trkpt lat="46.47943" lon="6.28325"><ele></ele><time>2017-9-5T3:37:8Z</time></trkpt>
<trkpt lat="46.47939" lon="6.28322"><ele></ele><time>2017-9-5T3:37:11Z</time></trkpt>
<trkpt lat="46.47937" lon="6.2832"><ele></ele><time>2017-9-5T3:37:14Z</time></trkpt>
<trkpt lat="46.47935" lon="6.28319"><ele></ele><time>2017-9-5T3:37:17Z</time></trkpt>
<trkpt lat="46.47931" lon="6.28316"><ele></ele><time>2017-9-5T3:37:20Z</time></trkpt>
<trkpt lat="46.47926" lon="6.28312"><ele></ele><time>2017-9-5T3:37:23Z</time></trkpt>
<trkpt lat="46.47921" lon="6.28308"><ele></ele><time>2017-9-5T3:37:26Z</time></trkpt>
<trkpt lat="46.47918" lon="6.28304"><ele></ele><time>2017-9-5T3:37:29Z</time></trkpt>
<trkpt lat="46.47914" lon="6.28299"><ele></ele><time>2017-9-5T3:37:32Z</time></trkpt>
<trkpt lat="46.47909" lon="6.28292"><ele></ele><time>2017-9-5T3:37:35Z</time></trkpt>
<trkpt lat="46.47904" lon="6.28284"><ele></ele><time>2017-9-5T3:37:38Z</time></trkpt>
<trkpt lat="46.47899" lon="6.28274"><ele></ele><time>2017-9-5T3:37:41Z</time></trkpt>
<trkpt lat="46.47894" lon="6.28267"><ele></ele><time>2017-9-5T3:37:44Z</time></trkpt>
<trkpt lat="46.47892" lon="6.28264"><ele></ele><time>2017-9-5T3:37:47Z</time></trkpt>
<trkpt lat="46.47891" lon="6.28263"><ele></ele><time>2017-9-5T3:37:50Z</time></trkpt>
<trkpt lat="46.4789" lon="6.28262"><ele></ele><time>2017-9-5T3:37:53Z</time></trkpt>
<trkpt lat="46.47882" lon="6.28257"><ele></ele><time>2017-9-5T3:37:56Z</time></trkpt>
<trkpt lat="46.4788" lon="6.28255"><ele></ele><time>2017-9-5T3:37:59Z</time></trkpt>
<trkpt lat="46.47876" lon="6.28252"><ele></ele><time>2017-9-5T3:38:2Z</time></trkpt>
<trkpt lat="46.47868" lon="6.28246"><ele></ele><time>2017-9-5T3:38:5Z</time></trkpt>
<trkpt lat="46.47862" lon="6.28243"><ele></ele><time>2017-9-5T3:38:8Z</time></trkpt>
<trkpt lat="46.47855" lon="6.28239"><ele></ele><time>2017-9-5T3:38:11Z</time></trkpt>
<trkpt lat="46.47847" lon="6.28238"><ele></ele><time>2017-9-5T3:38:14Z</time></trkpt>
<trkpt lat="46.47841" lon="6.28239"><ele></ele><time>2017-9-5T3:38:17Z</time></trkpt>
<trkpt lat="46.47838" lon="6.28238"><ele></ele><time>2017-9-5T3:38:20Z</time></trkpt>
<trkpt lat="46.47836" lon="6.28238"><ele></ele><time>2017-9-5T3:38:23Z</time></trkpt>
<trkpt lat="46.47832" lon="6.28238"><ele></ele><time>2017-9-5T3:38:26Z</time></trkpt>
<trkpt lat="46.47828" lon="6.28238"><ele></ele><time>2017-9-5T3:38:29Z</time></trkpt>
<trkpt lat="46.47823" lon="6.28238"><ele></ele><time>2017-9-5T3:38:32Z</time></trkpt>
<trkpt lat="46.47819" lon="6.28238"><ele></ele><time>2017-9-5T3:38:35Z</time></trkpt>
<trkpt lat="46.47815" lon="6.28238"><ele></ele><time>2017-9-5T3:38:38Z</time></trkpt>
<trkpt lat="46.4781" lon="6.28235"><ele></ele><time>2017-9-5T3:38:41Z</time></trkpt>
<trkpt lat="46.47805" lon="6.28233"><ele></ele><time>2017-9-5T3:38:44Z</time></trkpt>
<trkpt lat="46.47799" lon="6.28233"><ele></ele><time>2017-9-5T3:38:47Z</time></trkpt>
<trkpt lat="46.47792" lon="6.28233"><ele></ele><time>2017-9-5T3:38:50Z</time></trkpt>
<trkpt lat="46.47789" lon="6.28232"><ele></ele><time>2017-9-5T3:38:53Z</time></trkpt>
<trkpt lat="46.47785" lon="6.2823"><ele></ele><time>2017-9-5T3:38:56Z</time></trkpt>
<trkpt lat="46.47778" lon="6.2823"><ele></ele><time>2017-9-5T3:38:59Z</time></trkpt>
<trkpt lat="46.47772" lon="6.28232"><ele></ele><time>2017-9-5T3:39:2Z</time></trkpt>
<trkpt lat="46.4777" lon="6.28233"><ele></ele><time>2017-9-5T3:39:5Z</time></trkpt>
<trkpt lat="46.47768" lon="6.28233"><ele></ele><time>2017-9-5T3:39:8Z</time></trkpt>
<trkpt lat="46.47763" lon="6.28235"><ele></ele><time>2017-9-5T3:39:11Z</time></trkpt>
<trkpt lat="46.47757" lon="6.28235"><ele></ele><time>2017-9-5T3:39:14Z</time></trkpt>
<trkpt lat="46.47752" lon="6.28234"><ele></ele><time>2017-9-5T3:39:17Z</time></trkpt>
<trkpt lat="46.47748" lon="6.28232"><ele></ele><time>2017-9-5T3:39:20Z</time></trkpt>
<trkpt lat="46.47746" lon="6.28232"><ele></ele><time>2017-9-5T3:39:23Z</time></trkpt>
<trkpt lat="46.47744" lon="6.2823"><ele></ele><time>2017-9-5T3:39:26Z</time></trkpt>
<trkpt lat="46.47741" lon="6.28228"><ele></ele><time>2017-9-5T3:39:29Z</time></trkpt>
<trkpt lat="46.47738" lon="6.28226"><ele></ele><time>2017-9-5T3:39:32Z</time></trkpt>
<trkpt lat="46.47735" lon="6.28224"><ele></ele><time>2017-9-5T3:39:35Z</time></trkpt>
<trkpt lat="46.4773" lon="6.28223"><ele></ele><time>2017-9-5T3:39:38Z</time></trkpt>
<trkpt lat="46.47725" lon="6.28223"><ele></ele><time>2017-9-5T3:39:41Z</time></trkpt>
<trkpt lat="46.47718" lon="6.28222"><ele></ele><time>2017-9-5T3:39:44Z</time></trkpt>
<trkpt lat="46.47711" lon="6.28224"><ele></ele><time>2017-9-5T3:39:47Z</time></trkpt>
<trkpt lat="46.47709" lon="6.28224"><ele></ele><time>2017-9-5T3:39:50Z</time></trkpt>
<trkpt lat="46.47705" lon="6.28225"><ele></ele><time>2017-9-5T3:39:53Z</time></trkpt>
<trkpt lat="46.477" lon="6.28225"><ele></ele><time>2017-9-5T3:39:56Z</time></trkpt>
<trkpt lat="46.47694" lon="6.28226"><ele></ele><time>2017-9-5T3:39:59Z</time></trkpt>
<trkpt lat="46.47692" lon="6.28227"><ele></ele><time>2017-9-5T3:40:2Z</time></trkpt>
<trkpt lat="46.47688" lon="6.28229"><ele></ele><time>2017-9-5T3:40:5Z</time></trkpt>
<trkpt lat="46.47682" lon="6.2823"><ele></ele><time>2017-9-5T3:40:8Z</time></trkpt>
<trkpt lat="46.47679" lon="6.2823"><ele></ele><time>2017-9-5T3:40:11Z</time></trkpt>
<trkpt lat="46.47674" lon="6.2823"><ele></ele><time>2017-9-5T3:40:14Z</time></trkpt>
<trkpt lat="46.47671" lon="6.2823"><ele></ele><time>2017-9-5T3:40:17Z</time></trkpt>
<trkpt lat="46.4767" lon="6.28231"><ele></ele><time>2017-9-5T3:40:20Z</time></trkpt>
<trkpt lat="46.47668" lon="6.28233"><ele></ele><time>2017-9-5T3:40:23Z</time></trkpt>
<trkpt lat="46.47664" lon="6.28237"><ele></ele><time>2017-9-5T3:40:26Z</time></trkpt>
<trkpt lat="46.47659" lon="6.28238"><ele></ele><time>2017-9-5T3:40:29Z</time></trkpt>
<trkpt lat="46.47656" lon="6.28238"><ele></ele><time>2017-9-5T3:40:32Z</time></trkpt>
<trkpt lat="46.47653" lon="6.28238"><ele></ele><time>2017-9-5T3:40:35Z</time></trkpt>
<trkpt lat="46.47647" lon="6.28237"><ele></ele><time>2017-9-5T3:40:38Z</time></trkpt>
<trkpt lat="46.47642" lon="6.28236"><ele></ele><time>2017-9-5T3:40:41Z</time></trkpt>
<trkpt lat="46.47637" lon="6.28234"><ele></ele><time>2017-9-5T3:40:44Z</time></trkpt>
<trkpt lat="46.47633" lon="6.28232"><ele></ele><time>2017-9-5T3:40:47Z</time></trkpt>
<trkpt lat="46.47628" lon="6.28231"><ele></ele><time>2017-9-5T3:40:50Z</time></trkpt>
<trkpt lat="46.47621" lon="6.28234"><ele></ele><time>2017-9-5T3:40:53Z</time></trkpt>
<trkpt lat="46.47617" lon="6.28235"><ele></ele><time>2017-9-5T3:40:56Z</time></trkpt>
<trkpt lat="46.47613" lon="6.28235"><ele></ele><time>2017-9-5T3:40:59Z</time></trkpt>
<trkpt lat="46.47606" lon="6.28238"><ele></ele><time>2017-9-5T3:41:2Z</time></trkpt>
<trkpt lat="46.476" lon="6.28242"><ele></ele><time>2017-9-5T3:41:5Z</time></trkpt>
<trkpt lat="46.47594" lon="6.28245"><ele></ele><time>2017-9-5T3:41:8Z</time></trkpt>
<trkpt lat="46.47588" lon="6.28245"><ele></ele><time>2017-9-5T3:41:11Z</time></trkpt>
<trkpt lat="46.47585" lon="6.28244"><ele></ele><time>2017-9-5T3:41:14Z</time></trkpt>
<trkpt lat="46.47583" lon="6.28244"><ele></ele><time>2017-9-5T3:41:17Z</time></trkpt>
<trkpt lat="46.47578" lon="6.28242"><ele></ele><time>2017-9-5T3:41:20Z</time></trkpt>
<trkpt lat="46.47574" lon="6.28242"><ele></ele><time>2017-9-5T3:41:23Z</time></trkpt>
<trkpt lat="46.47564" lon="6.28241"><ele></ele><time>2017-9-5T3:41:26Z</time></trkpt>
<trkpt lat="46.47558" lon="6.28241"><ele></ele><time>2017-9-5T3:41:29Z</time></trkpt>
<trkpt lat="46.47553" lon="6.2824"><ele></ele><time>2017-9-5T3:41:32Z</time></trkpt>
<trkpt lat="46.47553" lon="6.2824"><ele></ele><time>2017-9-5T3:41:35Z</time></trkpt>
<trkpt lat="46.47548" lon="6.28239"><ele></ele><time>2017-9-5T3:41:38Z</time></trkpt>
<trkpt lat="46.47542" lon="6.28237"><ele></ele><time>2017-9-5T3:41:41Z</time></trkpt>
<trkpt lat="46.47538" lon="6.28236"><ele></ele><time>2017-9-5T3:41:44Z</time></trkpt>
<trkpt lat="46.47535" lon="6.28237"><ele></ele><time>2017-9-5T3:41:47Z</time></trkpt>
<trkpt lat="46.47533" lon="6.28237"><ele></ele><time>2017-9-5T3:41:50Z</time></trkpt>
<trkpt lat="46.47528" lon="6.28238"><ele></ele><time>2017-9-5T3:41:53Z</time></trkpt>
<trkpt lat="46.47523" lon="6.28237"><ele></ele><time>2017-9-5T3:41:56Z</time></trkpt>
<trkpt lat="46.47516" lon="6.28234"><ele></ele><time>2017-9-5T3:41:59Z</time></trkpt>
<trkpt lat="46.47509" lon="6.28234"><ele></ele><time>2017-9-5T3:42:2Z</time></trkpt>
<trkpt lat="46.47503" lon="6.28232"><ele></ele><time>2017-9-5T3:42:5Z</time></trkpt>
<trkpt lat="46.47495" lon="6.28233"><ele></ele><time>2017-9-5T3:42:8Z</time></trkpt>
<trkpt lat="46.47488" lon="6.28233"><ele></ele><time>2017-9-5T3:42:11Z</time></trkpt>
<trkpt lat="46.47486" lon="6.28235"><ele></ele><time>2017-9-5T3:42:14Z</time></trkpt>
<trkpt lat="46.47483" lon="6.28237"><ele></ele><time>2017-9-5T3:42:17Z</time></trkpt>
<trkpt lat="46.47477" lon="6.28237"><ele></ele><time>2017-9-5T3:42:20Z</time></trkpt>
<trkpt lat="46.47477" lon="6.28237"><ele></ele><time>2017-9-5T3:42:23Z</time></trkpt>
<trkpt lat="46.47471" lon="6.28236"><ele></ele><time>2017-9-5T3:42:26Z</time></trkpt>
<trkpt lat="46.47464" lon="6.28237"><ele></ele><time>2017-9-5T3:42:29Z</time></trkpt>
<trkpt lat="46.47458" lon="6.28238"><ele></ele><time>2017-9-5T3:42:32Z</time></trkpt>
<trkpt lat="46.47453" lon="6.28239"><ele></ele><time>2017-9-5T3:42:35Z</time></trkpt>
<trkpt lat="46.47453" lon="6.28239"><ele></ele><time>2017-9-5T3:42:38Z</time></trkpt>
<trkpt lat="46.47443" lon="6.28243"><ele></ele><time>2017-9-5T3:42:41Z</time></trkpt>
<trkpt lat="46.4744" lon="6.28244"><ele></ele><time>2017-9-5T3:42:44Z</time></trkpt>
<trkpt lat="46.47437" lon="6.28245"><ele></ele><time>2017-9-5T3:42:47Z</time></trkpt>
<trkpt lat="46.47437" lon="6.28245"><ele></ele><time>2017-9-5T3:42:50Z</time></trkpt>
<trkpt lat="46.47427" lon="6.28248"><ele></ele><time>2017-9-5T3:42:53Z</time></trkpt>
<trkpt lat="46.47422" lon="6.28249"><ele></ele><time>2017-9-5T3:42:56Z</time></trkpt>
<trkpt lat="46.47418" lon="6.28249"><ele></ele><time>2017-9-5T3:42:59Z</time></trkpt>
<trkpt lat="46.47413" lon="6.28246"><ele></ele><time>2017-9-5T3:43:2Z</time></trkpt>
<trkpt lat="46.47411" lon="6.28245"><ele></ele><time>2017-9-5T3:43:5Z</time></trkpt>
<trkpt lat="46.47406" lon="6.28241"><ele></ele><time>2017-9-5T3:43:8Z</time></trkpt>
<trkpt lat="46.47399" lon="6.28236"><ele></ele><time>2017-9-5T3:43:11Z</time></trkpt>
<trkpt lat="46.47393" lon="6.28232"><ele></ele><time>2017-9-5T3:43:14Z</time></trkpt>
<trkpt lat="46.47387" lon="6.28233"><ele></ele><time>2017-9-5T3:43:17Z</time></trkpt>
<trkpt lat="46.47383" lon="6.28235"><ele></ele><time>2017-9-5T3:43:20Z</time></trkpt>
<trkpt lat="46.47379" lon="6.28235"><ele></ele><time>2017-9-5T3:43:23Z</time></trkpt>
<trkpt lat="46.47375" lon="6.28236"><ele></ele><time>2017-9-5T3:43:26Z</time></trkpt>
<trkpt lat="46.4737" lon="6.28238"><ele></ele><time>2017-9-5T3:43:29Z</time></trkpt>
<trkpt lat="46.47365" lon="6.28241"><ele></ele><time>2017-9-5T3:43:32Z</time></trkpt>
<trkpt lat="46.4736" lon="6.28245"><ele></ele><time>2017-9-5T3:43:35Z</time></trkpt>
<trkpt lat="46.4735" lon="6.28253"><ele></ele><time>2017-9-5T3:43:38Z</time></trkpt>
<trkpt lat="46.47339" lon="6.28261"><ele></ele><time>2017-9-5T3:43:41Z</time></trkpt>
<trkpt lat="46.47334" lon="6.28264"><ele></ele><time>2017-9-5T3:43:44Z</time></trkpt>
<trkpt lat="46.47329" lon="6.28268"><ele></ele><time>2017-9-5T3:43:47Z</time></trkpt>
<trkpt lat="46.47319" lon="6.28274"><ele></ele><time>2017-9-5T3:43:50Z</time></trkpt>
<trkpt lat="46.47313" lon="6.28278"><ele></ele><time>2017-9-5T3:43:53Z</time></trkpt>
<trkpt lat="46.47308" lon="6.28281"><ele></ele><time>2017-9-5T3:43:56Z</time></trkpt>
<trkpt lat="46.47308" lon="6.28281"><ele></ele><time>2017-9-5T3:43:59Z</time></trkpt>
<trkpt lat="46.47297" lon="6.28286"><ele></ele><time>2017-9-5T3:44:2Z</time></trkpt>
<trkpt lat="46.47288" lon="6.28288"><ele></ele><time>2017-9-5T3:44:5Z</time></trkpt>
<trkpt lat="46.47282" lon="6.28289"><ele></ele><time>2017-9-5T3:44:8Z</time></trkpt>
<trkpt lat="46.47279" lon="6.2829"><ele></ele><time>2017-9-5T3:44:11Z</time></trkpt>
<trkpt lat="46.47277" lon="6.2829"><ele></ele><time>2017-9-5T3:44:14Z</time></trkpt>
<trkpt lat="46.47274" lon="6.28289"><ele></ele><time>2017-9-5T3:44:17Z</time></trkpt>
<trkpt lat="46.47269" lon="6.28286"><ele></ele><time>2017-9-5T3:44:20Z</time></trkpt>
<trkpt lat="46.47263" lon="6.28282"><ele></ele><time>2017-9-5T3:44:23Z</time></trkpt>
<trkpt lat="46.47261" lon="6.28281"><ele></ele><time>2017-9-5T3:44:26Z</time></trkpt>
<trkpt lat="46.47258" lon="6.28278"><ele></ele><time>2017-9-5T3:44:29Z</time></trkpt>
<trkpt lat="46.47253" lon="6.28272"><ele></ele><time>2017-9-5T3:44:32Z</time></trkpt>
<trkpt lat="46.47251" lon="6.28268"><ele></ele><time>2017-9-5T3:44:35Z</time></trkpt>
<trkpt lat="46.47249" lon="6.28263"><ele></ele><time>2017-9-5T3:44:38Z</time></trkpt>
<trkpt lat="46.47247" lon="6.28256"><ele></ele><time>2017-9-5T3:44:41Z</time></trkpt>
<trkpt lat="46.47247" lon="6.28256"><ele></ele><time>2017-9-5T3:44:44Z</time></trkpt>
<trkpt lat="46.47244" lon="6.28237"><ele></ele><time>2017-9-5T3:44:47Z</time></trkpt>
<trkpt lat="46.47242" lon="6.28231"><ele></ele><time>2017-9-5T3:44:50Z</time></trkpt>
<trkpt lat="46.4724" lon="6.28226"><ele></ele><time>2017-9-5T3:44:53Z</time></trkpt>
<trkpt lat="46.47236" lon="6.28216"><ele></ele><time>2017-9-5T3:44:56Z</time></trkpt>
<trkpt lat="46.47234" lon="6.28207"><ele></ele><time>2017-9-5T3:44:59Z</time></trkpt>
<trkpt lat="46.47231" lon="6.282"><ele></ele><time>2017-9-5T3:45:2Z</time></trkpt>
<trkpt lat="46.47228" lon="6.28195"><ele></ele><time>2017-9-5T3:45:5Z</time></trkpt>
<trkpt lat="46.47225" lon="6.2819"><ele></ele><time>2017-9-5T3:45:8Z</time></trkpt>
<trkpt lat="46.47224" lon="6.28188"><ele></ele><time>2017-9-5T3:45:11Z</time></trkpt>
<trkpt lat="46.47223" lon="6.28186"><ele></ele><time>2017-9-5T3:45:14Z</time></trkpt>
<trkpt lat="46.47221" lon="6.28185"><ele></ele><time>2017-9-5T3:45:17Z</time></trkpt>
<trkpt lat="46.47219" lon="6.28184"><ele></ele><time>2017-9-5T3:45:20Z</time></trkpt>
<trkpt lat="46.47218" lon="6.28185"><ele></ele><time>2017-9-5T3:45:23Z</time></trkpt>
<trkpt lat="46.47216" lon="6.28187"><ele></ele><time>2017-9-5T3:45:26Z</time></trkpt>
<trkpt lat="46.47216" lon="6.2819"><ele></ele><time>2017-9-5T3:45:29Z</time></trkpt>
<trkpt lat="46.47212" lon="6.28197"><ele></ele><time>2017-9-5T3:45:32Z</time></trkpt>
<trkpt lat="46.47211" lon="6.28199"><ele></ele><time>2017-9-5T3:45:35Z</time></trkpt>
<trkpt lat="46.47209" lon="6.28205"><ele></ele><time>2017-9-5T3:45:38Z</time></trkpt>
<trkpt lat="46.47207" lon="6.28208"><ele></ele><time>2017-9-5T3:45:41Z</time></trkpt>
<trkpt lat="46.47204" lon="6.28213"><ele></ele><time>2017-9-5T3:45:44Z</time></trkpt>
<trkpt lat="46.47201" lon="6.28218"><ele></ele><time>2017-9-5T3:45:47Z</time></trkpt>
<trkpt lat="46.47197" lon="6.28225"><ele></ele><time>2017-9-5T3:45:50Z</time></trkpt>
<trkpt lat="46.47194" lon="6.28231"><ele></ele><time>2017-9-5T3:45:53Z</time></trkpt>
<trkpt lat="46.47189" lon="6.28237"><ele></ele><time>2017-9-5T3:45:56Z</time></trkpt>
<trkpt lat="46.47185" lon="6.28243"><ele></ele><time>2017-9-5T3:45:59Z</time></trkpt>
<trkpt lat="46.47181" lon="6.2825"><ele></ele><time>2017-9-5T3:46:2Z</time></trkpt>
<trkpt lat="46.47177" lon="6.28256"><ele></ele><time>2017-9-5T3:46:5Z</time></trkpt>
<trkpt lat="46.47173" lon="6.28263"><ele></ele><time>2017-9-5T3:46:8Z</time></trkpt>
<trkpt lat="46.4717" lon="6.28271"><ele></ele><time>2017-9-5T3:46:11Z</time></trkpt>
<trkpt lat="46.47168" lon="6.28274"><ele></ele><time>2017-9-5T3:46:14Z</time></trkpt>
<trkpt lat="46.47167" lon="6.28277"><ele></ele><time>2017-9-5T3:46:17Z</time></trkpt>
<trkpt lat="46.47162" lon="6.28283"><ele></ele><time>2017-9-5T3:46:20Z</time></trkpt>
<trkpt lat="46.47157" lon="6.2829"><ele></ele><time>2017-9-5T3:46:23Z</time></trkpt>
<trkpt lat="46.47151" lon="6.28297"><ele></ele><time>2017-9-5T3:46:26Z</time></trkpt>
<trkpt lat="46.47147" lon="6.28306"><ele></ele><time>2017-9-5T3:46:29Z</time></trkpt>
<trkpt lat="46.47143" lon="6.28313"><ele></ele><time>2017-9-5T3:46:32Z</time></trkpt>
<trkpt lat="46.47139" lon="6.28322"><ele></ele><time>2017-9-5T3:46:35Z</time></trkpt>
<trkpt lat="46.47134" lon="6.28331"><ele></ele><time>2017-9-5T3:46:38Z</time></trkpt>
<trkpt lat="46.47129" lon="6.28339"><ele></ele><time>2017-9-5T3:46:41Z</time></trkpt>
<trkpt lat="46.47125" lon="6.28346"><ele></ele><time>2017-9-5T3:46:44Z</time></trkpt>
<trkpt lat="46.47121" lon="6.28355"><ele></ele><time>2017-9-5T3:46:47Z</time></trkpt>
<trkpt lat="46.47118" lon="6.28364"><ele></ele><time>2017-9-5T3:46:50Z</time></trkpt>
<trkpt lat="46.47115" lon="6.28371"><ele></ele><time>2017-9-5T3:46:53Z</time></trkpt>
<trkpt lat="46.47112" lon="6.28377"><ele></ele><time>2017-9-5T3:46:56Z</time></trkpt>
<trkpt lat="46.47109" lon="6.28383"><ele></ele><time>2017-9-5T3:46:59Z</time></trkpt>
<trkpt lat="46.47105" lon="6.28388"><ele></ele><time>2017-9-5T3:47:2Z</time></trkpt>
<trkpt lat="46.47101" lon="6.28392"><ele></ele><time>2017-9-5T3:47:5Z</time></trkpt>
<trkpt lat="46.47097" lon="6.28396"><ele></ele><time>2017-9-5T3:47:8Z</time></trkpt>
<trkpt lat="46.47094" lon="6.28399"><ele></ele><time>2017-9-5T3:47:11Z</time></trkpt>
<trkpt lat="46.47092" lon="6.28401"><ele></ele><time>2017-9-5T3:47:14Z</time></trkpt>
<trkpt lat="46.4709" lon="6.28404"><ele></ele><time>2017-9-5T3:47:17Z</time></trkpt>
<trkpt lat="46.47086" lon="6.28408"><ele></ele><time>2017-9-5T3:47:20Z</time></trkpt>
<trkpt lat="46.47081" lon="6.28412"><ele></ele><time>2017-9-5T3:47:23Z</time></trkpt>
<trkpt lat="46.47079" lon="6.28414"><ele></ele><time>2017-9-5T3:47:26Z</time></trkpt>
<trkpt lat="46.47077" lon="6.28416"><ele></ele><time>2017-9-5T3:47:29Z</time></trkpt>
<trkpt lat="46.47072" lon="6.28419"><ele></ele><time>2017-9-5T3:47:32Z</time></trkpt>
<trkpt lat="46.47069" lon="6.2842"><ele></ele><time>2017-9-5T3:47:35Z</time></trkpt>
<trkpt lat="46.47067" lon="6.28421"><ele></ele><time>2017-9-5T3:47:38Z</time></trkpt>
<trkpt lat="46.47065" lon="6.28422"><ele></ele><time>2017-9-5T3:47:41Z</time></trkpt>
<trkpt lat="46.47063" lon="6.28423"><ele></ele><time>2017-9-5T3:47:44Z</time></trkpt>
<trkpt lat="46.47063" lon="6.28423"><ele></ele><time>2017-9-5T3:47:47Z</time></trkpt>
<trkpt lat="46.47057" lon="6.28426"><ele></ele><time>2017-9-5T3:47:50Z</time></trkpt>
<trkpt lat="46.47053" lon="6.28429"><ele></ele><time>2017-9-5T3:47:53Z</time></trkpt>
<trkpt lat="46.47049" lon="6.28432"><ele></ele><time>2017-9-5T3:47:56Z</time></trkpt>
<trkpt lat="46.47045" lon="6.28437"><ele></ele><time>2017-9-5T3:47:59Z</time></trkpt>
<trkpt lat="46.47043" lon="6.28439"><ele></ele><time>2017-9-5T3:48:2Z</time></trkpt>
<trkpt lat="46.47042" lon="6.28442"><ele></ele><time>2017-9-5T3:48:5Z</time></trkpt>
<trkpt lat="46.47038" lon="6.28449"><ele></ele><time>2017-9-5T3:48:8Z</time></trkpt>
<trkpt lat="46.47036" lon="6.28456"><ele></ele><time>2017-9-5T3:48:11Z</time></trkpt>
<trkpt lat="46.47034" lon="6.28464"><ele></ele><time>2017-9-5T3:48:14Z</time></trkpt>
<trkpt lat="46.47032" lon="6.28467"><ele></ele><time>2017-9-5T3:48:17Z</time></trkpt>
<trkpt lat="46.47031" lon="6.28469"><ele></ele><time>2017-9-5T3:48:20Z</time></trkpt>
<trkpt lat="46.47027" lon="6.28476"><ele></ele><time>2017-9-5T3:48:23Z</time></trkpt>
<trkpt lat="46.47022" lon="6.28482"><ele></ele><time>2017-9-5T3:48:26Z</time></trkpt>
<trkpt lat="46.47019" lon="6.28488"><ele></ele><time>2017-9-5T3:48:29Z</time></trkpt>
<trkpt lat="46.47017" lon="6.28492"><ele></ele><time>2017-9-5T3:48:32Z</time></trkpt>
<trkpt lat="46.47014" lon="6.28495"><ele></ele><time>2017-9-5T3:48:35Z</time></trkpt>
<trkpt lat="46.47009" lon="6.28503"><ele></ele><time>2017-9-5T3:48:38Z</time></trkpt>
<trkpt lat="46.47004" lon="6.28512"><ele></ele><time>2017-9-5T3:48:41Z</time></trkpt>
<trkpt lat="46.47" lon="6.28518"><ele></ele><time>2017-9-5T3:48:44Z</time></trkpt>
<trkpt lat="46.46996" lon="6.28524"><ele></ele><time>2017-9-5T3:48:47Z</time></trkpt>
<trkpt lat="46.46986" lon="6.28534"><ele></ele><time>2017-9-5T3:48:50Z</time></trkpt>
<trkpt lat="46.46982" lon="6.28539"><ele></ele><time>2017-9-5T3:48:53Z</time></trkpt>
<trkpt lat="46.46978" lon="6.28544"><ele></ele><time>2017-9-5T3:48:56Z</time></trkpt>
<trkpt lat="46.46971" lon="6.28556"><ele></ele><time>2017-9-5T3:48:59Z</time></trkpt>
<trkpt lat="46.46964" lon="6.28568"><ele></ele><time>2017-9-5T3:49:2Z</time></trkpt>
<trkpt lat="46.4696" lon="6.28575"><ele></ele><time>2017-9-5T3:49:5Z</time></trkpt>
<trkpt lat="46.46951" lon="6.28587"><ele></ele><time>2017-9-5T3:49:8Z</time></trkpt>
<trkpt lat="46.46946" lon="6.28592"><ele></ele><time>2017-9-5T3:49:11Z</time></trkpt>
<trkpt lat="46.46942" lon="6.28597"><ele></ele><time>2017-9-5T3:49:14Z</time></trkpt>
<trkpt lat="46.46942" lon="6.28597"><ele></ele><time>2017-9-5T3:49:17Z</time></trkpt>
<trkpt lat="46.46934" lon="6.28608"><ele></ele><time>2017-9-5T3:49:20Z</time></trkpt>
<trkpt lat="46.46929" lon="6.28613"><ele></ele><time>2017-9-5T3:49:23Z</time></trkpt>
<trkpt lat="46.46921" lon="6.28621"><ele></ele><time>2017-9-5T3:49:26Z</time></trkpt>
<trkpt lat="46.46913" lon="6.28628"><ele></ele><time>2017-9-5T3:49:29Z</time></trkpt>
<trkpt lat="46.46907" lon="6.28633"><ele></ele><time>2017-9-5T3:49:32Z</time></trkpt>
<trkpt lat="46.46904" lon="6.28636"><ele></ele><time>2017-9-5T3:49:35Z</time></trkpt>
<trkpt lat="46.469" lon="6.28639"><ele></ele><time>2017-9-5T3:49:38Z</time></trkpt>
<trkpt lat="46.46895" lon="6.28645"><ele></ele><time>2017-9-5T3:49:41Z</time></trkpt>
<trkpt lat="46.4689" lon="6.28654"><ele></ele><time>2017-9-5T3:49:44Z</time></trkpt>
<trkpt lat="46.46886" lon="6.28663"><ele></ele><time>2017-9-5T3:49:47Z</time></trkpt>
<trkpt lat="46.46884" lon="6.28668"><ele></ele><time>2017-9-5T3:49:50Z</time></trkpt>
<trkpt lat="46.46878" lon="6.28684"><ele></ele><time>2017-9-5T3:49:53Z</time></trkpt>
<trkpt lat="46.46872" lon="6.2869"><ele></ele><time>2017-9-5T3:49:56Z</time></trkpt>
<trkpt lat="46.46869" lon="6.28691"><ele></ele><time>2017-9-5T3:49:59Z</time></trkpt>
<trkpt lat="46.46865" lon="6.28691"><ele></ele><time>2017-9-5T3:50:2Z</time></trkpt>
<trkpt lat="46.46857" lon="6.28688"><ele></ele><time>2017-9-5T3:50:5Z</time></trkpt>
<trkpt lat="46.46853" lon="6.28686"><ele></ele><time>2017-9-5T3:50:8Z</time></trkpt>
<trkpt lat="46.4685" lon="6.28685"><ele></ele><time>2017-9-5T3:50:11Z</time></trkpt>
<trkpt lat="46.46845" lon="6.28681"><ele></ele><time>2017-9-5T3:50:14Z</time></trkpt>
<trkpt lat="46.46842" lon="6.28678"><ele></ele><time>2017-9-5T3:50:17Z</time></trkpt>
<trkpt lat="46.4684" lon="6.28677"><ele></ele><time>2017-9-5T3:50:20Z</time></trkpt>
<trkpt lat="46.46834" lon="6.28674"><ele></ele><time>2017-9-5T3:50:23Z</time></trkpt>
<trkpt lat="46.46832" lon="6.28673"><ele></ele><time>2017-9-5T3:50:26Z</time></trkpt>
<trkpt lat="46.46825" lon="6.28671"><ele></ele><time>2017-9-5T3:50:29Z</time></trkpt>
<trkpt lat="46.46823" lon="6.28671"><ele></ele><time>2017-9-5T3:50:32Z</time></trkpt>
<trkpt lat="46.4682" lon="6.28672"><ele></ele><time>2017-9-5T3:50:35Z</time></trkpt>
<trkpt lat="46.46818" lon="6.28673"><ele></ele><time>2017-9-5T3:50:38Z</time></trkpt>
<trkpt lat="46.46816" lon="6.28673"><ele></ele><time>2017-9-5T3:50:41Z</time></trkpt>
<trkpt lat="46.46815" lon="6.28674"><ele></ele><time>2017-9-5T3:50:44Z</time></trkpt>
<trkpt lat="46.46813" lon="6.28675"><ele></ele><time>2017-9-5T3:50:47Z</time></trkpt>
<trkpt lat="46.46811" lon="6.28675"><ele></ele><time>2017-9-5T3:50:50Z</time></trkpt>
<trkpt lat="46.46809" lon="6.28676"><ele></ele><time>2017-9-5T3:50:53Z</time></trkpt>
<trkpt lat="46.46805" lon="6.28676"><ele></ele><time>2017-9-5T3:50:56Z</time></trkpt>
<trkpt lat="46.46802" lon="6.28676"><ele></ele><time>2017-9-5T3:50:59Z</time></trkpt>
<trkpt lat="46.468" lon="6.28675"><ele></ele><time>2017-9-5T3:51:2Z</time></trkpt>
<trkpt lat="46.46794" lon="6.28675"><ele></ele><time>2017-9-5T3:51:5Z</time></trkpt>
<trkpt lat="46.46788" lon="6.28674"><ele></ele><time>2017-9-5T3:51:8Z</time></trkpt>
<trkpt lat="46.46788" lon="6.28674"><ele></ele><time>2017-9-5T3:51:11Z</time></trkpt>
<trkpt lat="46.4678" lon="6.28673"><ele></ele><time>2017-9-5T3:51:14Z</time></trkpt>
<trkpt lat="46.46773" lon="6.28672"><ele></ele><time>2017-9-5T3:51:17Z</time></trkpt>
<trkpt lat="46.46766" lon="6.28672"><ele></ele><time>2017-9-5T3:51:20Z</time></trkpt>
<trkpt lat="46.46763" lon="6.28671"><ele></ele><time>2017-9-5T3:51:23Z</time></trkpt>
<trkpt lat="46.4676" lon="6.28671"><ele></ele><time>2017-9-5T3:51:26Z</time></trkpt>
<trkpt lat="46.46757" lon="6.28671"><ele></ele><time>2017-9-5T3:51:29Z</time></trkpt>
<trkpt lat="46.46754" lon="6.28672"><ele></ele><time>2017-9-5T3:51:32Z</time></trkpt>
<trkpt lat="46.4675" lon="6.28673"><ele></ele><time>2017-9-5T3:51:35Z</time></trkpt>
<trkpt lat="46.46747" lon="6.28675"><ele></ele><time>2017-9-5T3:51:38Z</time></trkpt>
<trkpt lat="46.46744" lon="6.28677"><ele></ele><time>2017-9-5T3:51:41Z</time></trkpt>
<trkpt lat="46.4674" lon="6.28681"><ele></ele><time>2017-9-5T3:51:44Z</time></trkpt>
<trkpt lat="46.4674" lon="6.28681"><ele></ele><time>2017-9-5T3:51:47Z</time></trkpt>
<trkpt lat="46.46737" lon="6.28685"><ele></ele><time>2017-9-5T3:51:50Z</time></trkpt>
<trkpt lat="46.46723" lon="6.28696"><ele></ele><time>2017-9-5T3:51:53Z</time></trkpt>
<trkpt lat="46.46712" lon="6.28701"><ele></ele><time>2017-9-5T3:51:56Z</time></trkpt>
<trkpt lat="46.46701" lon="6.28704"><ele></ele><time>2017-9-5T3:51:59Z</time></trkpt>
<trkpt lat="46.4669" lon="6.28707"><ele></ele><time>2017-9-5T3:52:2Z</time></trkpt>
<trkpt lat="46.4668" lon="6.2871"><ele></ele><time>2017-9-5T3:52:5Z</time></trkpt>
<trkpt lat="46.4667" lon="6.28714"><ele></ele><time>2017-9-5T3:52:8Z</time></trkpt>
<trkpt lat="46.46662" lon="6.28717"><ele></ele><time>2017-9-5T3:52:11Z</time></trkpt>
<trkpt lat="46.46659" lon="6.28719"><ele></ele><time>2017-9-5T3:52:14Z</time></trkpt>
<trkpt lat="46.46655" lon="6.2872"><ele></ele><time>2017-9-5T3:52:17Z</time></trkpt>
<trkpt lat="46.46652" lon="6.28722"><ele></ele><time>2017-9-5T3:52:20Z</time></trkpt>
<trkpt lat="46.46649" lon="6.28723"><ele></ele><time>2017-9-5T3:52:23Z</time></trkpt>
<trkpt lat="46.46646" lon="6.28725"><ele></ele><time>2017-9-5T3:52:26Z</time></trkpt>
<trkpt lat="46.46643" lon="6.28727"><ele></ele><time>2017-9-5T3:52:29Z</time></trkpt>
<trkpt lat="46.4664" lon="6.28729"><ele></ele><time>2017-9-5T3:52:32Z</time></trkpt>
<trkpt lat="46.46636" lon="6.28733"><ele></ele><time>2017-9-5T3:52:35Z</time></trkpt>
<trkpt lat="46.46632" lon="6.28737"><ele></ele><time>2017-9-5T3:52:38Z</time></trkpt>
<trkpt lat="46.46628" lon="6.28741"><ele></ele><time>2017-9-5T3:52:41Z</time></trkpt>
<trkpt lat="46.46621" lon="6.28749"><ele></ele><time>2017-9-5T3:52:44Z</time></trkpt>
<trkpt lat="46.46614" lon="6.28757"><ele></ele><time>2017-9-5T3:52:47Z</time></trkpt>
<trkpt lat="46.46607" lon="6.28761"><ele></ele><time>2017-9-5T3:52:50Z</time></trkpt>
<trkpt lat="46.466" lon="6.28762"><ele></ele><time>2017-9-5T3:52:53Z</time></trkpt>
<trkpt lat="46.46596" lon="6.28764"><ele></ele><time>2017-9-5T3:52:56Z</time></trkpt>
<trkpt lat="46.46591" lon="6.28765"><ele></ele><time>2017-9-5T3:52:59Z</time></trkpt>
<trkpt lat="46.46582" lon="6.2877"><ele></ele><time>2017-9-5T3:53:2Z</time></trkpt>
<trkpt lat="46.46572" lon="6.28777"><ele></ele><time>2017-9-5T3:53:5Z</time></trkpt>
<trkpt lat="46.46561" lon="6.28786"><ele></ele><time>2017-9-5T3:53:8Z</time></trkpt>
<trkpt lat="46.46555" lon="6.2879"><ele></ele><time>2017-9-5T3:53:11Z</time></trkpt>
<trkpt lat="46.4655" lon="6.28795"><ele></ele><time>2017-9-5T3:53:14Z</time></trkpt>
<trkpt lat="46.46546" lon="6.28799"><ele></ele><time>2017-9-5T3:53:17Z</time></trkpt>
<trkpt lat="46.46542" lon="6.28802"><ele></ele><time>2017-9-5T3:53:20Z</time></trkpt>
<trkpt lat="46.46535" lon="6.28807"><ele></ele><time>2017-9-5T3:53:23Z</time></trkpt>
<trkpt lat="46.46532" lon="6.28809"><ele></ele><time>2017-9-5T3:53:26Z</time></trkpt>
<trkpt lat="46.46523" lon="6.28812"><ele></ele><time>2017-9-5T3:53:29Z</time></trkpt>
<trkpt lat="46.46521" lon="6.28812"><ele></ele><time>2017-9-5T3:53:32Z</time></trkpt>
<trkpt lat="46.46519" lon="6.28812"><ele></ele><time>2017-9-5T3:53:35Z</time></trkpt>
<trkpt lat="46.46517" lon="6.28812"><ele></ele><time>2017-9-5T3:53:38Z</time></trkpt>
<trkpt lat="46.46515" lon="6.28812"><ele></ele><time>2017-9-5T3:53:41Z</time></trkpt>
<trkpt lat="46.46513" lon="6.28811"><ele></ele><time>2017-9-5T3:53:44Z</time></trkpt>
<trkpt lat="46.46511" lon="6.2881"><ele></ele><time>2017-9-5T3:53:47Z</time></trkpt>
<trkpt lat="46.46509" lon="6.28809"><ele></ele><time>2017-9-5T3:53:50Z</time></trkpt>
<trkpt lat="46.46507" lon="6.28808"><ele></ele><time>2017-9-5T3:53:53Z</time></trkpt>
<trkpt lat="46.46504" lon="6.28806"><ele></ele><time>2017-9-5T3:53:56Z</time></trkpt>
<trkpt lat="46.46499" lon="6.28806"><ele></ele><time>2017-9-5T3:53:59Z</time></trkpt>
<trkpt lat="46.46494" lon="6.28808"><ele></ele><time>2017-9-5T3:54:2Z</time></trkpt>
<trkpt lat="46.46488" lon="6.28812"><ele></ele><time>2017-9-5T3:54:5Z</time></trkpt>
<trkpt lat="46.46486" lon="6.28814"><ele></ele><time>2017-9-5T3:54:8Z</time></trkpt>
<trkpt lat="46.46483" lon="6.28816"><ele></ele><time>2017-9-5T3:54:11Z</time></trkpt>
<trkpt lat="46.46479" lon="6.28821"><ele></ele><time>2017-9-5T3:54:14Z</time></trkpt>
<trkpt lat="46.46474" lon="6.28829"><ele></ele><time>2017-9-5T3:54:17Z</time></trkpt>
<trkpt lat="46.46468" lon="6.28836"><ele></ele><time>2017-9-5T3:54:20Z</time></trkpt>
<trkpt lat="46.46463" lon="6.28842"><ele></ele><time>2017-9-5T3:54:23Z</time></trkpt>
<trkpt lat="46.46461" lon="6.2885"><ele></ele><time>2017-9-5T3:54:26Z</time></trkpt>
<trkpt lat="46.4646" lon="6.28856"><ele></ele><time>2017-9-5T3:54:29Z</time></trkpt>
<trkpt lat="46.46461" lon="6.28865"><ele></ele><time>2017-9-5T3:54:32Z</time></trkpt>
<trkpt lat="46.46462" lon="6.28873"><ele></ele><time>2017-9-5T3:54:35Z</time></trkpt>
<trkpt lat="46.46464" lon="6.28885"><ele></ele><time>2017-9-5T3:54:38Z</time></trkpt>
<trkpt lat="46.46467" lon="6.28898"><ele></ele><time>2017-9-5T3:54:41Z</time></trkpt>
<trkpt lat="46.46472" lon="6.28914"><ele></ele><time>2017-9-5T3:54:44Z</time></trkpt>
<trkpt lat="46.46474" lon="6.28922"><ele></ele><time>2017-9-5T3:54:47Z</time></trkpt>
<trkpt lat="46.46476" lon="6.2893"><ele></ele><time>2017-9-5T3:54:50Z</time></trkpt>
<trkpt lat="46.46479" lon="6.28936"><ele></ele><time>2017-9-5T3:54:53Z</time></trkpt>
<trkpt lat="46.46481" lon="6.28942"><ele></ele><time>2017-9-5T3:54:56Z</time></trkpt>
<trkpt lat="46.46484" lon="6.28948"><ele></ele><time>2017-9-5T3:54:59Z</time></trkpt>
<trkpt lat="46.46486" lon="6.28954"><ele></ele><time>2017-9-5T3:55:2Z</time></trkpt>
<trkpt lat="46.46489" lon="6.28964"><ele></ele><time>2017-9-5T3:55:5Z</time></trkpt>
<trkpt lat="46.46492" lon="6.28972"><ele></ele><time>2017-9-5T3:55:8Z</time></trkpt>
<trkpt lat="46.46493" lon="6.28976"><ele></ele><time>2017-9-5T3:55:11Z</time></trkpt>
<trkpt lat="46.46494" lon="6.28979"><ele></ele><time>2017-9-5T3:55:14Z</time></trkpt>
<trkpt lat="46.46495" lon="6.28985"><ele></ele><time>2017-9-5T3:55:17Z</time></trkpt>
<trkpt lat="46.46497" lon="6.28989"><ele></ele><time>2017-9-5T3:55:20Z</time></trkpt>
<trkpt lat="46.46501" lon="6.28991"><ele></ele><time>2017-9-5T3:55:23Z</time></trkpt>
<trkpt lat="46.46503" lon="6.28992"><ele></ele><time>2017-9-5T3:55:26Z</time></trkpt>
<trkpt lat="46.46506" lon="6.28993"><ele></ele><time>2017-9-5T3:55:29Z</time></trkpt>
<trkpt lat="46.4651" lon="6.28992"><ele></ele><time>2017-9-5T3:55:32Z</time></trkpt>
<trkpt lat="46.46512" lon="6.28994"><ele></ele><time>2017-9-5T3:55:35Z</time></trkpt>
<trkpt lat="46.46513" lon="6.28996"><ele></ele><time>2017-9-5T3:55:38Z</time></trkpt>
<trkpt lat="46.46514" lon="6.29"><ele></ele><time>2017-9-5T3:55:41Z</time></trkpt>
<trkpt lat="46.46516" lon="6.29005"><ele></ele><time>2017-9-5T3:55:44Z</time></trkpt>
<trkpt lat="46.46517" lon="6.29009"><ele></ele><time>2017-9-5T3:55:47Z</time></trkpt>
<trkpt lat="46.46518" lon="6.29012"><ele></ele><time>2017-9-5T3:55:50Z</time></trkpt>
<trkpt lat="46.46518" lon="6.29014"><ele></ele><time>2017-9-5T3:55:53Z</time></trkpt>
<trkpt lat="46.46519" lon="6.29019"><ele></ele><time>2017-9-5T3:55:56Z</time></trkpt>
<trkpt lat="46.46519" lon="6.29021"><ele></ele><time>2017-9-5T3:55:59Z</time></trkpt>
<trkpt lat="46.46519" lon="6.29024"><ele></ele><time>2017-9-5T3:56:2Z</time></trkpt>
<trkpt lat="46.4652" lon="6.29026"><ele></ele><time>2017-9-5T3:56:5Z</time></trkpt>
<trkpt lat="46.4652" lon="6.29034"><ele></ele><time>2017-9-5T3:56:8Z</time></trkpt>
<trkpt lat="46.4652" lon="6.29039"><ele></ele><time>2017-9-5T3:56:11Z</time></trkpt>
<trkpt lat="46.4652" lon="6.29045"><ele></ele><time>2017-9-5T3:56:14Z</time></trkpt>
<trkpt lat="46.4652" lon="6.2905"><ele></ele><time>2017-9-5T3:56:17Z</time></trkpt>
<trkpt lat="46.4652" lon="6.29056"><ele></ele><time>2017-9-5T3:56:20Z</time></trkpt>
<trkpt lat="46.4652" lon="6.29062"><ele></ele><time>2017-9-5T3:56:23Z</time></trkpt>
<trkpt lat="46.46521" lon="6.29068"><ele></ele><time>2017-9-5T3:56:26Z</time></trkpt>
<trkpt lat="46.46523" lon="6.29073"><ele></ele><time>2017-9-5T3:56:29Z</time></trkpt>
<trkpt lat="46.46524" lon="6.29078"><ele></ele><time>2017-9-5T3:56:32Z</time></trkpt>
<trkpt lat="46.46525" lon="6.29084"><ele></ele><time>2017-9-5T3:56:35Z</time></trkpt>
<trkpt lat="46.46527" lon="6.29089"><ele></ele><time>2017-9-5T3:56:38Z</time></trkpt>
<trkpt lat="46.46528" lon="6.29093"><ele></ele><time>2017-9-5T3:56:41Z</time></trkpt>
<trkpt lat="46.4653" lon="6.29096"><ele></ele><time>2017-9-5T3:56:44Z</time></trkpt>
<trkpt lat="46.46532" lon="6.29098"><ele></ele><time>2017-9-5T3:56:47Z</time></trkpt>
<trkpt lat="46.46536" lon="6.29101"><ele></ele><time>2017-9-5T3:56:50Z</time></trkpt>
<trkpt lat="46.46539" lon="6.29103"><ele></ele><time>2017-9-5T3:56:53Z</time></trkpt>
<trkpt lat="46.46541" lon="6.29104"><ele></ele><time>2017-9-5T3:56:56Z</time></trkpt>
<trkpt lat="46.46542" lon="6.29105"><ele></ele><time>2017-9-5T3:56:59Z</time></trkpt>
<trkpt lat="46.46546" lon="6.29108"><ele></ele><time>2017-9-5T3:57:2Z</time></trkpt>
<trkpt lat="46.46548" lon="6.29112"><ele></ele><time>2017-9-5T3:57:5Z</time></trkpt>
<trkpt lat="46.46549" lon="6.29114"><ele></ele><time>2017-9-5T3:57:8Z</time></trkpt>
<trkpt lat="46.46551" lon="6.29116"><ele></ele><time>2017-9-5T3:57:11Z</time></trkpt>
<trkpt lat="46.46551" lon="6.29116"><ele></ele><time>2017-9-5T3:57:14Z</time></trkpt>
<trkpt lat="46.46552" lon="6.29123"><ele></ele><time>2017-9-5T3:57:17Z</time></trkpt>
<trkpt lat="46.46552" lon="6.29127"><ele></ele><time>2017-9-5T3:57:20Z</time></trkpt>
<trkpt lat="46.46553" lon="6.29137"><ele></ele><time>2017-9-5T3:57:23Z</time></trkpt>
<trkpt lat="46.46554" lon="6.29144"><ele></ele><time>2017-9-5T3:57:26Z</time></trkpt>
<trkpt lat="46.46554" lon="6.29151"><ele></ele><time>2017-9-5T3:57:29Z</time></trkpt>
<trkpt lat="46.46554" lon="6.29166"><ele></ele><time>2017-9-5T3:57:32Z</time></trkpt>
<trkpt lat="46.46555" lon="6.29178"><ele></ele><time>2017-9-5T3:57:35Z</time></trkpt>
<trkpt lat="46.46554" lon="6.29182"><ele></ele><time>2017-9-5T3:57:38Z</time></trkpt>
<trkpt lat="46.46553" lon="6.29185"><ele></ele><time>2017-9-5T3:57:41Z</time></trkpt>
<trkpt lat="46.46549" lon="6.29192"><ele></ele><time>2017-9-5T3:57:44Z</time></trkpt>
<trkpt lat="46.46546" lon="6.29195"><ele></ele><time>2017-9-5T3:57:47Z</time></trkpt>
<trkpt lat="46.46542" lon="6.29196"><ele></ele><time>2017-9-5T3:57:50Z</time></trkpt>
<trkpt lat="46.46533" lon="6.29191"><ele></ele><time>2017-9-5T3:57:53Z</time></trkpt>
<trkpt lat="46.46522" lon="6.29174"><ele></ele><time>2017-9-5T3:57:56Z</time></trkpt>
<trkpt lat="46.46522" lon="6.29174"><ele></ele><time>2017-9-5T3:57:59Z</time></trkpt>
<trkpt lat="46.46518" lon="6.29169"><ele></ele><time>2017-9-5T3:58:2Z</time></trkpt>
<trkpt lat="46.46511" lon="6.29161"><ele></ele><time>2017-9-5T3:58:5Z</time></trkpt>
<trkpt lat="46.46504" lon="6.29158"><ele></ele><time>2017-9-5T3:58:8Z</time></trkpt>
<trkpt lat="46.465" lon="6.29158"><ele></ele><time>2017-9-5T3:58:11Z</time></trkpt>
<trkpt lat="46.46497" lon="6.29159"><ele></ele><time>2017-9-5T3:58:14Z</time></trkpt>
<trkpt lat="46.46495" lon="6.29161"><ele></ele><time>2017-9-5T3:58:17Z</time></trkpt>
<trkpt lat="46.46492" lon="6.29163"><ele></ele><time>2017-9-5T3:58:20Z</time></trkpt>
<trkpt lat="46.46492" lon="6.29163"><ele></ele><time>2017-9-5T3:58:23Z</time></trkpt>
<trkpt lat="46.46478" lon="6.29175"><ele></ele><time>2017-9-5T3:58:26Z</time></trkpt>
<trkpt lat="46.46477" lon="6.29175"><ele></ele><time>2017-9-5T3:58:29Z</time></trkpt>
<trkpt lat="46.46477" lon="6.29175"><ele></ele><time>2017-9-5T3:58:32Z</time></trkpt>
<trkpt lat="46.46474" lon="6.29175"><ele></ele><time>2017-9-5T3:58:35Z</time></trkpt>
<trkpt lat="46.46472" lon="6.29173"><ele></ele><time>2017-9-5T3:58:38Z</time></trkpt>
<trkpt lat="46.46471" lon="6.29172"><ele></ele><time>2017-9-5T3:58:41Z</time></trkpt>
<trkpt lat="46.46469" lon="6.29169"><ele></ele><time>2017-9-5T3:58:44Z</time></trkpt>
<trkpt lat="46.46468" lon="6.29167"><ele></ele><time>2017-9-5T3:58:47Z</time></trkpt>
<trkpt lat="46.46465" lon="6.29163"><ele></ele><time>2017-9-5T3:58:50Z</time></trkpt>
<trkpt lat="46.46463" lon="6.29158"><ele></ele><time>2017-9-5T3:58:53Z</time></trkpt>
<trkpt lat="46.46461" lon="6.29151"><ele></ele><time>2017-9-5T3:58:56Z</time></trkpt>
<trkpt lat="46.4646" lon="6.29142"><ele></ele><time>2017-9-5T3:58:59Z</time></trkpt>
<trkpt lat="46.4646" lon="6.29142"><ele></ele><time>2017-9-5T3:59:2Z</time></trkpt>
<trkpt lat="46.46459" lon="6.29133"><ele></ele><time>2017-9-5T3:59:5Z</time></trkpt>
<trkpt lat="46.46458" lon="6.29129"><ele></ele><time>2017-9-5T3:59:8Z</time></trkpt>
<trkpt lat="46.46457" lon="6.29125"><ele></ele><time>2017-9-5T3:59:11Z</time></trkpt>
<trkpt lat="46.46455" lon="6.29116"><ele></ele><time>2017-9-5T3:59:14Z</time></trkpt>
<trkpt lat="46.46452" lon="6.29107"><ele></ele><time>2017-9-5T3:59:17Z</time></trkpt>
<trkpt lat="46.4645" lon="6.29102"><ele></ele><time>2017-9-5T3:59:20Z</time></trkpt>
<trkpt lat="46.46447" lon="6.29093"><ele></ele><time>2017-9-5T3:59:23Z</time></trkpt>
<trkpt lat="46.46447" lon="6.29093"><ele></ele><time>2017-9-5T3:59:26Z</time></trkpt>
<trkpt lat="46.46445" lon="6.29089"><ele></ele><time>2017-9-5T3:59:29Z</time></trkpt>
<trkpt lat="46.4644" lon="6.29079"><ele></ele><time>2017-9-5T3:59:32Z</time></trkpt>
<trkpt lat="46.46437" lon="6.29074"><ele></ele><time>2017-9-5T3:59:35Z</time></trkpt>
<trkpt lat="46.46432" lon="6.29064"><ele></ele><time>2017-9-5T3:59:38Z</time></trkpt>
<trkpt lat="46.46426" lon="6.29056"><ele></ele><time>2017-9-5T3:59:41Z</time></trkpt>
<trkpt lat="46.46417" lon="6.29042"><ele></ele><time>2017-9-5T3:59:44Z</time></trkpt>
<trkpt lat="46.46417" lon="6.29042"><ele></ele><time>2017-9-5T3:59:47Z</time></trkpt>
<trkpt lat="46.46414" lon="6.29037"><ele></ele><time>2017-9-5T3:59:50Z</time></trkpt>
<trkpt lat="46.46407" lon="6.29029"><ele></ele><time>2017-9-5T3:59:53Z</time></trkpt>
<trkpt lat="46.464" lon="6.29024"><ele></ele><time>2017-9-5T3:59:56Z</time></trkpt>
<trkpt lat="46.46394" lon="6.2902"><ele></ele><time>2017-9-5T3:59:59Z</time></trkpt>
<trkpt lat="46.46392" lon="6.29019"><ele></ele><time>2017-9-5T4:0:2Z</time></trkpt>
<trkpt lat="46.4639" lon="6.29018"><ele></ele><time>2017-9-5T4:0:5Z</time></trkpt>
<trkpt lat="46.46388" lon="6.29017"><ele></ele><time>2017-9-5T4:0:8Z</time></trkpt>
<trkpt lat="46.4638" lon="6.29015"><ele></ele><time>2017-9-5T4:0:11Z</time></trkpt>
<trkpt lat="46.46372" lon="6.29018"><ele></ele><time>2017-9-5T4:0:14Z</time></trkpt>
<trkpt lat="46.46369" lon="6.29018"><ele></ele><time>2017-9-5T4:0:17Z</time></trkpt>
<trkpt lat="46.46362" lon="6.29017"><ele></ele><time>2017-9-5T4:0:20Z</time></trkpt>
<trkpt lat="46.46355" lon="6.29013"><ele></ele><time>2017-9-5T4:0:23Z</time></trkpt>
<trkpt lat="46.46348" lon="6.29008"><ele></ele><time>2017-9-5T4:0:26Z</time></trkpt>
<trkpt lat="46.46345" lon="6.29004"><ele></ele><time>2017-9-5T4:0:29Z</time></trkpt>
<trkpt lat="46.46341" lon="6.29"><ele></ele><time>2017-9-5T4:0:32Z</time></trkpt>
<trkpt lat="46.46334" lon="6.28995"><ele></ele><time>2017-9-5T4:0:35Z</time></trkpt>
<trkpt lat="46.46327" lon="6.2899"><ele></ele><time>2017-9-5T4:0:38Z</time></trkpt>
<trkpt lat="46.46319" lon="6.28986"><ele></ele><time>2017-9-5T4:0:41Z</time></trkpt>
<trkpt lat="46.46311" lon="6.28982"><ele></ele><time>2017-9-5T4:0:44Z</time></trkpt>
<trkpt lat="46.46301" lon="6.28978"><ele></ele><time>2017-9-5T4:0:47Z</time></trkpt>
<trkpt lat="46.46297" lon="6.28977"><ele></ele><time>2017-9-5T4:0:50Z</time></trkpt>
<trkpt lat="46.46293" lon="6.28976"><ele></ele><time>2017-9-5T4:0:53Z</time></trkpt>
<trkpt lat="46.46288" lon="6.28975"><ele></ele><time>2017-9-5T4:0:56Z</time></trkpt>
<trkpt lat="46.46283" lon="6.28974"><ele></ele><time>2017-9-5T4:0:59Z</time></trkpt>
<trkpt lat="46.46274" lon="6.28975"><ele></ele><time>2017-9-5T4:1:2Z</time></trkpt>
<trkpt lat="46.46265" lon="6.28974"><ele></ele><time>2017-9-5T4:1:5Z</time></trkpt>
<trkpt lat="46.46265" lon="6.28974"><ele></ele><time>2017-9-5T4:1:8Z</time></trkpt>
<trkpt lat="46.46256" lon="6.28974"><ele></ele><time>2017-9-5T4:1:11Z</time></trkpt>
<trkpt lat="46.46251" lon="6.28974"><ele></ele><time>2017-9-5T4:1:14Z</time></trkpt>
<trkpt lat="46.46251" lon="6.28974"><ele></ele><time>2017-9-5T4:1:17Z</time></trkpt>
<trkpt lat="46.46247" lon="6.28974"><ele></ele><time>2017-9-5T4:1:20Z</time></trkpt>
<trkpt lat="46.46243" lon="6.28975"><ele></ele><time>2017-9-5T4:1:23Z</time></trkpt>
<trkpt lat="46.46239" lon="6.28975"><ele></ele><time>2017-9-5T4:1:26Z</time></trkpt>
<trkpt lat="46.46235" lon="6.28975"><ele></ele><time>2017-9-5T4:1:29Z</time></trkpt>
<trkpt lat="46.46231" lon="6.28975"><ele></ele><time>2017-9-5T4:1:32Z</time></trkpt>
<trkpt lat="46.46227" lon="6.28974"><ele></ele><time>2017-9-5T4:1:35Z</time></trkpt>
<trkpt lat="46.46223" lon="6.28971"><ele></ele><time>2017-9-5T4:1:38Z</time></trkpt>
<trkpt lat="46.4622" lon="6.28968"><ele></ele><time>2017-9-5T4:1:41Z</time></trkpt>
<trkpt lat="46.46216" lon="6.28965"><ele></ele><time>2017-9-5T4:1:44Z</time></trkpt>
<trkpt lat="46.46214" lon="6.28962"><ele></ele><time>2017-9-5T4:1:47Z</time></trkpt>
<trkpt lat="46.46211" lon="6.28958"><ele></ele><time>2017-9-5T4:1:50Z</time></trkpt>
<trkpt lat="46.46208" lon="6.28955"><ele></ele><time>2017-9-5T4:1:53Z</time></trkpt>
<trkpt lat="46.46206" lon="6.28952"><ele></ele><time>2017-9-5T4:1:56Z</time></trkpt>
<trkpt lat="46.46204" lon="6.28949"><ele></ele><time>2017-9-5T4:1:59Z</time></trkpt>
<trkpt lat="46.46202" lon="6.28946"><ele></ele><time>2017-9-5T4:2:2Z</time></trkpt>
<trkpt lat="46.46199" lon="6.28942"><ele></ele><time>2017-9-5T4:2:5Z</time></trkpt>
<trkpt lat="46.46196" lon="6.28939"><ele></ele><time>2017-9-5T4:2:8Z</time></trkpt>
<trkpt lat="46.46194" lon="6.28937"><ele></ele><time>2017-9-5T4:2:11Z</time></trkpt>
<trkpt lat="46.46191" lon="6.28933"><ele></ele><time>2017-9-5T4:2:14Z</time></trkpt>
<trkpt lat="46.46187" lon="6.28926"><ele></ele><time>2017-9-5T4:2:17Z</time></trkpt>
<trkpt lat="46.46183" lon="6.28918"><ele></ele><time>2017-9-5T4:2:20Z</time></trkpt>
<trkpt lat="46.46181" lon="6.28915"><ele></ele><time>2017-9-5T4:2:23Z</time></trkpt>
<trkpt lat="46.46179" lon="6.28911"><ele></ele><time>2017-9-5T4:2:26Z</time></trkpt>
<trkpt lat="46.46175" lon="6.28904"><ele></ele><time>2017-9-5T4:2:29Z</time></trkpt>
<trkpt lat="46.46171" lon="6.28897"><ele></ele><time>2017-9-5T4:2:32Z</time></trkpt>
<trkpt lat="46.46166" lon="6.2889"><ele></ele><time>2017-9-5T4:2:35Z</time></trkpt>
<trkpt lat="46.46161" lon="6.28885"><ele></ele><time>2017-9-5T4:2:38Z</time></trkpt>
<trkpt lat="46.46156" lon="6.28881"><ele></ele><time>2017-9-5T4:2:41Z</time></trkpt>
<trkpt lat="46.4615" lon="6.28877"><ele></ele><time>2017-9-5T4:2:44Z</time></trkpt>
<trkpt lat="46.46142" lon="6.28872"><ele></ele><time>2017-9-5T4:2:47Z</time></trkpt>
<trkpt lat="46.46135" lon="6.2887"><ele></ele><time>2017-9-5T4:2:50Z</time></trkpt>
<trkpt lat="46.46129" lon="6.28867"><ele></ele><time>2017-9-5T4:2:53Z</time></trkpt>
<trkpt lat="46.46122" lon="6.28865"><ele></ele><time>2017-9-5T4:2:56Z</time></trkpt>
<trkpt lat="46.46119" lon="6.28865"><ele></ele><time>2017-9-5T4:2:59Z</time></trkpt>
<trkpt lat="46.46116" lon="6.28865"><ele></ele><time>2017-9-5T4:3:2Z</time></trkpt>
<trkpt lat="46.46113" lon="6.28865"><ele></ele><time>2017-9-5T4:3:5Z</time></trkpt>
<trkpt lat="46.4611" lon="6.28867"><ele></ele><time>2017-9-5T4:3:8Z</time></trkpt>
<trkpt lat="46.46106" lon="6.2887"><ele></ele><time>2017-9-5T4:3:11Z</time></trkpt>
<trkpt lat="46.46102" lon="6.28877"><ele></ele><time>2017-9-5T4:3:14Z</time></trkpt>
<trkpt lat="46.46099" lon="6.28884"><ele></ele><time>2017-9-5T4:3:17Z</time></trkpt>
<trkpt lat="46.46098" lon="6.28892"><ele></ele><time>2017-9-5T4:3:20Z</time></trkpt>
<trkpt lat="46.46098" lon="6.28901"><ele></ele><time>2017-9-5T4:3:23Z</time></trkpt>
<trkpt lat="46.46099" lon="6.28906"><ele></ele><time>2017-9-5T4:3:26Z</time></trkpt>
<trkpt lat="46.461" lon="6.2891"><ele></ele><time>2017-9-5T4:3:29Z</time></trkpt>
<trkpt lat="46.46102" lon="6.28915"><ele></ele><time>2017-9-5T4:3:32Z</time></trkpt>
<trkpt lat="46.46104" lon="6.28921"><ele></ele><time>2017-9-5T4:3:35Z</time></trkpt>
<trkpt lat="46.46105" lon="6.28927"><ele></ele><time>2017-9-5T4:3:38Z</time></trkpt>
<trkpt lat="46.46107" lon="6.28934"><ele></ele><time>2017-9-5T4:3:41Z</time></trkpt>
<trkpt lat="46.46109" lon="6.28942"><ele></ele><time>2017-9-5T4:3:44Z</time></trkpt>
<trkpt lat="46.46108" lon="6.28945"><ele></ele><time>2017-9-5T4:3:47Z</time></trkpt>
<trkpt lat="46.46107" lon="6.28947"><ele></ele><time>2017-9-5T4:3:50Z</time></trkpt>
<trkpt lat="46.46105" lon="6.2895"><ele></ele><time>2017-9-5T4:3:53Z</time></trkpt>
<trkpt lat="46.46094" lon="6.2895"><ele></ele><time>2017-9-5T4:3:56Z</time></trkpt>
<trkpt lat="46.46091" lon="6.28946"><ele></ele><time>2017-9-5T4:3:59Z</time></trkpt>
<trkpt lat="46.46089" lon="6.28941"><ele></ele><time>2017-9-5T4:4:2Z</time></trkpt>
<trkpt lat="46.46085" lon="6.28936"><ele></ele><time>2017-9-5T4:4:5Z</time></trkpt>
<trkpt lat="46.4608" lon="6.28936"><ele></ele><time>2017-9-5T4:4:8Z</time></trkpt>
<trkpt lat="46.46078" lon="6.28939"><ele></ele><time>2017-9-5T4:4:11Z</time></trkpt>
<trkpt lat="46.46077" lon="6.28943"><ele></ele><time>2017-9-5T4:4:14Z</time></trkpt>
<trkpt lat="46.46075" lon="6.2895"><ele></ele><time>2017-9-5T4:4:17Z</time></trkpt>
<trkpt lat="46.46074" lon="6.28962"><ele></ele><time>2017-9-5T4:4:20Z</time></trkpt>
<trkpt lat="46.46074" lon="6.2897"><ele></ele><time>2017-9-5T4:4:23Z</time></trkpt>
<trkpt lat="46.46074" lon="6.28974"><ele></ele><time>2017-9-5T4:4:26Z</time></trkpt>
<trkpt lat="46.46074" lon="6.28978"><ele></ele><time>2017-9-5T4:4:29Z</time></trkpt>
<trkpt lat="46.46075" lon="6.28983"><ele></ele><time>2017-9-5T4:4:32Z</time></trkpt>
<trkpt lat="46.46075" lon="6.28988"><ele></ele><time>2017-9-5T4:4:35Z</time></trkpt>
<trkpt lat="46.46076" lon="6.28998"><ele></ele><time>2017-9-5T4:4:38Z</time></trkpt>
<trkpt lat="46.46076" lon="6.29002"><ele></ele><time>2017-9-5T4:4:41Z</time></trkpt>
<trkpt lat="46.46077" lon="6.29007"><ele></ele><time>2017-9-5T4:4:44Z</time></trkpt>
<trkpt lat="46.46078" lon="6.29017"><ele></ele><time>2017-9-5T4:4:47Z</time></trkpt>
<trkpt lat="46.4608" lon="6.29021"><ele></ele><time>2017-9-5T4:4:50Z</time></trkpt>
<trkpt lat="46.46082" lon="6.29025"><ele></ele><time>2017-9-5T4:4:53Z</time></trkpt>
<trkpt lat="46.46085" lon="6.29028"><ele></ele><time>2017-9-5T4:4:56Z</time></trkpt>
<trkpt lat="46.46091" lon="6.29035"><ele></ele><time>2017-9-5T4:4:59Z</time></trkpt>
<trkpt lat="46.46096" lon="6.29044"><ele></ele><time>2017-9-5T4:5:2Z</time></trkpt>
<trkpt lat="46.46096" lon="6.29044"><ele></ele><time>2017-9-5T4:5:5Z</time></trkpt>
<trkpt lat="46.461" lon="6.29054"><ele></ele><time>2017-9-5T4:5:8Z</time></trkpt>
<trkpt lat="46.46101" lon="6.2906"><ele></ele><time>2017-9-5T4:5:11Z</time></trkpt>
<trkpt lat="46.46104" lon="6.29074"><ele></ele><time>2017-9-5T4:5:14Z</time></trkpt>
<trkpt lat="46.46104" lon="6.29074"><ele></ele><time>2017-9-5T4:5:17Z</time></trkpt>
<trkpt lat="46.46107" lon="6.29088"><ele></ele><time>2017-9-5T4:5:20Z</time></trkpt>
<trkpt lat="46.4611" lon="6.29102"><ele></ele><time>2017-9-5T4:5:23Z</time></trkpt>
<trkpt lat="46.46114" lon="6.29115"><ele></ele><time>2017-9-5T4:5:26Z</time></trkpt>
<trkpt lat="46.46116" lon="6.29121"><ele></ele><time>2017-9-5T4:5:29Z</time></trkpt>
<trkpt lat="46.46116" lon="6.29121"><ele></ele><time>2017-9-5T4:5:32Z</time></trkpt>
<trkpt lat="46.4612" lon="6.29132"><ele></ele><time>2017-9-5T4:5:35Z</time></trkpt>
<trkpt lat="46.46121" lon="6.29135"><ele></ele><time>2017-9-5T4:5:38Z</time></trkpt>
<trkpt lat="46.46124" lon="6.29141"><ele></ele><time>2017-9-5T4:5:41Z</time></trkpt>
<trkpt lat="46.46125" lon="6.29144"><ele></ele><time>2017-9-5T4:5:44Z</time></trkpt>
<trkpt lat="46.46126" lon="6.29146"><ele></ele><time>2017-9-5T4:5:47Z</time></trkpt>
<trkpt lat="46.46126" lon="6.29149"><ele></ele><time>2017-9-5T4:5:50Z</time></trkpt>
<trkpt lat="46.46126" lon="6.29153"><ele></ele><time>2017-9-5T4:5:53Z</time></trkpt>
<trkpt lat="46.46125" lon="6.29163"><ele></ele><time>2017-9-5T4:5:56Z</time></trkpt>
<trkpt lat="46.46124" lon="6.29167"><ele></ele><time>2017-9-5T4:5:59Z</time></trkpt>
<trkpt lat="46.46122" lon="6.29173"><ele></ele><time>2017-9-5T4:6:2Z</time></trkpt>
<trkpt lat="46.46116" lon="6.29187"><ele></ele><time>2017-9-5T4:6:5Z</time></trkpt>
<trkpt lat="46.46106" lon="6.29199"><ele></ele><time>2017-9-5T4:6:8Z</time></trkpt>
<trkpt lat="46.46097" lon="6.29211"><ele></ele><time>2017-9-5T4:6:11Z</time></trkpt>
<trkpt lat="46.46093" lon="6.29216"><ele></ele><time>2017-9-5T4:6:14Z</time></trkpt>
<trkpt lat="46.46088" lon="6.29221"><ele></ele><time>2017-9-5T4:6:17Z</time></trkpt>
<trkpt lat="46.46079" lon="6.29229"><ele></ele><time>2017-9-5T4:6:20Z</time></trkpt>
<trkpt lat="46.46074" lon="6.29232"><ele></ele><time>2017-9-5T4:6:23Z</time></trkpt>
<trkpt lat="46.46074" lon="6.29232"><ele></ele><time>2017-9-5T4:6:26Z</time></trkpt>
<trkpt lat="46.46062" lon="6.29232"><ele></ele><time>2017-9-5T4:6:29Z</time></trkpt>
<trkpt lat="46.46056" lon="6.29231"><ele></ele><time>2017-9-5T4:6:32Z</time></trkpt>
<trkpt lat="46.4605" lon="6.29229"><ele></ele><time>2017-9-5T4:6:35Z</time></trkpt>
<trkpt lat="46.46045" lon="6.29227"><ele></ele><time>2017-9-5T4:6:38Z</time></trkpt>
<trkpt lat="46.46041" lon="6.29222"><ele></ele><time>2017-9-5T4:6:41Z</time></trkpt>
<trkpt lat="46.46037" lon="6.29215"><ele></ele><time>2017-9-5T4:6:44Z</time></trkpt>
<trkpt lat="46.46033" lon="6.29206"><ele></ele><time>2017-9-5T4:6:47Z</time></trkpt>
<trkpt lat="46.4603" lon="6.29196"><ele></ele><time>2017-9-5T4:6:50Z</time></trkpt>
<trkpt lat="46.46027" lon="6.29186"><ele></ele><time>2017-9-5T4:6:53Z</time></trkpt>
<trkpt lat="46.46024" lon="6.29177"><ele></ele><time>2017-9-5T4:6:56Z</time></trkpt>
<trkpt lat="46.46021" lon="6.29168"><ele></ele><time>2017-9-5T4:6:59Z</time></trkpt>
<trkpt lat="46.46018" lon="6.29161"><ele></ele><time>2017-9-5T4:7:2Z</time></trkpt>
<trkpt lat="46.46014" lon="6.29155"><ele></ele><time>2017-9-5T4:7:5Z</time></trkpt>
<trkpt lat="46.46014" lon="6.29155"><ele></ele><time>2017-9-5T4:7:8Z</time></trkpt>
<trkpt lat="46.4601" lon="6.29151"><ele></ele><time>2017-9-5T4:7:11Z</time></trkpt>
<trkpt lat="46.46005" lon="6.29148"><ele></ele><time>2017-9-5T4:7:14Z</time></trkpt>
<trkpt lat="46.45984" lon="6.29152"><ele></ele><time>2017-9-5T4:7:17Z</time></trkpt>
<trkpt lat="46.45968" lon="6.2915"><ele></ele><time>2017-9-5T4:7:20Z</time></trkpt>
<trkpt lat="46.45952" lon="6.2914"><ele></ele><time>2017-9-5T4:7:23Z</time></trkpt>
<trkpt lat="46.45937" lon="6.29125"><ele></ele><time>2017-9-5T4:7:26Z</time></trkpt>
<trkpt lat="46.45922" lon="6.29105"><ele></ele><time>2017-9-5T4:7:29Z</time></trkpt>
<trkpt lat="46.45908" lon="6.29085"><ele></ele><time>2017-9-5T4:7:32Z</time></trkpt>
<trkpt lat="46.45895" lon="6.29065"><ele></ele><time>2017-9-5T4:7:35Z</time></trkpt>
<trkpt lat="46.45885" lon="6.29046"><ele></ele><time>2017-9-5T4:7:38Z</time></trkpt>
<trkpt lat="46.45874" lon="6.2903"><ele></ele><time>2017-9-5T4:7:41Z</time></trkpt>
<trkpt lat="46.45866" lon="6.29016"><ele></ele><time>2017-9-5T4:7:44Z</time></trkpt>
<trkpt lat="46.45861" lon="6.2901"><ele></ele><time>2017-9-5T4:7:47Z</time></trkpt>
<trkpt lat="46.45858" lon="6.29005"><ele></ele><time>2017-9-5T4:7:50Z</time></trkpt>
<trkpt lat="46.45855" lon="6.29001"><ele></ele><time>2017-9-5T4:7:53Z</time></trkpt>
<trkpt lat="46.45852" lon="6.28998"><ele></ele><time>2017-9-5T4:7:56Z</time></trkpt>
<trkpt lat="46.4585" lon="6.28995"><ele></ele><time>2017-9-5T4:7:59Z</time></trkpt>
<trkpt lat="46.45848" lon="6.28993"><ele></ele><time>2017-9-5T4:8:2Z</time></trkpt>
<trkpt lat="46.45846" lon="6.28991"><ele></ele><time>2017-9-5T4:8:5Z</time></trkpt>
<trkpt lat="46.45844" lon="6.28989"><ele></ele><time>2017-9-5T4:8:8Z</time></trkpt>
<trkpt lat="46.45843" lon="6.28988"><ele></ele><time>2017-9-5T4:8:11Z</time></trkpt>
<trkpt lat="46.45841" lon="6.28988"><ele></ele><time>2017-9-5T4:8:14Z</time></trkpt>
<trkpt lat="46.45839" lon="6.28988"><ele></ele><time>2017-9-5T4:8:17Z</time></trkpt>
<trkpt lat="46.45838" lon="6.28989"><ele></ele><time>2017-9-5T4:8:20Z</time></trkpt>
<trkpt lat="46.45836" lon="6.28992"><ele></ele><time>2017-9-5T4:8:23Z</time></trkpt>
<trkpt lat="46.45835" lon="6.28995"><ele></ele><time>2017-9-5T4:8:26Z</time></trkpt>
<trkpt lat="46.45835" lon="6.28999"><ele></ele><time>2017-9-5T4:8:29Z</time></trkpt>
<trkpt lat="46.45836" lon="6.29003"><ele></ele><time>2017-9-5T4:8:32Z</time></trkpt>
<trkpt lat="46.45836" lon="6.29011"><ele></ele><time>2017-9-5T4:8:35Z</time></trkpt>
<trkpt lat="46.45837" lon="6.29014"><ele></ele><time>2017-9-5T4:8:38Z</time></trkpt>
<trkpt lat="46.45838" lon="6.2902"><ele></ele><time>2017-9-5T4:8:41Z</time></trkpt>
<trkpt lat="46.4584" lon="6.29022"><ele></ele><time>2017-9-5T4:8:44Z</time></trkpt>
<trkpt lat="46.45841" lon="6.29021"><ele></ele><time>2017-9-5T4:8:47Z</time></trkpt>
<trkpt lat="46.45842" lon="6.29014"><ele></ele><time>2017-9-5T4:8:50Z</time></trkpt>
<trkpt lat="46.45841" lon="6.29012"><ele></ele><time>2017-9-5T4:8:53Z</time></trkpt>
<trkpt lat="46.4584" lon="6.2901"><ele></ele><time>2017-9-5T4:8:56Z</time></trkpt>
<trkpt lat="46.45839" lon="6.29005"><ele></ele><time>2017-9-5T4:8:59Z</time></trkpt>
<trkpt lat="46.45839" lon="6.28999"><ele></ele><time>2017-9-5T4:9:2Z</time></trkpt>
<trkpt lat="46.4584" lon="6.28996"><ele></ele><time>2017-9-5T4:9:5Z</time></trkpt>
<trkpt lat="46.45841" lon="6.28993"><ele></ele><time>2017-9-5T4:9:8Z</time></trkpt>
<trkpt lat="46.45842" lon="6.28988"><ele></ele><time>2017-9-5T4:9:11Z</time></trkpt>
<trkpt lat="46.45841" lon="6.28983"><ele></ele><time>2017-9-5T4:9:14Z</time></trkpt>
<trkpt lat="46.45841" lon="6.28978"><ele></ele><time>2017-9-5T4:9:17Z</time></trkpt>
<trkpt lat="46.45841" lon="6.28975"><ele></ele><time>2017-9-5T4:9:20Z</time></trkpt>
<trkpt lat="46.45842" lon="6.28973"><ele></ele><time>2017-9-5T4:9:23Z</time></trkpt>
<trkpt lat="46.45843" lon="6.28968"><ele></ele><time>2017-9-5T4:9:26Z</time></trkpt>
<trkpt lat="46.45844" lon="6.28966"><ele></ele><time>2017-9-5T4:9:29Z</time></trkpt>
<trkpt lat="46.45845" lon="6.28965"><ele></ele><time>2017-9-5T4:9:32Z</time></trkpt>
<trkpt lat="46.45847" lon="6.28962"><ele></ele><time>2017-9-5T4:9:35Z</time></trkpt>
<trkpt lat="46.45848" lon="6.2896"><ele></ele><time>2017-9-5T4:9:38Z</time></trkpt>
<trkpt lat="46.4585" lon="6.28958"><ele></ele><time>2017-9-5T4:9:41Z</time></trkpt>
<trkpt lat="46.45852" lon="6.28956"><ele></ele><time>2017-9-5T4:9:44Z</time></trkpt>
<trkpt lat="46.45855" lon="6.28953"><ele></ele><time>2017-9-5T4:9:47Z</time></trkpt>
<trkpt lat="46.45857" lon="6.2895"><ele></ele><time>2017-9-5T4:9:50Z</time></trkpt>
<trkpt lat="46.45859" lon="6.28948"><ele></ele><time>2017-9-5T4:9:53Z</time></trkpt>
<trkpt lat="46.4586" lon="6.28946"><ele></ele><time>2017-9-5T4:9:56Z</time></trkpt>
<trkpt lat="46.45863" lon="6.28942"><ele></ele><time>2017-9-5T4:9:59Z</time></trkpt>
<trkpt lat="46.45864" lon="6.2894"><ele></ele><time>2017-9-5T4:10:2Z</time></trkpt>
<trkpt lat="46.45867" lon="6.28936"><ele></ele><time>2017-9-5T4:10:5Z</time></trkpt>
<trkpt lat="46.45869" lon="6.28933"><ele></ele><time>2017-9-5T4:10:8Z</time></trkpt>
<trkpt lat="46.45872" lon="6.28929"><ele></ele><time>2017-9-5T4:10:11Z</time></trkpt>
<trkpt lat="46.45875" lon="6.28925"><ele></ele><time>2017-9-5T4:10:14Z</time></trkpt>
<trkpt lat="46.45876" lon="6.28923"><ele></ele><time>2017-9-5T4:10:17Z</time></trkpt>
<trkpt lat="46.45877" lon="6.28922"><ele></ele><time>2017-9-5T4:10:20Z</time></trkpt>
<trkpt lat="46.4588" lon="6.2892"><ele></ele><time>2017-9-5T4:10:23Z</time></trkpt>
<trkpt lat="46.45883" lon="6.28916"><ele></ele><time>2017-9-5T4:10:26Z</time></trkpt>
<trkpt lat="46.45885" lon="6.28912"><ele></ele><time>2017-9-5T4:10:29Z</time></trkpt>
<trkpt lat="46.45887" lon="6.2891"><ele></ele><time>2017-9-5T4:10:32Z</time></trkpt>
<trkpt lat="46.45888" lon="6.28908"><ele></ele><time>2017-9-5T4:10:35Z</time></trkpt>
<trkpt lat="46.45891" lon="6.28905"><ele></ele><time>2017-9-5T4:10:38Z</time></trkpt>
<trkpt lat="46.45893" lon="6.28901"><ele></ele><time>2017-9-5T4:10:41Z</time></trkpt>
<trkpt lat="46.45895" lon="6.28898"><ele></ele><time>2017-9-5T4:10:44Z</time></trkpt>
<trkpt lat="46.45896" lon="6.28894"><ele></ele><time>2017-9-5T4:10:47Z</time></trkpt>
<trkpt lat="46.45898" lon="6.2889"><ele></ele><time>2017-9-5T4:10:50Z</time></trkpt>
<trkpt lat="46.45901" lon="6.28887"><ele></ele><time>2017-9-5T4:10:53Z</time></trkpt>
<trkpt lat="46.45904" lon="6.28885"><ele></ele><time>2017-9-5T4:10:56Z</time></trkpt>
<trkpt lat="46.45905" lon="6.28884"><ele></ele><time>2017-9-5T4:10:59Z</time></trkpt>
<trkpt lat="46.45906" lon="6.28882"><ele></ele><time>2017-9-5T4:11:2Z</time></trkpt>
<trkpt lat="46.45909" lon="6.28878"><ele></ele><time>2017-9-5T4:11:5Z</time></trkpt>
<trkpt lat="46.45912" lon="6.28874"><ele></ele><time>2017-9-5T4:11:8Z</time></trkpt>
<trkpt lat="46.45914" lon="6.2887"><ele></ele><time>2017-9-5T4:11:11Z</time></trkpt>
<trkpt lat="46.45915" lon="6.28868"><ele></ele><time>2017-9-5T4:11:14Z</time></trkpt>
<trkpt lat="46.45917" lon="6.28866"><ele></ele><time>2017-9-5T4:11:17Z</time></trkpt>
<trkpt lat="46.4592" lon="6.28864"><ele></ele><time>2017-9-5T4:11:20Z</time></trkpt>
<trkpt lat="46.45922" lon="6.28861"><ele></ele><time>2017-9-5T4:11:23Z</time></trkpt>
<trkpt lat="46.45926" lon="6.28858"><ele></ele><time>2017-9-5T4:11:26Z</time></trkpt>
<trkpt lat="46.45928" lon="6.28857"><ele></ele><time>2017-9-5T4:11:29Z</time></trkpt>
<trkpt lat="46.45929" lon="6.28856"><ele></ele><time>2017-9-5T4:11:32Z</time></trkpt>
<trkpt lat="46.45933" lon="6.28853"><ele></ele><time>2017-9-5T4:11:35Z</time></trkpt>
<trkpt lat="46.45936" lon="6.28852"><ele></ele><time>2017-9-5T4:11:38Z</time></trkpt>
<trkpt lat="46.45938" lon="6.2885"><ele></ele><time>2017-9-5T4:11:41Z</time></trkpt>
<trkpt lat="46.45939" lon="6.28849"><ele></ele><time>2017-9-5T4:11:44Z</time></trkpt>
<trkpt lat="46.45943" lon="6.28846"><ele></ele><time>2017-9-5T4:11:47Z</time></trkpt>
<trkpt lat="46.45946" lon="6.28843"><ele></ele><time>2017-9-5T4:11:50Z</time></trkpt>
<trkpt lat="46.45949" lon="6.2884"><ele></ele><time>2017-9-5T4:11:53Z</time></trkpt>
<trkpt lat="46.45952" lon="6.28837"><ele></ele><time>2017-9-5T4:11:56Z</time></trkpt>
<trkpt lat="46.45955" lon="6.28834"><ele></ele><time>2017-9-5T4:11:59Z</time></trkpt>
<trkpt lat="46.45956" lon="6.28834"><ele></ele><time>2017-9-5T4:12:2Z</time></trkpt>
<trkpt lat="46.45958" lon="6.28834"><ele></ele><time>2017-9-5T4:12:5Z</time></trkpt>
<trkpt lat="46.45961" lon="6.28832"><ele></ele><time>2017-9-5T4:12:8Z</time></trkpt>
<trkpt lat="46.45962" lon="6.28831"><ele></ele><time>2017-9-5T4:12:11Z</time></trkpt>
<trkpt lat="46.45964" lon="6.2883"><ele></ele><time>2017-9-5T4:12:14Z</time></trkpt>
<trkpt lat="46.45967" lon="6.28828"><ele></ele><time>2017-9-5T4:12:17Z</time></trkpt>
<trkpt lat="46.45968" lon="6.28827"><ele></ele><time>2017-9-5T4:12:20Z</time></trkpt>
<trkpt lat="46.45971" lon="6.28824"><ele></ele><time>2017-9-5T4:12:23Z</time></trkpt>
<trkpt lat="46.45974" lon="6.28822"><ele></ele><time>2017-9-5T4:12:26Z</time></trkpt>
<trkpt lat="46.45976" lon="6.28819"><ele></ele><time>2017-9-5T4:12:29Z</time></trkpt>
<trkpt lat="46.45979" lon="6.28817"><ele></ele><time>2017-9-5T4:12:32Z</time></trkpt>
<trkpt lat="46.45982" lon="6.28815"><ele></ele><time>2017-9-5T4:12:35Z</time></trkpt>
<trkpt lat="46.45985" lon="6.28811"><ele></ele><time>2017-9-5T4:12:38Z</time></trkpt>
<trkpt lat="46.45987" lon="6.28807"><ele></ele><time>2017-9-5T4:12:41Z</time></trkpt>
<trkpt lat="46.4599" lon="6.28804"><ele></ele><time>2017-9-5T4:12:44Z</time></trkpt>
<trkpt lat="46.45993" lon="6.28801"><ele></ele><time>2017-9-5T4:12:47Z</time></trkpt>
<trkpt lat="46.45994" lon="6.28799"><ele></ele><time>2017-9-5T4:12:50Z</time></trkpt>
<trkpt lat="46.45995" lon="6.28797"><ele></ele><time>2017-9-5T4:12:53Z</time></trkpt>
<trkpt lat="46.45997" lon="6.28793"><ele></ele><time>2017-9-5T4:12:56Z</time></trkpt>
<trkpt lat="46.45999" lon="6.28789"><ele></ele><time>2017-9-5T4:12:59Z</time></trkpt>
<trkpt lat="46.46001" lon="6.28788"><ele></ele><time>2017-9-5T4:13:2Z</time></trkpt>
<trkpt lat="46.46002" lon="6.28787"><ele></ele><time>2017-9-5T4:13:5Z</time></trkpt>
<trkpt lat="46.46004" lon="6.28785"><ele></ele><time>2017-9-5T4:13:8Z</time></trkpt>
<trkpt lat="46.46006" lon="6.28782"><ele></ele><time>2017-9-5T4:13:11Z</time></trkpt>
<trkpt lat="46.46008" lon="6.2878"><ele></ele><time>2017-9-5T4:13:14Z</time></trkpt>
<trkpt lat="46.4601" lon="6.28777"><ele></ele><time>2017-9-5T4:13:17Z</time></trkpt>
<trkpt lat="46.46012" lon="6.28773"><ele></ele><time>2017-9-5T4:13:20Z</time></trkpt>
<trkpt lat="46.46014" lon="6.2877"><ele></ele><time>2017-9-5T4:13:23Z</time></trkpt>
<trkpt lat="46.46016" lon="6.28767"><ele></ele><time>2017-9-5T4:13:26Z</time></trkpt>
<trkpt lat="46.46018" lon="6.28766"><ele></ele><time>2017-9-5T4:13:29Z</time></trkpt>
<trkpt lat="46.46019" lon="6.28765"><ele></ele><time>2017-9-5T4:13:32Z</time></trkpt>
<trkpt lat="46.46021" lon="6.28761"><ele></ele><time>2017-9-5T4:13:35Z</time></trkpt>
<trkpt lat="46.46023" lon="6.28758"><ele></ele><time>2017-9-5T4:13:38Z</time></trkpt>
<trkpt lat="46.46025" lon="6.28755"><ele></ele><time>2017-9-5T4:13:41Z</time></trkpt>
<trkpt lat="46.46026" lon="6.28753"><ele></ele><time>2017-9-5T4:13:44Z</time></trkpt>
<trkpt lat="46.46027" lon="6.28751"><ele></ele><time>2017-9-5T4:13:47Z</time></trkpt>
<trkpt lat="46.46029" lon="6.28748"><ele></ele><time>2017-9-5T4:13:50Z</time></trkpt>
<trkpt lat="46.46031" lon="6.28746"><ele></ele><time>2017-9-5T4:13:53Z</time></trkpt>
<trkpt lat="46.46033" lon="6.28743"><ele></ele><time>2017-9-5T4:13:56Z</time></trkpt>
<trkpt lat="46.46035" lon="6.2874"><ele></ele><time>2017-9-5T4:13:59Z</time></trkpt>
<trkpt lat="46.46038" lon="6.28737"><ele></ele><time>2017-9-5T4:14:2Z</time></trkpt>
<trkpt lat="46.4604" lon="6.28733"><ele></ele><time>2017-9-5T4:14:5Z</time></trkpt>
<trkpt lat="46.46043" lon="6.2873"><ele></ele><time>2017-9-5T4:14:8Z</time></trkpt>
<trkpt lat="46.46045" lon="6.28726"><ele></ele><time>2017-9-5T4:14:11Z</time></trkpt>
<trkpt lat="46.46046" lon="6.28724"><ele></ele><time>2017-9-5T4:14:14Z</time></trkpt>
<trkpt lat="46.46048" lon="6.28722"><ele></ele><time>2017-9-5T4:14:17Z</time></trkpt>
<trkpt lat="46.4605" lon="6.28719"><ele></ele><time>2017-9-5T4:14:20Z</time></trkpt>
<trkpt lat="46.46052" lon="6.28714"><ele></ele><time>2017-9-5T4:14:23Z</time></trkpt>
<trkpt lat="46.46054" lon="6.2871"><ele></ele><time>2017-9-5T4:14:26Z</time></trkpt>
<trkpt lat="46.46054" lon="6.28708"><ele></ele><time>2017-9-5T4:14:29Z</time></trkpt>
<trkpt lat="46.46055" lon="6.28705"><ele></ele><time>2017-9-5T4:14:32Z</time></trkpt>
<trkpt lat="46.46057" lon="6.28701"><ele></ele><time>2017-9-5T4:14:35Z</time></trkpt>
<trkpt lat="46.46059" lon="6.28697"><ele></ele><time>2017-9-5T4:14:38Z</time></trkpt>
<trkpt lat="46.46061" lon="6.28693"><ele></ele><time>2017-9-5T4:14:41Z</time></trkpt>
<trkpt lat="46.46063" lon="6.2869"><ele></ele><time>2017-9-5T4:14:44Z</time></trkpt>
<trkpt lat="46.46066" lon="6.28687"><ele></ele><time>2017-9-5T4:14:47Z</time></trkpt>
<trkpt lat="46.46068" lon="6.28683"><ele></ele><time>2017-9-5T4:14:50Z</time></trkpt>
<trkpt lat="46.46068" lon="6.28681"><ele></ele><time>2017-9-5T4:14:53Z</time></trkpt>
<trkpt lat="46.46069" lon="6.28679"><ele></ele><time>2017-9-5T4:14:56Z</time></trkpt>
<trkpt lat="46.46071" lon="6.28676"><ele></ele><time>2017-9-5T4:14:59Z</time></trkpt>
<trkpt lat="46.46073" lon="6.28672"><ele></ele><time>2017-9-5T4:15:2Z</time></trkpt>
<trkpt lat="46.46075" lon="6.28669"><ele></ele><time>2017-9-5T4:15:5Z</time></trkpt>
<trkpt lat="46.46076" lon="6.28668"><ele></ele><time>2017-9-5T4:15:8Z</time></trkpt>
<trkpt lat="46.46077" lon="6.28666"><ele></ele><time>2017-9-5T4:15:11Z</time></trkpt>
<trkpt lat="46.46079" lon="6.28663"><ele></ele><time>2017-9-5T4:15:14Z</time></trkpt>
<trkpt lat="46.46082" lon="6.2866"><ele></ele><time>2017-9-5T4:15:17Z</time></trkpt>
<trkpt lat="46.46084" lon="6.28657"><ele></ele><time>2017-9-5T4:15:20Z</time></trkpt>
<trkpt lat="46.46086" lon="6.28653"><ele></ele><time>2017-9-5T4:15:23Z</time></trkpt>
<trkpt lat="46.46089" lon="6.28649"><ele></ele><time>2017-9-5T4:15:26Z</time></trkpt>
<trkpt lat="46.46091" lon="6.28645"><ele></ele><time>2017-9-5T4:15:29Z</time></trkpt>
<trkpt lat="46.46092" lon="6.28641"><ele></ele><time>2017-9-5T4:15:32Z</time></trkpt>
<trkpt lat="46.46095" lon="6.28636"><ele></ele><time>2017-9-5T4:15:35Z</time></trkpt>
<trkpt lat="46.46097" lon="6.28631"><ele></ele><time>2017-9-5T4:15:38Z</time></trkpt>
<trkpt lat="46.46099" lon="6.28627"><ele></ele><time>2017-9-5T4:15:41Z</time></trkpt>
<trkpt lat="46.461" lon="6.28625"><ele></ele><time>2017-9-5T4:15:44Z</time></trkpt>
<trkpt lat="46.461" lon="6.28622"><ele></ele><time>2017-9-5T4:15:47Z</time></trkpt>
<trkpt lat="46.46102" lon="6.28618"><ele></ele><time>2017-9-5T4:15:50Z</time></trkpt>
<trkpt lat="46.46102" lon="6.28613"><ele></ele><time>2017-9-5T4:15:53Z</time></trkpt>
<trkpt lat="46.46103" lon="6.28611"><ele></ele><time>2017-9-5T4:15:56Z</time></trkpt>
<trkpt lat="46.46103" lon="6.28604"><ele></ele><time>2017-9-5T4:15:59Z</time></trkpt>
<trkpt lat="46.46102" lon="6.28599"><ele></ele><time>2017-9-5T4:16:2Z</time></trkpt>
<trkpt lat="46.46101" lon="6.28595"><ele></ele><time>2017-9-5T4:16:5Z</time></trkpt>
<trkpt lat="46.46099" lon="6.2859"><ele></ele><time>2017-9-5T4:16:8Z</time></trkpt>
<trkpt lat="46.46097" lon="6.28586"><ele></ele><time>2017-9-5T4:16:11Z</time></trkpt>
<trkpt lat="46.46094" lon="6.28584"><ele></ele><time>2017-9-5T4:16:14Z</time></trkpt>
<trkpt lat="46.46091" lon="6.28581"><ele></ele><time>2017-9-5T4:16:17Z</time></trkpt>
<trkpt lat="46.46088" lon="6.2858"><ele></ele><time>2017-9-5T4:16:20Z</time></trkpt>
<trkpt lat="46.46084" lon="6.2858"><ele></ele><time>2017-9-5T4:16:23Z</time></trkpt>
<trkpt lat="46.46081" lon="6.2858"><ele></ele><time>2017-9-5T4:16:26Z</time></trkpt>
<trkpt lat="46.46077" lon="6.28581"><ele></ele><time>2017-9-5T4:16:29Z</time></trkpt>
<trkpt lat="46.46073" lon="6.28583"><ele></ele><time>2017-9-5T4:16:32Z</time></trkpt>
<trkpt lat="46.4607" lon="6.28585"><ele></ele><time>2017-9-5T4:16:35Z</time></trkpt>
<trkpt lat="46.46067" lon="6.28588"><ele></ele><time>2017-9-5T4:16:38Z</time></trkpt>
<trkpt lat="46.46065" lon="6.28589"><ele></ele><time>2017-9-5T4:16:41Z</time></trkpt>
<trkpt lat="46.46063" lon="6.28591"><ele></ele><time>2017-9-5T4:16:44Z</time></trkpt>
<trkpt lat="46.4606" lon="6.28594"><ele></ele><time>2017-9-5T4:16:47Z</time></trkpt>
<trkpt lat="46.46057" lon="6.28597"><ele></ele><time>2017-9-5T4:16:50Z</time></trkpt>
<trkpt lat="46.46054" lon="6.286"><ele></ele><time>2017-9-5T4:16:53Z</time></trkpt>
<trkpt lat="46.46051" lon="6.28602"><ele></ele><time>2017-9-5T4:16:56Z</time></trkpt>
<trkpt lat="46.46048" lon="6.28606"><ele></ele><time>2017-9-5T4:16:59Z</time></trkpt>
<trkpt lat="46.46045" lon="6.28607"><ele></ele><time>2017-9-5T4:17:2Z</time></trkpt>
<trkpt lat="46.46042" lon="6.28609"><ele></ele><time>2017-9-5T4:17:5Z</time></trkpt>
<trkpt lat="46.4604" lon="6.2861"><ele></ele><time>2017-9-5T4:17:8Z</time></trkpt>
<trkpt lat="46.46038" lon="6.2861"><ele></ele><time>2017-9-5T4:17:11Z</time></trkpt>
<trkpt lat="46.46035" lon="6.28611"><ele></ele><time>2017-9-5T4:17:14Z</time></trkpt>
<trkpt lat="46.46031" lon="6.28612"><ele></ele><time>2017-9-5T4:17:17Z</time></trkpt>
<trkpt lat="46.46028" lon="6.28613"><ele></ele><time>2017-9-5T4:17:20Z</time></trkpt>
<trkpt lat="46.46026" lon="6.28613"><ele></ele><time>2017-9-5T4:17:23Z</time></trkpt>
<trkpt lat="46.46025" lon="6.28613"><ele></ele><time>2017-9-5T4:17:26Z</time></trkpt>
<trkpt lat="46.46022" lon="6.28614"><ele></ele><time>2017-9-5T4:17:29Z</time></trkpt>
<trkpt lat="46.46018" lon="6.28615"><ele></ele><time>2017-9-5T4:17:32Z</time></trkpt>
<trkpt lat="46.46015" lon="6.28616"><ele></ele><time>2017-9-5T4:17:35Z</time></trkpt>
<trkpt lat="46.46014" lon="6.28617"><ele></ele><time>2017-9-5T4:17:38Z</time></trkpt>
<trkpt lat="46.46012" lon="6.28618"><ele></ele><time>2017-9-5T4:17:41Z</time></trkpt>
<trkpt lat="46.46009" lon="6.28619"><ele></ele><time>2017-9-5T4:17:44Z</time></trkpt>
<trkpt lat="46.46005" lon="6.2862"><ele></ele><time>2017-9-5T4:17:47Z</time></trkpt>
<trkpt lat="46.46002" lon="6.2862"><ele></ele><time>2017-9-5T4:17:50Z</time></trkpt>
<trkpt lat="46.46" lon="6.2862"><ele></ele><time>2017-9-5T4:17:53Z</time></trkpt>
<trkpt lat="46.45999" lon="6.2862"><ele></ele><time>2017-9-5T4:17:56Z</time></trkpt>
<trkpt lat="46.45996" lon="6.28621"><ele></ele><time>2017-9-5T4:17:59Z</time></trkpt>
<trkpt lat="46.45993" lon="6.28623"><ele></ele><time>2017-9-5T4:18:2Z</time></trkpt>
<trkpt lat="46.4599" lon="6.28624"><ele></ele><time>2017-9-5T4:18:5Z</time></trkpt>
<trkpt lat="46.45987" lon="6.28624"><ele></ele><time>2017-9-5T4:18:8Z</time></trkpt>
<trkpt lat="46.45984" lon="6.28625"><ele></ele><time>2017-9-5T4:18:11Z</time></trkpt>
<trkpt lat="46.4598" lon="6.28626"><ele></ele><time>2017-9-5T4:18:14Z</time></trkpt>
<trkpt lat="46.45977" lon="6.28626"><ele></ele><time>2017-9-5T4:18:17Z</time></trkpt>
<trkpt lat="46.45974" lon="6.28627"><ele></ele><time>2017-9-5T4:18:20Z</time></trkpt>
<trkpt lat="46.45973" lon="6.28627"><ele></ele><time>2017-9-5T4:18:23Z</time></trkpt>
<trkpt lat="46.45971" lon="6.28627"><ele></ele><time>2017-9-5T4:18:26Z</time></trkpt>
<trkpt lat="46.45967" lon="6.28627"><ele></ele><time>2017-9-5T4:18:29Z</time></trkpt>
<trkpt lat="46.45963" lon="6.28626"><ele></ele><time>2017-9-5T4:18:32Z</time></trkpt>
<trkpt lat="46.4596" lon="6.28625"><ele></ele><time>2017-9-5T4:18:35Z</time></trkpt>
<trkpt lat="46.45956" lon="6.28625"><ele></ele><time>2017-9-5T4:18:38Z</time></trkpt>
<trkpt lat="46.45955" lon="6.28625"><ele></ele><time>2017-9-5T4:18:41Z</time></trkpt>
<trkpt lat="46.45953" lon="6.28624"><ele></ele><time>2017-9-5T4:18:44Z</time></trkpt>
<trkpt lat="46.4595" lon="6.28623"><ele></ele><time>2017-9-5T4:18:47Z</time></trkpt>
<trkpt lat="46.45947" lon="6.2862"><ele></ele><time>2017-9-5T4:18:50Z</time></trkpt>
<trkpt lat="46.45944" lon="6.28618"><ele></ele><time>2017-9-5T4:18:53Z</time></trkpt>
<trkpt lat="46.45942" lon="6.28618"><ele></ele><time>2017-9-5T4:18:56Z</time></trkpt>
<trkpt lat="46.45941" lon="6.28617"><ele></ele><time>2017-9-5T4:18:59Z</time></trkpt>
<trkpt lat="46.45938" lon="6.28615"><ele></ele><time>2017-9-5T4:19:2Z</time></trkpt>
<trkpt lat="46.45935" lon="6.28613"><ele></ele><time>2017-9-5T4:19:5Z</time></trkpt>
<trkpt lat="46.45932" lon="6.28611"><ele></ele><time>2017-9-5T4:19:8Z</time></trkpt>
<trkpt lat="46.4593" lon="6.28608"><ele></ele><time>2017-9-5T4:19:11Z</time></trkpt>
<trkpt lat="46.45927" lon="6.28606"><ele></ele><time>2017-9-5T4:19:14Z</time></trkpt>
<trkpt lat="46.45924" lon="6.28604"><ele></ele><time>2017-9-5T4:19:17Z</time></trkpt>
<trkpt lat="46.45922" lon="6.28602"><ele></ele><time>2017-9-5T4:19:20Z</time></trkpt>
<trkpt lat="46.45919" lon="6.286"><ele></ele><time>2017-9-5T4:19:23Z</time></trkpt>
<trkpt lat="46.45915" lon="6.28599"><ele></ele><time>2017-9-5T4:19:26Z</time></trkpt>
<trkpt lat="46.45912" lon="6.28597"><ele></ele><time>2017-9-5T4:19:29Z</time></trkpt>
<trkpt lat="46.45908" lon="6.28596"><ele></ele><time>2017-9-5T4:19:32Z</time></trkpt>
<trkpt lat="46.45905" lon="6.28596"><ele></ele><time>2017-9-5T4:19:35Z</time></trkpt>
<trkpt lat="46.45902" lon="6.28595"><ele></ele><time>2017-9-5T4:19:38Z</time></trkpt>
<trkpt lat="46.45898" lon="6.28595"><ele></ele><time>2017-9-5T4:19:41Z</time></trkpt>
<trkpt lat="46.45895" lon="6.28596"><ele></ele><time>2017-9-5T4:19:44Z</time></trkpt>
<trkpt lat="46.45893" lon="6.28596"><ele></ele><time>2017-9-5T4:19:47Z</time></trkpt>
<trkpt lat="46.45891" lon="6.28596"><ele></ele><time>2017-9-5T4:19:50Z</time></trkpt>
<trkpt lat="46.45888" lon="6.28597"><ele></ele><time>2017-9-5T4:19:53Z</time></trkpt>
<trkpt lat="46.45884" lon="6.28597"><ele></ele><time>2017-9-5T4:19:56Z</time></trkpt>
<trkpt lat="46.45881" lon="6.28597"><ele></ele><time>2017-9-5T4:19:59Z</time></trkpt>
<trkpt lat="46.45878" lon="6.28597"><ele></ele><time>2017-9-5T4:20:2Z</time></trkpt>
<trkpt lat="46.45875" lon="6.28597"><ele></ele><time>2017-9-5T4:20:5Z</time></trkpt>
<trkpt lat="46.45873" lon="6.28597"><ele></ele><time>2017-9-5T4:20:8Z</time></trkpt>
<trkpt lat="46.4587" lon="6.28599"><ele></ele><time>2017-9-5T4:20:11Z</time></trkpt>
<trkpt lat="46.45867" lon="6.28601"><ele></ele><time>2017-9-5T4:20:14Z</time></trkpt>
<trkpt lat="46.45863" lon="6.28603"><ele></ele><time>2017-9-5T4:20:17Z</time></trkpt>
<trkpt lat="46.45862" lon="6.28604"><ele></ele><time>2017-9-5T4:20:20Z</time></trkpt>
<trkpt lat="46.4586" lon="6.28605"><ele></ele><time>2017-9-5T4:20:23Z</time></trkpt>
<trkpt lat="46.45857" lon="6.28608"><ele></ele><time>2017-9-5T4:20:26Z</time></trkpt>
<trkpt lat="46.45856" lon="6.2861"><ele></ele><time>2017-9-5T4:20:29Z</time></trkpt>
<trkpt lat="46.45855" lon="6.28611"><ele></ele><time>2017-9-5T4:20:32Z</time></trkpt>
<trkpt lat="46.45852" lon="6.28613"><ele></ele><time>2017-9-5T4:20:35Z</time></trkpt>
<trkpt lat="46.45849" lon="6.28616"><ele></ele><time>2017-9-5T4:20:38Z</time></trkpt>
<trkpt lat="46.45846" lon="6.28619"><ele></ele><time>2017-9-5T4:20:41Z</time></trkpt>
<trkpt lat="46.45843" lon="6.28622"><ele></ele><time>2017-9-5T4:20:44Z</time></trkpt>
<trkpt lat="46.4584" lon="6.28625"><ele></ele><time>2017-9-5T4:20:47Z</time></trkpt>
<trkpt lat="46.45839" lon="6.28626"><ele></ele><time>2017-9-5T4:20:50Z</time></trkpt>
<trkpt lat="46.45837" lon="6.28627"><ele></ele><time>2017-9-5T4:20:53Z</time></trkpt>
<trkpt lat="46.45834" lon="6.28628"><ele></ele><time>2017-9-5T4:20:56Z</time></trkpt>
<trkpt lat="46.45831" lon="6.2863"><ele></ele><time>2017-9-5T4:20:59Z</time></trkpt>
<trkpt lat="46.45828" lon="6.28631"><ele></ele><time>2017-9-5T4:21:2Z</time></trkpt>
<trkpt lat="46.45825" lon="6.2863"><ele></ele><time>2017-9-5T4:21:5Z</time></trkpt>
<trkpt lat="46.45822" lon="6.28629"><ele></ele><time>2017-9-5T4:21:8Z</time></trkpt>
<trkpt lat="46.45819" lon="6.28628"><ele></ele><time>2017-9-5T4:21:11Z</time></trkpt>
<trkpt lat="46.45817" lon="6.28626"><ele></ele><time>2017-9-5T4:21:14Z</time></trkpt>
<trkpt lat="46.45815" lon="6.28622"><ele></ele><time>2017-9-5T4:21:17Z</time></trkpt>
<trkpt lat="46.45814" lon="6.28618"><ele></ele><time>2017-9-5T4:21:20Z</time></trkpt>
<trkpt lat="46.45814" lon="6.28613"><ele></ele><time>2017-9-5T4:21:23Z</time></trkpt>
<trkpt lat="46.45815" lon="6.28608"><ele></ele><time>2017-9-5T4:21:26Z</time></trkpt>
<trkpt lat="46.45817" lon="6.28603"><ele></ele><time>2017-9-5T4:21:29Z</time></trkpt>
<trkpt lat="46.4582" lon="6.28598"><ele></ele><time>2017-9-5T4:21:32Z</time></trkpt>
<trkpt lat="46.45822" lon="6.28593"><ele></ele><time>2017-9-5T4:21:35Z</time></trkpt>
<trkpt lat="46.45824" lon="6.28588"><ele></ele><time>2017-9-5T4:21:38Z</time></trkpt>
<trkpt lat="46.45825" lon="6.28586"><ele></ele><time>2017-9-5T4:21:41Z</time></trkpt>
<trkpt lat="46.45826" lon="6.28583"><ele></ele><time>2017-9-5T4:21:44Z</time></trkpt>
<trkpt lat="46.45827" lon="6.28581"><ele></ele><time>2017-9-5T4:21:47Z</time></trkpt>
<trkpt lat="46.45829" lon="6.28573"><ele></ele><time>2017-9-5T4:21:50Z</time></trkpt>
<trkpt lat="46.45831" lon="6.28569"><ele></ele><time>2017-9-5T4:21:53Z</time></trkpt>
<trkpt lat="46.45832" lon="6.28564"><ele></ele><time>2017-9-5T4:21:56Z</time></trkpt>
<trkpt lat="46.45833" lon="6.28562"><ele></ele><time>2017-9-5T4:21:59Z</time></trkpt>
<trkpt lat="46.45833" lon="6.28561"><ele></ele><time>2017-9-5T4:22:2Z</time></trkpt>
<trkpt lat="46.45833" lon="6.28557"><ele></ele><time>2017-9-5T4:22:5Z</time></trkpt>
<trkpt lat="46.45833" lon="6.28556"><ele></ele><time>2017-9-5T4:22:8Z</time></trkpt>
<trkpt lat="46.45835" lon="6.28539"><ele></ele><time>2017-9-5T4:22:11Z</time></trkpt>
<trkpt lat="46.45836" lon="6.28537"><ele></ele><time>2017-9-5T4:22:14Z</time></trkpt>
<trkpt lat="46.45837" lon="6.28532"><ele></ele><time>2017-9-5T4:22:17Z</time></trkpt>
<trkpt lat="46.45839" lon="6.28527"><ele></ele><time>2017-9-5T4:22:20Z</time></trkpt>
<trkpt lat="46.45841" lon="6.28523"><ele></ele><time>2017-9-5T4:22:23Z</time></trkpt>
<trkpt lat="46.45843" lon="6.28519"><ele></ele><time>2017-9-5T4:22:26Z</time></trkpt>
<trkpt lat="46.45845" lon="6.28515"><ele></ele><time>2017-9-5T4:22:29Z</time></trkpt>
<trkpt lat="46.45846" lon="6.28513"><ele></ele><time>2017-9-5T4:22:32Z</time></trkpt>
<trkpt lat="46.45847" lon="6.28511"><ele></ele><time>2017-9-5T4:22:35Z</time></trkpt>
<trkpt lat="46.45849" lon="6.28507"><ele></ele><time>2017-9-5T4:22:38Z</time></trkpt>
<trkpt lat="46.45851" lon="6.28503"><ele></ele><time>2017-9-5T4:22:41Z</time></trkpt>
<trkpt lat="46.45854" lon="6.285"><ele></ele><time>2017-9-5T4:22:44Z</time></trkpt>
<trkpt lat="46.45855" lon="6.28498"><ele></ele><time>2017-9-5T4:22:47Z</time></trkpt>
<trkpt lat="46.45857" lon="6.28495"><ele></ele><time>2017-9-5T4:22:50Z</time></trkpt>
<trkpt lat="46.45858" lon="6.28493"><ele></ele><time>2017-9-5T4:22:53Z</time></trkpt>
<trkpt lat="46.4586" lon="6.28489"><ele></ele><time>2017-9-5T4:22:56Z</time></trkpt>
<trkpt lat="46.45863" lon="6.28485"><ele></ele><time>2017-9-5T4:22:59Z</time></trkpt>
<trkpt lat="46.45865" lon="6.28483"><ele></ele><time>2017-9-5T4:23:2Z</time></trkpt>
<trkpt lat="46.45868" lon="6.2848"><ele></ele><time>2017-9-5T4:23:5Z</time></trkpt>
<trkpt lat="46.45869" lon="6.28478"><ele></ele><time>2017-9-5T4:23:8Z</time></trkpt>
<trkpt lat="46.4587" lon="6.28476"><ele></ele><time>2017-9-5T4:23:11Z</time></trkpt>
<trkpt lat="46.45872" lon="6.28474"><ele></ele><time>2017-9-5T4:23:14Z</time></trkpt>
<trkpt lat="46.45875" lon="6.28471"><ele></ele><time>2017-9-5T4:23:17Z</time></trkpt>
<trkpt lat="46.45877" lon="6.28468"><ele></ele><time>2017-9-5T4:23:20Z</time></trkpt>
<trkpt lat="46.4588" lon="6.28466"><ele></ele><time>2017-9-5T4:23:23Z</time></trkpt>
<trkpt lat="46.45881" lon="6.28464"><ele></ele><time>2017-9-5T4:23:26Z</time></trkpt>
<trkpt lat="46.45882" lon="6.28462"><ele></ele><time>2017-9-5T4:23:29Z</time></trkpt>
<trkpt lat="46.45884" lon="6.28458"><ele></ele><time>2017-9-5T4:23:32Z</time></trkpt>
<trkpt lat="46.45887" lon="6.28454"><ele></ele><time>2017-9-5T4:23:35Z</time></trkpt>
<trkpt lat="46.4589" lon="6.28451"><ele></ele><time>2017-9-5T4:23:38Z</time></trkpt>
<trkpt lat="46.45891" lon="6.2845"><ele></ele><time>2017-9-5T4:23:41Z</time></trkpt>
<trkpt lat="46.45892" lon="6.28448"><ele></ele><time>2017-9-5T4:23:44Z</time></trkpt>
<trkpt lat="46.45894" lon="6.28445"><ele></ele><time>2017-9-5T4:23:47Z</time></trkpt>
<trkpt lat="46.45897" lon="6.28442"><ele></ele><time>2017-9-5T4:23:50Z</time></trkpt>
<trkpt lat="46.459" lon="6.28438"><ele></ele><time>2017-9-5T4:23:53Z</time></trkpt>
<trkpt lat="46.45902" lon="6.28435"><ele></ele><time>2017-9-5T4:23:56Z</time></trkpt>
<trkpt lat="46.45903" lon="6.28433"><ele></ele><time>2017-9-5T4:23:59Z</time></trkpt>
<trkpt lat="46.45904" lon="6.28427"><ele></ele><time>2017-9-5T4:24:2Z</time></trkpt>
<trkpt lat="46.45904" lon="6.28422"><ele></ele><time>2017-9-5T4:24:5Z</time></trkpt>
<trkpt lat="46.45904" lon="6.28416"><ele></ele><time>2017-9-5T4:24:8Z</time></trkpt>
<trkpt lat="46.45903" lon="6.28413"><ele></ele><time>2017-9-5T4:24:11Z</time></trkpt>
<trkpt lat="46.45902" lon="6.28412"><ele></ele><time>2017-9-5T4:24:14Z</time></trkpt>
<trkpt lat="46.45899" lon="6.28409"><ele></ele><time>2017-9-5T4:24:17Z</time></trkpt>
<trkpt lat="46.45899" lon="6.28407"><ele></ele><time>2017-9-5T4:24:20Z</time></trkpt>
<trkpt lat="46.45896" lon="6.28403"><ele></ele><time>2017-9-5T4:24:23Z</time></trkpt>
<trkpt lat="46.45896" lon="6.28402"><ele></ele><time>2017-9-5T4:24:26Z</time></trkpt>
<trkpt lat="46.45895" lon="6.284"><ele></ele><time>2017-9-5T4:24:29Z</time></trkpt>
<trkpt lat="46.45892" lon="6.28396"><ele></ele><time>2017-9-5T4:24:32Z</time></trkpt>
<trkpt lat="46.4589" lon="6.28391"><ele></ele><time>2017-9-5T4:24:35Z</time></trkpt>
<trkpt lat="46.45888" lon="6.28387"><ele></ele><time>2017-9-5T4:24:38Z</time></trkpt>
<trkpt lat="46.45886" lon="6.28386"><ele></ele><time>2017-9-5T4:24:41Z</time></trkpt>
<trkpt lat="46.45886" lon="6.28384"><ele></ele><time>2017-9-5T4:24:44Z</time></trkpt>
<trkpt lat="46.45883" lon="6.28378"><ele></ele><time>2017-9-5T4:24:47Z</time></trkpt>
<trkpt lat="46.45881" lon="6.28373"><ele></ele><time>2017-9-5T4:24:50Z</time></trkpt>
<trkpt lat="46.45878" lon="6.28368"><ele></ele><time>2017-9-5T4:24:53Z</time></trkpt>
<trkpt lat="46.45875" lon="6.28364"><ele></ele><time>2017-9-5T4:24:56Z</time></trkpt>
<trkpt lat="46.45873" lon="6.28361"><ele></ele><time>2017-9-5T4:24:59Z</time></trkpt>
<trkpt lat="46.4587" lon="6.28359"><ele></ele><time>2017-9-5T4:25:2Z</time></trkpt>
<trkpt lat="46.45868" lon="6.28357"><ele></ele><time>2017-9-5T4:25:5Z</time></trkpt>
<trkpt lat="46.45868" lon="6.28355"><ele></ele><time>2017-9-5T4:25:8Z</time></trkpt>
<trkpt lat="46.45867" lon="6.28353"><ele></ele><time>2017-9-5T4:25:11Z</time></trkpt>
<trkpt lat="46.45865" lon="6.28352"><ele></ele><time>2017-9-5T4:25:14Z</time></trkpt>
<trkpt lat="46.45862" lon="6.28349"><ele></ele><time>2017-9-5T4:25:17Z</time></trkpt>
<trkpt lat="46.4586" lon="6.28346"><ele></ele><time>2017-9-5T4:25:20Z</time></trkpt>
<trkpt lat="46.45856" lon="6.28344"><ele></ele><time>2017-9-5T4:25:23Z</time></trkpt>
<trkpt lat="46.45852" lon="6.28343"><ele></ele><time>2017-9-5T4:25:26Z</time></trkpt>
<trkpt lat="46.45849" lon="6.28342"><ele></ele><time>2017-9-5T4:25:29Z</time></trkpt>
<trkpt lat="46.45845" lon="6.28341"><ele></ele><time>2017-9-5T4:25:32Z</time></trkpt>
<trkpt lat="46.45842" lon="6.28342"><ele></ele><time>2017-9-5T4:25:35Z</time></trkpt>
<trkpt lat="46.45838" lon="6.28341"><ele></ele><time>2017-9-5T4:25:38Z</time></trkpt>
<trkpt lat="46.45837" lon="6.28341"><ele></ele><time>2017-9-5T4:25:41Z</time></trkpt>
<trkpt lat="46.45835" lon="6.28341"><ele></ele><time>2017-9-5T4:25:44Z</time></trkpt>
<trkpt lat="46.45832" lon="6.28342"><ele></ele><time>2017-9-5T4:25:47Z</time></trkpt>
<trkpt lat="46.45828" lon="6.28341"><ele></ele><time>2017-9-5T4:25:50Z</time></trkpt>
<trkpt lat="46.45826" lon="6.28341"><ele></ele><time>2017-9-5T4:25:53Z</time></trkpt>
<trkpt lat="46.45824" lon="6.28341"><ele></ele><time>2017-9-5T4:25:56Z</time></trkpt>
<trkpt lat="46.45821" lon="6.2834"><ele></ele><time>2017-9-5T4:25:59Z</time></trkpt>
<trkpt lat="46.45818" lon="6.28339"><ele></ele><time>2017-9-5T4:26:2Z</time></trkpt>
<trkpt lat="46.45814" lon="6.28338"><ele></ele><time>2017-9-5T4:26:5Z</time></trkpt>
<trkpt lat="46.45811" lon="6.28337"><ele></ele><time>2017-9-5T4:26:8Z</time></trkpt>
<trkpt lat="46.4581" lon="6.28337"><ele></ele><time>2017-9-5T4:26:11Z</time></trkpt>
<trkpt lat="46.45806" lon="6.28336"><ele></ele><time>2017-9-5T4:26:14Z</time></trkpt>
<trkpt lat="46.45804" lon="6.28336"><ele></ele><time>2017-9-5T4:26:17Z</time></trkpt>
<trkpt lat="46.45799" lon="6.28334"><ele></ele><time>2017-9-5T4:26:20Z</time></trkpt>
<trkpt lat="46.45795" lon="6.28333"><ele></ele><time>2017-9-5T4:26:23Z</time></trkpt>
<trkpt lat="46.45791" lon="6.28331"><ele></ele><time>2017-9-5T4:26:26Z</time></trkpt>
<trkpt lat="46.45787" lon="6.2833"><ele></ele><time>2017-9-5T4:26:29Z</time></trkpt>
<trkpt lat="46.45782" lon="6.28328"><ele></ele><time>2017-9-5T4:26:32Z</time></trkpt>
<trkpt lat="46.45777" lon="6.28325"><ele></ele><time>2017-9-5T4:26:35Z</time></trkpt>
<trkpt lat="46.45772" lon="6.28321"><ele></ele><time>2017-9-5T4:26:38Z</time></trkpt>
<trkpt lat="46.45768" lon="6.28318"><ele></ele><time>2017-9-5T4:26:41Z</time></trkpt>
<trkpt lat="46.45764" lon="6.28314"><ele></ele><time>2017-9-5T4:26:44Z</time></trkpt>
<trkpt lat="46.45762" lon="6.28312"><ele></ele><time>2017-9-5T4:26:47Z</time></trkpt>
<trkpt lat="46.4576" lon="6.2831"><ele></ele><time>2017-9-5T4:26:50Z</time></trkpt>
<trkpt lat="46.45756" lon="6.28306"><ele></ele><time>2017-9-5T4:26:53Z</time></trkpt>
<trkpt lat="46.45752" lon="6.28301"><ele></ele><time>2017-9-5T4:26:56Z</time></trkpt>
<trkpt lat="46.4575" lon="6.28294"><ele></ele><time>2017-9-5T4:26:59Z</time></trkpt>
<trkpt lat="46.45749" lon="6.28288"><ele></ele><time>2017-9-5T4:27:2Z</time></trkpt>
<trkpt lat="46.45749" lon="6.28282"><ele></ele><time>2017-9-5T4:27:5Z</time></trkpt>
<trkpt lat="46.45749" lon="6.28278"><ele></ele><time>2017-9-5T4:27:8Z</time></trkpt>
<trkpt lat="46.45749" lon="6.28275"><ele></ele><time>2017-9-5T4:27:11Z</time></trkpt>
<trkpt lat="46.4575" lon="6.28269"><ele></ele><time>2017-9-5T4:27:14Z</time></trkpt>
<trkpt lat="46.4575" lon="6.28263"><ele></ele><time>2017-9-5T4:27:17Z</time></trkpt>
<trkpt lat="46.45751" lon="6.28257"><ele></ele><time>2017-9-5T4:27:20Z</time></trkpt>
<trkpt lat="46.45751" lon="6.28251"><ele></ele><time>2017-9-5T4:27:23Z</time></trkpt>
<trkpt lat="46.45751" lon="6.28248"><ele></ele><time>2017-9-5T4:27:26Z</time></trkpt>
<trkpt lat="46.45751" lon="6.28246"><ele></ele><time>2017-9-5T4:27:29Z</time></trkpt>
<trkpt lat="46.45752" lon="6.2824"><ele></ele><time>2017-9-5T4:27:32Z</time></trkpt>
<trkpt lat="46.45752" lon="6.28234"><ele></ele><time>2017-9-5T4:27:35Z</time></trkpt>
<trkpt lat="46.45751" lon="6.28228"><ele></ele><time>2017-9-5T4:27:38Z</time></trkpt>
<trkpt lat="46.4575" lon="6.28221"><ele></ele><time>2017-9-5T4:27:41Z</time></trkpt>
<trkpt lat="46.4575" lon="6.28219"><ele></ele><time>2017-9-5T4:27:44Z</time></trkpt>
<trkpt lat="46.45749" lon="6.28216"><ele></ele><time>2017-9-5T4:27:47Z</time></trkpt>
<trkpt lat="46.45747" lon="6.28211"><ele></ele><time>2017-9-5T4:27:50Z</time></trkpt>
<trkpt lat="46.45745" lon="6.28205"><ele></ele><time>2017-9-5T4:27:53Z</time></trkpt>
<trkpt lat="46.45742" lon="6.28199"><ele></ele><time>2017-9-5T4:27:56Z</time></trkpt>
<trkpt lat="46.45739" lon="6.28194"><ele></ele><time>2017-9-5T4:27:59Z</time></trkpt>
<trkpt lat="46.45736" lon="6.2819"><ele></ele><time>2017-9-5T4:28:2Z</time></trkpt>
<trkpt lat="46.45733" lon="6.28185"><ele></ele><time>2017-9-5T4:28:5Z</time></trkpt>
<trkpt lat="46.45732" lon="6.28183"><ele></ele><time>2017-9-5T4:28:8Z</time></trkpt>
<trkpt lat="46.4573" lon="6.2818"><ele></ele><time>2017-9-5T4:28:11Z</time></trkpt>
<trkpt lat="46.45728" lon="6.28176"><ele></ele><time>2017-9-5T4:28:14Z</time></trkpt>
<trkpt lat="46.45726" lon="6.28172"><ele></ele><time>2017-9-5T4:28:17Z</time></trkpt>
<trkpt lat="46.45724" lon="6.28169"><ele></ele><time>2017-9-5T4:28:20Z</time></trkpt>
<trkpt lat="46.45721" lon="6.28165"><ele></ele><time>2017-9-5T4:28:23Z</time></trkpt>
<trkpt lat="46.45718" lon="6.28161"><ele></ele><time>2017-9-5T4:28:26Z</time></trkpt>
<trkpt lat="46.45716" lon="6.28156"><ele></ele><time>2017-9-5T4:28:29Z</time></trkpt>
<trkpt lat="46.45713" lon="6.28153"><ele></ele><time>2017-9-5T4:28:32Z</time></trkpt>
<trkpt lat="46.4571" lon="6.28149"><ele></ele><time>2017-9-5T4:28:35Z</time></trkpt>
<trkpt lat="46.45707" lon="6.28145"><ele></ele><time>2017-9-5T4:28:38Z</time></trkpt>
<trkpt lat="46.45705" lon="6.28144"><ele></ele><time>2017-9-5T4:28:41Z</time></trkpt>
<trkpt lat="46.45703" lon="6.28142"><ele></ele><time>2017-9-5T4:28:44Z</time></trkpt>
<trkpt lat="46.45698" lon="6.28139"><ele></ele><time>2017-9-5T4:28:47Z</time></trkpt>
<trkpt lat="46.45695" lon="6.28135"><ele></ele><time>2017-9-5T4:28:50Z</time></trkpt>
<trkpt lat="46.45693" lon="6.28135"><ele></ele><time>2017-9-5T4:28:53Z</time></trkpt>
<trkpt lat="46.45691" lon="6.28134"><ele></ele><time>2017-9-5T4:28:56Z</time></trkpt>
<trkpt lat="46.45688" lon="6.28132"><ele></ele><time>2017-9-5T4:28:59Z</time></trkpt>
<trkpt lat="46.45684" lon="6.2813"><ele></ele><time>2017-9-5T4:29:2Z</time></trkpt>
<trkpt lat="46.4568" lon="6.28129"><ele></ele><time>2017-9-5T4:29:5Z</time></trkpt>
<trkpt lat="46.45677" lon="6.28128"><ele></ele><time>2017-9-5T4:29:8Z</time></trkpt>
<trkpt lat="46.45673" lon="6.28127"><ele></ele><time>2017-9-5T4:29:11Z</time></trkpt>
<trkpt lat="46.4567" lon="6.28125"><ele></ele><time>2017-9-5T4:29:14Z</time></trkpt>
<trkpt lat="46.45666" lon="6.28124"><ele></ele><time>2017-9-5T4:29:17Z</time></trkpt>
<trkpt lat="46.45663" lon="6.28123"><ele></ele><time>2017-9-5T4:29:20Z</time></trkpt>
<trkpt lat="46.45659" lon="6.28121"><ele></ele><time>2017-9-5T4:29:23Z</time></trkpt>
<trkpt lat="46.45656" lon="6.28119"><ele></ele><time>2017-9-5T4:29:26Z</time></trkpt>
<trkpt lat="46.45652" lon="6.28118"><ele></ele><time>2017-9-5T4:29:29Z</time></trkpt>
<trkpt lat="46.45649" lon="6.28116"><ele></ele><time>2017-9-5T4:29:32Z</time></trkpt>
<trkpt lat="46.45645" lon="6.28114"><ele></ele><time>2017-9-5T4:29:35Z</time></trkpt>
<trkpt lat="46.45642" lon="6.28112"><ele></ele><time>2017-9-5T4:29:38Z</time></trkpt>
<trkpt lat="46.45639" lon="6.28109"><ele></ele><time>2017-9-5T4:29:41Z</time></trkpt>
<trkpt lat="46.45635" lon="6.28107"><ele></ele><time>2017-9-5T4:29:44Z</time></trkpt>
<trkpt lat="46.45632" lon="6.28105"><ele></ele><time>2017-9-5T4:29:47Z</time></trkpt>
<trkpt lat="46.45631" lon="6.28103"><ele></ele><time>2017-9-5T4:29:50Z</time></trkpt>
<trkpt lat="46.4563" lon="6.28101"><ele></ele><time>2017-9-5T4:29:53Z</time></trkpt>
<trkpt lat="46.45627" lon="6.28098"><ele></ele><time>2017-9-5T4:29:56Z</time></trkpt>
<trkpt lat="46.45626" lon="6.28094"><ele></ele><time>2017-9-5T4:29:59Z</time></trkpt>
<trkpt lat="46.45624" lon="6.28091"><ele></ele><time>2017-9-5T4:30:2Z</time></trkpt>
<trkpt lat="46.45623" lon="6.28089"><ele></ele><time>2017-9-5T4:30:5Z</time></trkpt>
<trkpt lat="46.45622" lon="6.28086"><ele></ele><time>2017-9-5T4:30:8Z</time></trkpt>
<trkpt lat="46.4562" lon="6.28082"><ele></ele><time>2017-9-5T4:30:11Z</time></trkpt>
<trkpt lat="46.45619" lon="6.28078"><ele></ele><time>2017-9-5T4:30:14Z</time></trkpt>
<trkpt lat="46.45617" lon="6.28074"><ele></ele><time>2017-9-5T4:30:17Z</time></trkpt>
<trkpt lat="46.45616" lon="6.28069"><ele></ele><time>2017-9-5T4:30:20Z</time></trkpt>
<trkpt lat="46.45615" lon="6.28065"><ele></ele><time>2017-9-5T4:30:23Z</time></trkpt>
<trkpt lat="46.45614" lon="6.2806"><ele></ele><time>2017-9-5T4:30:26Z</time></trkpt>
<trkpt lat="46.45613" lon="6.28055"><ele></ele><time>2017-9-5T4:30:29Z</time></trkpt>
<trkpt lat="46.45611" lon="6.2805"><ele></ele><time>2017-9-5T4:30:32Z</time></trkpt>
<trkpt lat="46.4561" lon="6.28045"><ele></ele><time>2017-9-5T4:30:35Z</time></trkpt>
<trkpt lat="46.45608" lon="6.28041"><ele></ele><time>2017-9-5T4:30:38Z</time></trkpt>
<trkpt lat="46.45607" lon="6.28036"><ele></ele><time>2017-9-5T4:30:41Z</time></trkpt>
<trkpt lat="46.45605" lon="6.28032"><ele></ele><time>2017-9-5T4:30:44Z</time></trkpt>
<trkpt lat="46.45604" lon="6.28029"><ele></ele><time>2017-9-5T4:30:47Z</time></trkpt>
<trkpt lat="46.45603" lon="6.28027"><ele></ele><time>2017-9-5T4:30:50Z</time></trkpt>
<trkpt lat="46.45601" lon="6.28023"><ele></ele><time>2017-9-5T4:30:53Z</time></trkpt>
<trkpt lat="46.456" lon="6.28018"><ele></ele><time>2017-9-5T4:30:56Z</time></trkpt>
<trkpt lat="46.45599" lon="6.28014"><ele></ele><time>2017-9-5T4:30:59Z</time></trkpt>
<trkpt lat="46.45598" lon="6.2801"><ele></ele><time>2017-9-5T4:31:2Z</time></trkpt>
<trkpt lat="46.45597" lon="6.28006"><ele></ele><time>2017-9-5T4:31:5Z</time></trkpt>
<trkpt lat="46.45595" lon="6.28001"><ele></ele><time>2017-9-5T4:31:8Z</time></trkpt>
<trkpt lat="46.45593" lon="6.27997"><ele></ele><time>2017-9-5T4:31:11Z</time></trkpt>
<trkpt lat="46.45592" lon="6.27994"><ele></ele><time>2017-9-5T4:31:14Z</time></trkpt>
<trkpt lat="46.45592" lon="6.27992"><ele></ele><time>2017-9-5T4:31:17Z</time></trkpt>
<trkpt lat="46.45591" lon="6.27987"><ele></ele><time>2017-9-5T4:31:20Z</time></trkpt>
<trkpt lat="46.4559" lon="6.27985"><ele></ele><time>2017-9-5T4:31:23Z</time></trkpt>
<trkpt lat="46.45589" lon="6.27983"><ele></ele><time>2017-9-5T4:31:26Z</time></trkpt>
<trkpt lat="46.45588" lon="6.27979"><ele></ele><time>2017-9-5T4:31:29Z</time></trkpt>
<trkpt lat="46.45587" lon="6.27974"><ele></ele><time>2017-9-5T4:31:32Z</time></trkpt>
<trkpt lat="46.45585" lon="6.27969"><ele></ele><time>2017-9-5T4:31:35Z</time></trkpt>
<trkpt lat="46.45583" lon="6.27964"><ele></ele><time>2017-9-5T4:31:38Z</time></trkpt>
<trkpt lat="46.45582" lon="6.27958"><ele></ele><time>2017-9-5T4:31:41Z</time></trkpt>
<trkpt lat="46.45581" lon="6.27953"><ele></ele><time>2017-9-5T4:31:44Z</time></trkpt>
<trkpt lat="46.4558" lon="6.27951"><ele></ele><time>2017-9-5T4:31:47Z</time></trkpt>
<trkpt lat="46.45579" lon="6.27949"><ele></ele><time>2017-9-5T4:31:50Z</time></trkpt>
<trkpt lat="46.45578" lon="6.27944"><ele></ele><time>2017-9-5T4:31:53Z</time></trkpt>
<trkpt lat="46.45577" lon="6.27939"><ele></ele><time>2017-9-5T4:31:56Z</time></trkpt>
<trkpt lat="46.45576" lon="6.27935"><ele></ele><time>2017-9-5T4:31:59Z</time></trkpt>
<trkpt lat="46.45576" lon="6.27933"><ele></ele><time>2017-9-5T4:32:2Z</time></trkpt>
<trkpt lat="46.45575" lon="6.2793"><ele></ele><time>2017-9-5T4:32:5Z</time></trkpt>
<trkpt lat="46.45574" lon="6.27926"><ele></ele><time>2017-9-5T4:32:8Z</time></trkpt>
<trkpt lat="46.45573" lon="6.27921"><ele></ele><time>2017-9-5T4:32:11Z</time></trkpt>
<trkpt lat="46.45572" lon="6.27916"><ele></ele><time>2017-9-5T4:32:14Z</time></trkpt>
<trkpt lat="46.45572" lon="6.27913"><ele></ele><time>2017-9-5T4:32:17Z</time></trkpt>
<trkpt lat="46.45571" lon="6.27911"><ele></ele><time>2017-9-5T4:32:20Z</time></trkpt>
<trkpt lat="46.4557" lon="6.27906"><ele></ele><time>2017-9-5T4:32:23Z</time></trkpt>
<trkpt lat="46.4557" lon="6.27901"><ele></ele><time>2017-9-5T4:32:26Z</time></trkpt>
<trkpt lat="46.45569" lon="6.27896"><ele></ele><time>2017-9-5T4:32:29Z</time></trkpt>
<trkpt lat="46.45568" lon="6.27892"><ele></ele><time>2017-9-5T4:32:32Z</time></trkpt>
<trkpt lat="46.45567" lon="6.27887"><ele></ele><time>2017-9-5T4:32:35Z</time></trkpt>
<trkpt lat="46.45568" lon="6.2788"><ele></ele><time>2017-9-5T4:32:38Z</time></trkpt>
<trkpt lat="46.45568" lon="6.27876"><ele></ele><time>2017-9-5T4:32:41Z</time></trkpt>
<trkpt lat="46.45567" lon="6.27872"><ele></ele><time>2017-9-5T4:32:44Z</time></trkpt>
<trkpt lat="46.45567" lon="6.27868"><ele></ele><time>2017-9-5T4:32:47Z</time></trkpt>
<trkpt lat="46.45567" lon="6.27864"><ele></ele><time>2017-9-5T4:32:50Z</time></trkpt>
<trkpt lat="46.45568" lon="6.27857"><ele></ele><time>2017-9-5T4:32:53Z</time></trkpt>
<trkpt lat="46.45569" lon="6.27851"><ele></ele><time>2017-9-5T4:32:56Z</time></trkpt>
<trkpt lat="46.4557" lon="6.27844"><ele></ele><time>2017-9-5T4:32:59Z</time></trkpt>
<trkpt lat="46.45572" lon="6.27838"><ele></ele><time>2017-9-5T4:33:2Z</time></trkpt>
<trkpt lat="46.45575" lon="6.27833"><ele></ele><time>2017-9-5T4:33:5Z</time></trkpt>
<trkpt lat="46.45578" lon="6.27828"><ele></ele><time>2017-9-5T4:33:8Z</time></trkpt>
<trkpt lat="46.45581" lon="6.27824"><ele></ele><time>2017-9-5T4:33:11Z</time></trkpt>
<trkpt lat="46.45585" lon="6.27824"><ele></ele><time>2017-9-5T4:33:14Z</time></trkpt>
<trkpt lat="46.45588" lon="6.27823"><ele></ele><time>2017-9-5T4:33:17Z</time></trkpt>
<trkpt lat="46.45591" lon="6.27825"><ele></ele><time>2017-9-5T4:33:20Z</time></trkpt>
<trkpt lat="46.45594" lon="6.27829"><ele></ele><time>2017-9-5T4:33:23Z</time></trkpt>
<trkpt lat="46.45596" lon="6.2783"><ele></ele><time>2017-9-5T4:33:26Z</time></trkpt>
<trkpt lat="46.45597" lon="6.27832"><ele></ele><time>2017-9-5T4:33:29Z</time></trkpt>
<trkpt lat="46.456" lon="6.27835"><ele></ele><time>2017-9-5T4:33:32Z</time></trkpt>
<trkpt lat="46.45602" lon="6.27839"><ele></ele><time>2017-9-5T4:33:35Z</time></trkpt>
<trkpt lat="46.45604" lon="6.27844"><ele></ele><time>2017-9-5T4:33:38Z</time></trkpt>
<trkpt lat="46.45606" lon="6.27847"><ele></ele><time>2017-9-5T4:33:41Z</time></trkpt>
<trkpt lat="46.45608" lon="6.2785"><ele></ele><time>2017-9-5T4:33:44Z</time></trkpt>
<trkpt lat="46.45609" lon="6.27853"><ele></ele><time>2017-9-5T4:33:47Z</time></trkpt>
<trkpt lat="46.4561" lon="6.27857"><ele></ele><time>2017-9-5T4:33:50Z</time></trkpt>
<trkpt lat="46.45611" lon="6.27861"><ele></ele><time>2017-9-5T4:33:53Z</time></trkpt>
<trkpt lat="46.45613" lon="6.27864"><ele></ele><time>2017-9-5T4:33:56Z</time></trkpt>
<trkpt lat="46.45614" lon="6.27868"><ele></ele><time>2017-9-5T4:33:59Z</time></trkpt>
<trkpt lat="46.45616" lon="6.27872"><ele></ele><time>2017-9-5T4:34:2Z</time></trkpt>
<trkpt lat="46.45617" lon="6.27876"><ele></ele><time>2017-9-5T4:34:5Z</time></trkpt>
<trkpt lat="46.45619" lon="6.2788"><ele></ele><time>2017-9-5T4:34:8Z</time></trkpt>
<trkpt lat="46.45622" lon="6.27883"><ele></ele><time>2017-9-5T4:34:11Z</time></trkpt>
<trkpt lat="46.45623" lon="6.27886"><ele></ele><time>2017-9-5T4:34:14Z</time></trkpt>
<trkpt lat="46.45624" lon="6.2789"><ele></ele><time>2017-9-5T4:34:17Z</time></trkpt>
<trkpt lat="46.45626" lon="6.27894"><ele></ele><time>2017-9-5T4:34:20Z</time></trkpt>
<trkpt lat="46.45627" lon="6.27898"><ele></ele><time>2017-9-5T4:34:23Z</time></trkpt>
<trkpt lat="46.45629" lon="6.27902"><ele></ele><time>2017-9-5T4:34:26Z</time></trkpt>
<trkpt lat="46.4563" lon="6.27906"><ele></ele><time>2017-9-5T4:34:29Z</time></trkpt>
<trkpt lat="46.45632" lon="6.2791"><ele></ele><time>2017-9-5T4:34:32Z</time></trkpt>
<trkpt lat="46.45633" lon="6.27913"><ele></ele><time>2017-9-5T4:34:35Z</time></trkpt>
<trkpt lat="46.45635" lon="6.27916"><ele></ele><time>2017-9-5T4:34:38Z</time></trkpt>
<trkpt lat="46.45637" lon="6.2792"><ele></ele><time>2017-9-5T4:34:41Z</time></trkpt>
<trkpt lat="46.45639" lon="6.27924"><ele></ele><time>2017-9-5T4:34:44Z</time></trkpt>
<trkpt lat="46.4564" lon="6.27925"><ele></ele><time>2017-9-5T4:34:47Z</time></trkpt>
<trkpt lat="46.4564" lon="6.27927"><ele></ele><time>2017-9-5T4:34:50Z</time></trkpt>
<trkpt lat="46.45641" lon="6.27931"><ele></ele><time>2017-9-5T4:34:53Z</time></trkpt>
<trkpt lat="46.45643" lon="6.27935"><ele></ele><time>2017-9-5T4:34:56Z</time></trkpt>
<trkpt lat="46.45645" lon="6.27939"><ele></ele><time>2017-9-5T4:34:59Z</time></trkpt>
<trkpt lat="46.45647" lon="6.27942"><ele></ele><time>2017-9-5T4:35:2Z</time></trkpt>
<trkpt lat="46.45648" lon="6.27944"><ele></ele><time>2017-9-5T4:35:5Z</time></trkpt>
<trkpt lat="46.45648" lon="6.27946"><ele></ele><time>2017-9-5T4:35:8Z</time></trkpt>
<trkpt lat="46.45649" lon="6.2795"><ele></ele><time>2017-9-5T4:35:11Z</time></trkpt>
<trkpt lat="46.45651" lon="6.27955"><ele></ele><time>2017-9-5T4:35:14Z</time></trkpt>
<trkpt lat="46.45653" lon="6.27959"><ele></ele><time>2017-9-5T4:35:17Z</time></trkpt>
<trkpt lat="46.45654" lon="6.27964"><ele></ele><time>2017-9-5T4:35:20Z</time></trkpt>
<trkpt lat="46.45657" lon="6.27968"><ele></ele><time>2017-9-5T4:35:23Z</time></trkpt>
<trkpt lat="46.45659" lon="6.27972"><ele></ele><time>2017-9-5T4:35:26Z</time></trkpt>
<trkpt lat="46.4566" lon="6.27977"><ele></ele><time>2017-9-5T4:35:29Z</time></trkpt>
<trkpt lat="46.45661" lon="6.27979"><ele></ele><time>2017-9-5T4:35:32Z</time></trkpt>
<trkpt lat="46.45662" lon="6.27981"><ele></ele><time>2017-9-5T4:35:35Z</time></trkpt>
<trkpt lat="46.45664" lon="6.27983"><ele></ele><time>2017-9-5T4:35:38Z</time></trkpt>
<trkpt lat="46.45664" lon="6.27985"><ele></ele><time>2017-9-5T4:35:41Z</time></trkpt>
<trkpt lat="46.45667" lon="6.27989"><ele></ele><time>2017-9-5T4:35:44Z</time></trkpt>
<trkpt lat="46.45668" lon="6.2799"><ele></ele><time>2017-9-5T4:35:47Z</time></trkpt>
<trkpt lat="46.45669" lon="6.27992"><ele></ele><time>2017-9-5T4:35:50Z</time></trkpt>
<trkpt lat="46.4567" lon="6.27996"><ele></ele><time>2017-9-5T4:35:53Z</time></trkpt>
<trkpt lat="46.45673" lon="6.27998"><ele></ele><time>2017-9-5T4:35:56Z</time></trkpt>
<trkpt lat="46.45675" lon="6.28"><ele></ele><time>2017-9-5T4:35:59Z</time></trkpt>
<trkpt lat="46.45678" lon="6.28003"><ele></ele><time>2017-9-5T4:36:2Z</time></trkpt>
<trkpt lat="46.4568" lon="6.28004"><ele></ele><time>2017-9-5T4:36:5Z</time></trkpt>
<trkpt lat="46.45683" lon="6.28006"><ele></ele><time>2017-9-5T4:36:8Z</time></trkpt>
<trkpt lat="46.45686" lon="6.28008"><ele></ele><time>2017-9-5T4:36:11Z</time></trkpt>
<trkpt lat="46.45689" lon="6.2801"><ele></ele><time>2017-9-5T4:36:14Z</time></trkpt>
<trkpt lat="46.45692" lon="6.28011"><ele></ele><time>2017-9-5T4:36:17Z</time></trkpt>
<trkpt lat="46.45696" lon="6.28012"><ele></ele><time>2017-9-5T4:36:20Z</time></trkpt>
<trkpt lat="46.45699" lon="6.28013"><ele></ele><time>2017-9-5T4:36:23Z</time></trkpt>
<trkpt lat="46.45702" lon="6.28015"><ele></ele><time>2017-9-5T4:36:26Z</time></trkpt>
<trkpt lat="46.45705" lon="6.28015"><ele></ele><time>2017-9-5T4:36:29Z</time></trkpt>
<trkpt lat="46.45708" lon="6.28015"><ele></ele><time>2017-9-5T4:36:32Z</time></trkpt>
<trkpt lat="46.45709" lon="6.28016"><ele></ele><time>2017-9-5T4:36:35Z</time></trkpt>
<trkpt lat="46.4571" lon="6.28016"><ele></ele><time>2017-9-5T4:36:38Z</time></trkpt>
<trkpt lat="46.45714" lon="6.28017"><ele></ele><time>2017-9-5T4:36:41Z</time></trkpt>
<trkpt lat="46.45717" lon="6.28018"><ele></ele><time>2017-9-5T4:36:44Z</time></trkpt>
<trkpt lat="46.4572" lon="6.28019"><ele></ele><time>2017-9-5T4:36:47Z</time></trkpt>
<trkpt lat="46.45723" lon="6.2802"><ele></ele><time>2017-9-5T4:36:50Z</time></trkpt>
<trkpt lat="46.45724" lon="6.28021"><ele></ele><time>2017-9-5T4:36:53Z</time></trkpt>
<trkpt lat="46.45726" lon="6.28021"><ele></ele><time>2017-9-5T4:36:56Z</time></trkpt>
<trkpt lat="46.45729" lon="6.28022"><ele></ele><time>2017-9-5T4:36:59Z</time></trkpt>
<trkpt lat="46.45732" lon="6.28023"><ele></ele><time>2017-9-5T4:37:2Z</time></trkpt>
<trkpt lat="46.45736" lon="6.28024"><ele></ele><time>2017-9-5T4:37:5Z</time></trkpt>
<trkpt lat="46.45739" lon="6.28025"><ele></ele><time>2017-9-5T4:37:8Z</time></trkpt>
<trkpt lat="46.4574" lon="6.28025"><ele></ele><time>2017-9-5T4:37:11Z</time></trkpt>
<trkpt lat="46.45742" lon="6.28026"><ele></ele><time>2017-9-5T4:37:14Z</time></trkpt>
<trkpt lat="46.45745" lon="6.28027"><ele></ele><time>2017-9-5T4:37:17Z</time></trkpt>
<trkpt lat="46.45749" lon="6.28028"><ele></ele><time>2017-9-5T4:37:20Z</time></trkpt>
<trkpt lat="46.45752" lon="6.2803"><ele></ele><time>2017-9-5T4:37:23Z</time></trkpt>
<trkpt lat="46.45755" lon="6.28031"><ele></ele><time>2017-9-5T4:37:26Z</time></trkpt>
<trkpt lat="46.45757" lon="6.28032"><ele></ele><time>2017-9-5T4:37:29Z</time></trkpt>
<trkpt lat="46.45758" lon="6.28033"><ele></ele><time>2017-9-5T4:37:32Z</time></trkpt>
<trkpt lat="46.45762" lon="6.28035"><ele></ele><time>2017-9-5T4:37:35Z</time></trkpt>
<trkpt lat="46.45765" lon="6.28039"><ele></ele><time>2017-9-5T4:37:38Z</time></trkpt>
<trkpt lat="46.45768" lon="6.28042"><ele></ele><time>2017-9-5T4:37:41Z</time></trkpt>
<trkpt lat="46.45771" lon="6.28045"><ele></ele><time>2017-9-5T4:37:44Z</time></trkpt>
<trkpt lat="46.45773" lon="6.28047"><ele></ele><time>2017-9-5T4:37:47Z</time></trkpt>
<trkpt lat="46.45774" lon="6.28048"><ele></ele><time>2017-9-5T4:37:50Z</time></trkpt>
<trkpt lat="46.45778" lon="6.28051"><ele></ele><time>2017-9-5T4:37:53Z</time></trkpt>
<trkpt lat="46.4578" lon="6.28054"><ele></ele><time>2017-9-5T4:37:56Z</time></trkpt>
<trkpt lat="46.45783" lon="6.28058"><ele></ele><time>2017-9-5T4:37:59Z</time></trkpt>
<trkpt lat="46.45786" lon="6.28061"><ele></ele><time>2017-9-5T4:38:2Z</time></trkpt>
<trkpt lat="46.45788" lon="6.28065"><ele></ele><time>2017-9-5T4:38:5Z</time></trkpt>
<trkpt lat="46.45791" lon="6.28069"><ele></ele><time>2017-9-5T4:38:8Z</time></trkpt>
<trkpt lat="46.45793" lon="6.28073"><ele></ele><time>2017-9-5T4:38:11Z</time></trkpt>
<trkpt lat="46.45794" lon="6.28075"><ele></ele><time>2017-9-5T4:38:14Z</time></trkpt>
<trkpt lat="46.45795" lon="6.28077"><ele></ele><time>2017-9-5T4:38:17Z</time></trkpt>
<trkpt lat="46.45797" lon="6.28081"><ele></ele><time>2017-9-5T4:38:20Z</time></trkpt>
<trkpt lat="46.458" lon="6.28084"><ele></ele><time>2017-9-5T4:38:23Z</time></trkpt>
<trkpt lat="46.45803" lon="6.28086"><ele></ele><time>2017-9-5T4:38:26Z</time></trkpt>
<trkpt lat="46.45806" lon="6.28087"><ele></ele><time>2017-9-5T4:38:29Z</time></trkpt>
<trkpt lat="46.45808" lon="6.28088"><ele></ele><time>2017-9-5T4:38:32Z</time></trkpt>
<trkpt lat="46.4581" lon="6.28087"><ele></ele><time>2017-9-5T4:38:35Z</time></trkpt>
<trkpt lat="46.45813" lon="6.28085"><ele></ele><time>2017-9-5T4:38:38Z</time></trkpt>
<trkpt lat="46.45816" lon="6.28082"><ele></ele><time>2017-9-5T4:38:41Z</time></trkpt>
<trkpt lat="46.45818" lon="6.28079"><ele></ele><time>2017-9-5T4:38:44Z</time></trkpt>
<trkpt lat="46.45819" lon="6.28077"><ele></ele><time>2017-9-5T4:38:47Z</time></trkpt>
<trkpt lat="46.4582" lon="6.28075"><ele></ele><time>2017-9-5T4:38:50Z</time></trkpt>
<trkpt lat="46.4582" lon="6.2807"><ele></ele><time>2017-9-5T4:38:53Z</time></trkpt>
<trkpt lat="46.4582" lon="6.28065"><ele></ele><time>2017-9-5T4:38:56Z</time></trkpt>
<trkpt lat="46.45819" lon="6.28061"><ele></ele><time>2017-9-5T4:38:59Z</time></trkpt>
<trkpt lat="46.45818" lon="6.28056"><ele></ele><time>2017-9-5T4:39:2Z</time></trkpt>
<trkpt lat="46.45817" lon="6.28054"><ele></ele><time>2017-9-5T4:39:5Z</time></trkpt>
<trkpt lat="46.45816" lon="6.28051"><ele></ele><time>2017-9-5T4:39:8Z</time></trkpt>
<trkpt lat="46.45813" lon="6.28047"><ele></ele><time>2017-9-5T4:39:11Z</time></trkpt>
<trkpt lat="46.45811" lon="6.28042"><ele></ele><time>2017-9-5T4:39:14Z</time></trkpt>
<trkpt lat="46.45808" lon="6.28038"><ele></ele><time>2017-9-5T4:39:17Z</time></trkpt>
<trkpt lat="46.45806" lon="6.28033"><ele></ele><time>2017-9-5T4:39:20Z</time></trkpt>
<trkpt lat="46.45804" lon="6.28031"><ele></ele><time>2017-9-5T4:39:23Z</time></trkpt>
<trkpt lat="46.458" lon="6.28024"><ele></ele><time>2017-9-5T4:39:26Z</time></trkpt>
<trkpt lat="46.45797" lon="6.28018"><ele></ele><time>2017-9-5T4:39:29Z</time></trkpt>
<trkpt lat="46.45794" lon="6.28013"><ele></ele><time>2017-9-5T4:39:32Z</time></trkpt>
<trkpt lat="46.45792" lon="6.28007"><ele></ele><time>2017-9-5T4:39:35Z</time></trkpt>
<trkpt lat="46.45791" lon="6.28004"><ele></ele><time>2017-9-5T4:39:38Z</time></trkpt>
<trkpt lat="46.4579" lon="6.28001"><ele></ele><time>2017-9-5T4:39:41Z</time></trkpt>
<trkpt lat="46.45789" lon="6.27994"><ele></ele><time>2017-9-5T4:39:44Z</time></trkpt>
<trkpt lat="46.45788" lon="6.27988"><ele></ele><time>2017-9-5T4:39:47Z</time></trkpt>
<trkpt lat="46.45788" lon="6.27981"><ele></ele><time>2017-9-5T4:39:50Z</time></trkpt>
<trkpt lat="46.45788" lon="6.27974"><ele></ele><time>2017-9-5T4:39:53Z</time></trkpt>
<trkpt lat="46.45789" lon="6.27967"><ele></ele><time>2017-9-5T4:39:56Z</time></trkpt>
<trkpt lat="46.45789" lon="6.2796"><ele></ele><time>2017-9-5T4:39:59Z</time></trkpt>
<trkpt lat="46.45789" lon="6.27954"><ele></ele><time>2017-9-5T4:40:2Z</time></trkpt>
<trkpt lat="46.45788" lon="6.27948"><ele></ele><time>2017-9-5T4:40:5Z</time></trkpt>
<trkpt lat="46.45788" lon="6.27942"><ele></ele><time>2017-9-5T4:40:8Z</time></trkpt>
<trkpt lat="46.45789" lon="6.27939"><ele></ele><time>2017-9-5T4:40:11Z</time></trkpt>
<trkpt lat="46.45789" lon="6.27936"><ele></ele><time>2017-9-5T4:40:14Z</time></trkpt>
<trkpt lat="46.45789" lon="6.2793"><ele></ele><time>2017-9-5T4:40:17Z</time></trkpt>
<trkpt lat="46.45789" lon="6.27923"><ele></ele><time>2017-9-5T4:40:20Z</time></trkpt>
<trkpt lat="46.45789" lon="6.27916"><ele></ele><time>2017-9-5T4:40:23Z</time></trkpt>
<trkpt lat="46.4579" lon="6.27909"><ele></ele><time>2017-9-5T4:40:26Z</time></trkpt>
<trkpt lat="46.4579" lon="6.27902"><ele></ele><time>2017-9-5T4:40:29Z</time></trkpt>
<trkpt lat="46.4579" lon="6.27896"><ele></ele><time>2017-9-5T4:40:32Z</time></trkpt>
<trkpt lat="46.45791" lon="6.27889"><ele></ele><time>2017-9-5T4:40:35Z</time></trkpt>
<trkpt lat="46.45791" lon="6.27882"><ele></ele><time>2017-9-5T4:40:38Z</time></trkpt>
<trkpt lat="46.45792" lon="6.27876"><ele></ele><time>2017-9-5T4:40:41Z</time></trkpt>
<trkpt lat="46.45792" lon="6.27869"><ele></ele><time>2017-9-5T4:40:44Z</time></trkpt>
<trkpt lat="46.45792" lon="6.27862"><ele></ele><time>2017-9-5T4:40:47Z</time></trkpt>
<trkpt lat="46.45793" lon="6.27855"><ele></ele><time>2017-9-5T4:40:50Z</time></trkpt>
<trkpt lat="46.45793" lon="6.27852"><ele></ele><time>2017-9-5T4:40:53Z</time></trkpt>
<trkpt lat="46.45792" lon="6.27848"><ele></ele><time>2017-9-5T4:40:56Z</time></trkpt>
<trkpt lat="46.45793" lon="6.27841"><ele></ele><time>2017-9-5T4:40:59Z</time></trkpt>
<trkpt lat="46.45793" lon="6.27835"><ele></ele><time>2017-9-5T4:41:2Z</time></trkpt>
<trkpt lat="46.45793" lon="6.27828"><ele></ele><time>2017-9-5T4:41:5Z</time></trkpt>
<trkpt lat="46.45793" lon="6.27824"><ele></ele><time>2017-9-5T4:41:8Z</time></trkpt>
<trkpt lat="46.45794" lon="6.27821"><ele></ele><time>2017-9-5T4:41:11Z</time></trkpt>
<trkpt lat="46.45794" lon="6.27814"><ele></ele><time>2017-9-5T4:41:14Z</time></trkpt>
<trkpt lat="46.45794" lon="6.27805"><ele></ele><time>2017-9-5T4:41:17Z</time></trkpt>
<trkpt lat="46.45795" lon="6.27797"><ele></ele><time>2017-9-5T4:41:20Z</time></trkpt>
<trkpt lat="46.45795" lon="6.27789"><ele></ele><time>2017-9-5T4:41:23Z</time></trkpt>
<trkpt lat="46.45795" lon="6.27782"><ele></ele><time>2017-9-5T4:41:26Z</time></trkpt>
<trkpt lat="46.45795" lon="6.27778"><ele></ele><time>2017-9-5T4:41:29Z</time></trkpt>
<trkpt lat="46.45795" lon="6.27774"><ele></ele><time>2017-9-5T4:41:32Z</time></trkpt>
<trkpt lat="46.45795" lon="6.27767"><ele></ele><time>2017-9-5T4:41:35Z</time></trkpt>
<trkpt lat="46.45795" lon="6.27759"><ele></ele><time>2017-9-5T4:41:38Z</time></trkpt>
<trkpt lat="46.45795" lon="6.27756"><ele></ele><time>2017-9-5T4:41:41Z</time></trkpt>
<trkpt lat="46.45795" lon="6.27745"><ele></ele><time>2017-9-5T4:41:44Z</time></trkpt>
<trkpt lat="46.45795" lon="6.27738"><ele></ele><time>2017-9-5T4:41:47Z</time></trkpt>
<trkpt lat="46.45795" lon="6.27735"><ele></ele><time>2017-9-5T4:41:50Z</time></trkpt>
<trkpt lat="46.45795" lon="6.27732"><ele></ele><time>2017-9-5T4:41:53Z</time></trkpt>
<trkpt lat="46.45795" lon="6.27727"><ele></ele><time>2017-9-5T4:41:56Z</time></trkpt>
<trkpt lat="46.45796" lon="6.27722"><ele></ele><time>2017-9-5T4:41:59Z</time></trkpt>
<trkpt lat="46.45797" lon="6.2772"><ele></ele><time>2017-9-5T4:42:2Z</time></trkpt>
<trkpt lat="46.45798" lon="6.27719"><ele></ele><time>2017-9-5T4:42:5Z</time></trkpt>
<trkpt lat="46.458" lon="6.27719"><ele></ele><time>2017-9-5T4:42:8Z</time></trkpt>
<trkpt lat="46.45803" lon="6.2772"><ele></ele><time>2017-9-5T4:42:11Z</time></trkpt>
<trkpt lat="46.45806" lon="6.27721"><ele></ele><time>2017-9-5T4:42:14Z</time></trkpt>
<trkpt lat="46.45807" lon="6.27722"><ele></ele><time>2017-9-5T4:42:17Z</time></trkpt>
<trkpt lat="46.45809" lon="6.27722"><ele></ele><time>2017-9-5T4:42:20Z</time></trkpt>
<trkpt lat="46.45812" lon="6.27724"><ele></ele><time>2017-9-5T4:42:23Z</time></trkpt>
<trkpt lat="46.45816" lon="6.27724"><ele></ele><time>2017-9-5T4:42:26Z</time></trkpt>
<trkpt lat="46.45819" lon="6.27725"><ele></ele><time>2017-9-5T4:42:29Z</time></trkpt>
<trkpt lat="46.45823" lon="6.27727"><ele></ele><time>2017-9-5T4:42:32Z</time></trkpt>
<trkpt lat="46.45825" lon="6.27728"><ele></ele><time>2017-9-5T4:42:35Z</time></trkpt>
<trkpt lat="46.45826" lon="6.27729"><ele></ele><time>2017-9-5T4:42:38Z</time></trkpt>
<trkpt lat="46.4583" lon="6.2773"><ele></ele><time>2017-9-5T4:42:41Z</time></trkpt>
<trkpt lat="46.45833" lon="6.27732"><ele></ele><time>2017-9-5T4:42:44Z</time></trkpt>
<trkpt lat="46.45836" lon="6.27735"><ele></ele><time>2017-9-5T4:42:47Z</time></trkpt>
<trkpt lat="46.45837" lon="6.27738"><ele></ele><time>2017-9-5T4:42:50Z</time></trkpt>
<trkpt lat="46.45837" lon="6.27741"><ele></ele><time>2017-9-5T4:42:53Z</time></trkpt>
<trkpt lat="46.45838" lon="6.27746"><ele></ele><time>2017-9-5T4:42:56Z</time></trkpt>
<trkpt lat="46.45839" lon="6.27752"><ele></ele><time>2017-9-5T4:42:59Z</time></trkpt>
<trkpt lat="46.45839" lon="6.27758"><ele></ele><time>2017-9-5T4:43:2Z</time></trkpt>
<trkpt lat="46.4584" lon="6.27764"><ele></ele><time>2017-9-5T4:43:5Z</time></trkpt>
<trkpt lat="46.4584" lon="6.2777"><ele></ele><time>2017-9-5T4:43:8Z</time></trkpt>
<trkpt lat="46.45841" lon="6.27775"><ele></ele><time>2017-9-5T4:43:11Z</time></trkpt>
<trkpt lat="46.45842" lon="6.27781"><ele></ele><time>2017-9-5T4:43:14Z</time></trkpt>
<trkpt lat="46.45843" lon="6.27786"><ele></ele><time>2017-9-5T4:43:17Z</time></trkpt>
<trkpt lat="46.45845" lon="6.27792"><ele></ele><time>2017-9-5T4:43:20Z</time></trkpt>
<trkpt lat="46.45847" lon="6.27798"><ele></ele><time>2017-9-5T4:43:23Z</time></trkpt>
<trkpt lat="46.45849" lon="6.27805"><ele></ele><time>2017-9-5T4:43:26Z</time></trkpt>
<trkpt lat="46.45851" lon="6.27812"><ele></ele><time>2017-9-5T4:43:29Z</time></trkpt>
<trkpt lat="46.45853" lon="6.2782"><ele></ele><time>2017-9-5T4:43:32Z</time></trkpt>
<trkpt lat="46.45855" lon="6.27829"><ele></ele><time>2017-9-5T4:43:35Z</time></trkpt>
<trkpt lat="46.45856" lon="6.27837"><ele></ele><time>2017-9-5T4:43:38Z</time></trkpt>
<trkpt lat="46.45857" lon="6.27846"><ele></ele><time>2017-9-5T4:43:41Z</time></trkpt>
<trkpt lat="46.45857" lon="6.27854"><ele></ele><time>2017-9-5T4:43:44Z</time></trkpt>
<trkpt lat="46.45859" lon="6.2786"><ele></ele><time>2017-9-5T4:43:47Z</time></trkpt>
<trkpt lat="46.4586" lon="6.27866"><ele></ele><time>2017-9-5T4:43:50Z</time></trkpt>
<trkpt lat="46.45862" lon="6.27871"><ele></ele><time>2017-9-5T4:43:53Z</time></trkpt>
<trkpt lat="46.45865" lon="6.27875"><ele></ele><time>2017-9-5T4:43:56Z</time></trkpt>
<trkpt lat="46.45866" lon="6.27879"><ele></ele><time>2017-9-5T4:43:59Z</time></trkpt>
<trkpt lat="46.45869" lon="6.27883"><ele></ele><time>2017-9-5T4:44:2Z</time></trkpt>
<trkpt lat="46.45871" lon="6.27887"><ele></ele><time>2017-9-5T4:44:5Z</time></trkpt>
<trkpt lat="46.45873" lon="6.2789"><ele></ele><time>2017-9-5T4:44:8Z</time></trkpt>
<trkpt lat="46.45876" lon="6.27894"><ele></ele><time>2017-9-5T4:44:11Z</time></trkpt>
<trkpt lat="46.45877" lon="6.27895"><ele></ele><time>2017-9-5T4:44:14Z</time></trkpt>
<trkpt lat="46.45879" lon="6.27897"><ele></ele><time>2017-9-5T4:44:17Z</time></trkpt>
<trkpt lat="46.45881" lon="6.279"><ele></ele><time>2017-9-5T4:44:20Z</time></trkpt>
<trkpt lat="46.45884" lon="6.27903"><ele></ele><time>2017-9-5T4:44:23Z</time></trkpt>
<trkpt lat="46.45887" lon="6.27906"><ele></ele><time>2017-9-5T4:44:26Z</time></trkpt>
<trkpt lat="46.4589" lon="6.27909"><ele></ele><time>2017-9-5T4:44:29Z</time></trkpt>
<trkpt lat="46.45892" lon="6.27912"><ele></ele><time>2017-9-5T4:44:32Z</time></trkpt>
<trkpt lat="46.45895" lon="6.27914"><ele></ele><time>2017-9-5T4:44:35Z</time></trkpt>
<trkpt lat="46.45898" lon="6.27917"><ele></ele><time>2017-9-5T4:44:38Z</time></trkpt>
<trkpt lat="46.459" lon="6.27921"><ele></ele><time>2017-9-5T4:44:41Z</time></trkpt>
<trkpt lat="46.45901" lon="6.27922"><ele></ele><time>2017-9-5T4:44:44Z</time></trkpt>
<trkpt lat="46.45903" lon="6.27924"><ele></ele><time>2017-9-5T4:44:47Z</time></trkpt>
<trkpt lat="46.45905" lon="6.27927"><ele></ele><time>2017-9-5T4:44:50Z</time></trkpt>
<trkpt lat="46.45908" lon="6.2793"><ele></ele><time>2017-9-5T4:44:53Z</time></trkpt>
<trkpt lat="46.45909" lon="6.27932"><ele></ele><time>2017-9-5T4:44:56Z</time></trkpt>
<trkpt lat="46.4591" lon="6.27933"><ele></ele><time>2017-9-5T4:44:59Z</time></trkpt>
<trkpt lat="46.45912" lon="6.27936"><ele></ele><time>2017-9-5T4:45:2Z</time></trkpt>
<trkpt lat="46.45913" lon="6.27939"><ele></ele><time>2017-9-5T4:45:5Z</time></trkpt>
<trkpt lat="46.45915" lon="6.2794"><ele></ele><time>2017-9-5T4:45:8Z</time></trkpt>
<trkpt lat="46.45916" lon="6.27941"><ele></ele><time>2017-9-5T4:45:11Z</time></trkpt>
<trkpt lat="46.45918" lon="6.27943"><ele></ele><time>2017-9-5T4:45:14Z</time></trkpt>
<trkpt lat="46.4592" lon="6.27946"><ele></ele><time>2017-9-5T4:45:17Z</time></trkpt>
<trkpt lat="46.45922" lon="6.2795"><ele></ele><time>2017-9-5T4:45:20Z</time></trkpt>
<trkpt lat="46.45924" lon="6.27954"><ele></ele><time>2017-9-5T4:45:23Z</time></trkpt>
<trkpt lat="46.45927" lon="6.27958"><ele></ele><time>2017-9-5T4:45:26Z</time></trkpt>
<trkpt lat="46.45929" lon="6.27961"><ele></ele><time>2017-9-5T4:45:29Z</time></trkpt>
<trkpt lat="46.4593" lon="6.27963"><ele></ele><time>2017-9-5T4:45:32Z</time></trkpt>
<trkpt lat="46.45932" lon="6.27964"><ele></ele><time>2017-9-5T4:45:35Z</time></trkpt>
<trkpt lat="46.45935" lon="6.27967"><ele></ele><time>2017-9-5T4:45:38Z</time></trkpt>
<trkpt lat="46.45937" lon="6.2797"><ele></ele><time>2017-9-5T4:45:41Z</time></trkpt>
<trkpt lat="46.45938" lon="6.27974"><ele></ele><time>2017-9-5T4:45:44Z</time></trkpt>
<trkpt lat="46.45939" lon="6.27977"><ele></ele><time>2017-9-5T4:45:47Z</time></trkpt>
<trkpt lat="46.4594" lon="6.27981"><ele></ele><time>2017-9-5T4:45:50Z</time></trkpt>
<trkpt lat="46.45941" lon="6.27985"><ele></ele><time>2017-9-5T4:45:53Z</time></trkpt>
<trkpt lat="46.45943" lon="6.27988"><ele></ele><time>2017-9-5T4:45:56Z</time></trkpt>
<trkpt lat="46.45944" lon="6.27992"><ele></ele><time>2017-9-5T4:45:59Z</time></trkpt>
<trkpt lat="46.45946" lon="6.27995"><ele></ele><time>2017-9-5T4:46:2Z</time></trkpt>
<trkpt lat="46.45949" lon="6.27998"><ele></ele><time>2017-9-5T4:46:5Z</time></trkpt>
<trkpt lat="46.4595" lon="6.28001"><ele></ele><time>2017-9-5T4:46:8Z</time></trkpt>
<trkpt lat="46.45952" lon="6.28005"><ele></ele><time>2017-9-5T4:46:11Z</time></trkpt>
<trkpt lat="46.45954" lon="6.28009"><ele></ele><time>2017-9-5T4:46:14Z</time></trkpt>
<trkpt lat="46.45955" lon="6.28011"><ele></ele><time>2017-9-5T4:46:17Z</time></trkpt>
<trkpt lat="46.45957" lon="6.28016"><ele></ele><time>2017-9-5T4:46:20Z</time></trkpt>
<trkpt lat="46.45958" lon="6.2802"><ele></ele><time>2017-9-5T4:46:23Z</time></trkpt>
<trkpt lat="46.45961" lon="6.28026"><ele></ele><time>2017-9-5T4:46:26Z</time></trkpt>
<trkpt lat="46.45963" lon="6.28029"><ele></ele><time>2017-9-5T4:46:29Z</time></trkpt>
<trkpt lat="46.45964" lon="6.28031"><ele></ele><time>2017-9-5T4:46:32Z</time></trkpt>
<trkpt lat="46.45966" lon="6.28035"><ele></ele><time>2017-9-5T4:46:35Z</time></trkpt>
<trkpt lat="46.45967" lon="6.28037"><ele></ele><time>2017-9-5T4:46:38Z</time></trkpt>
<trkpt lat="46.45969" lon="6.28041"><ele></ele><time>2017-9-5T4:46:41Z</time></trkpt>
<trkpt lat="46.45972" lon="6.28046"><ele></ele><time>2017-9-5T4:46:44Z</time></trkpt>
<trkpt lat="46.45973" lon="6.28049"><ele></ele><time>2017-9-5T4:46:47Z</time></trkpt>
<trkpt lat="46.45977" lon="6.28053"><ele></ele><time>2017-9-5T4:46:50Z</time></trkpt>
<trkpt lat="46.4598" lon="6.28055"><ele></ele><time>2017-9-5T4:46:53Z</time></trkpt>
<trkpt lat="46.45982" lon="6.28055"><ele></ele><time>2017-9-5T4:46:56Z</time></trkpt>
<trkpt lat="46.45984" lon="6.28054"><ele></ele><time>2017-9-5T4:46:59Z</time></trkpt>
<trkpt lat="46.45986" lon="6.28051"><ele></ele><time>2017-9-5T4:47:2Z</time></trkpt>
<trkpt lat="46.45988" lon="6.28048"><ele></ele><time>2017-9-5T4:47:5Z</time></trkpt>
<trkpt lat="46.45989" lon="6.28044"><ele></ele><time>2017-9-5T4:47:8Z</time></trkpt>
<trkpt lat="46.4599" lon="6.28042"><ele></ele><time>2017-9-5T4:47:11Z</time></trkpt>
<trkpt lat="46.4599" lon="6.28041"><ele></ele><time>2017-9-5T4:47:14Z</time></trkpt>
<trkpt lat="46.45991" lon="6.2804"><ele></ele><time>2017-9-5T4:47:17Z</time></trkpt>
<trkpt lat="46.4599" lon="6.28033"><ele></ele><time>2017-9-5T4:47:20Z</time></trkpt>
<trkpt lat="46.4599" lon="6.28031"><ele></ele><time>2017-9-5T4:47:23Z</time></trkpt>
<trkpt lat="46.4599" lon="6.2803"><ele></ele><time>2017-9-5T4:47:26Z</time></trkpt>
<trkpt lat="46.45989" lon="6.28022"><ele></ele><time>2017-9-5T4:47:29Z</time></trkpt>
<trkpt lat="46.4599" lon="6.28019"><ele></ele><time>2017-9-5T4:47:32Z</time></trkpt>
<trkpt lat="46.45989" lon="6.28016"><ele></ele><time>2017-9-5T4:47:35Z</time></trkpt>
<trkpt lat="46.45989" lon="6.28013"><ele></ele><time>2017-9-5T4:47:38Z</time></trkpt>
<trkpt lat="46.45987" lon="6.28007"><ele></ele><time>2017-9-5T4:47:41Z</time></trkpt>
<trkpt lat="46.45986" lon="6.27999"><ele></ele><time>2017-9-5T4:47:44Z</time></trkpt>
<trkpt lat="46.45985" lon="6.27994"><ele></ele><time>2017-9-5T4:47:47Z</time></trkpt>
<trkpt lat="46.45983" lon="6.27989"><ele></ele><time>2017-9-5T4:47:50Z</time></trkpt>
<trkpt lat="46.45983" lon="6.27989"><ele></ele><time>2017-9-5T4:47:53Z</time></trkpt>
<trkpt lat="46.45983" lon="6.27984"><ele></ele><time>2017-9-5T4:47:56Z</time></trkpt>
<trkpt lat="46.45983" lon="6.2798"><ele></ele><time>2017-9-5T4:47:59Z</time></trkpt>
<trkpt lat="46.45983" lon="6.27978"><ele></ele><time>2017-9-5T4:48:2Z</time></trkpt>
<trkpt lat="46.45983" lon="6.27978"><ele></ele><time>2017-9-5T4:48:5Z</time></trkpt>
<trkpt lat="46.45983" lon="6.2797"><ele></ele><time>2017-9-5T4:48:8Z</time></trkpt>
<trkpt lat="46.45983" lon="6.27966"><ele></ele><time>2017-9-5T4:48:11Z</time></trkpt>
<trkpt lat="46.45983" lon="6.27963"><ele></ele><time>2017-9-5T4:48:14Z</time></trkpt>
<trkpt lat="46.45984" lon="6.27956"><ele></ele><time>2017-9-5T4:48:17Z</time></trkpt>
<trkpt lat="46.45986" lon="6.27952"><ele></ele><time>2017-9-5T4:48:20Z</time></trkpt>
<trkpt lat="46.45988" lon="6.2795"><ele></ele><time>2017-9-5T4:48:23Z</time></trkpt>
<trkpt lat="46.45991" lon="6.27949"><ele></ele><time>2017-9-5T4:48:26Z</time></trkpt>
<trkpt lat="46.45993" lon="6.27949"><ele></ele><time>2017-9-5T4:48:29Z</time></trkpt>
<trkpt lat="46.45993" lon="6.27949"><ele></ele><time>2017-9-5T4:48:32Z</time></trkpt>
<trkpt lat="46.45998" lon="6.27951"><ele></ele><time>2017-9-5T4:48:35Z</time></trkpt>
<trkpt lat="46.45999" lon="6.27952"><ele></ele><time>2017-9-5T4:48:38Z</time></trkpt>
<trkpt lat="46.46003" lon="6.27952"><ele></ele><time>2017-9-5T4:48:41Z</time></trkpt>
<trkpt lat="46.46005" lon="6.27951"><ele></ele><time>2017-9-5T4:48:44Z</time></trkpt>
<trkpt lat="46.46007" lon="6.27949"><ele></ele><time>2017-9-5T4:48:47Z</time></trkpt>
<trkpt lat="46.46009" lon="6.27948"><ele></ele><time>2017-9-5T4:48:50Z</time></trkpt>
<trkpt lat="46.4601" lon="6.27946"><ele></ele><time>2017-9-5T4:48:53Z</time></trkpt>
<trkpt lat="46.46011" lon="6.27944"><ele></ele><time>2017-9-5T4:48:56Z</time></trkpt>
<trkpt lat="46.46011" lon="6.27942"><ele></ele><time>2017-9-5T4:48:59Z</time></trkpt>
<trkpt lat="46.46013" lon="6.27938"><ele></ele><time>2017-9-5T4:49:2Z</time></trkpt>
<trkpt lat="46.46013" lon="6.27936"><ele></ele><time>2017-9-5T4:49:5Z</time></trkpt>
<trkpt lat="46.46013" lon="6.27936"><ele></ele><time>2017-9-5T4:49:8Z</time></trkpt>
<trkpt lat="46.46014" lon="6.27931"><ele></ele><time>2017-9-5T4:49:11Z</time></trkpt>
<trkpt lat="46.46014" lon="6.27929"><ele></ele><time>2017-9-5T4:49:14Z</time></trkpt>
<trkpt lat="46.46015" lon="6.27925"><ele></ele><time>2017-9-5T4:49:17Z</time></trkpt>
<trkpt lat="46.46017" lon="6.27922"><ele></ele><time>2017-9-5T4:49:20Z</time></trkpt>
<trkpt lat="46.46017" lon="6.27922"><ele></ele><time>2017-9-5T4:49:23Z</time></trkpt>
<trkpt lat="46.46022" lon="6.27912"><ele></ele><time>2017-9-5T4:49:26Z</time></trkpt>
<trkpt lat="46.46023" lon="6.27908"><ele></ele><time>2017-9-5T4:49:29Z</time></trkpt>
<trkpt lat="46.46023" lon="6.27904"><ele></ele><time>2017-9-5T4:49:32Z</time></trkpt>
<trkpt lat="46.46023" lon="6.279"><ele></ele><time>2017-9-5T4:49:35Z</time></trkpt>
<trkpt lat="46.46023" lon="6.27898"><ele></ele><time>2017-9-5T4:49:38Z</time></trkpt>
<trkpt lat="46.46023" lon="6.27893"><ele></ele><time>2017-9-5T4:49:41Z</time></trkpt>
<trkpt lat="46.46023" lon="6.27891"><ele></ele><time>2017-9-5T4:49:44Z</time></trkpt>
<trkpt lat="46.46022" lon="6.27888"><ele></ele><time>2017-9-5T4:49:47Z</time></trkpt>
<trkpt lat="46.46022" lon="6.27881"><ele></ele><time>2017-9-5T4:49:50Z</time></trkpt>
<trkpt lat="46.46023" lon="6.27877"><ele></ele><time>2017-9-5T4:49:53Z</time></trkpt>
<trkpt lat="46.46023" lon="6.27874"><ele></ele><time>2017-9-5T4:49:56Z</time></trkpt>
<trkpt lat="46.46023" lon="6.27871"><ele></ele><time>2017-9-5T4:49:59Z</time></trkpt>
<trkpt lat="46.46024" lon="6.27866"><ele></ele><time>2017-9-5T4:50:2Z</time></trkpt>
<trkpt lat="46.46025" lon="6.27863"><ele></ele><time>2017-9-5T4:50:5Z</time></trkpt>
<trkpt lat="46.46025" lon="6.27863"><ele></ele><time>2017-9-5T4:50:8Z</time></trkpt>
<trkpt lat="46.46028" lon="6.27858"><ele></ele><time>2017-9-5T4:50:11Z</time></trkpt>
<trkpt lat="46.46029" lon="6.27857"><ele></ele><time>2017-9-5T4:50:14Z</time></trkpt>
<trkpt lat="46.46032" lon="6.27855"><ele></ele><time>2017-9-5T4:50:17Z</time></trkpt>
<trkpt lat="46.46034" lon="6.27854"><ele></ele><time>2017-9-5T4:50:20Z</time></trkpt>
<trkpt lat="46.46036" lon="6.27852"><ele></ele><time>2017-9-5T4:50:23Z</time></trkpt>
<trkpt lat="46.46037" lon="6.27852"><ele></ele><time>2017-9-5T4:50:26Z</time></trkpt>
<trkpt lat="46.4604" lon="6.27852"><ele></ele><time>2017-9-5T4:50:29Z</time></trkpt>
<trkpt lat="46.46042" lon="6.27851"><ele></ele><time>2017-9-5T4:50:32Z</time></trkpt>
<trkpt lat="46.46044" lon="6.27851"><ele></ele><time>2017-9-5T4:50:35Z</time></trkpt>
<trkpt lat="46.46045" lon="6.2785"><ele></ele><time>2017-9-5T4:50:38Z</time></trkpt>
<trkpt lat="46.46048" lon="6.27848"><ele></ele><time>2017-9-5T4:50:41Z</time></trkpt>
<trkpt lat="46.46049" lon="6.27845"><ele></ele><time>2017-9-5T4:50:44Z</time></trkpt>
<trkpt lat="46.46049" lon="6.27843"><ele></ele><time>2017-9-5T4:50:47Z</time></trkpt>
<trkpt lat="46.46054" lon="6.27826"><ele></ele><time>2017-9-5T4:50:50Z</time></trkpt>
<trkpt lat="46.46055" lon="6.27823"><ele></ele><time>2017-9-5T4:50:53Z</time></trkpt>
<trkpt lat="46.46058" lon="6.27817"><ele></ele><time>2017-9-5T4:50:56Z</time></trkpt>
<trkpt lat="46.46058" lon="6.27814"><ele></ele><time>2017-9-5T4:50:59Z</time></trkpt>
<trkpt lat="46.46059" lon="6.27812"><ele></ele><time>2017-9-5T4:51:2Z</time></trkpt>
<trkpt lat="46.46059" lon="6.2781"><ele></ele><time>2017-9-5T4:51:5Z</time></trkpt>
<trkpt lat="46.46062" lon="6.27797"><ele></ele><time>2017-9-5T4:51:8Z</time></trkpt>
<trkpt lat="46.46065" lon="6.2779"><ele></ele><time>2017-9-5T4:51:11Z</time></trkpt>
<trkpt lat="46.46066" lon="6.27788"><ele></ele><time>2017-9-5T4:51:14Z</time></trkpt>
<trkpt lat="46.46067" lon="6.27786"><ele></ele><time>2017-9-5T4:51:17Z</time></trkpt>
<trkpt lat="46.4607" lon="6.27781"><ele></ele><time>2017-9-5T4:51:20Z</time></trkpt>
<trkpt lat="46.46072" lon="6.27777"><ele></ele><time>2017-9-5T4:51:23Z</time></trkpt>
<trkpt lat="46.46073" lon="6.27775"><ele></ele><time>2017-9-5T4:51:26Z</time></trkpt>
<trkpt lat="46.46075" lon="6.27772"><ele></ele><time>2017-9-5T4:51:29Z</time></trkpt>
<trkpt lat="46.46077" lon="6.27768"><ele></ele><time>2017-9-5T4:51:32Z</time></trkpt>
<trkpt lat="46.4608" lon="6.27765"><ele></ele><time>2017-9-5T4:51:35Z</time></trkpt>
<trkpt lat="46.46082" lon="6.27762"><ele></ele><time>2017-9-5T4:51:38Z</time></trkpt>
<trkpt lat="46.46084" lon="6.27758"><ele></ele><time>2017-9-5T4:51:41Z</time></trkpt>
<trkpt lat="46.46085" lon="6.27753"><ele></ele><time>2017-9-5T4:51:44Z</time></trkpt>
<trkpt lat="46.46086" lon="6.27747"><ele></ele><time>2017-9-5T4:51:47Z</time></trkpt>
<trkpt lat="46.46087" lon="6.27742"><ele></ele><time>2017-9-5T4:51:50Z</time></trkpt>
<trkpt lat="46.46088" lon="6.27737"><ele></ele><time>2017-9-5T4:51:53Z</time></trkpt>
<trkpt lat="46.46089" lon="6.27734"><ele></ele><time>2017-9-5T4:51:56Z</time></trkpt>
<trkpt lat="46.46089" lon="6.27731"><ele></ele><time>2017-9-5T4:51:59Z</time></trkpt>
<trkpt lat="46.46091" lon="6.27726"><ele></ele><time>2017-9-5T4:52:2Z</time></trkpt>
<trkpt lat="46.46093" lon="6.27721"><ele></ele><time>2017-9-5T4:52:5Z</time></trkpt>
<trkpt lat="46.46094" lon="6.27719"><ele></ele><time>2017-9-5T4:52:8Z</time></trkpt>
<trkpt lat="46.46095" lon="6.27716"><ele></ele><time>2017-9-5T4:52:11Z</time></trkpt>
<trkpt lat="46.46096" lon="6.27711"><ele></ele><time>2017-9-5T4:52:14Z</time></trkpt>
<trkpt lat="46.46097" lon="6.27706"><ele></ele><time>2017-9-5T4:52:17Z</time></trkpt>
<trkpt lat="46.46098" lon="6.27704"><ele></ele><time>2017-9-5T4:52:20Z</time></trkpt>
<trkpt lat="46.46099" lon="6.27702"><ele></ele><time>2017-9-5T4:52:23Z</time></trkpt>
<trkpt lat="46.46101" lon="6.27698"><ele></ele><time>2017-9-5T4:52:26Z</time></trkpt>
<trkpt lat="46.46102" lon="6.27695"><ele></ele><time>2017-9-5T4:52:29Z</time></trkpt>
<trkpt lat="46.46103" lon="6.27693"><ele></ele><time>2017-9-5T4:52:32Z</time></trkpt>
<trkpt lat="46.46105" lon="6.27689"><ele></ele><time>2017-9-5T4:52:35Z</time></trkpt>
<trkpt lat="46.46107" lon="6.27683"><ele></ele><time>2017-9-5T4:52:38Z</time></trkpt>
<trkpt lat="46.46109" lon="6.27681"><ele></ele><time>2017-9-5T4:52:41Z</time></trkpt>
<trkpt lat="46.4611" lon="6.27678"><ele></ele><time>2017-9-5T4:52:44Z</time></trkpt>
<trkpt lat="46.46112" lon="6.27673"><ele></ele><time>2017-9-5T4:52:47Z</time></trkpt>
<trkpt lat="46.46114" lon="6.27668"><ele></ele><time>2017-9-5T4:52:50Z</time></trkpt>
<trkpt lat="46.46115" lon="6.27666"><ele></ele><time>2017-9-5T4:52:53Z</time></trkpt>
<trkpt lat="46.46116" lon="6.27658"><ele></ele><time>2017-9-5T4:52:56Z</time></trkpt>
<trkpt lat="46.46113" lon="6.27665"><ele></ele><time>2017-9-5T4:52:59Z</time></trkpt>
<trkpt lat="46.4611" lon="6.27673"><ele></ele><time>2017-9-5T4:53:2Z</time></trkpt>
<trkpt lat="46.46109" lon="6.27676"><ele></ele><time>2017-9-5T4:53:5Z</time></trkpt>
<trkpt lat="46.46107" lon="6.27683"><ele></ele><time>2017-9-5T4:53:8Z</time></trkpt>
<trkpt lat="46.46105" lon="6.27685"><ele></ele><time>2017-9-5T4:53:11Z</time></trkpt>
<trkpt lat="46.46105" lon="6.27686"><ele></ele><time>2017-9-5T4:53:14Z</time></trkpt>
<trkpt lat="46.46111" lon="6.27675"><ele></ele><time>2017-9-5T4:53:17Z</time></trkpt>
<trkpt lat="46.46111" lon="6.27673"><ele></ele><time>2017-9-5T4:53:20Z</time></trkpt>
<trkpt lat="46.46113" lon="6.2767"><ele></ele><time>2017-9-5T4:53:23Z</time></trkpt>
<trkpt lat="46.46114" lon="6.27668"><ele></ele><time>2017-9-5T4:53:26Z</time></trkpt>
<trkpt lat="46.46116" lon="6.27664"><ele></ele><time>2017-9-5T4:53:29Z</time></trkpt>
<trkpt lat="46.46118" lon="6.27661"><ele></ele><time>2017-9-5T4:53:32Z</time></trkpt>
<trkpt lat="46.46119" lon="6.2766"><ele></ele><time>2017-9-5T4:53:35Z</time></trkpt>
<trkpt lat="46.46121" lon="6.27659"><ele></ele><time>2017-9-5T4:53:38Z</time></trkpt>
<trkpt lat="46.46125" lon="6.27659"><ele></ele><time>2017-9-5T4:53:41Z</time></trkpt>
<trkpt lat="46.46129" lon="6.2766"><ele></ele><time>2017-9-5T4:53:44Z</time></trkpt>
<trkpt lat="46.46133" lon="6.2766"><ele></ele><time>2017-9-5T4:53:47Z</time></trkpt>
<trkpt lat="46.46135" lon="6.27661"><ele></ele><time>2017-9-5T4:53:50Z</time></trkpt>
<trkpt lat="46.46137" lon="6.27661"><ele></ele><time>2017-9-5T4:53:53Z</time></trkpt>
<trkpt lat="46.46141" lon="6.27661"><ele></ele><time>2017-9-5T4:53:56Z</time></trkpt>
<trkpt lat="46.46144" lon="6.27661"><ele></ele><time>2017-9-5T4:53:59Z</time></trkpt>
<trkpt lat="46.46148" lon="6.27662"><ele></ele><time>2017-9-5T4:54:2Z</time></trkpt>
<trkpt lat="46.46153" lon="6.27663"><ele></ele><time>2017-9-5T4:54:5Z</time></trkpt>
<trkpt lat="46.46156" lon="6.27663"><ele></ele><time>2017-9-5T4:54:8Z</time></trkpt>
<trkpt lat="46.4616" lon="6.27662"><ele></ele><time>2017-9-5T4:54:11Z</time></trkpt>
<trkpt lat="46.46164" lon="6.2766"><ele></ele><time>2017-9-5T4:54:14Z</time></trkpt>
<trkpt lat="46.46169" lon="6.27659"><ele></ele><time>2017-9-5T4:54:17Z</time></trkpt>
<trkpt lat="46.46174" lon="6.27657"><ele></ele><time>2017-9-5T4:54:20Z</time></trkpt>
<trkpt lat="46.46178" lon="6.27655"><ele></ele><time>2017-9-5T4:54:23Z</time></trkpt>
<trkpt lat="46.46181" lon="6.27653"><ele></ele><time>2017-9-5T4:54:26Z</time></trkpt>
<trkpt lat="46.46183" lon="6.27653"><ele></ele><time>2017-9-5T4:54:29Z</time></trkpt>
<trkpt lat="46.46184" lon="6.27652"><ele></ele><time>2017-9-5T4:54:32Z</time></trkpt>
<trkpt lat="46.46187" lon="6.2765"><ele></ele><time>2017-9-5T4:54:35Z</time></trkpt>
<trkpt lat="46.4619" lon="6.27648"><ele></ele><time>2017-9-5T4:54:38Z</time></trkpt>
<trkpt lat="46.46194" lon="6.27647"><ele></ele><time>2017-9-5T4:54:41Z</time></trkpt>
<trkpt lat="46.46198" lon="6.27645"><ele></ele><time>2017-9-5T4:54:44Z</time></trkpt>
<trkpt lat="46.46201" lon="6.27644"><ele></ele><time>2017-9-5T4:54:47Z</time></trkpt>
<trkpt lat="46.46204" lon="6.27642"><ele></ele><time>2017-9-5T4:54:50Z</time></trkpt>
<trkpt lat="46.46205" lon="6.2764"><ele></ele><time>2017-9-5T4:54:53Z</time></trkpt>
<trkpt lat="46.46207" lon="6.27638"><ele></ele><time>2017-9-5T4:54:56Z</time></trkpt>
<trkpt lat="46.46208" lon="6.27637"><ele></ele><time>2017-9-5T4:54:59Z</time></trkpt>
<trkpt lat="46.4621" lon="6.27635"><ele></ele><time>2017-9-5T4:55:2Z</time></trkpt>
<trkpt lat="46.46212" lon="6.27633"><ele></ele><time>2017-9-5T4:55:5Z</time></trkpt>
<trkpt lat="46.46215" lon="6.2763"><ele></ele><time>2017-9-5T4:55:8Z</time></trkpt>
<trkpt lat="46.46217" lon="6.27629"><ele></ele><time>2017-9-5T4:55:11Z</time></trkpt>
<trkpt lat="46.46218" lon="6.27628"><ele></ele><time>2017-9-5T4:55:14Z</time></trkpt>
<trkpt lat="46.46222" lon="6.27625"><ele></ele><time>2017-9-5T4:55:17Z</time></trkpt>
<trkpt lat="46.46225" lon="6.27623"><ele></ele><time>2017-9-5T4:55:20Z</time></trkpt>
<trkpt lat="46.46227" lon="6.27622"><ele></ele><time>2017-9-5T4:55:23Z</time></trkpt>
<trkpt lat="46.46227" lon="6.27622"><ele></ele><time>2017-9-5T4:55:26Z</time></trkpt>
<trkpt lat="46.46232" lon="6.2762"><ele></ele><time>2017-9-5T4:55:29Z</time></trkpt>
<trkpt lat="46.46234" lon="6.2762"><ele></ele><time>2017-9-5T4:55:32Z</time></trkpt>
<trkpt lat="46.46235" lon="6.27619"><ele></ele><time>2017-9-5T4:55:35Z</time></trkpt>
<trkpt lat="46.46237" lon="6.27619"><ele></ele><time>2017-9-5T4:55:38Z</time></trkpt>
<trkpt lat="46.4624" lon="6.27619"><ele></ele><time>2017-9-5T4:55:41Z</time></trkpt>
<trkpt lat="46.46243" lon="6.27618"><ele></ele><time>2017-9-5T4:55:44Z</time></trkpt>
<trkpt lat="46.46248" lon="6.27617"><ele></ele><time>2017-9-5T4:55:47Z</time></trkpt>
<trkpt lat="46.46252" lon="6.27616"><ele></ele><time>2017-9-5T4:55:50Z</time></trkpt>
<trkpt lat="46.46254" lon="6.27616"><ele></ele><time>2017-9-5T4:55:53Z</time></trkpt>
<trkpt lat="46.46255" lon="6.27615"><ele></ele><time>2017-9-5T4:55:56Z</time></trkpt>
<trkpt lat="46.46259" lon="6.27613"><ele></ele><time>2017-9-5T4:55:59Z</time></trkpt>
<trkpt lat="46.46263" lon="6.27611"><ele></ele><time>2017-9-5T4:56:2Z</time></trkpt>
<trkpt lat="46.46264" lon="6.2761"><ele></ele><time>2017-9-5T4:56:5Z</time></trkpt>
<trkpt lat="46.46266" lon="6.27609"><ele></ele><time>2017-9-5T4:56:8Z</time></trkpt>
<trkpt lat="46.46268" lon="6.27607"><ele></ele><time>2017-9-5T4:56:11Z</time></trkpt>
<trkpt lat="46.46271" lon="6.27606"><ele></ele><time>2017-9-5T4:56:14Z</time></trkpt>
<trkpt lat="46.46272" lon="6.27605"><ele></ele><time>2017-9-5T4:56:17Z</time></trkpt>
<trkpt lat="46.46276" lon="6.27603"><ele></ele><time>2017-9-5T4:56:20Z</time></trkpt>
<trkpt lat="46.46279" lon="6.27603"><ele></ele><time>2017-9-5T4:56:23Z</time></trkpt>
<trkpt lat="46.4628" lon="6.27602"><ele></ele><time>2017-9-5T4:56:26Z</time></trkpt>
<trkpt lat="46.46312" lon="6.27584"><ele></ele><time>2017-9-5T4:56:29Z</time></trkpt>
<trkpt lat="46.46313" lon="6.27582"><ele></ele><time>2017-9-5T4:56:32Z</time></trkpt>
<trkpt lat="46.46317" lon="6.27579"><ele></ele><time>2017-9-5T4:56:35Z</time></trkpt>
<trkpt lat="46.46321" lon="6.27576"><ele></ele><time>2017-9-5T4:56:38Z</time></trkpt>
<trkpt lat="46.46325" lon="6.27573"><ele></ele><time>2017-9-5T4:56:41Z</time></trkpt>
<trkpt lat="46.46329" lon="6.27569"><ele></ele><time>2017-9-5T4:56:44Z</time></trkpt>
<trkpt lat="46.46333" lon="6.27566"><ele></ele><time>2017-9-5T4:56:47Z</time></trkpt>
<trkpt lat="46.46336" lon="6.27563"><ele></ele><time>2017-9-5T4:56:50Z</time></trkpt>
<trkpt lat="46.46341" lon="6.27561"><ele></ele><time>2017-9-5T4:56:53Z</time></trkpt>
<trkpt lat="46.46343" lon="6.2756"><ele></ele><time>2017-9-5T4:56:56Z</time></trkpt>
<trkpt lat="46.46345" lon="6.27558"><ele></ele><time>2017-9-5T4:56:59Z</time></trkpt>
<trkpt lat="46.46351" lon="6.27557"><ele></ele><time>2017-9-5T4:57:2Z</time></trkpt>
<trkpt lat="46.46355" lon="6.27555"><ele></ele><time>2017-9-5T4:57:5Z</time></trkpt>
<trkpt lat="46.46359" lon="6.27555"><ele></ele><time>2017-9-5T4:57:8Z</time></trkpt>
<trkpt lat="46.46363" lon="6.27553"><ele></ele><time>2017-9-5T4:57:11Z</time></trkpt>
<trkpt lat="46.46368" lon="6.27552"><ele></ele><time>2017-9-5T4:57:14Z</time></trkpt>
<trkpt lat="46.46373" lon="6.27551"><ele></ele><time>2017-9-5T4:57:17Z</time></trkpt>
<trkpt lat="46.46378" lon="6.27551"><ele></ele><time>2017-9-5T4:57:20Z</time></trkpt>
<trkpt lat="46.46382" lon="6.2755"><ele></ele><time>2017-9-5T4:57:23Z</time></trkpt>
<trkpt lat="46.46384" lon="6.27551"><ele></ele><time>2017-9-5T4:57:26Z</time></trkpt>
<trkpt lat="46.46387" lon="6.27551"><ele></ele><time>2017-9-5T4:57:29Z</time></trkpt>
<trkpt lat="46.46392" lon="6.27552"><ele></ele><time>2017-9-5T4:57:32Z</time></trkpt>
<trkpt lat="46.46396" lon="6.27553"><ele></ele><time>2017-9-5T4:57:35Z</time></trkpt>
<trkpt lat="46.46401" lon="6.27554"><ele></ele><time>2017-9-5T4:57:38Z</time></trkpt>
<trkpt lat="46.46405" lon="6.27556"><ele></ele><time>2017-9-5T4:57:41Z</time></trkpt>
<trkpt lat="46.46409" lon="6.27557"><ele></ele><time>2017-9-5T4:57:44Z</time></trkpt>
<trkpt lat="46.46413" lon="6.27556"><ele></ele><time>2017-9-5T4:57:47Z</time></trkpt>
<trkpt lat="46.46417" lon="6.27554"><ele></ele><time>2017-9-5T4:57:50Z</time></trkpt>
<trkpt lat="46.46422" lon="6.27552"><ele></ele><time>2017-9-5T4:57:53Z</time></trkpt>
<trkpt lat="46.46426" lon="6.27548"><ele></ele><time>2017-9-5T4:57:56Z</time></trkpt>
<trkpt lat="46.46428" lon="6.27546"><ele></ele><time>2017-9-5T4:57:59Z</time></trkpt>
<trkpt lat="46.46429" lon="6.27545"><ele></ele><time>2017-9-5T4:58:2Z</time></trkpt>
<trkpt lat="46.46433" lon="6.27541"><ele></ele><time>2017-9-5T4:58:5Z</time></trkpt>
<trkpt lat="46.46438" lon="6.27537"><ele></ele><time>2017-9-5T4:58:8Z</time></trkpt>
<trkpt lat="46.46443" lon="6.27533"><ele></ele><time>2017-9-5T4:58:11Z</time></trkpt>
<trkpt lat="46.46448" lon="6.27527"><ele></ele><time>2017-9-5T4:58:14Z</time></trkpt>
<trkpt lat="46.46452" lon="6.27521"><ele></ele><time>2017-9-5T4:58:17Z</time></trkpt>
<trkpt lat="46.46458" lon="6.27514"><ele></ele><time>2017-9-5T4:58:20Z</time></trkpt>
<trkpt lat="46.46463" lon="6.27506"><ele></ele><time>2017-9-5T4:58:23Z</time></trkpt>
<trkpt lat="46.46468" lon="6.27497"><ele></ele><time>2017-9-5T4:58:26Z</time></trkpt>
<trkpt lat="46.46473" lon="6.27489"><ele></ele><time>2017-9-5T4:58:29Z</time></trkpt>
<trkpt lat="46.46478" lon="6.27481"><ele></ele><time>2017-9-5T4:58:32Z</time></trkpt>
<trkpt lat="46.46483" lon="6.27473"><ele></ele><time>2017-9-5T4:58:35Z</time></trkpt>
<trkpt lat="46.46489" lon="6.27467"><ele></ele><time>2017-9-5T4:58:38Z</time></trkpt>
<trkpt lat="46.46495" lon="6.27462"><ele></ele><time>2017-9-5T4:58:41Z</time></trkpt>
<trkpt lat="46.46501" lon="6.27459"><ele></ele><time>2017-9-5T4:58:44Z</time></trkpt>
<trkpt lat="46.46507" lon="6.27457"><ele></ele><time>2017-9-5T4:58:47Z</time></trkpt>
<trkpt lat="46.46513" lon="6.27455"><ele></ele><time>2017-9-5T4:58:50Z</time></trkpt>
<trkpt lat="46.4652" lon="6.27454"><ele></ele><time>2017-9-5T4:58:53Z</time></trkpt>
<trkpt lat="46.46528" lon="6.27455"><ele></ele><time>2017-9-5T4:58:56Z</time></trkpt>
<trkpt lat="46.46535" lon="6.27455"><ele></ele><time>2017-9-5T4:58:59Z</time></trkpt>
<trkpt lat="46.46543" lon="6.27455"><ele></ele><time>2017-9-5T4:59:2Z</time></trkpt>
<trkpt lat="46.46551" lon="6.27454"><ele></ele><time>2017-9-5T4:59:5Z</time></trkpt>
<trkpt lat="46.46558" lon="6.27454"><ele></ele><time>2017-9-5T4:59:8Z</time></trkpt>
<trkpt lat="46.46564" lon="6.27453"><ele></ele><time>2017-9-5T4:59:11Z</time></trkpt>
<trkpt lat="46.46571" lon="6.27451"><ele></ele><time>2017-9-5T4:59:14Z</time></trkpt>
<trkpt lat="46.46577" lon="6.27451"><ele></ele><time>2017-9-5T4:59:17Z</time></trkpt>
<trkpt lat="46.46582" lon="6.27451"><ele></ele><time>2017-9-5T4:59:20Z</time></trkpt>
<trkpt lat="46.46589" lon="6.27451"><ele></ele><time>2017-9-5T4:59:23Z</time></trkpt>
<trkpt lat="46.46592" lon="6.27451"><ele></ele><time>2017-9-5T4:59:26Z</time></trkpt>
<trkpt lat="46.46595" lon="6.27451"><ele></ele><time>2017-9-5T4:59:29Z</time></trkpt>
<trkpt lat="46.46602" lon="6.2745"><ele></ele><time>2017-9-5T4:59:32Z</time></trkpt>
<trkpt lat="46.46609" lon="6.27448"><ele></ele><time>2017-9-5T4:59:35Z</time></trkpt>
<trkpt lat="46.46616" lon="6.27447"><ele></ele><time>2017-9-5T4:59:38Z</time></trkpt>
<trkpt lat="46.46623" lon="6.27445"><ele></ele><time>2017-9-5T4:59:41Z</time></trkpt>
<trkpt lat="46.46628" lon="6.27444"><ele></ele><time>2017-9-5T4:59:44Z</time></trkpt>
<trkpt lat="46.46634" lon="6.27445"><ele></ele><time>2017-9-5T4:59:47Z</time></trkpt>
<trkpt lat="46.4664" lon="6.27444"><ele></ele><time>2017-9-5T4:59:50Z</time></trkpt>
<trkpt lat="46.46645" lon="6.27443"><ele></ele><time>2017-9-5T4:59:53Z</time></trkpt>
<trkpt lat="46.4665" lon="6.2744"><ele></ele><time>2017-9-5T4:59:56Z</time></trkpt>
<trkpt lat="46.46654" lon="6.27437"><ele></ele><time>2017-9-5T4:59:59Z</time></trkpt>
<trkpt lat="46.46661" lon="6.27433"><ele></ele><time>2017-9-5T5:0:2Z</time></trkpt>
<trkpt lat="46.46669" lon="6.27428"><ele></ele><time>2017-9-5T5:0:5Z</time></trkpt>
<trkpt lat="46.46673" lon="6.27425"><ele></ele><time>2017-9-5T5:0:8Z</time></trkpt>
<trkpt lat="46.46677" lon="6.2742"><ele></ele><time>2017-9-5T5:0:11Z</time></trkpt>
<trkpt lat="46.46683" lon="6.27408"><ele></ele><time>2017-9-5T5:0:14Z</time></trkpt>
<trkpt lat="46.46686" lon="6.27394"><ele></ele><time>2017-9-5T5:0:17Z</time></trkpt>
<trkpt lat="46.46688" lon="6.27388"><ele></ele><time>2017-9-5T5:0:20Z</time></trkpt>
<trkpt lat="46.46689" lon="6.27381"><ele></ele><time>2017-9-5T5:0:23Z</time></trkpt>
<trkpt lat="46.46692" lon="6.2737"><ele></ele><time>2017-9-5T5:0:26Z</time></trkpt>
<trkpt lat="46.46697" lon="6.27362"><ele></ele><time>2017-9-5T5:0:29Z</time></trkpt>
<trkpt lat="46.46699" lon="6.2736"><ele></ele><time>2017-9-5T5:0:32Z</time></trkpt>
<trkpt lat="46.46702" lon="6.27359"><ele></ele><time>2017-9-5T5:0:35Z</time></trkpt>
<trkpt lat="46.46708" lon="6.2736"><ele></ele><time>2017-9-5T5:0:38Z</time></trkpt>
<trkpt lat="46.46714" lon="6.27361"><ele></ele><time>2017-9-5T5:0:41Z</time></trkpt>
<trkpt lat="46.46721" lon="6.27362"><ele></ele><time>2017-9-5T5:0:44Z</time></trkpt>
<trkpt lat="46.46728" lon="6.27363"><ele></ele><time>2017-9-5T5:0:47Z</time></trkpt>
<trkpt lat="46.46735" lon="6.27365"><ele></ele><time>2017-9-5T5:0:50Z</time></trkpt>
<trkpt lat="46.46744" lon="6.27366"><ele></ele><time>2017-9-5T5:0:53Z</time></trkpt>
<trkpt lat="46.46752" lon="6.27368"><ele></ele><time>2017-9-5T5:0:56Z</time></trkpt>
<trkpt lat="46.4676" lon="6.2737"><ele></ele><time>2017-9-5T5:0:59Z</time></trkpt>
<trkpt lat="46.46767" lon="6.27372"><ele></ele><time>2017-9-5T5:1:2Z</time></trkpt>
<trkpt lat="46.46776" lon="6.27374"><ele></ele><time>2017-9-5T5:1:5Z</time></trkpt>
<trkpt lat="46.46783" lon="6.27376"><ele></ele><time>2017-9-5T5:1:8Z</time></trkpt>
<trkpt lat="46.46791" lon="6.27378"><ele></ele><time>2017-9-5T5:1:11Z</time></trkpt>
<trkpt lat="46.46799" lon="6.2738"><ele></ele><time>2017-9-5T5:1:14Z</time></trkpt>
<trkpt lat="46.46806" lon="6.27382"><ele></ele><time>2017-9-5T5:1:17Z</time></trkpt>
<trkpt lat="46.46813" lon="6.27385"><ele></ele><time>2017-9-5T5:1:20Z</time></trkpt>
<trkpt lat="46.46819" lon="6.27389"><ele></ele><time>2017-9-5T5:1:23Z</time></trkpt>
<trkpt lat="46.46824" lon="6.27393"><ele></ele><time>2017-9-5T5:1:26Z</time></trkpt>
<trkpt lat="46.4683" lon="6.27396"><ele></ele><time>2017-9-5T5:1:29Z</time></trkpt>
<trkpt lat="46.46834" lon="6.274"><ele></ele><time>2017-9-5T5:1:32Z</time></trkpt>
<trkpt lat="46.46835" lon="6.27401"><ele></ele><time>2017-9-5T5:1:35Z</time></trkpt>
<trkpt lat="46.46837" lon="6.27403"><ele></ele><time>2017-9-5T5:1:38Z</time></trkpt>
<trkpt lat="46.46841" lon="6.27406"><ele></ele><time>2017-9-5T5:1:41Z</time></trkpt>
<trkpt lat="46.46844" lon="6.2741"><ele></ele><time>2017-9-5T5:1:44Z</time></trkpt>
<trkpt lat="46.46849" lon="6.27413"><ele></ele><time>2017-9-5T5:1:47Z</time></trkpt>
<trkpt lat="46.46852" lon="6.27415"><ele></ele><time>2017-9-5T5:1:50Z</time></trkpt>
<trkpt lat="46.46854" lon="6.27417"><ele></ele><time>2017-9-5T5:1:53Z</time></trkpt>
<trkpt lat="46.46859" lon="6.27421"><ele></ele><time>2017-9-5T5:1:56Z</time></trkpt>
<trkpt lat="46.46863" lon="6.27424"><ele></ele><time>2017-9-5T5:1:59Z</time></trkpt>
<trkpt lat="46.46867" lon="6.27426"><ele></ele><time>2017-9-5T5:2:2Z</time></trkpt>
<trkpt lat="46.4687" lon="6.27429"><ele></ele><time>2017-9-5T5:2:5Z</time></trkpt>
<trkpt lat="46.46874" lon="6.27431"><ele></ele><time>2017-9-5T5:2:8Z</time></trkpt>
<trkpt lat="46.46878" lon="6.27435"><ele></ele><time>2017-9-5T5:2:11Z</time></trkpt>
<trkpt lat="46.46882" lon="6.27438"><ele></ele><time>2017-9-5T5:2:14Z</time></trkpt>
<trkpt lat="46.46886" lon="6.27441"><ele></ele><time>2017-9-5T5:2:17Z</time></trkpt>
<trkpt lat="46.46892" lon="6.27445"><ele></ele><time>2017-9-5T5:2:20Z</time></trkpt>
<trkpt lat="46.46897" lon="6.27448"><ele></ele><time>2017-9-5T5:2:23Z</time></trkpt>
<trkpt lat="46.469" lon="6.27451"><ele></ele><time>2017-9-5T5:2:26Z</time></trkpt>
<trkpt lat="46.46902" lon="6.27452"><ele></ele><time>2017-9-5T5:2:29Z</time></trkpt>
<trkpt lat="46.46906" lon="6.27455"><ele></ele><time>2017-9-5T5:2:32Z</time></trkpt>
<trkpt lat="46.4691" lon="6.27457"><ele></ele><time>2017-9-5T5:2:35Z</time></trkpt>
<trkpt lat="46.46913" lon="6.27459"><ele></ele><time>2017-9-5T5:2:38Z</time></trkpt>
<trkpt lat="46.46918" lon="6.27462"><ele></ele><time>2017-9-5T5:2:41Z</time></trkpt>
<trkpt lat="46.46923" lon="6.27466"><ele></ele><time>2017-9-5T5:2:44Z</time></trkpt>
<trkpt lat="46.46929" lon="6.2747"><ele></ele><time>2017-9-5T5:2:47Z</time></trkpt>
<trkpt lat="46.46936" lon="6.27475"><ele></ele><time>2017-9-5T5:2:50Z</time></trkpt>
<trkpt lat="46.46941" lon="6.27479"><ele></ele><time>2017-9-5T5:2:53Z</time></trkpt>
<trkpt lat="46.46948" lon="6.27483"><ele></ele><time>2017-9-5T5:2:56Z</time></trkpt>
<trkpt lat="46.46953" lon="6.27487"><ele></ele><time>2017-9-5T5:2:59Z</time></trkpt>
<trkpt lat="46.46958" lon="6.27491"><ele></ele><time>2017-9-5T5:3:2Z</time></trkpt>
<trkpt lat="46.46962" lon="6.27494"><ele></ele><time>2017-9-5T5:3:5Z</time></trkpt>
<trkpt lat="46.46965" lon="6.27497"><ele></ele><time>2017-9-5T5:3:8Z</time></trkpt>
<trkpt lat="46.46972" lon="6.27505"><ele></ele><time>2017-9-5T5:3:11Z</time></trkpt>
<trkpt lat="46.46977" lon="6.2751"><ele></ele><time>2017-9-5T5:3:14Z</time></trkpt>
<trkpt lat="46.46984" lon="6.27519"><ele></ele><time>2017-9-5T5:3:17Z</time></trkpt>
<trkpt lat="46.4699" lon="6.27529"><ele></ele><time>2017-9-5T5:3:20Z</time></trkpt>
<trkpt lat="46.46993" lon="6.27539"><ele></ele><time>2017-9-5T5:3:23Z</time></trkpt>
<trkpt lat="46.46997" lon="6.27548"><ele></ele><time>2017-9-5T5:3:26Z</time></trkpt>
<trkpt lat="46.46999" lon="6.27552"><ele></ele><time>2017-9-5T5:3:29Z</time></trkpt>
<trkpt lat="46.47" lon="6.27557"><ele></ele><time>2017-9-5T5:3:32Z</time></trkpt>
<trkpt lat="46.47003" lon="6.27565"><ele></ele><time>2017-9-5T5:3:35Z</time></trkpt>
<trkpt lat="46.47006" lon="6.27575"><ele></ele><time>2017-9-5T5:3:38Z</time></trkpt>
<trkpt lat="46.47007" lon="6.27579"><ele></ele><time>2017-9-5T5:3:41Z</time></trkpt>
<trkpt lat="46.47008" lon="6.27584"><ele></ele><time>2017-9-5T5:3:44Z</time></trkpt>
<trkpt lat="46.4701" lon="6.27593"><ele></ele><time>2017-9-5T5:3:47Z</time></trkpt>
<trkpt lat="46.47011" lon="6.27598"><ele></ele><time>2017-9-5T5:3:50Z</time></trkpt>
<trkpt lat="46.47011" lon="6.27602"><ele></ele><time>2017-9-5T5:3:53Z</time></trkpt>
<trkpt lat="46.47013" lon="6.2761"><ele></ele><time>2017-9-5T5:3:56Z</time></trkpt>
<trkpt lat="46.47014" lon="6.27618"><ele></ele><time>2017-9-5T5:3:59Z</time></trkpt>
<trkpt lat="46.47014" lon="6.27623"><ele></ele><time>2017-9-5T5:4:2Z</time></trkpt>
<trkpt lat="46.47014" lon="6.27626"><ele></ele><time>2017-9-5T5:4:5Z</time></trkpt>
<trkpt lat="46.47013" lon="6.27627"><ele></ele><time>2017-9-5T5:4:8Z</time></trkpt>
<trkpt lat="46.47017" lon="6.27646"><ele></ele><time>2017-9-5T5:4:11Z</time></trkpt>
<trkpt lat="46.47017" lon="6.2765"><ele></ele><time>2017-9-5T5:4:14Z</time></trkpt>
<trkpt lat="46.4702" lon="6.27658"><ele></ele><time>2017-9-5T5:4:17Z</time></trkpt>
<trkpt lat="46.47022" lon="6.27668"><ele></ele><time>2017-9-5T5:4:20Z</time></trkpt>
<trkpt lat="46.47024" lon="6.27679"><ele></ele><time>2017-9-5T5:4:23Z</time></trkpt>
<trkpt lat="46.47026" lon="6.27689"><ele></ele><time>2017-9-5T5:4:26Z</time></trkpt>
<trkpt lat="46.47028" lon="6.27699"><ele></ele><time>2017-9-5T5:4:29Z</time></trkpt>
<trkpt lat="46.47031" lon="6.27709"><ele></ele><time>2017-9-5T5:4:32Z</time></trkpt>
<trkpt lat="46.47033" lon="6.2772"><ele></ele><time>2017-9-5T5:4:35Z</time></trkpt>
<trkpt lat="46.47034" lon="6.2773"><ele></ele><time>2017-9-5T5:4:38Z</time></trkpt>
<trkpt lat="46.47035" lon="6.2774"><ele></ele><time>2017-9-5T5:4:41Z</time></trkpt>
<trkpt lat="46.47037" lon="6.2775"><ele></ele><time>2017-9-5T5:4:44Z</time></trkpt>
<trkpt lat="46.47039" lon="6.2776"><ele></ele><time>2017-9-5T5:4:47Z</time></trkpt>
<trkpt lat="46.47041" lon="6.2777"><ele></ele><time>2017-9-5T5:4:50Z</time></trkpt>
<trkpt lat="46.47042" lon="6.27781"><ele></ele><time>2017-9-5T5:4:53Z</time></trkpt>
<trkpt lat="46.47044" lon="6.27791"><ele></ele><time>2017-9-5T5:4:56Z</time></trkpt>
<trkpt lat="46.47046" lon="6.27802"><ele></ele><time>2017-9-5T5:4:59Z</time></trkpt>
<trkpt lat="46.47047" lon="6.27812"><ele></ele><time>2017-9-5T5:5:2Z</time></trkpt>
<trkpt lat="46.47048" lon="6.27817"><ele></ele><time>2017-9-5T5:5:5Z</time></trkpt>
<trkpt lat="46.47049" lon="6.27822"><ele></ele><time>2017-9-5T5:5:8Z</time></trkpt>
<trkpt lat="46.4705" lon="6.27833"><ele></ele><time>2017-9-5T5:5:11Z</time></trkpt>
<trkpt lat="46.47052" lon="6.27843"><ele></ele><time>2017-9-5T5:5:14Z</time></trkpt>
<trkpt lat="46.47054" lon="6.27854"><ele></ele><time>2017-9-5T5:5:17Z</time></trkpt>
<trkpt lat="46.47056" lon="6.27864"><ele></ele><time>2017-9-5T5:5:20Z</time></trkpt>
<trkpt lat="46.47058" lon="6.27876"><ele></ele><time>2017-9-5T5:5:23Z</time></trkpt>
<trkpt lat="46.4706" lon="6.27881"><ele></ele><time>2017-9-5T5:5:26Z</time></trkpt>
<trkpt lat="46.47061" lon="6.27887"><ele></ele><time>2017-9-5T5:5:29Z</time></trkpt>
<trkpt lat="46.47064" lon="6.27899"><ele></ele><time>2017-9-5T5:5:32Z</time></trkpt>
<trkpt lat="46.47066" lon="6.2791"><ele></ele><time>2017-9-5T5:5:35Z</time></trkpt>
<trkpt lat="46.47069" lon="6.27922"><ele></ele><time>2017-9-5T5:5:38Z</time></trkpt>
<trkpt lat="46.47071" lon="6.27934"><ele></ele><time>2017-9-5T5:5:41Z</time></trkpt>
<trkpt lat="46.47074" lon="6.27946"><ele></ele><time>2017-9-5T5:5:44Z</time></trkpt>
<trkpt lat="46.47076" lon="6.27957"><ele></ele><time>2017-9-5T5:5:47Z</time></trkpt>
<trkpt lat="46.47077" lon="6.27962"><ele></ele><time>2017-9-5T5:5:50Z</time></trkpt>
<trkpt lat="46.47078" lon="6.27968"><ele></ele><time>2017-9-5T5:5:53Z</time></trkpt>
<trkpt lat="46.4708" lon="6.27979"><ele></ele><time>2017-9-5T5:5:56Z</time></trkpt>
<trkpt lat="46.47083" lon="6.2799"><ele></ele><time>2017-9-5T5:5:59Z</time></trkpt>
<trkpt lat="46.47086" lon="6.28001"><ele></ele><time>2017-9-5T5:6:2Z</time></trkpt>
<trkpt lat="46.47089" lon="6.28013"><ele></ele><time>2017-9-5T5:6:5Z</time></trkpt>
<trkpt lat="46.47092" lon="6.28024"><ele></ele><time>2017-9-5T5:6:8Z</time></trkpt>
<trkpt lat="46.47094" lon="6.28035"><ele></ele><time>2017-9-5T5:6:11Z</time></trkpt>
<trkpt lat="46.47097" lon="6.28046"><ele></ele><time>2017-9-5T5:6:14Z</time></trkpt>
<trkpt lat="46.47099" lon="6.28057"><ele></ele><time>2017-9-5T5:6:17Z</time></trkpt>
<trkpt lat="46.47101" lon="6.28062"><ele></ele><time>2017-9-5T5:6:20Z</time></trkpt>
<trkpt lat="46.47102" lon="6.28068"><ele></ele><time>2017-9-5T5:6:23Z</time></trkpt>
<trkpt lat="46.47105" lon="6.28079"><ele></ele><time>2017-9-5T5:6:26Z</time></trkpt>
<trkpt lat="46.47109" lon="6.28089"><ele></ele><time>2017-9-5T5:6:29Z</time></trkpt>
<trkpt lat="46.47113" lon="6.28098"><ele></ele><time>2017-9-5T5:6:32Z</time></trkpt>
<trkpt lat="46.47117" lon="6.28107"><ele></ele><time>2017-9-5T5:6:35Z</time></trkpt>
<trkpt lat="46.47119" lon="6.28112"><ele></ele><time>2017-9-5T5:6:38Z</time></trkpt>
<trkpt lat="46.47121" lon="6.28117"><ele></ele><time>2017-9-5T5:6:41Z</time></trkpt>
<trkpt lat="46.47125" lon="6.28125"><ele></ele><time>2017-9-5T5:6:44Z</time></trkpt>
<trkpt lat="46.4713" lon="6.28132"><ele></ele><time>2017-9-5T5:6:47Z</time></trkpt>
<trkpt lat="46.47135" lon="6.28138"><ele></ele><time>2017-9-5T5:6:50Z</time></trkpt>
<trkpt lat="46.47141" lon="6.28144"><ele></ele><time>2017-9-5T5:6:53Z</time></trkpt>
<trkpt lat="46.47147" lon="6.2815"><ele></ele><time>2017-9-5T5:6:56Z</time></trkpt>
<trkpt lat="46.47153" lon="6.28156"><ele></ele><time>2017-9-5T5:6:59Z</time></trkpt>
<trkpt lat="46.47158" lon="6.28162"><ele></ele><time>2017-9-5T5:7:2Z</time></trkpt>
<trkpt lat="46.47164" lon="6.28167"><ele></ele><time>2017-9-5T5:7:5Z</time></trkpt>
<trkpt lat="46.47172" lon="6.28172"><ele></ele><time>2017-9-5T5:7:8Z</time></trkpt>
<trkpt lat="46.47179" lon="6.28175"><ele></ele><time>2017-9-5T5:7:11Z</time></trkpt>
<trkpt lat="46.47186" lon="6.28178"><ele></ele><time>2017-9-5T5:7:14Z</time></trkpt>
<trkpt lat="46.47194" lon="6.28178"><ele></ele><time>2017-9-5T5:7:17Z</time></trkpt>
<trkpt lat="46.47201" lon="6.28178"><ele></ele><time>2017-9-5T5:7:20Z</time></trkpt>
<trkpt lat="46.47204" lon="6.28178"><ele></ele><time>2017-9-5T5:7:23Z</time></trkpt>
<trkpt lat="46.47208" lon="6.28178"><ele></ele><time>2017-9-5T5:7:26Z</time></trkpt>
<trkpt lat="46.47215" lon="6.28176"><ele></ele><time>2017-9-5T5:7:29Z</time></trkpt>
<trkpt lat="46.47221" lon="6.28173"><ele></ele><time>2017-9-5T5:7:32Z</time></trkpt>
<trkpt lat="46.47227" lon="6.28172"><ele></ele><time>2017-9-5T5:7:35Z</time></trkpt>
<trkpt lat="46.47232" lon="6.28169"><ele></ele><time>2017-9-5T5:7:38Z</time></trkpt>
<trkpt lat="46.47238" lon="6.28167"><ele></ele><time>2017-9-5T5:7:41Z</time></trkpt>
<trkpt lat="46.47244" lon="6.28165"><ele></ele><time>2017-9-5T5:7:44Z</time></trkpt>
<trkpt lat="46.47249" lon="6.28163"><ele></ele><time>2017-9-5T5:7:47Z</time></trkpt>
<trkpt lat="46.47254" lon="6.28161"><ele></ele><time>2017-9-5T5:7:50Z</time></trkpt>
<trkpt lat="46.4726" lon="6.28159"><ele></ele><time>2017-9-5T5:7:53Z</time></trkpt>
<trkpt lat="46.47264" lon="6.28157"><ele></ele><time>2017-9-5T5:7:56Z</time></trkpt>
<trkpt lat="46.47268" lon="6.28156"><ele></ele><time>2017-9-5T5:7:59Z</time></trkpt>
<trkpt lat="46.47273" lon="6.28153"><ele></ele><time>2017-9-5T5:8:2Z</time></trkpt>
<trkpt lat="46.47279" lon="6.28151"><ele></ele><time>2017-9-5T5:8:5Z</time></trkpt>
<trkpt lat="46.47284" lon="6.28148"><ele></ele><time>2017-9-5T5:8:8Z</time></trkpt>
<trkpt lat="46.47288" lon="6.28147"><ele></ele><time>2017-9-5T5:8:11Z</time></trkpt>
<trkpt lat="46.47292" lon="6.28146"><ele></ele><time>2017-9-5T5:8:14Z</time></trkpt>
<trkpt lat="46.47297" lon="6.28144"><ele></ele><time>2017-9-5T5:8:17Z</time></trkpt>
<trkpt lat="46.47303" lon="6.2814"><ele></ele><time>2017-9-5T5:8:20Z</time></trkpt>
<trkpt lat="46.47308" lon="6.28138"><ele></ele><time>2017-9-5T5:8:23Z</time></trkpt>
<trkpt lat="46.47312" lon="6.28136"><ele></ele><time>2017-9-5T5:8:26Z</time></trkpt>
<trkpt lat="46.47316" lon="6.28133"><ele></ele><time>2017-9-5T5:8:29Z</time></trkpt>
<trkpt lat="46.47321" lon="6.2813"><ele></ele><time>2017-9-5T5:8:32Z</time></trkpt>
<trkpt lat="46.47326" lon="6.28128"><ele></ele><time>2017-9-5T5:8:35Z</time></trkpt>
<trkpt lat="46.4733" lon="6.28124"><ele></ele><time>2017-9-5T5:8:38Z</time></trkpt>
<trkpt lat="46.47334" lon="6.28121"><ele></ele><time>2017-9-5T5:8:41Z</time></trkpt>
<trkpt lat="46.47338" lon="6.2812"><ele></ele><time>2017-9-5T5:8:44Z</time></trkpt>
<trkpt lat="46.47342" lon="6.28118"><ele></ele><time>2017-9-5T5:8:47Z</time></trkpt>
<trkpt lat="46.47347" lon="6.28115"><ele></ele><time>2017-9-5T5:8:50Z</time></trkpt>
<trkpt lat="46.47351" lon="6.28112"><ele></ele><time>2017-9-5T5:8:53Z</time></trkpt>
<trkpt lat="46.47356" lon="6.28109"><ele></ele><time>2017-9-5T5:8:56Z</time></trkpt>
<trkpt lat="46.47361" lon="6.28107"><ele></ele><time>2017-9-5T5:8:59Z</time></trkpt>
<trkpt lat="46.47365" lon="6.28104"><ele></ele><time>2017-9-5T5:9:2Z</time></trkpt>
<trkpt lat="46.47368" lon="6.28102"><ele></ele><time>2017-9-5T5:9:5Z</time></trkpt>
<trkpt lat="46.4737" lon="6.28101"><ele></ele><time>2017-9-5T5:9:8Z</time></trkpt>
<trkpt lat="46.47374" lon="6.28098"><ele></ele><time>2017-9-5T5:9:11Z</time></trkpt>
<trkpt lat="46.47377" lon="6.28095"><ele></ele><time>2017-9-5T5:9:14Z</time></trkpt>
<trkpt lat="46.47381" lon="6.28093"><ele></ele><time>2017-9-5T5:9:17Z</time></trkpt>
<trkpt lat="46.47385" lon="6.28091"><ele></ele><time>2017-9-5T5:9:20Z</time></trkpt>
<trkpt lat="46.47387" lon="6.28089"><ele></ele><time>2017-9-5T5:9:23Z</time></trkpt>
<trkpt lat="46.47394" lon="6.28085"><ele></ele><time>2017-9-5T5:9:26Z</time></trkpt>
<trkpt lat="46.47395" lon="6.28084"><ele></ele><time>2017-9-5T5:9:29Z</time></trkpt>
<trkpt lat="46.47397" lon="6.28083"><ele></ele><time>2017-9-5T5:9:32Z</time></trkpt>
<trkpt lat="46.47401" lon="6.28081"><ele></ele><time>2017-9-5T5:9:35Z</time></trkpt>
<trkpt lat="46.47405" lon="6.28078"><ele></ele><time>2017-9-5T5:9:38Z</time></trkpt>
<trkpt lat="46.47408" lon="6.28076"><ele></ele><time>2017-9-5T5:9:41Z</time></trkpt>
<trkpt lat="46.47412" lon="6.28073"><ele></ele><time>2017-9-5T5:9:44Z</time></trkpt>
<trkpt lat="46.47416" lon="6.28069"><ele></ele><time>2017-9-5T5:9:47Z</time></trkpt>
<trkpt lat="46.47421" lon="6.28066"><ele></ele><time>2017-9-5T5:9:50Z</time></trkpt>
<trkpt lat="46.47425" lon="6.28063"><ele></ele><time>2017-9-5T5:9:53Z</time></trkpt>
<trkpt lat="46.47427" lon="6.28062"><ele></ele><time>2017-9-5T5:9:56Z</time></trkpt>
<trkpt lat="46.47429" lon="6.2806"><ele></ele><time>2017-9-5T5:9:59Z</time></trkpt>
<trkpt lat="46.47433" lon="6.28057"><ele></ele><time>2017-9-5T5:10:2Z</time></trkpt>
<trkpt lat="46.47437" lon="6.28054"><ele></ele><time>2017-9-5T5:10:5Z</time></trkpt>
<trkpt lat="46.47441" lon="6.2805"><ele></ele><time>2017-9-5T5:10:8Z</time></trkpt>
<trkpt lat="46.47445" lon="6.28047"><ele></ele><time>2017-9-5T5:10:11Z</time></trkpt>
<trkpt lat="46.4745" lon="6.28044"><ele></ele><time>2017-9-5T5:10:14Z</time></trkpt>
<trkpt lat="46.47456" lon="6.28042"><ele></ele><time>2017-9-5T5:10:17Z</time></trkpt>
<trkpt lat="46.47461" lon="6.28038"><ele></ele><time>2017-9-5T5:10:20Z</time></trkpt>
<trkpt lat="46.47463" lon="6.28036"><ele></ele><time>2017-9-5T5:10:23Z</time></trkpt>
<trkpt lat="46.47465" lon="6.28034"><ele></ele><time>2017-9-5T5:10:26Z</time></trkpt>
<trkpt lat="46.47469" lon="6.28029"><ele></ele><time>2017-9-5T5:10:29Z</time></trkpt>
<trkpt lat="46.47471" lon="6.28027"><ele></ele><time>2017-9-5T5:10:32Z</time></trkpt>
<trkpt lat="46.47472" lon="6.28025"><ele></ele><time>2017-9-5T5:10:35Z</time></trkpt>
<trkpt lat="46.47474" lon="6.28021"><ele></ele><time>2017-9-5T5:10:38Z</time></trkpt>
<trkpt lat="46.47477" lon="6.28017"><ele></ele><time>2017-9-5T5:10:41Z</time></trkpt>
<trkpt lat="46.47479" lon="6.28012"><ele></ele><time>2017-9-5T5:10:44Z</time></trkpt>
<trkpt lat="46.47481" lon="6.28009"><ele></ele><time>2017-9-5T5:10:47Z</time></trkpt>
<trkpt lat="46.47483" lon="6.28005"><ele></ele><time>2017-9-5T5:10:50Z</time></trkpt>
<trkpt lat="46.47485" lon="6.28001"><ele></ele><time>2017-9-5T5:10:53Z</time></trkpt>
<trkpt lat="46.47487" lon="6.27998"><ele></ele><time>2017-9-5T5:10:56Z</time></trkpt>
<trkpt lat="46.47489" lon="6.27994"><ele></ele><time>2017-9-5T5:10:59Z</time></trkpt>
<trkpt lat="46.47492" lon="6.2799"><ele></ele><time>2017-9-5T5:11:2Z</time></trkpt>
<trkpt lat="46.47494" lon="6.27986"><ele></ele><time>2017-9-5T5:11:5Z</time></trkpt>
<trkpt lat="46.47496" lon="6.27982"><ele></ele><time>2017-9-5T5:11:8Z</time></trkpt>
<trkpt lat="46.47498" lon="6.27978"><ele></ele><time>2017-9-5T5:11:11Z</time></trkpt>
<trkpt lat="46.47501" lon="6.27974"><ele></ele><time>2017-9-5T5:11:14Z</time></trkpt>
<trkpt lat="46.47503" lon="6.2797"><ele></ele><time>2017-9-5T5:11:17Z</time></trkpt>
<trkpt lat="46.47506" lon="6.27966"><ele></ele><time>2017-9-5T5:11:20Z</time></trkpt>
<trkpt lat="46.47508" lon="6.27962"><ele></ele><time>2017-9-5T5:11:23Z</time></trkpt>
<trkpt lat="46.47511" lon="6.27959"><ele></ele><time>2017-9-5T5:11:26Z</time></trkpt>
<trkpt lat="46.47514" lon="6.27955"><ele></ele><time>2017-9-5T5:11:29Z</time></trkpt>
<trkpt lat="46.47515" lon="6.27953"><ele></ele><time>2017-9-5T5:11:32Z</time></trkpt>
<trkpt lat="46.47517" lon="6.27951"><ele></ele><time>2017-9-5T5:11:35Z</time></trkpt>
<trkpt lat="46.4752" lon="6.27947"><ele></ele><time>2017-9-5T5:11:38Z</time></trkpt>
<trkpt lat="46.47521" lon="6.27945"><ele></ele><time>2017-9-5T5:11:41Z</time></trkpt>
<trkpt lat="46.47525" lon="6.27939"><ele></ele><time>2017-9-5T5:11:44Z</time></trkpt>
<trkpt lat="46.47527" lon="6.27935"><ele></ele><time>2017-9-5T5:11:47Z</time></trkpt>
<trkpt lat="46.47529" lon="6.27931"><ele></ele><time>2017-9-5T5:11:50Z</time></trkpt>
<trkpt lat="46.47531" lon="6.27926"><ele></ele><time>2017-9-5T5:11:53Z</time></trkpt>
<trkpt lat="46.47536" lon="6.27922"><ele></ele><time>2017-9-5T5:11:56Z</time></trkpt>
<trkpt lat="46.47541" lon="6.27915"><ele></ele><time>2017-9-5T5:11:59Z</time></trkpt>
<trkpt lat="46.47545" lon="6.27907"><ele></ele><time>2017-9-5T5:12:2Z</time></trkpt>
<trkpt lat="46.47549" lon="6.279"><ele></ele><time>2017-9-5T5:12:5Z</time></trkpt>
<trkpt lat="46.47553" lon="6.27894"><ele></ele><time>2017-9-5T5:12:8Z</time></trkpt>
<trkpt lat="46.47558" lon="6.27888"><ele></ele><time>2017-9-5T5:12:11Z</time></trkpt>
<trkpt lat="46.47563" lon="6.27882"><ele></ele><time>2017-9-5T5:12:14Z</time></trkpt>
<trkpt lat="46.47568" lon="6.27876"><ele></ele><time>2017-9-5T5:12:17Z</time></trkpt>
<trkpt lat="46.47572" lon="6.2787"><ele></ele><time>2017-9-5T5:12:20Z</time></trkpt>
<trkpt lat="46.47578" lon="6.27862"><ele></ele><time>2017-9-5T5:12:23Z</time></trkpt>
<trkpt lat="46.47581" lon="6.27859"><ele></ele><time>2017-9-5T5:12:26Z</time></trkpt>
<trkpt lat="46.47584" lon="6.27856"><ele></ele><time>2017-9-5T5:12:29Z</time></trkpt>
<trkpt lat="46.47589" lon="6.27849"><ele></ele><time>2017-9-5T5:12:32Z</time></trkpt>
<trkpt lat="46.47594" lon="6.2784"><ele></ele><time>2017-9-5T5:12:35Z</time></trkpt>
<trkpt lat="46.47599" lon="6.27831"><ele></ele><time>2017-9-5T5:12:38Z</time></trkpt>
<trkpt lat="46.47605" lon="6.27823"><ele></ele><time>2017-9-5T5:12:41Z</time></trkpt>
<trkpt lat="46.47611" lon="6.27814"><ele></ele><time>2017-9-5T5:12:44Z</time></trkpt>
<trkpt lat="46.47616" lon="6.27805"><ele></ele><time>2017-9-5T5:12:47Z</time></trkpt>
<trkpt lat="46.47623" lon="6.27796"><ele></ele><time>2017-9-5T5:12:50Z</time></trkpt>
<trkpt lat="46.47628" lon="6.27786"><ele></ele><time>2017-9-5T5:12:53Z</time></trkpt>
<trkpt lat="46.47634" lon="6.27778"><ele></ele><time>2017-9-5T5:12:56Z</time></trkpt>
<trkpt lat="46.47641" lon="6.27769"><ele></ele><time>2017-9-5T5:12:59Z</time></trkpt>
<trkpt lat="46.47644" lon="6.27764"><ele></ele><time>2017-9-5T5:13:2Z</time></trkpt>
<trkpt lat="46.47648" lon="6.27759"><ele></ele><time>2017-9-5T5:13:5Z</time></trkpt>
<trkpt lat="46.47654" lon="6.27749"><ele></ele><time>2017-9-5T5:13:8Z</time></trkpt>
<trkpt lat="46.47661" lon="6.27738"><ele></ele><time>2017-9-5T5:13:11Z</time></trkpt>
<trkpt lat="46.47668" lon="6.27726"><ele></ele><time>2017-9-5T5:13:14Z</time></trkpt>
<trkpt lat="46.47675" lon="6.27714"><ele></ele><time>2017-9-5T5:13:17Z</time></trkpt>
<trkpt lat="46.47684" lon="6.277"><ele></ele><time>2017-9-5T5:13:20Z</time></trkpt>
<trkpt lat="46.47692" lon="6.27684"><ele></ele><time>2017-9-5T5:13:23Z</time></trkpt>
<trkpt lat="46.477" lon="6.27667"><ele></ele><time>2017-9-5T5:13:26Z</time></trkpt>
<trkpt lat="46.47709" lon="6.2765"><ele></ele><time>2017-9-5T5:13:29Z</time></trkpt>
<trkpt lat="46.47719" lon="6.27633"><ele></ele><time>2017-9-5T5:13:32Z</time></trkpt>
<trkpt lat="46.47731" lon="6.27617"><ele></ele><time>2017-9-5T5:13:35Z</time></trkpt>
<trkpt lat="46.47738" lon="6.27609"><ele></ele><time>2017-9-5T5:13:38Z</time></trkpt>
<trkpt lat="46.47744" lon="6.27601"><ele></ele><time>2017-9-5T5:13:41Z</time></trkpt>
<trkpt lat="46.47758" lon="6.27587"><ele></ele><time>2017-9-5T5:13:44Z</time></trkpt>
<trkpt lat="46.4777" lon="6.27576"><ele></ele><time>2017-9-5T5:13:47Z</time></trkpt>
<trkpt lat="46.47777" lon="6.27573"><ele></ele><time>2017-9-5T5:13:50Z</time></trkpt>
<trkpt lat="46.47783" lon="6.27572"><ele></ele><time>2017-9-5T5:13:53Z</time></trkpt>
<trkpt lat="46.47788" lon="6.27571"><ele></ele><time>2017-9-5T5:13:56Z</time></trkpt>
<trkpt lat="46.47797" lon="6.27574"><ele></ele><time>2017-9-5T5:13:59Z</time></trkpt>
<trkpt lat="46.478" lon="6.27575"><ele></ele><time>2017-9-5T5:14:2Z</time></trkpt>
<trkpt lat="46.47806" lon="6.27577"><ele></ele><time>2017-9-5T5:14:5Z</time></trkpt>
<trkpt lat="46.47811" lon="6.27578"><ele></ele><time>2017-9-5T5:14:8Z</time></trkpt>
<trkpt lat="46.47814" lon="6.27579"><ele></ele><time>2017-9-5T5:14:11Z</time></trkpt>
<trkpt lat="46.47816" lon="6.2758"><ele></ele><time>2017-9-5T5:14:14Z</time></trkpt>
<trkpt lat="46.4782" lon="6.27581"><ele></ele><time>2017-9-5T5:14:17Z</time></trkpt>
<trkpt lat="46.47825" lon="6.27582"><ele></ele><time>2017-9-5T5:14:20Z</time></trkpt>
<trkpt lat="46.4783" lon="6.27583"><ele></ele><time>2017-9-5T5:14:23Z</time></trkpt>
<trkpt lat="46.47834" lon="6.27583"><ele></ele><time>2017-9-5T5:14:26Z</time></trkpt>
<trkpt lat="46.47837" lon="6.27583"><ele></ele><time>2017-9-5T5:14:29Z</time></trkpt>
<trkpt lat="46.47839" lon="6.27583"><ele></ele><time>2017-9-5T5:14:32Z</time></trkpt>
<trkpt lat="46.47842" lon="6.27584"><ele></ele><time>2017-9-5T5:14:35Z</time></trkpt>
<trkpt lat="46.47847" lon="6.27586"><ele></ele><time>2017-9-5T5:14:38Z</time></trkpt>
<trkpt lat="46.47852" lon="6.27588"><ele></ele><time>2017-9-5T5:14:41Z</time></trkpt>
<trkpt lat="46.47857" lon="6.27589"><ele></ele><time>2017-9-5T5:14:44Z</time></trkpt>
<trkpt lat="46.47863" lon="6.27591"><ele></ele><time>2017-9-5T5:14:47Z</time></trkpt>
<trkpt lat="46.47868" lon="6.27591"><ele></ele><time>2017-9-5T5:14:50Z</time></trkpt>
<trkpt lat="46.47871" lon="6.27591"><ele></ele><time>2017-9-5T5:14:53Z</time></trkpt>
<trkpt lat="46.47877" lon="6.27591"><ele></ele><time>2017-9-5T5:14:56Z</time></trkpt>
<trkpt lat="46.47882" lon="6.27593"><ele></ele><time>2017-9-5T5:14:59Z</time></trkpt>
<trkpt lat="46.47888" lon="6.27595"><ele></ele><time>2017-9-5T5:15:2Z</time></trkpt>
<trkpt lat="46.47893" lon="6.27597"><ele></ele><time>2017-9-5T5:15:5Z</time></trkpt>
<trkpt lat="46.47899" lon="6.27597"><ele></ele><time>2017-9-5T5:15:8Z</time></trkpt>
<trkpt lat="46.47903" lon="6.27599"><ele></ele><time>2017-9-5T5:15:11Z</time></trkpt>
<trkpt lat="46.47906" lon="6.276"><ele></ele><time>2017-9-5T5:15:14Z</time></trkpt>
<trkpt lat="46.47909" lon="6.27602"><ele></ele><time>2017-9-5T5:15:17Z</time></trkpt>
<trkpt lat="46.47914" lon="6.27603"><ele></ele><time>2017-9-5T5:15:20Z</time></trkpt>
<trkpt lat="46.47919" lon="6.27606"><ele></ele><time>2017-9-5T5:15:23Z</time></trkpt>
<trkpt lat="46.47923" lon="6.2761"><ele></ele><time>2017-9-5T5:15:26Z</time></trkpt>
<trkpt lat="46.47927" lon="6.27615"><ele></ele><time>2017-9-5T5:15:29Z</time></trkpt>
<trkpt lat="46.47928" lon="6.27618"><ele></ele><time>2017-9-5T5:15:32Z</time></trkpt>
<trkpt lat="46.4793" lon="6.27621"><ele></ele><time>2017-9-5T5:15:35Z</time></trkpt>
<trkpt lat="46.47932" lon="6.27627"><ele></ele><time>2017-9-5T5:15:38Z</time></trkpt>
<trkpt lat="46.47932" lon="6.27634"><ele></ele><time>2017-9-5T5:15:41Z</time></trkpt>
<trkpt lat="46.47932" lon="6.2764"><ele></ele><time>2017-9-5T5:15:44Z</time></trkpt>
<trkpt lat="46.47932" lon="6.27645"><ele></ele><time>2017-9-5T5:15:47Z</time></trkpt>
<trkpt lat="46.47932" lon="6.27647"><ele></ele><time>2017-9-5T5:15:50Z</time></trkpt>
<trkpt lat="46.47932" lon="6.27649"><ele></ele><time>2017-9-5T5:15:53Z</time></trkpt>
<trkpt lat="46.47931" lon="6.27651"><ele></ele><time>2017-9-5T5:15:56Z</time></trkpt>
<trkpt lat="46.47931" lon="6.27653"><ele></ele><time>2017-9-5T5:15:59Z</time></trkpt>
<trkpt lat="46.47929" lon="6.27658"><ele></ele><time>2017-9-5T5:16:2Z</time></trkpt>
<trkpt lat="46.47928" lon="6.27661"><ele></ele><time>2017-9-5T5:16:5Z</time></trkpt>
<trkpt lat="46.47928" lon="6.27662"><ele></ele><time>2017-9-5T5:16:8Z</time></trkpt>
<trkpt lat="46.4792" lon="6.27684"><ele></ele><time>2017-9-5T5:16:11Z</time></trkpt>
<trkpt lat="46.47919" lon="6.27687"><ele></ele><time>2017-9-5T5:16:14Z</time></trkpt>
<trkpt lat="46.47917" lon="6.27693"><ele></ele><time>2017-9-5T5:16:17Z</time></trkpt>
<trkpt lat="46.47916" lon="6.27701"><ele></ele><time>2017-9-5T5:16:20Z</time></trkpt>
<trkpt lat="46.47915" lon="6.27704"><ele></ele><time>2017-9-5T5:16:23Z</time></trkpt>
<trkpt lat="46.47914" lon="6.27709"><ele></ele><time>2017-9-5T5:16:26Z</time></trkpt>
<trkpt lat="46.47913" lon="6.27716"><ele></ele><time>2017-9-5T5:16:29Z</time></trkpt>
<trkpt lat="46.47913" lon="6.27716"><ele></ele><time>2017-9-5T5:16:32Z</time></trkpt>
<trkpt lat="46.47912" lon="6.27719"><ele></ele><time>2017-9-5T5:16:35Z</time></trkpt>
<trkpt lat="46.47911" lon="6.27724"><ele></ele><time>2017-9-5T5:16:38Z</time></trkpt>
<trkpt lat="46.4791" lon="6.2773"><ele></ele><time>2017-9-5T5:16:41Z</time></trkpt>
<trkpt lat="46.4791" lon="6.27733"><ele></ele><time>2017-9-5T5:16:44Z</time></trkpt>
<trkpt lat="46.47909" lon="6.27738"><ele></ele><time>2017-9-5T5:16:47Z</time></trkpt>
<trkpt lat="46.47908" lon="6.27742"><ele></ele><time>2017-9-5T5:16:50Z</time></trkpt>
<trkpt lat="46.47907" lon="6.27747"><ele></ele><time>2017-9-5T5:16:53Z</time></trkpt>
<trkpt lat="46.47905" lon="6.27752"><ele></ele><time>2017-9-5T5:16:56Z</time></trkpt>
<trkpt lat="46.47903" lon="6.27758"><ele></ele><time>2017-9-5T5:16:59Z</time></trkpt>
<trkpt lat="46.47902" lon="6.27764"><ele></ele><time>2017-9-5T5:17:2Z</time></trkpt>
<trkpt lat="46.47902" lon="6.27767"><ele></ele><time>2017-9-5T5:17:5Z</time></trkpt>
<trkpt lat="46.47899" lon="6.27776"><ele></ele><time>2017-9-5T5:17:8Z</time></trkpt>
<trkpt lat="46.47897" lon="6.2778"><ele></ele><time>2017-9-5T5:17:11Z</time></trkpt>
<trkpt lat="46.47895" lon="6.27784"><ele></ele><time>2017-9-5T5:17:14Z</time></trkpt>
<trkpt lat="46.47895" lon="6.27786"><ele></ele><time>2017-9-5T5:17:17Z</time></trkpt>
<trkpt lat="46.47894" lon="6.27789"><ele></ele><time>2017-9-5T5:17:20Z</time></trkpt>
<trkpt lat="46.47892" lon="6.27793"><ele></ele><time>2017-9-5T5:17:23Z</time></trkpt>
<trkpt lat="46.4789" lon="6.27797"><ele></ele><time>2017-9-5T5:17:26Z</time></trkpt>
<trkpt lat="46.4789" lon="6.27799"><ele></ele><time>2017-9-5T5:17:29Z</time></trkpt>
<trkpt lat="46.47889" lon="6.27802"><ele></ele><time>2017-9-5T5:17:32Z</time></trkpt>
<trkpt lat="46.47889" lon="6.27804"><ele></ele><time>2017-9-5T5:17:35Z</time></trkpt>
<trkpt lat="46.47887" lon="6.27811"><ele></ele><time>2017-9-5T5:17:38Z</time></trkpt>
<trkpt lat="46.47885" lon="6.27815"><ele></ele><time>2017-9-5T5:17:41Z</time></trkpt>
<trkpt lat="46.47884" lon="6.2782"><ele></ele><time>2017-9-5T5:17:44Z</time></trkpt>
<trkpt lat="46.47883" lon="6.27822"><ele></ele><time>2017-9-5T5:17:47Z</time></trkpt>
<trkpt lat="46.47882" lon="6.27827"><ele></ele><time>2017-9-5T5:17:50Z</time></trkpt>
<trkpt lat="46.47881" lon="6.27831"><ele></ele><time>2017-9-5T5:17:53Z</time></trkpt>
<trkpt lat="46.4788" lon="6.27835"><ele></ele><time>2017-9-5T5:17:56Z</time></trkpt>
<trkpt lat="46.47879" lon="6.27839"><ele></ele><time>2017-9-5T5:17:59Z</time></trkpt>
<trkpt lat="46.47879" lon="6.27842"><ele></ele><time>2017-9-5T5:18:2Z</time></trkpt>
<trkpt lat="46.47878" lon="6.27844"><ele></ele><time>2017-9-5T5:18:5Z</time></trkpt>
<trkpt lat="46.47878" lon="6.27846"><ele></ele><time>2017-9-5T5:18:8Z</time></trkpt>
<trkpt lat="46.47878" lon="6.27854"><ele></ele><time>2017-9-5T5:18:11Z</time></trkpt>
<trkpt lat="46.47878" lon="6.27859"><ele></ele><time>2017-9-5T5:18:14Z</time></trkpt>
<trkpt lat="46.47878" lon="6.27864"><ele></ele><time>2017-9-5T5:18:17Z</time></trkpt>
<trkpt lat="46.47878" lon="6.27869"><ele></ele><time>2017-9-5T5:18:20Z</time></trkpt>
<trkpt lat="46.47879" lon="6.27874"><ele></ele><time>2017-9-5T5:18:23Z</time></trkpt>
<trkpt lat="46.47881" lon="6.2788"><ele></ele><time>2017-9-5T5:18:26Z</time></trkpt>
<trkpt lat="46.47882" lon="6.27882"><ele></ele><time>2017-9-5T5:18:29Z</time></trkpt>
<trkpt lat="46.47883" lon="6.27884"><ele></ele><time>2017-9-5T5:18:32Z</time></trkpt>
<trkpt lat="46.47885" lon="6.2789"><ele></ele><time>2017-9-5T5:18:35Z</time></trkpt>
<trkpt lat="46.47887" lon="6.27896"><ele></ele><time>2017-9-5T5:18:38Z</time></trkpt>
<trkpt lat="46.47889" lon="6.27901"><ele></ele><time>2017-9-5T5:18:41Z</time></trkpt>
<trkpt lat="46.47891" lon="6.27905"><ele></ele><time>2017-9-5T5:18:44Z</time></trkpt>
<trkpt lat="46.47893" lon="6.2791"><ele></ele><time>2017-9-5T5:18:47Z</time></trkpt>
<trkpt lat="46.47895" lon="6.27912"><ele></ele><time>2017-9-5T5:18:50Z</time></trkpt>
<trkpt lat="46.47896" lon="6.27914"><ele></ele><time>2017-9-5T5:18:53Z</time></trkpt>
<trkpt lat="46.47898" lon="6.27918"><ele></ele><time>2017-9-5T5:18:56Z</time></trkpt>
<trkpt lat="46.47901" lon="6.27921"><ele></ele><time>2017-9-5T5:18:59Z</time></trkpt>
<trkpt lat="46.47904" lon="6.27925"><ele></ele><time>2017-9-5T5:19:2Z</time></trkpt>
<trkpt lat="46.47905" lon="6.27927"><ele></ele><time>2017-9-5T5:19:5Z</time></trkpt>
<trkpt lat="46.47905" lon="6.27929"><ele></ele><time>2017-9-5T5:19:8Z</time></trkpt>
<trkpt lat="46.47907" lon="6.27934"><ele></ele><time>2017-9-5T5:19:11Z</time></trkpt>
<trkpt lat="46.47909" lon="6.27938"><ele></ele><time>2017-9-5T5:19:14Z</time></trkpt>
<trkpt lat="46.4791" lon="6.2794"><ele></ele><time>2017-9-5T5:19:17Z</time></trkpt>
<trkpt lat="46.47912" lon="6.27942"><ele></ele><time>2017-9-5T5:19:20Z</time></trkpt>
<trkpt lat="46.47915" lon="6.27947"><ele></ele><time>2017-9-5T5:19:23Z</time></trkpt>
<trkpt lat="46.47917" lon="6.27951"><ele></ele><time>2017-9-5T5:19:26Z</time></trkpt>
<trkpt lat="46.4792" lon="6.27955"><ele></ele><time>2017-9-5T5:19:29Z</time></trkpt>
<trkpt lat="46.47922" lon="6.27959"><ele></ele><time>2017-9-5T5:19:32Z</time></trkpt>
<trkpt lat="46.47925" lon="6.27963"><ele></ele><time>2017-9-5T5:19:35Z</time></trkpt>
<trkpt lat="46.47927" lon="6.27966"><ele></ele><time>2017-9-5T5:19:38Z</time></trkpt>
<trkpt lat="46.47928" lon="6.27969"><ele></ele><time>2017-9-5T5:19:41Z</time></trkpt>
<trkpt lat="46.47929" lon="6.27971"><ele></ele><time>2017-9-5T5:19:44Z</time></trkpt>
<trkpt lat="46.47933" lon="6.27978"><ele></ele><time>2017-9-5T5:19:47Z</time></trkpt>
<trkpt lat="46.47935" lon="6.2798"><ele></ele><time>2017-9-5T5:19:50Z</time></trkpt>
<trkpt lat="46.47937" lon="6.27985"><ele></ele><time>2017-9-5T5:19:53Z</time></trkpt>
<trkpt lat="46.4794" lon="6.2799"><ele></ele><time>2017-9-5T5:19:56Z</time></trkpt>
<trkpt lat="46.47942" lon="6.27994"><ele></ele><time>2017-9-5T5:19:59Z</time></trkpt>
<trkpt lat="46.47945" lon="6.27998"><ele></ele><time>2017-9-5T5:20:2Z</time></trkpt>
<trkpt lat="46.47948" lon="6.28003"><ele></ele><time>2017-9-5T5:20:5Z</time></trkpt>
<trkpt lat="46.4795" lon="6.28005"><ele></ele><time>2017-9-5T5:20:8Z</time></trkpt>
<trkpt lat="46.47951" lon="6.28008"><ele></ele><time>2017-9-5T5:20:11Z</time></trkpt>
<trkpt lat="46.47954" lon="6.28012"><ele></ele><time>2017-9-5T5:20:14Z</time></trkpt>
<trkpt lat="46.47957" lon="6.28017"><ele></ele><time>2017-9-5T5:20:17Z</time></trkpt>
<trkpt lat="46.4796" lon="6.28022"><ele></ele><time>2017-9-5T5:20:20Z</time></trkpt>
<trkpt lat="46.47963" lon="6.28026"><ele></ele><time>2017-9-5T5:20:23Z</time></trkpt>
<trkpt lat="46.47966" lon="6.2803"><ele></ele><time>2017-9-5T5:20:26Z</time></trkpt>
<trkpt lat="46.47968" lon="6.28033"><ele></ele><time>2017-9-5T5:20:29Z</time></trkpt>
<trkpt lat="46.4797" lon="6.28037"><ele></ele><time>2017-9-5T5:20:32Z</time></trkpt>
<trkpt lat="46.47972" lon="6.28041"><ele></ele><time>2017-9-5T5:20:35Z</time></trkpt>
<trkpt lat="46.47975" lon="6.28046"><ele></ele><time>2017-9-5T5:20:38Z</time></trkpt>
<trkpt lat="46.47978" lon="6.2805"><ele></ele><time>2017-9-5T5:20:41Z</time></trkpt>
<trkpt lat="46.47981" lon="6.28055"><ele></ele><time>2017-9-5T5:20:44Z</time></trkpt>
<trkpt lat="46.47983" lon="6.28057"><ele></ele><time>2017-9-5T5:20:47Z</time></trkpt>
<trkpt lat="46.47985" lon="6.2806"><ele></ele><time>2017-9-5T5:20:50Z</time></trkpt>
<trkpt lat="46.4799" lon="6.2807"><ele></ele><time>2017-9-5T5:20:53Z</time></trkpt>
<trkpt lat="46.47994" lon="6.28076"><ele></ele><time>2017-9-5T5:20:56Z</time></trkpt>
<trkpt lat="46.47998" lon="6.28082"><ele></ele><time>2017-9-5T5:20:59Z</time></trkpt>
<trkpt lat="46.48001" lon="6.28088"><ele></ele><time>2017-9-5T5:21:2Z</time></trkpt>
<trkpt lat="46.48001" lon="6.28088"><ele></ele><time>2017-9-5T5:21:5Z</time></trkpt>
<trkpt lat="46.48005" lon="6.28094"><ele></ele><time>2017-9-5T5:21:8Z</time></trkpt>
<trkpt lat="46.48006" lon="6.28096"><ele></ele><time>2017-9-5T5:21:11Z</time></trkpt>
<trkpt lat="46.48013" lon="6.28105"><ele></ele><time>2017-9-5T5:21:14Z</time></trkpt>
<trkpt lat="46.48016" lon="6.28111"><ele></ele><time>2017-9-5T5:21:17Z</time></trkpt>
<trkpt lat="46.48019" lon="6.28115"><ele></ele><time>2017-9-5T5:21:20Z</time></trkpt>
<trkpt lat="46.48025" lon="6.28126"><ele></ele><time>2017-9-5T5:21:23Z</time></trkpt>
<trkpt lat="46.48027" lon="6.2813"><ele></ele><time>2017-9-5T5:21:26Z</time></trkpt>
<trkpt lat="46.48032" lon="6.28137"><ele></ele><time>2017-9-5T5:21:29Z</time></trkpt>
<trkpt lat="46.48039" lon="6.28149"><ele></ele><time>2017-9-5T5:21:32Z</time></trkpt>
<trkpt lat="46.48041" lon="6.28153"><ele></ele><time>2017-9-5T5:21:35Z</time></trkpt>
<trkpt lat="46.48047" lon="6.28161"><ele></ele><time>2017-9-5T5:21:38Z</time></trkpt>
<trkpt lat="46.48052" lon="6.2817"><ele></ele><time>2017-9-5T5:21:41Z</time></trkpt>
<trkpt lat="46.48057" lon="6.28178"><ele></ele><time>2017-9-5T5:21:44Z</time></trkpt>
<trkpt lat="46.4806" lon="6.28183"><ele></ele><time>2017-9-5T5:21:47Z</time></trkpt>
<trkpt lat="46.48067" lon="6.28191"><ele></ele><time>2017-9-5T5:21:50Z</time></trkpt>
<trkpt lat="46.48074" lon="6.282"><ele></ele><time>2017-9-5T5:21:53Z</time></trkpt>
<trkpt lat="46.48083" lon="6.28209"><ele></ele><time>2017-9-5T5:21:56Z</time></trkpt>
<trkpt lat="46.48092" lon="6.28219"><ele></ele><time>2017-9-5T5:21:59Z</time></trkpt>
<trkpt lat="46.48101" lon="6.28228"><ele></ele><time>2017-9-5T5:22:2Z</time></trkpt>
<trkpt lat="46.48111" lon="6.28238"><ele></ele><time>2017-9-5T5:22:5Z</time></trkpt>
<trkpt lat="46.48121" lon="6.28248"><ele></ele><time>2017-9-5T5:22:8Z</time></trkpt>
<trkpt lat="46.48131" lon="6.28258"><ele></ele><time>2017-9-5T5:22:11Z</time></trkpt>
<trkpt lat="46.48142" lon="6.28269"><ele></ele><time>2017-9-5T5:22:14Z</time></trkpt>
<trkpt lat="46.48152" lon="6.2828"><ele></ele><time>2017-9-5T5:22:17Z</time></trkpt>
<trkpt lat="46.48163" lon="6.28291"><ele></ele><time>2017-9-5T5:22:20Z</time></trkpt>
<trkpt lat="46.48168" lon="6.28297"><ele></ele><time>2017-9-5T5:22:23Z</time></trkpt>
<trkpt lat="46.48174" lon="6.28303"><ele></ele><time>2017-9-5T5:22:26Z</time></trkpt>
<trkpt lat="46.48185" lon="6.28316"><ele></ele><time>2017-9-5T5:22:29Z</time></trkpt>
<trkpt lat="46.48185" lon="6.28316"><ele></ele><time>2017-9-5T5:22:32Z</time></trkpt>
<trkpt lat="46.48196" lon="6.28328"><ele></ele><time>2017-9-5T5:22:35Z</time></trkpt>
<trkpt lat="46.48202" lon="6.28334"><ele></ele><time>2017-9-5T5:22:38Z</time></trkpt>
<trkpt lat="46.48214" lon="6.28348"><ele></ele><time>2017-9-5T5:22:41Z</time></trkpt>
<trkpt lat="46.48214" lon="6.28348"><ele></ele><time>2017-9-5T5:22:44Z</time></trkpt>
<trkpt lat="46.48225" lon="6.28364"><ele></ele><time>2017-9-5T5:22:47Z</time></trkpt>
<trkpt lat="46.48229" lon="6.28375"><ele></ele><time>2017-9-5T5:22:50Z</time></trkpt>
<trkpt lat="46.48233" lon="6.28385"><ele></ele><time>2017-9-5T5:22:53Z</time></trkpt>
<trkpt lat="46.48237" lon="6.28409"><ele></ele><time>2017-9-5T5:22:56Z</time></trkpt>
<trkpt lat="46.48237" lon="6.28422"><ele></ele><time>2017-9-5T5:22:59Z</time></trkpt>
<trkpt lat="46.48235" lon="6.28434"><ele></ele><time>2017-9-5T5:23:2Z</time></trkpt>
<trkpt lat="46.48233" lon="6.28446"><ele></ele><time>2017-9-5T5:23:5Z</time></trkpt>
<trkpt lat="46.48233" lon="6.28446"><ele></ele><time>2017-9-5T5:23:8Z</time></trkpt>
<trkpt lat="46.48226" lon="6.2847"><ele></ele><time>2017-9-5T5:23:11Z</time></trkpt>
<trkpt lat="46.48221" lon="6.28482"><ele></ele><time>2017-9-5T5:23:14Z</time></trkpt>
<trkpt lat="46.48221" lon="6.28482"><ele></ele><time>2017-9-5T5:23:17Z</time></trkpt>
<trkpt lat="46.48208" lon="6.28521"><ele></ele><time>2017-9-5T5:23:20Z</time></trkpt>
<trkpt lat="46.48203" lon="6.28535"><ele></ele><time>2017-9-5T5:23:23Z</time></trkpt>
<trkpt lat="46.48189" lon="6.28573"><ele></ele><time>2017-9-5T5:23:26Z</time></trkpt>
<trkpt lat="46.48186" lon="6.28585"><ele></ele><time>2017-9-5T5:23:29Z</time></trkpt>
<trkpt lat="46.48186" lon="6.28585"><ele></ele><time>2017-9-5T5:23:32Z</time></trkpt>
<trkpt lat="46.48182" lon="6.28596"><ele></ele><time>2017-9-5T5:23:35Z</time></trkpt>
<trkpt lat="46.4818" lon="6.28607"><ele></ele><time>2017-9-5T5:23:38Z</time></trkpt>
<trkpt lat="46.48178" lon="6.28631"><ele></ele><time>2017-9-5T5:23:41Z</time></trkpt>
<trkpt lat="46.48177" lon="6.28643"><ele></ele><time>2017-9-5T5:23:44Z</time></trkpt>
<trkpt lat="46.48177" lon="6.28655"><ele></ele><time>2017-9-5T5:23:47Z</time></trkpt>
<trkpt lat="46.48178" lon="6.28668"><ele></ele><time>2017-9-5T5:23:50Z</time></trkpt>
<trkpt lat="46.4818" lon="6.2868"><ele></ele><time>2017-9-5T5:23:53Z</time></trkpt>
<trkpt lat="46.48183" lon="6.28692"><ele></ele><time>2017-9-5T5:23:56Z</time></trkpt>
<trkpt lat="46.4819" lon="6.28715"><ele></ele><time>2017-9-5T5:23:59Z</time></trkpt>
<trkpt lat="46.48195" lon="6.28725"><ele></ele><time>2017-9-5T5:24:2Z</time></trkpt>
<trkpt lat="46.482" lon="6.28736"><ele></ele><time>2017-9-5T5:24:5Z</time></trkpt>
<trkpt lat="46.48209" lon="6.28756"><ele></ele><time>2017-9-5T5:24:8Z</time></trkpt>
<trkpt lat="46.48214" lon="6.28766"><ele></ele><time>2017-9-5T5:24:11Z</time></trkpt>
<trkpt lat="46.4823" lon="6.28797"><ele></ele><time>2017-9-5T5:24:14Z</time></trkpt>
<trkpt lat="46.4824" lon="6.28817"><ele></ele><time>2017-9-5T5:24:17Z</time></trkpt>
<trkpt lat="46.48246" lon="6.28827"><ele></ele><time>2017-9-5T5:24:20Z</time></trkpt>
<trkpt lat="46.48251" lon="6.28838"><ele></ele><time>2017-9-5T5:24:23Z</time></trkpt>
<trkpt lat="46.48262" lon="6.28858"><ele></ele><time>2017-9-5T5:24:26Z</time></trkpt>
<trkpt lat="46.48272" lon="6.28879"><ele></ele><time>2017-9-5T5:24:29Z</time></trkpt>
<trkpt lat="46.4828" lon="6.28903"><ele></ele><time>2017-9-5T5:24:32Z</time></trkpt>
<trkpt lat="46.48283" lon="6.28916"><ele></ele><time>2017-9-5T5:24:35Z</time></trkpt>
<trkpt lat="46.48285" lon="6.28943"><ele></ele><time>2017-9-5T5:24:38Z</time></trkpt>
<trkpt lat="46.48285" lon="6.28956"><ele></ele><time>2017-9-5T5:24:41Z</time></trkpt>
<trkpt lat="46.48283" lon="6.28979"><ele></ele><time>2017-9-5T5:24:44Z</time></trkpt>
<trkpt lat="46.48281" lon="6.28988"><ele></ele><time>2017-9-5T5:24:47Z</time></trkpt>
<trkpt lat="46.4828" lon="6.28995"><ele></ele><time>2017-9-5T5:24:50Z</time></trkpt>
<trkpt lat="46.48278" lon="6.29002"><ele></ele><time>2017-9-5T5:24:53Z</time></trkpt>
<trkpt lat="46.48277" lon="6.29009"><ele></ele><time>2017-9-5T5:24:56Z</time></trkpt>
<trkpt lat="46.48275" lon="6.29016"><ele></ele><time>2017-9-5T5:24:59Z</time></trkpt>
<trkpt lat="46.48273" lon="6.29025"><ele></ele><time>2017-9-5T5:25:2Z</time></trkpt>
<trkpt lat="46.48269" lon="6.29045"><ele></ele><time>2017-9-5T5:25:5Z</time></trkpt>
<trkpt lat="46.48268" lon="6.29057"><ele></ele><time>2017-9-5T5:25:8Z</time></trkpt>
<trkpt lat="46.48267" lon="6.2907"><ele></ele><time>2017-9-5T5:25:11Z</time></trkpt>
<trkpt lat="46.48267" lon="6.29083"><ele></ele><time>2017-9-5T5:25:14Z</time></trkpt>
<trkpt lat="46.48266" lon="6.29097"><ele></ele><time>2017-9-5T5:25:17Z</time></trkpt>
<trkpt lat="46.48265" lon="6.29126"><ele></ele><time>2017-9-5T5:25:20Z</time></trkpt>
<trkpt lat="46.48264" lon="6.29157"><ele></ele><time>2017-9-5T5:25:23Z</time></trkpt>
<trkpt lat="46.48263" lon="6.29173"><ele></ele><time>2017-9-5T5:25:26Z</time></trkpt>
<trkpt lat="46.48263" lon="6.29188"><ele></ele><time>2017-9-5T5:25:29Z</time></trkpt>
<trkpt lat="46.48263" lon="6.29188"><ele></ele><time>2017-9-5T5:25:32Z</time></trkpt>
<trkpt lat="46.48262" lon="6.29217"><ele></ele><time>2017-9-5T5:25:35Z</time></trkpt>
<trkpt lat="46.48262" lon="6.29217"><ele></ele><time>2017-9-5T5:25:38Z</time></trkpt>
<trkpt lat="46.48262" lon="6.29232"><ele></ele><time>2017-9-5T5:25:41Z</time></trkpt>
<trkpt lat="46.48261" lon="6.29246"><ele></ele><time>2017-9-5T5:25:44Z</time></trkpt>
<trkpt lat="46.48261" lon="6.29272"><ele></ele><time>2017-9-5T5:25:47Z</time></trkpt>
<trkpt lat="46.48261" lon="6.29272"><ele></ele><time>2017-9-5T5:25:50Z</time></trkpt>
<trkpt lat="46.4826" lon="6.29285"><ele></ele><time>2017-9-5T5:25:53Z</time></trkpt>
<trkpt lat="46.48258" lon="6.2931"><ele></ele><time>2017-9-5T5:25:56Z</time></trkpt>
<trkpt lat="46.48257" lon="6.29322"><ele></ele><time>2017-9-5T5:25:59Z</time></trkpt>
<trkpt lat="46.48255" lon="6.29347"><ele></ele><time>2017-9-5T5:26:2Z</time></trkpt>
<trkpt lat="46.48253" lon="6.29372"><ele></ele><time>2017-9-5T5:26:5Z</time></trkpt>
<trkpt lat="46.48253" lon="6.29372"><ele></ele><time>2017-9-5T5:26:8Z</time></trkpt>
<trkpt lat="46.48252" lon="6.29384"><ele></ele><time>2017-9-5T5:26:11Z</time></trkpt>
<trkpt lat="46.48253" lon="6.29396"><ele></ele><time>2017-9-5T5:26:14Z</time></trkpt>
<trkpt lat="46.48255" lon="6.29408"><ele></ele><time>2017-9-5T5:26:17Z</time></trkpt>
<trkpt lat="46.48257" lon="6.2942"><ele></ele><time>2017-9-5T5:26:20Z</time></trkpt>
<trkpt lat="46.48259" lon="6.29432"><ele></ele><time>2017-9-5T5:26:23Z</time></trkpt>
<trkpt lat="46.48264" lon="6.29454"><ele></ele><time>2017-9-5T5:26:26Z</time></trkpt>
<trkpt lat="46.48268" lon="6.29477"><ele></ele><time>2017-9-5T5:26:29Z</time></trkpt>
<trkpt lat="46.48272" lon="6.29499"><ele></ele><time>2017-9-5T5:26:32Z</time></trkpt>
<trkpt lat="46.48276" lon="6.29519"><ele></ele><time>2017-9-5T5:26:35Z</time></trkpt>
<trkpt lat="46.48282" lon="6.2955"><ele></ele><time>2017-9-5T5:26:38Z</time></trkpt>
<trkpt lat="46.48286" lon="6.29572"><ele></ele><time>2017-9-5T5:26:41Z</time></trkpt>
<trkpt lat="46.48291" lon="6.29594"><ele></ele><time>2017-9-5T5:26:44Z</time></trkpt>
<trkpt lat="46.48296" lon="6.29616"><ele></ele><time>2017-9-5T5:26:47Z</time></trkpt>
<trkpt lat="46.483" lon="6.29639"><ele></ele><time>2017-9-5T5:26:50Z</time></trkpt>
<trkpt lat="46.48303" lon="6.29663"><ele></ele><time>2017-9-5T5:26:53Z</time></trkpt>
<trkpt lat="46.48305" lon="6.29688"><ele></ele><time>2017-9-5T5:26:56Z</time></trkpt>
<trkpt lat="46.48306" lon="6.29713"><ele></ele><time>2017-9-5T5:26:59Z</time></trkpt>
<trkpt lat="46.48307" lon="6.29737"><ele></ele><time>2017-9-5T5:27:2Z</time></trkpt>
<trkpt lat="46.48308" lon="6.29763"><ele></ele><time>2017-9-5T5:27:5Z</time></trkpt>
<trkpt lat="46.48309" lon="6.29786"><ele></ele><time>2017-9-5T5:27:8Z</time></trkpt>
<trkpt lat="46.4831" lon="6.29807"><ele></ele><time>2017-9-5T5:27:11Z</time></trkpt>
<trkpt lat="46.48314" lon="6.29824"><ele></ele><time>2017-9-5T5:27:14Z</time></trkpt>
<trkpt lat="46.48317" lon="6.29836"><ele></ele><time>2017-9-5T5:27:17Z</time></trkpt>
<trkpt lat="46.48317" lon="6.29836"><ele></ele><time>2017-9-5T5:27:20Z</time></trkpt>
<trkpt lat="46.4832" lon="6.29844"><ele></ele><time>2017-9-5T5:27:23Z</time></trkpt>
<trkpt lat="46.48322" lon="6.29847"><ele></ele><time>2017-9-5T5:27:26Z</time></trkpt>
<trkpt lat="46.48324" lon="6.29852"><ele></ele><time>2017-9-5T5:27:29Z</time></trkpt>
<trkpt lat="46.48326" lon="6.29855"><ele></ele><time>2017-9-5T5:27:32Z</time></trkpt>
<trkpt lat="46.48329" lon="6.29859"><ele></ele><time>2017-9-5T5:27:35Z</time></trkpt>
<trkpt lat="46.48331" lon="6.29861"><ele></ele><time>2017-9-5T5:27:38Z</time></trkpt>
<trkpt lat="46.48334" lon="6.29863"><ele></ele><time>2017-9-5T5:27:41Z</time></trkpt>
<trkpt lat="46.48341" lon="6.2987"><ele></ele><time>2017-9-5T5:27:44Z</time></trkpt>
<trkpt lat="46.4835" lon="6.29878"><ele></ele><time>2017-9-5T5:27:47Z</time></trkpt>
<trkpt lat="46.4836" lon="6.29888"><ele></ele><time>2017-9-5T5:27:50Z</time></trkpt>
<trkpt lat="46.48372" lon="6.299"><ele></ele><time>2017-9-5T5:27:53Z</time></trkpt>
<trkpt lat="46.48385" lon="6.29913"><ele></ele><time>2017-9-5T5:27:56Z</time></trkpt>
<trkpt lat="46.48392" lon="6.2992"><ele></ele><time>2017-9-5T5:27:59Z</time></trkpt>
<trkpt lat="46.48399" lon="6.29927"><ele></ele><time>2017-9-5T5:28:2Z</time></trkpt>
<trkpt lat="46.48413" lon="6.29942"><ele></ele><time>2017-9-5T5:28:5Z</time></trkpt>
<trkpt lat="46.48427" lon="6.29956"><ele></ele><time>2017-9-5T5:28:8Z</time></trkpt>
<trkpt lat="46.48437" lon="6.29967"><ele></ele><time>2017-9-5T5:28:11Z</time></trkpt>
<trkpt lat="46.48442" lon="6.29972"><ele></ele><time>2017-9-5T5:28:14Z</time></trkpt>
<trkpt lat="46.48447" lon="6.29977"><ele></ele><time>2017-9-5T5:28:17Z</time></trkpt>
<trkpt lat="46.48451" lon="6.29981"><ele></ele><time>2017-9-5T5:28:20Z</time></trkpt>
<trkpt lat="46.48454" lon="6.29985"><ele></ele><time>2017-9-5T5:28:23Z</time></trkpt>
<trkpt lat="46.48458" lon="6.29988"><ele></ele><time>2017-9-5T5:28:26Z</time></trkpt>
<trkpt lat="46.48461" lon="6.29992"><ele></ele><time>2017-9-5T5:28:29Z</time></trkpt>
<trkpt lat="46.48465" lon="6.29997"><ele></ele><time>2017-9-5T5:28:32Z</time></trkpt>
<trkpt lat="46.48469" lon="6.30001"><ele></ele><time>2017-9-5T5:28:35Z</time></trkpt>
<trkpt lat="46.48472" lon="6.30005"><ele></ele><time>2017-9-5T5:28:38Z</time></trkpt>
<trkpt lat="46.48475" lon="6.30009"><ele></ele><time>2017-9-5T5:28:41Z</time></trkpt>
<trkpt lat="46.48478" lon="6.30013"><ele></ele><time>2017-9-5T5:28:44Z</time></trkpt>
<trkpt lat="46.4848" lon="6.30016"><ele></ele><time>2017-9-5T5:28:47Z</time></trkpt>
<trkpt lat="46.48482" lon="6.30019"><ele></ele><time>2017-9-5T5:28:50Z</time></trkpt>
<trkpt lat="46.48483" lon="6.30022"><ele></ele><time>2017-9-5T5:28:53Z</time></trkpt>
<trkpt lat="46.48481" lon="6.30028"><ele></ele><time>2017-9-5T5:28:56Z</time></trkpt>
<trkpt lat="46.48478" lon="6.30029"><ele></ele><time>2017-9-5T5:28:59Z</time></trkpt>
<trkpt lat="46.48474" lon="6.3003"><ele></ele><time>2017-9-5T5:29:2Z</time></trkpt>
<trkpt lat="46.48467" lon="6.30032"><ele></ele><time>2017-9-5T5:29:5Z</time></trkpt>
<trkpt lat="46.48463" lon="6.30034"><ele></ele><time>2017-9-5T5:29:8Z</time></trkpt>
<trkpt lat="46.4846" lon="6.30035"><ele></ele><time>2017-9-5T5:29:11Z</time></trkpt>
<trkpt lat="46.48452" lon="6.30039"><ele></ele><time>2017-9-5T5:29:14Z</time></trkpt>
<trkpt lat="46.48445" lon="6.30043"><ele></ele><time>2017-9-5T5:29:17Z</time></trkpt>
<trkpt lat="46.48438" lon="6.30046"><ele></ele><time>2017-9-5T5:29:20Z</time></trkpt>
<trkpt lat="46.4843" lon="6.3005"><ele></ele><time>2017-9-5T5:29:23Z</time></trkpt>
<trkpt lat="46.48422" lon="6.30054"><ele></ele><time>2017-9-5T5:29:26Z</time></trkpt>
<trkpt lat="46.48414" lon="6.30058"><ele></ele><time>2017-9-5T5:29:29Z</time></trkpt>
<trkpt lat="46.48406" lon="6.30062"><ele></ele><time>2017-9-5T5:29:32Z</time></trkpt>
<trkpt lat="46.48398" lon="6.30065"><ele></ele><time>2017-9-5T5:29:35Z</time></trkpt>
<trkpt lat="46.48393" lon="6.30067"><ele></ele><time>2017-9-5T5:29:38Z</time></trkpt>
<trkpt lat="46.48389" lon="6.30069"><ele></ele><time>2017-9-5T5:29:41Z</time></trkpt>
<trkpt lat="46.4838" lon="6.30074"><ele></ele><time>2017-9-5T5:29:44Z</time></trkpt>
<trkpt lat="46.48371" lon="6.30078"><ele></ele><time>2017-9-5T5:29:47Z</time></trkpt>
<trkpt lat="46.48362" lon="6.30081"><ele></ele><time>2017-9-5T5:29:50Z</time></trkpt>
<trkpt lat="46.48352" lon="6.30085"><ele></ele><time>2017-9-5T5:29:53Z</time></trkpt>
<trkpt lat="46.48343" lon="6.30091"><ele></ele><time>2017-9-5T5:29:56Z</time></trkpt>
<trkpt lat="46.48334" lon="6.30095"><ele></ele><time>2017-9-5T5:29:59Z</time></trkpt>
<trkpt lat="46.48324" lon="6.30099"><ele></ele><time>2017-9-5T5:30:2Z</time></trkpt>
<trkpt lat="46.4832" lon="6.30101"><ele></ele><time>2017-9-5T5:30:5Z</time></trkpt>
<trkpt lat="46.48305" lon="6.30107"><ele></ele><time>2017-9-5T5:30:8Z</time></trkpt>
<trkpt lat="46.48296" lon="6.30112"><ele></ele><time>2017-9-5T5:30:11Z</time></trkpt>
<trkpt lat="46.48287" lon="6.30116"><ele></ele><time>2017-9-5T5:30:14Z</time></trkpt>
<trkpt lat="46.48278" lon="6.3012"><ele></ele><time>2017-9-5T5:30:17Z</time></trkpt>
<trkpt lat="46.48269" lon="6.30124"><ele></ele><time>2017-9-5T5:30:20Z</time></trkpt>
<trkpt lat="46.4826" lon="6.30128"><ele></ele><time>2017-9-5T5:30:23Z</time></trkpt>
<trkpt lat="46.4825" lon="6.30133"><ele></ele><time>2017-9-5T5:30:26Z</time></trkpt>
<trkpt lat="46.48241" lon="6.30137"><ele></ele><time>2017-9-5T5:30:29Z</time></trkpt>
<trkpt lat="46.48232" lon="6.30142"><ele></ele><time>2017-9-5T5:30:32Z</time></trkpt>
<trkpt lat="46.48223" lon="6.30146"><ele></ele><time>2017-9-5T5:30:35Z</time></trkpt>
<trkpt lat="46.48214" lon="6.30151"><ele></ele><time>2017-9-5T5:30:38Z</time></trkpt>
<trkpt lat="46.48204" lon="6.30154"><ele></ele><time>2017-9-5T5:30:41Z</time></trkpt>
<trkpt lat="46.48194" lon="6.30158"><ele></ele><time>2017-9-5T5:30:44Z</time></trkpt>
<trkpt lat="46.48186" lon="6.30162"><ele></ele><time>2017-9-5T5:30:47Z</time></trkpt>
<trkpt lat="46.48179" lon="6.30164"><ele></ele><time>2017-9-5T5:30:50Z</time></trkpt>
<trkpt lat="46.48174" lon="6.30164"><ele></ele><time>2017-9-5T5:30:53Z</time></trkpt>
<trkpt lat="46.48172" lon="6.30164"><ele></ele><time>2017-9-5T5:30:56Z</time></trkpt>
<trkpt lat="46.4817" lon="6.30164"><ele></ele><time>2017-9-5T5:30:59Z</time></trkpt>
<trkpt lat="46.48166" lon="6.30167"><ele></ele><time>2017-9-5T5:31:2Z</time></trkpt>
<trkpt lat="46.4816" lon="6.30172"><ele></ele><time>2017-9-5T5:31:5Z</time></trkpt>
<trkpt lat="46.48155" lon="6.30178"><ele></ele><time>2017-9-5T5:31:8Z</time></trkpt>
<trkpt lat="46.48151" lon="6.30187"><ele></ele><time>2017-9-5T5:31:11Z</time></trkpt>
<trkpt lat="46.48144" lon="6.30199"><ele></ele><time>2017-9-5T5:31:14Z</time></trkpt>
<trkpt lat="46.48141" lon="6.30219"><ele></ele><time>2017-9-5T5:31:17Z</time></trkpt>
<trkpt lat="46.48143" lon="6.30246"><ele></ele><time>2017-9-5T5:31:20Z</time></trkpt>
<trkpt lat="46.48148" lon="6.30277"><ele></ele><time>2017-9-5T5:31:23Z</time></trkpt>
<trkpt lat="46.48155" lon="6.30308"><ele></ele><time>2017-9-5T5:31:26Z</time></trkpt>
<trkpt lat="46.48158" lon="6.30324"><ele></ele><time>2017-9-5T5:31:29Z</time></trkpt>
<trkpt lat="46.48161" lon="6.30339"><ele></ele><time>2017-9-5T5:31:32Z</time></trkpt>
<trkpt lat="46.48164" lon="6.30354"><ele></ele><time>2017-9-5T5:31:35Z</time></trkpt>
<trkpt lat="46.48167" lon="6.30369"><ele></ele><time>2017-9-5T5:31:38Z</time></trkpt>
<trkpt lat="46.4817" lon="6.30384"><ele></ele><time>2017-9-5T5:31:41Z</time></trkpt>
<trkpt lat="46.48173" lon="6.30398"><ele></ele><time>2017-9-5T5:31:44Z</time></trkpt>
<trkpt lat="46.48179" lon="6.30425"><ele></ele><time>2017-9-5T5:31:47Z</time></trkpt>
<trkpt lat="46.48185" lon="6.30453"><ele></ele><time>2017-9-5T5:31:50Z</time></trkpt>
<trkpt lat="46.48188" lon="6.30466"><ele></ele><time>2017-9-5T5:31:53Z</time></trkpt>
<trkpt lat="46.4819" lon="6.30479"><ele></ele><time>2017-9-5T5:31:56Z</time></trkpt>
<trkpt lat="46.48191" lon="6.30493"><ele></ele><time>2017-9-5T5:31:59Z</time></trkpt>
<trkpt lat="46.48192" lon="6.30506"><ele></ele><time>2017-9-5T5:32:2Z</time></trkpt>
<trkpt lat="46.48192" lon="6.30519"><ele></ele><time>2017-9-5T5:32:5Z</time></trkpt>
<trkpt lat="46.48191" lon="6.30532"><ele></ele><time>2017-9-5T5:32:8Z</time></trkpt>
<trkpt lat="46.48189" lon="6.30556"><ele></ele><time>2017-9-5T5:32:11Z</time></trkpt>
<trkpt lat="46.48186" lon="6.3058"><ele></ele><time>2017-9-5T5:32:14Z</time></trkpt>
<trkpt lat="46.48184" lon="6.30602"><ele></ele><time>2017-9-5T5:32:17Z</time></trkpt>
<trkpt lat="46.48183" lon="6.30612"><ele></ele><time>2017-9-5T5:32:20Z</time></trkpt>
<trkpt lat="46.48181" lon="6.30622"><ele></ele><time>2017-9-5T5:32:23Z</time></trkpt>
<trkpt lat="46.48178" lon="6.30642"><ele></ele><time>2017-9-5T5:32:26Z</time></trkpt>
<trkpt lat="46.48174" lon="6.3066"><ele></ele><time>2017-9-5T5:32:29Z</time></trkpt>
<trkpt lat="46.48172" lon="6.30668"><ele></ele><time>2017-9-5T5:32:32Z</time></trkpt>
<trkpt lat="46.48166" lon="6.30693"><ele></ele><time>2017-9-5T5:32:35Z</time></trkpt>
<trkpt lat="46.48162" lon="6.30709"><ele></ele><time>2017-9-5T5:32:38Z</time></trkpt>
<trkpt lat="46.48158" lon="6.30723"><ele></ele><time>2017-9-5T5:32:41Z</time></trkpt>
<trkpt lat="46.48155" lon="6.30736"><ele></ele><time>2017-9-5T5:32:44Z</time></trkpt>
<trkpt lat="46.48153" lon="6.30749"><ele></ele><time>2017-9-5T5:32:47Z</time></trkpt>
<trkpt lat="46.4815" lon="6.30762"><ele></ele><time>2017-9-5T5:32:50Z</time></trkpt>
<trkpt lat="46.48148" lon="6.30775"><ele></ele><time>2017-9-5T5:32:53Z</time></trkpt>
<trkpt lat="46.48145" lon="6.30787"><ele></ele><time>2017-9-5T5:32:56Z</time></trkpt>
<trkpt lat="46.48141" lon="6.308"><ele></ele><time>2017-9-5T5:32:59Z</time></trkpt>
<trkpt lat="46.48138" lon="6.30814"><ele></ele><time>2017-9-5T5:33:2Z</time></trkpt>
<trkpt lat="46.48135" lon="6.30828"><ele></ele><time>2017-9-5T5:33:5Z</time></trkpt>
<trkpt lat="46.48131" lon="6.30844"><ele></ele><time>2017-9-5T5:33:8Z</time></trkpt>
<trkpt lat="46.48128" lon="6.3086"><ele></ele><time>2017-9-5T5:33:11Z</time></trkpt>
<trkpt lat="46.48126" lon="6.30877"><ele></ele><time>2017-9-5T5:33:14Z</time></trkpt>
<trkpt lat="46.48125" lon="6.30885"><ele></ele><time>2017-9-5T5:33:17Z</time></trkpt>
<trkpt lat="46.48125" lon="6.30893"><ele></ele><time>2017-9-5T5:33:20Z</time></trkpt>
<trkpt lat="46.48124" lon="6.30909"><ele></ele><time>2017-9-5T5:33:23Z</time></trkpt>
<trkpt lat="46.48124" lon="6.30926"><ele></ele><time>2017-9-5T5:33:26Z</time></trkpt>
<trkpt lat="46.48124" lon="6.30943"><ele></ele><time>2017-9-5T5:33:29Z</time></trkpt>
<trkpt lat="46.48126" lon="6.30958"><ele></ele><time>2017-9-5T5:33:32Z</time></trkpt>
<trkpt lat="46.48127" lon="6.30975"><ele></ele><time>2017-9-5T5:33:35Z</time></trkpt>
<trkpt lat="46.4813" lon="6.30991"><ele></ele><time>2017-9-5T5:33:38Z</time></trkpt>
<trkpt lat="46.48133" lon="6.31007"><ele></ele><time>2017-9-5T5:33:41Z</time></trkpt>
<trkpt lat="46.48137" lon="6.31023"><ele></ele><time>2017-9-5T5:33:44Z</time></trkpt>
<trkpt lat="46.48141" lon="6.31038"><ele></ele><time>2017-9-5T5:33:47Z</time></trkpt>
<trkpt lat="46.48145" lon="6.31054"><ele></ele><time>2017-9-5T5:33:50Z</time></trkpt>
<trkpt lat="46.48148" lon="6.31068"><ele></ele><time>2017-9-5T5:33:53Z</time></trkpt>
<trkpt lat="46.4815" lon="6.31081"><ele></ele><time>2017-9-5T5:33:56Z</time></trkpt>
<trkpt lat="46.48153" lon="6.31094"><ele></ele><time>2017-9-5T5:33:59Z</time></trkpt>
<trkpt lat="46.48154" lon="6.31106"><ele></ele><time>2017-9-5T5:34:2Z</time></trkpt>
<trkpt lat="46.48155" lon="6.31118"><ele></ele><time>2017-9-5T5:34:5Z</time></trkpt>
<trkpt lat="46.48155" lon="6.31131"><ele></ele><time>2017-9-5T5:34:8Z</time></trkpt>
<trkpt lat="46.48156" lon="6.31145"><ele></ele><time>2017-9-5T5:34:11Z</time></trkpt>
<trkpt lat="46.48156" lon="6.3116"><ele></ele><time>2017-9-5T5:34:14Z</time></trkpt>
<trkpt lat="46.48156" lon="6.31176"><ele></ele><time>2017-9-5T5:34:17Z</time></trkpt>
<trkpt lat="46.48156" lon="6.31193"><ele></ele><time>2017-9-5T5:34:20Z</time></trkpt>
<trkpt lat="46.48156" lon="6.3121"><ele></ele><time>2017-9-5T5:34:23Z</time></trkpt>
<trkpt lat="46.48157" lon="6.31227"><ele></ele><time>2017-9-5T5:34:26Z</time></trkpt>
<trkpt lat="46.48157" lon="6.31246"><ele></ele><time>2017-9-5T5:34:29Z</time></trkpt>
<trkpt lat="46.48157" lon="6.31265"><ele></ele><time>2017-9-5T5:34:32Z</time></trkpt>
<trkpt lat="46.48157" lon="6.31284"><ele></ele><time>2017-9-5T5:34:35Z</time></trkpt>
<trkpt lat="46.48157" lon="6.31294"><ele></ele><time>2017-9-5T5:34:38Z</time></trkpt>
<trkpt lat="46.48156" lon="6.31315"><ele></ele><time>2017-9-5T5:34:41Z</time></trkpt>
<trkpt lat="46.48154" lon="6.31326"><ele></ele><time>2017-9-5T5:34:44Z</time></trkpt>
<trkpt lat="46.48152" lon="6.31348"><ele></ele><time>2017-9-5T5:34:47Z</time></trkpt>
<trkpt lat="46.48149" lon="6.31371"><ele></ele><time>2017-9-5T5:34:50Z</time></trkpt>
<trkpt lat="46.48147" lon="6.31383"><ele></ele><time>2017-9-5T5:34:53Z</time></trkpt>
<trkpt lat="46.48146" lon="6.31395"><ele></ele><time>2017-9-5T5:34:56Z</time></trkpt>
<trkpt lat="46.48144" lon="6.3142"><ele></ele><time>2017-9-5T5:34:59Z</time></trkpt>
<trkpt lat="46.48144" lon="6.31432"><ele></ele><time>2017-9-5T5:35:2Z</time></trkpt>
<trkpt lat="46.48143" lon="6.31445"><ele></ele><time>2017-9-5T5:35:5Z</time></trkpt>
<trkpt lat="46.48142" lon="6.3147"><ele></ele><time>2017-9-5T5:35:8Z</time></trkpt>
<trkpt lat="46.48146" lon="6.31492"><ele></ele><time>2017-9-5T5:35:11Z</time></trkpt>
<trkpt lat="46.48152" lon="6.31515"><ele></ele><time>2017-9-5T5:35:14Z</time></trkpt>
<trkpt lat="46.48158" lon="6.31536"><ele></ele><time>2017-9-5T5:35:17Z</time></trkpt>
<trkpt lat="46.48164" lon="6.31557"><ele></ele><time>2017-9-5T5:35:20Z</time></trkpt>
<trkpt lat="46.48167" lon="6.31567"><ele></ele><time>2017-9-5T5:35:23Z</time></trkpt>
<trkpt lat="46.4817" lon="6.31576"><ele></ele><time>2017-9-5T5:35:26Z</time></trkpt>
<trkpt lat="46.48176" lon="6.31595"><ele></ele><time>2017-9-5T5:35:29Z</time></trkpt>
<trkpt lat="46.48182" lon="6.31612"><ele></ele><time>2017-9-5T5:35:32Z</time></trkpt>
<trkpt lat="46.48184" lon="6.3162"><ele></ele><time>2017-9-5T5:35:35Z</time></trkpt>
<trkpt lat="46.48187" lon="6.31629"><ele></ele><time>2017-9-5T5:35:38Z</time></trkpt>
<trkpt lat="46.48191" lon="6.31645"><ele></ele><time>2017-9-5T5:35:41Z</time></trkpt>
<trkpt lat="46.48197" lon="6.31663"><ele></ele><time>2017-9-5T5:35:44Z</time></trkpt>
<trkpt lat="46.482" lon="6.31673"><ele></ele><time>2017-9-5T5:35:47Z</time></trkpt>
<trkpt lat="46.48203" lon="6.31682"><ele></ele><time>2017-9-5T5:35:50Z</time></trkpt>
<trkpt lat="46.48209" lon="6.31703"><ele></ele><time>2017-9-5T5:35:53Z</time></trkpt>
<trkpt lat="46.48215" lon="6.31724"><ele></ele><time>2017-9-5T5:35:56Z</time></trkpt>
<trkpt lat="46.48218" lon="6.31734"><ele></ele><time>2017-9-5T5:35:59Z</time></trkpt>
<trkpt lat="46.48221" lon="6.31744"><ele></ele><time>2017-9-5T5:36:2Z</time></trkpt>
<trkpt lat="46.48222" lon="6.31763"><ele></ele><time>2017-9-5T5:36:5Z</time></trkpt>
<trkpt lat="46.48209" lon="6.31778"><ele></ele><time>2017-9-5T5:36:8Z</time></trkpt>
<trkpt lat="46.48201" lon="6.31784"><ele></ele><time>2017-9-5T5:36:11Z</time></trkpt>
<trkpt lat="46.48192" lon="6.3179"><ele></ele><time>2017-9-5T5:36:14Z</time></trkpt>
<trkpt lat="46.48182" lon="6.31795"><ele></ele><time>2017-9-5T5:36:17Z</time></trkpt>
<trkpt lat="46.48172" lon="6.31801"><ele></ele><time>2017-9-5T5:36:20Z</time></trkpt>
<trkpt lat="46.48162" lon="6.31808"><ele></ele><time>2017-9-5T5:36:23Z</time></trkpt>
<trkpt lat="46.48151" lon="6.31814"><ele></ele><time>2017-9-5T5:36:26Z</time></trkpt>
<trkpt lat="46.48139" lon="6.31822"><ele></ele><time>2017-9-5T5:36:29Z</time></trkpt>
<trkpt lat="46.48127" lon="6.31829"><ele></ele><time>2017-9-5T5:36:32Z</time></trkpt>
<trkpt lat="46.48115" lon="6.31837"><ele></ele><time>2017-9-5T5:36:35Z</time></trkpt>
<trkpt lat="46.48104" lon="6.31844"><ele></ele><time>2017-9-5T5:36:38Z</time></trkpt>
<trkpt lat="46.48092" lon="6.31851"><ele></ele><time>2017-9-5T5:36:41Z</time></trkpt>
<trkpt lat="46.48083" lon="6.31857"><ele></ele><time>2017-9-5T5:36:44Z</time></trkpt>
<trkpt lat="46.48075" lon="6.31862"><ele></ele><time>2017-9-5T5:36:47Z</time></trkpt>
<trkpt lat="46.48068" lon="6.31866"><ele></ele><time>2017-9-5T5:36:50Z</time></trkpt>
<trkpt lat="46.48062" lon="6.31869"><ele></ele><time>2017-9-5T5:36:53Z</time></trkpt>
<trkpt lat="46.48057" lon="6.31872"><ele></ele><time>2017-9-5T5:36:56Z</time></trkpt>
<trkpt lat="46.48052" lon="6.31877"><ele></ele><time>2017-9-5T5:36:59Z</time></trkpt>
<trkpt lat="46.48049" lon="6.31883"><ele></ele><time>2017-9-5T5:37:2Z</time></trkpt>
<trkpt lat="46.48047" lon="6.3189"><ele></ele><time>2017-9-5T5:37:5Z</time></trkpt>
<trkpt lat="46.48048" lon="6.31897"><ele></ele><time>2017-9-5T5:37:8Z</time></trkpt>
<trkpt lat="46.48049" lon="6.31904"><ele></ele><time>2017-9-5T5:37:11Z</time></trkpt>
<trkpt lat="46.48051" lon="6.31911"><ele></ele><time>2017-9-5T5:37:14Z</time></trkpt>
<trkpt lat="46.48053" lon="6.31926"><ele></ele><time>2017-9-5T5:37:17Z</time></trkpt>
<trkpt lat="46.48056" lon="6.3194"><ele></ele><time>2017-9-5T5:37:20Z</time></trkpt>
<trkpt lat="46.48058" lon="6.31955"><ele></ele><time>2017-9-5T5:37:23Z</time></trkpt>
<trkpt lat="46.4806" lon="6.31968"><ele></ele><time>2017-9-5T5:37:26Z</time></trkpt>
<trkpt lat="46.48062" lon="6.31981"><ele></ele><time>2017-9-5T5:37:29Z</time></trkpt>
<trkpt lat="46.48063" lon="6.31991"><ele></ele><time>2017-9-5T5:37:32Z</time></trkpt>
<trkpt lat="46.48063" lon="6.31995"><ele></ele><time>2017-9-5T5:37:35Z</time></trkpt>
<trkpt lat="46.48063" lon="6.32"><ele></ele><time>2017-9-5T5:37:38Z</time></trkpt>
<trkpt lat="46.48063" lon="6.32008"><ele></ele><time>2017-9-5T5:37:41Z</time></trkpt>
<trkpt lat="46.48063" lon="6.32015"><ele></ele><time>2017-9-5T5:37:44Z</time></trkpt>
<trkpt lat="46.48063" lon="6.32017"><ele></ele><time>2017-9-5T5:37:47Z</time></trkpt>
<trkpt lat="46.48063" lon="6.32017"><ele></ele><time>2017-9-5T5:37:50Z</time></trkpt>
<trkpt lat="46.48062" lon="6.32022"><ele></ele><time>2017-9-5T5:37:53Z</time></trkpt>
<trkpt lat="46.4806" lon="6.32025"><ele></ele><time>2017-9-5T5:37:56Z</time></trkpt>
<trkpt lat="46.48054" lon="6.32027"><ele></ele><time>2017-9-5T5:37:59Z</time></trkpt>
<trkpt lat="46.48045" lon="6.32021"><ele></ele><time>2017-9-5T5:38:2Z</time></trkpt>
<trkpt lat="46.48033" lon="6.32013"><ele></ele><time>2017-9-5T5:38:5Z</time></trkpt>
<trkpt lat="46.48019" lon="6.32005"><ele></ele><time>2017-9-5T5:38:8Z</time></trkpt>
<trkpt lat="46.48005" lon="6.31996"><ele></ele><time>2017-9-5T5:38:11Z</time></trkpt>
<trkpt lat="46.47998" lon="6.31989"><ele></ele><time>2017-9-5T5:38:14Z</time></trkpt>
<trkpt lat="46.47993" lon="6.31981"><ele></ele><time>2017-9-5T5:38:17Z</time></trkpt>
<trkpt lat="46.47989" lon="6.31971"><ele></ele><time>2017-9-5T5:38:20Z</time></trkpt>
<trkpt lat="46.47986" lon="6.31959"><ele></ele><time>2017-9-5T5:38:23Z</time></trkpt>
<trkpt lat="46.47984" lon="6.31947"><ele></ele><time>2017-9-5T5:38:26Z</time></trkpt>
<trkpt lat="46.47984" lon="6.31935"><ele></ele><time>2017-9-5T5:38:29Z</time></trkpt>
<trkpt lat="46.47983" lon="6.31923"><ele></ele><time>2017-9-5T5:38:32Z</time></trkpt>
<trkpt lat="46.47981" lon="6.31912"><ele></ele><time>2017-9-5T5:38:35Z</time></trkpt>
<trkpt lat="46.47978" lon="6.31901"><ele></ele><time>2017-9-5T5:38:38Z</time></trkpt>
<trkpt lat="46.47974" lon="6.31891"><ele></ele><time>2017-9-5T5:38:41Z</time></trkpt>
<trkpt lat="46.4797" lon="6.31881"><ele></ele><time>2017-9-5T5:38:44Z</time></trkpt>
<trkpt lat="46.47966" lon="6.31872"><ele></ele><time>2017-9-5T5:38:47Z</time></trkpt>
<trkpt lat="46.47961" lon="6.31864"><ele></ele><time>2017-9-5T5:38:50Z</time></trkpt>
<trkpt lat="46.47956" lon="6.31857"><ele></ele><time>2017-9-5T5:38:53Z</time></trkpt>
<trkpt lat="46.4795" lon="6.3185"><ele></ele><time>2017-9-5T5:38:56Z</time></trkpt>
<trkpt lat="46.47942" lon="6.31846"><ele></ele><time>2017-9-5T5:38:59Z</time></trkpt>
<trkpt lat="46.47925" lon="6.31841"><ele></ele><time>2017-9-5T5:39:2Z</time></trkpt>
<trkpt lat="46.4791" lon="6.31834"><ele></ele><time>2017-9-5T5:39:5Z</time></trkpt>
<trkpt lat="46.47899" lon="6.31817"><ele></ele><time>2017-9-5T5:39:8Z</time></trkpt>
<trkpt lat="46.47893" lon="6.31793"><ele></ele><time>2017-9-5T5:39:11Z</time></trkpt>
<trkpt lat="46.47891" lon="6.31769"><ele></ele><time>2017-9-5T5:39:14Z</time></trkpt>
<trkpt lat="46.47887" lon="6.31758"><ele></ele><time>2017-9-5T5:39:17Z</time></trkpt>
<trkpt lat="46.47881" lon="6.31749"><ele></ele><time>2017-9-5T5:39:20Z</time></trkpt>
<trkpt lat="46.47874" lon="6.3174"><ele></ele><time>2017-9-5T5:39:23Z</time></trkpt>
<trkpt lat="46.47867" lon="6.31731"><ele></ele><time>2017-9-5T5:39:26Z</time></trkpt>
<trkpt lat="46.4786" lon="6.31721"><ele></ele><time>2017-9-5T5:39:29Z</time></trkpt>
<trkpt lat="46.47853" lon="6.31711"><ele></ele><time>2017-9-5T5:39:32Z</time></trkpt>
<trkpt lat="46.47846" lon="6.31701"><ele></ele><time>2017-9-5T5:39:35Z</time></trkpt>
<trkpt lat="46.47839" lon="6.31692"><ele></ele><time>2017-9-5T5:39:38Z</time></trkpt>
<trkpt lat="46.47831" lon="6.31686"><ele></ele><time>2017-9-5T5:39:41Z</time></trkpt>
<trkpt lat="46.47822" lon="6.31682"><ele></ele><time>2017-9-5T5:39:44Z</time></trkpt>
<trkpt lat="46.47812" lon="6.31677"><ele></ele><time>2017-9-5T5:39:47Z</time></trkpt>
<trkpt lat="46.47802" lon="6.31673"><ele></ele><time>2017-9-5T5:39:50Z</time></trkpt>
<trkpt lat="46.47784" lon="6.31662"><ele></ele><time>2017-9-5T5:39:53Z</time></trkpt>
<trkpt lat="46.47777" lon="6.31657"><ele></ele><time>2017-9-5T5:39:56Z</time></trkpt>
<trkpt lat="46.47771" lon="6.31653"><ele></ele><time>2017-9-5T5:39:59Z</time></trkpt>
<trkpt lat="46.47759" lon="6.31644"><ele></ele><time>2017-9-5T5:40:2Z</time></trkpt>
<trkpt lat="46.47747" lon="6.31636"><ele></ele><time>2017-9-5T5:40:5Z</time></trkpt>
<trkpt lat="46.47733" lon="6.31631"><ele></ele><time>2017-9-5T5:40:8Z</time></trkpt>
<trkpt lat="46.47727" lon="6.31627"><ele></ele><time>2017-9-5T5:40:11Z</time></trkpt>
<trkpt lat="46.47721" lon="6.31622"><ele></ele><time>2017-9-5T5:40:14Z</time></trkpt>
<trkpt lat="46.47711" lon="6.3161"><ele></ele><time>2017-9-5T5:40:17Z</time></trkpt>
<trkpt lat="46.47703" lon="6.31592"><ele></ele><time>2017-9-5T5:40:20Z</time></trkpt>
<trkpt lat="46.47699" lon="6.3157"><ele></ele><time>2017-9-5T5:40:23Z</time></trkpt>
<trkpt lat="46.47696" lon="6.31543"><ele></ele><time>2017-9-5T5:40:26Z</time></trkpt>
<trkpt lat="46.47694" lon="6.31514"><ele></ele><time>2017-9-5T5:40:29Z</time></trkpt>
<trkpt lat="46.47693" lon="6.31488"><ele></ele><time>2017-9-5T5:40:32Z</time></trkpt>
<trkpt lat="46.47695" lon="6.31462"><ele></ele><time>2017-9-5T5:40:35Z</time></trkpt>
<trkpt lat="46.47697" lon="6.31434"><ele></ele><time>2017-9-5T5:40:38Z</time></trkpt>
<trkpt lat="46.47698" lon="6.31406"><ele></ele><time>2017-9-5T5:40:41Z</time></trkpt>
<trkpt lat="46.47698" lon="6.31378"><ele></ele><time>2017-9-5T5:40:44Z</time></trkpt>
<trkpt lat="46.47697" lon="6.31365"><ele></ele><time>2017-9-5T5:40:47Z</time></trkpt>
<trkpt lat="46.47694" lon="6.31351"><ele></ele><time>2017-9-5T5:40:50Z</time></trkpt>
<trkpt lat="46.47684" lon="6.31327"><ele></ele><time>2017-9-5T5:40:53Z</time></trkpt>
<trkpt lat="46.47678" lon="6.31315"><ele></ele><time>2017-9-5T5:40:56Z</time></trkpt>
<trkpt lat="46.47671" lon="6.31303"><ele></ele><time>2017-9-5T5:40:59Z</time></trkpt>
<trkpt lat="46.47657" lon="6.3128"><ele></ele><time>2017-9-5T5:41:2Z</time></trkpt>
<trkpt lat="46.4765" lon="6.31269"><ele></ele><time>2017-9-5T5:41:5Z</time></trkpt>
<trkpt lat="46.47643" lon="6.31258"><ele></ele><time>2017-9-5T5:41:8Z</time></trkpt>
<trkpt lat="46.47635" lon="6.31249"><ele></ele><time>2017-9-5T5:41:11Z</time></trkpt>
<trkpt lat="46.47628" lon="6.31241"><ele></ele><time>2017-9-5T5:41:14Z</time></trkpt>
<trkpt lat="46.47621" lon="6.31233"><ele></ele><time>2017-9-5T5:41:17Z</time></trkpt>
<trkpt lat="46.47614" lon="6.31226"><ele></ele><time>2017-9-5T5:41:20Z</time></trkpt>
<trkpt lat="46.47608" lon="6.3122"><ele></ele><time>2017-9-5T5:41:23Z</time></trkpt>
<trkpt lat="46.47602" lon="6.31214"><ele></ele><time>2017-9-5T5:41:26Z</time></trkpt>
<trkpt lat="46.47598" lon="6.31209"><ele></ele><time>2017-9-5T5:41:29Z</time></trkpt>
<trkpt lat="46.47594" lon="6.31205"><ele></ele><time>2017-9-5T5:41:32Z</time></trkpt>
<trkpt lat="46.47591" lon="6.31204"><ele></ele><time>2017-9-5T5:41:35Z</time></trkpt>
<trkpt lat="46.47588" lon="6.31204"><ele></ele><time>2017-9-5T5:41:38Z</time></trkpt>
<trkpt lat="46.47585" lon="6.31208"><ele></ele><time>2017-9-5T5:41:41Z</time></trkpt>
<trkpt lat="46.47584" lon="6.31213"><ele></ele><time>2017-9-5T5:41:44Z</time></trkpt>
<trkpt lat="46.47585" lon="6.3122"><ele></ele><time>2017-9-5T5:41:47Z</time></trkpt>
<trkpt lat="46.47588" lon="6.31229"><ele></ele><time>2017-9-5T5:41:50Z</time></trkpt>
<trkpt lat="46.47592" lon="6.31238"><ele></ele><time>2017-9-5T5:41:53Z</time></trkpt>
<trkpt lat="46.47596" lon="6.31249"><ele></ele><time>2017-9-5T5:41:56Z</time></trkpt>
<trkpt lat="46.476" lon="6.31261"><ele></ele><time>2017-9-5T5:41:59Z</time></trkpt>
<trkpt lat="46.47603" lon="6.31273"><ele></ele><time>2017-9-5T5:42:2Z</time></trkpt>
<trkpt lat="46.47606" lon="6.31287"><ele></ele><time>2017-9-5T5:42:5Z</time></trkpt>
<trkpt lat="46.47609" lon="6.313"><ele></ele><time>2017-9-5T5:42:8Z</time></trkpt>
<trkpt lat="46.47611" lon="6.31315"><ele></ele><time>2017-9-5T5:42:11Z</time></trkpt>
<trkpt lat="46.47611" lon="6.31329"><ele></ele><time>2017-9-5T5:42:14Z</time></trkpt>
<trkpt lat="46.47609" lon="6.31344"><ele></ele><time>2017-9-5T5:42:17Z</time></trkpt>
<trkpt lat="46.47604" lon="6.31358"><ele></ele><time>2017-9-5T5:42:20Z</time></trkpt>
<trkpt lat="46.47599" lon="6.31371"><ele></ele><time>2017-9-5T5:42:23Z</time></trkpt>
<trkpt lat="46.47593" lon="6.31384"><ele></ele><time>2017-9-5T5:42:26Z</time></trkpt>
<trkpt lat="46.47588" lon="6.31396"><ele></ele><time>2017-9-5T5:42:29Z</time></trkpt>
<trkpt lat="46.47582" lon="6.31407"><ele></ele><time>2017-9-5T5:42:32Z</time></trkpt>
<trkpt lat="46.47575" lon="6.31415"><ele></ele><time>2017-9-5T5:42:35Z</time></trkpt>
<trkpt lat="46.47567" lon="6.31421"><ele></ele><time>2017-9-5T5:42:38Z</time></trkpt>
<trkpt lat="46.47558" lon="6.31424"><ele></ele><time>2017-9-5T5:42:41Z</time></trkpt>
<trkpt lat="46.47549" lon="6.31424"><ele></ele><time>2017-9-5T5:42:44Z</time></trkpt>
<trkpt lat="46.47539" lon="6.31422"><ele></ele><time>2017-9-5T5:42:47Z</time></trkpt>
<trkpt lat="46.47529" lon="6.3142"><ele></ele><time>2017-9-5T5:42:50Z</time></trkpt>
<trkpt lat="46.47519" lon="6.31417"><ele></ele><time>2017-9-5T5:42:53Z</time></trkpt>
<trkpt lat="46.47508" lon="6.31414"><ele></ele><time>2017-9-5T5:42:56Z</time></trkpt>
<trkpt lat="46.47498" lon="6.31411"><ele></ele><time>2017-9-5T5:42:59Z</time></trkpt>
<trkpt lat="46.47489" lon="6.31407"><ele></ele><time>2017-9-5T5:43:2Z</time></trkpt>
<trkpt lat="46.47481" lon="6.31404"><ele></ele><time>2017-9-5T5:43:5Z</time></trkpt>
<trkpt lat="46.47474" lon="6.31401"><ele></ele><time>2017-9-5T5:43:8Z</time></trkpt>
<trkpt lat="46.47468" lon="6.31399"><ele></ele><time>2017-9-5T5:43:11Z</time></trkpt>
<trkpt lat="46.47464" lon="6.31398"><ele></ele><time>2017-9-5T5:43:14Z</time></trkpt>
<trkpt lat="46.47461" lon="6.31398"><ele></ele><time>2017-9-5T5:43:17Z</time></trkpt>
<trkpt lat="46.47459" lon="6.31398"><ele></ele><time>2017-9-5T5:43:20Z</time></trkpt>
<trkpt lat="46.47458" lon="6.31399"><ele></ele><time>2017-9-5T5:43:23Z</time></trkpt>
<trkpt lat="46.47458" lon="6.31399"><ele></ele><time>2017-9-5T5:43:26Z</time></trkpt>
<trkpt lat="46.47455" lon="6.314"><ele></ele><time>2017-9-5T5:43:29Z</time></trkpt>
<trkpt lat="46.47448" lon="6.31403"><ele></ele><time>2017-9-5T5:43:32Z</time></trkpt>
<trkpt lat="46.47444" lon="6.31406"><ele></ele><time>2017-9-5T5:43:35Z</time></trkpt>
<trkpt lat="46.47439" lon="6.3141"><ele></ele><time>2017-9-5T5:43:38Z</time></trkpt>
<trkpt lat="46.47428" lon="6.31421"><ele></ele><time>2017-9-5T5:43:41Z</time></trkpt>
<trkpt lat="46.47415" lon="6.31434"><ele></ele><time>2017-9-5T5:43:44Z</time></trkpt>
<trkpt lat="46.474" lon="6.31443"><ele></ele><time>2017-9-5T5:43:47Z</time></trkpt>
<trkpt lat="46.47383" lon="6.3145"><ele></ele><time>2017-9-5T5:43:50Z</time></trkpt>
<trkpt lat="46.47375" lon="6.31452"><ele></ele><time>2017-9-5T5:43:53Z</time></trkpt>
<trkpt lat="46.47367" lon="6.31454"><ele></ele><time>2017-9-5T5:43:56Z</time></trkpt>
<trkpt lat="46.4736" lon="6.31457"><ele></ele><time>2017-9-5T5:43:59Z</time></trkpt>
<trkpt lat="46.47354" lon="6.3146"><ele></ele><time>2017-9-5T5:44:2Z</time></trkpt>
<trkpt lat="46.47347" lon="6.31462"><ele></ele><time>2017-9-5T5:44:5Z</time></trkpt>
<trkpt lat="46.47342" lon="6.31465"><ele></ele><time>2017-9-5T5:44:8Z</time></trkpt>
<trkpt lat="46.47336" lon="6.31467"><ele></ele><time>2017-9-5T5:44:11Z</time></trkpt>
<trkpt lat="46.47329" lon="6.31468"><ele></ele><time>2017-9-5T5:44:14Z</time></trkpt>
<trkpt lat="46.47316" lon="6.31473"><ele></ele><time>2017-9-5T5:44:17Z</time></trkpt>
<trkpt lat="46.47301" lon="6.31478"><ele></ele><time>2017-9-5T5:44:20Z</time></trkpt>
<trkpt lat="46.47286" lon="6.31484"><ele></ele><time>2017-9-5T5:44:23Z</time></trkpt>
<trkpt lat="46.4727" lon="6.31493"><ele></ele><time>2017-9-5T5:44:26Z</time></trkpt>
<trkpt lat="46.47255" lon="6.31503"><ele></ele><time>2017-9-5T5:44:29Z</time></trkpt>
<trkpt lat="46.47249" lon="6.3151"><ele></ele><time>2017-9-5T5:44:32Z</time></trkpt>
<trkpt lat="46.47244" lon="6.31517"><ele></ele><time>2017-9-5T5:44:35Z</time></trkpt>
<trkpt lat="46.47238" lon="6.31541"><ele></ele><time>2017-9-5T5:44:38Z</time></trkpt>
<trkpt lat="46.47237" lon="6.31556"><ele></ele><time>2017-9-5T5:44:41Z</time></trkpt>
<trkpt lat="46.47236" lon="6.31572"><ele></ele><time>2017-9-5T5:44:44Z</time></trkpt>
<trkpt lat="46.47235" lon="6.31589"><ele></ele><time>2017-9-5T5:44:47Z</time></trkpt>
<trkpt lat="46.47234" lon="6.31607"><ele></ele><time>2017-9-5T5:44:50Z</time></trkpt>
<trkpt lat="46.47233" lon="6.31624"><ele></ele><time>2017-9-5T5:44:53Z</time></trkpt>
<trkpt lat="46.47233" lon="6.31641"><ele></ele><time>2017-9-5T5:44:56Z</time></trkpt>
<trkpt lat="46.47233" lon="6.31658"><ele></ele><time>2017-9-5T5:44:59Z</time></trkpt>
<trkpt lat="46.47231" lon="6.31673"><ele></ele><time>2017-9-5T5:45:2Z</time></trkpt>
<trkpt lat="46.4723" lon="6.31689"><ele></ele><time>2017-9-5T5:45:5Z</time></trkpt>
<trkpt lat="46.47228" lon="6.31703"><ele></ele><time>2017-9-5T5:45:8Z</time></trkpt>
<trkpt lat="46.47227" lon="6.31716"><ele></ele><time>2017-9-5T5:45:11Z</time></trkpt>
<trkpt lat="46.47227" lon="6.31729"><ele></ele><time>2017-9-5T5:45:14Z</time></trkpt>
<trkpt lat="46.47227" lon="6.31739"><ele></ele><time>2017-9-5T5:45:17Z</time></trkpt>
<trkpt lat="46.47227" lon="6.31748"><ele></ele><time>2017-9-5T5:45:20Z</time></trkpt>
<trkpt lat="46.47228" lon="6.31756"><ele></ele><time>2017-9-5T5:45:23Z</time></trkpt>
<trkpt lat="46.47229" lon="6.31762"><ele></ele><time>2017-9-5T5:45:26Z</time></trkpt>
<trkpt lat="46.47231" lon="6.31769"><ele></ele><time>2017-9-5T5:45:29Z</time></trkpt>
<trkpt lat="46.47232" lon="6.31772"><ele></ele><time>2017-9-5T5:45:32Z</time></trkpt>
<trkpt lat="46.47233" lon="6.31775"><ele></ele><time>2017-9-5T5:45:35Z</time></trkpt>
<trkpt lat="46.47236" lon="6.31781"><ele></ele><time>2017-9-5T5:45:38Z</time></trkpt>
<trkpt lat="46.47238" lon="6.31784"><ele></ele><time>2017-9-5T5:45:41Z</time></trkpt>
<trkpt lat="46.47239" lon="6.31787"><ele></ele><time>2017-9-5T5:45:44Z</time></trkpt>
<trkpt lat="46.47241" lon="6.31794"><ele></ele><time>2017-9-5T5:45:47Z</time></trkpt>
<trkpt lat="46.47244" lon="6.31802"><ele></ele><time>2017-9-5T5:45:50Z</time></trkpt>
<trkpt lat="46.47247" lon="6.31809"><ele></ele><time>2017-9-5T5:45:53Z</time></trkpt>
<trkpt lat="46.47249" lon="6.31812"><ele></ele><time>2017-9-5T5:45:56Z</time></trkpt>
<trkpt lat="46.47251" lon="6.31816"><ele></ele><time>2017-9-5T5:45:59Z</time></trkpt>
<trkpt lat="46.47254" lon="6.31823"><ele></ele><time>2017-9-5T5:46:2Z</time></trkpt>
<trkpt lat="46.47257" lon="6.3183"><ele></ele><time>2017-9-5T5:46:5Z</time></trkpt>
<trkpt lat="46.47262" lon="6.31836"><ele></ele><time>2017-9-5T5:46:8Z</time></trkpt>
<trkpt lat="46.47266" lon="6.31841"><ele></ele><time>2017-9-5T5:46:11Z</time></trkpt>
<trkpt lat="46.47272" lon="6.31846"><ele></ele><time>2017-9-5T5:46:14Z</time></trkpt>
<trkpt lat="46.47277" lon="6.3185"><ele></ele><time>2017-9-5T5:46:17Z</time></trkpt>
<trkpt lat="46.47283" lon="6.31851"><ele></ele><time>2017-9-5T5:46:20Z</time></trkpt>
<trkpt lat="46.47289" lon="6.31854"><ele></ele><time>2017-9-5T5:46:23Z</time></trkpt>
<trkpt lat="46.47294" lon="6.31856"><ele></ele><time>2017-9-5T5:46:26Z</time></trkpt>
<trkpt lat="46.47298" lon="6.31857"><ele></ele><time>2017-9-5T5:46:29Z</time></trkpt>
<trkpt lat="46.47302" lon="6.31856"><ele></ele><time>2017-9-5T5:46:32Z</time></trkpt>
<trkpt lat="46.47306" lon="6.31856"><ele></ele><time>2017-9-5T5:46:35Z</time></trkpt>
<trkpt lat="46.47311" lon="6.31859"><ele></ele><time>2017-9-5T5:46:38Z</time></trkpt>
<trkpt lat="46.47314" lon="6.31864"><ele></ele><time>2017-9-5T5:46:41Z</time></trkpt>
<trkpt lat="46.47319" lon="6.31869"><ele></ele><time>2017-9-5T5:46:44Z</time></trkpt>
<trkpt lat="46.47321" lon="6.31872"><ele></ele><time>2017-9-5T5:46:47Z</time></trkpt>
<trkpt lat="46.47323" lon="6.31874"><ele></ele><time>2017-9-5T5:46:50Z</time></trkpt>
<trkpt lat="46.47328" lon="6.31879"><ele></ele><time>2017-9-5T5:46:53Z</time></trkpt>
<trkpt lat="46.47332" lon="6.31885"><ele></ele><time>2017-9-5T5:46:56Z</time></trkpt>
<trkpt lat="46.47337" lon="6.31892"><ele></ele><time>2017-9-5T5:46:59Z</time></trkpt>
<trkpt lat="46.47341" lon="6.31898"><ele></ele><time>2017-9-5T5:47:2Z</time></trkpt>
<trkpt lat="46.47345" lon="6.31903"><ele></ele><time>2017-9-5T5:47:5Z</time></trkpt>
<trkpt lat="46.47349" lon="6.31909"><ele></ele><time>2017-9-5T5:47:8Z</time></trkpt>
<trkpt lat="46.47354" lon="6.31914"><ele></ele><time>2017-9-5T5:47:11Z</time></trkpt>
<trkpt lat="46.47359" lon="6.31919"><ele></ele><time>2017-9-5T5:47:14Z</time></trkpt>
<trkpt lat="46.47366" lon="6.31922"><ele></ele><time>2017-9-5T5:47:17Z</time></trkpt>
<trkpt lat="46.47372" lon="6.31926"><ele></ele><time>2017-9-5T5:47:20Z</time></trkpt>
<trkpt lat="46.47378" lon="6.3193"><ele></ele><time>2017-9-5T5:47:23Z</time></trkpt>
<trkpt lat="46.47384" lon="6.31934"><ele></ele><time>2017-9-5T5:47:26Z</time></trkpt>
<trkpt lat="46.47389" lon="6.31937"><ele></ele><time>2017-9-5T5:47:29Z</time></trkpt>
<trkpt lat="46.47394" lon="6.31941"><ele></ele><time>2017-9-5T5:47:32Z</time></trkpt>
<trkpt lat="46.47395" lon="6.31944"><ele></ele><time>2017-9-5T5:47:35Z</time></trkpt>
<trkpt lat="46.47396" lon="6.31948"><ele></ele><time>2017-9-5T5:47:38Z</time></trkpt>
<trkpt lat="46.47396" lon="6.31958"><ele></ele><time>2017-9-5T5:47:41Z</time></trkpt>
<trkpt lat="46.47392" lon="6.31969"><ele></ele><time>2017-9-5T5:47:44Z</time></trkpt>
<trkpt lat="46.47384" lon="6.31979"><ele></ele><time>2017-9-5T5:47:47Z</time></trkpt>
<trkpt lat="46.47379" lon="6.31984"><ele></ele><time>2017-9-5T5:47:50Z</time></trkpt>
<trkpt lat="46.47374" lon="6.31989"><ele></ele><time>2017-9-5T5:47:53Z</time></trkpt>
<trkpt lat="46.47363" lon="6.32"><ele></ele><time>2017-9-5T5:47:56Z</time></trkpt>
<trkpt lat="46.47351" lon="6.32012"><ele></ele><time>2017-9-5T5:47:59Z</time></trkpt>
<trkpt lat="46.47338" lon="6.32027"><ele></ele><time>2017-9-5T5:48:2Z</time></trkpt>
<trkpt lat="46.47332" lon="6.32036"><ele></ele><time>2017-9-5T5:48:5Z</time></trkpt>
<trkpt lat="46.47326" lon="6.32046"><ele></ele><time>2017-9-5T5:48:8Z</time></trkpt>
<trkpt lat="46.47316" lon="6.32067"><ele></ele><time>2017-9-5T5:48:11Z</time></trkpt>
<trkpt lat="46.47312" lon="6.32078"><ele></ele><time>2017-9-5T5:48:14Z</time></trkpt>
<trkpt lat="46.47309" lon="6.32088"><ele></ele><time>2017-9-5T5:48:17Z</time></trkpt>
<trkpt lat="46.47304" lon="6.32109"><ele></ele><time>2017-9-5T5:48:20Z</time></trkpt>
<trkpt lat="46.47301" lon="6.32129"><ele></ele><time>2017-9-5T5:48:23Z</time></trkpt>
<trkpt lat="46.473" lon="6.32144"><ele></ele><time>2017-9-5T5:48:26Z</time></trkpt>
<trkpt lat="46.47296" lon="6.32153"><ele></ele><time>2017-9-5T5:48:29Z</time></trkpt>
<trkpt lat="46.47291" lon="6.32152"><ele></ele><time>2017-9-5T5:48:32Z</time></trkpt>
<trkpt lat="46.47286" lon="6.32143"><ele></ele><time>2017-9-5T5:48:35Z</time></trkpt>
<trkpt lat="46.47284" lon="6.32137"><ele></ele><time>2017-9-5T5:48:38Z</time></trkpt>
<trkpt lat="46.47283" lon="6.32132"><ele></ele><time>2017-9-5T5:48:41Z</time></trkpt>
<trkpt lat="46.47282" lon="6.32129"><ele></ele><time>2017-9-5T5:48:44Z</time></trkpt>
<trkpt lat="46.47279" lon="6.3213"><ele></ele><time>2017-9-5T5:48:47Z</time></trkpt>
<trkpt lat="46.47276" lon="6.32135"><ele></ele><time>2017-9-5T5:48:50Z</time></trkpt>
<trkpt lat="46.47276" lon="6.32139"><ele></ele><time>2017-9-5T5:48:53Z</time></trkpt>
<trkpt lat="46.47276" lon="6.32141"><ele></ele><time>2017-9-5T5:48:56Z</time></trkpt>
<trkpt lat="46.47276" lon="6.32143"><ele></ele><time>2017-9-5T5:48:59Z</time></trkpt>
</trkseg></trk></gpx>